<?xml version='1.0' encoding='UTF-8'?><gpx version="1.1" creator="JPX - https://github.com/jenetics/jpx" xmlns="http://www.topografix.com/GPX/1/1"><trk><trkseg><trkpt lat="42.570493979074556" lon="12.538386139012808"><ele>121.00000000000001</ele><time>2026-04-04T11:38:47.995Z</time></trkpt><trkpt lat="42.57049538483595" lon="12.538293174353738"><ele>121.0</ele><time>2026-04-04T11:38:49.995Z</time></trkpt><trkpt lat="42.57049621791657" lon="12.538198961134565"><ele>121.0</ele><time>2026-04-04T11:38:51.994Z</time></trkpt><trkpt lat="42.57050217759864" lon="12.538103566133495"><ele>121.0</ele><time>2026-04-04T11:38:53.994Z</time></trkpt><trkpt lat="42.570503972605884" lon="12.53796322562069"><ele>121.00000000000001</ele><time>2026-04-04T11:38:56.994Z</time></trkpt><trkpt lat="42.570501407298465" lon="12.5378678630044"><ele>121.0</ele><time>2026-04-04T11:38:58.994Z</time></trkpt><trkpt lat="42.570465234992646" lon="12.537957289912827"><ele>121.0</ele><time>2026-04-04T11:39:31.995Z</time></trkpt><trkpt lat="42.570453635587924" lon="12.538056689518061"><ele>120.99999999999999</ele><time>2026-04-04T11:39:35.995Z</time></trkpt><trkpt lat="42.570448820096026" lon="12.538145991456059"><ele>121.0</ele><time>2026-04-04T11:39:39.995Z</time></trkpt><trkpt lat="42.57044671128495" lon="12.538242654440996"><ele>121.0</ele><time>2026-04-04T11:39:43.995Z</time></trkpt><trkpt lat="42.5704969120305" lon="12.538294255960425"><ele>120.99999999999999</ele><time>2026-04-04T11:39:45.995Z</time></trkpt><trkpt lat="42.57043221760935" lon="12.538374878838427"><ele>121.0</ele><time>2026-04-04T11:39:48.995Z</time></trkpt><trkpt lat="42.570449133438835" lon="12.538459194969404"><ele>121.0</ele><time>2026-04-04T11:39:52.995Z</time></trkpt><trkpt lat="42.57039846764059" lon="12.53853591474015"><ele>120.8</ele><time>2026-04-04T11:39:55.995Z</time></trkpt><trkpt lat="42.57030239546189" lon="12.538588798328695"><ele>120.6</ele><time>2026-04-04T11:40:17.994Z</time></trkpt><trkpt lat="42.57023153434555" lon="12.538592827335787"><ele>120.4</ele><time>2026-04-04T11:40:20.994Z</time></trkpt><trkpt lat="42.57018958668663" lon="12.538686480371393"><ele>120.2</ele><time>2026-04-04T11:40:23.994Z</time></trkpt><trkpt lat="42.57017061579324" lon="12.538810421828444"><ele>120.0</ele><time>2026-04-04T11:40:26.994Z</time></trkpt><trkpt lat="42.57019029638521" lon="12.538971695928838"><ele>119.66666666666667</ele><time>2026-04-04T11:40:28.994Z</time></trkpt><trkpt lat="42.57021567528374" lon="12.539130597334367"><ele>119.33333333333334</ele><time>2026-04-04T11:40:30.994Z</time></trkpt><trkpt lat="42.57027575615314" lon="12.539198569356591"><ele>119.0</ele><time>2026-04-04T11:40:32.994Z</time></trkpt><trkpt lat="42.570323036528464" lon="12.539137837998778"><ele>118.66666666666667</ele><time>2026-04-04T11:40:35.994Z</time></trkpt><trkpt lat="42.57032098289859" lon="12.539051509926706"><ele>118.33333333333334</ele><time>2026-04-04T11:40:36.994Z</time></trkpt><trkpt lat="42.57031687951658" lon="12.538947925229236"><ele>118.0</ele><time>2026-04-04T11:40:37.994Z</time></trkpt><trkpt lat="42.57032726098196" lon="12.53877746100831"><ele>118.33333333333334</ele><time>2026-04-04T11:40:39.994Z</time></trkpt><trkpt lat="42.57032913077873" lon="12.538689911465298"><ele>118.66666666666667</ele><time>2026-04-04T11:40:40.994Z</time></trkpt><trkpt lat="42.57036241294773" lon="12.538555261380395"><ele>119.0</ele><time>2026-04-04T11:40:42.994Z</time></trkpt><trkpt lat="42.570410753512576" lon="12.53849887903669"><ele>119.33333333333334</ele><time>2026-04-04T11:40:43.994Z</time></trkpt><trkpt lat="42.57052670779819" lon="12.538498426913911"><ele>119.66666666666667</ele><time>2026-04-04T11:40:45.994Z</time></trkpt><trkpt lat="42.57061567271093" lon="12.538508879476701"><ele>120.0</ele><time>2026-04-04T11:40:46.994Z</time></trkpt><trkpt lat="42.57071316695115" lon="12.53854470597447"><ele>120.25</ele><time>2026-04-04T11:40:47.994Z</time></trkpt><trkpt lat="42.570863637219105" lon="12.53856639795295"><ele>120.5</ele><time>2026-04-04T11:40:48.994Z</time></trkpt><trkpt lat="42.57100432461462" lon="12.538617593934516"><ele>120.75</ele><time>2026-04-04T11:40:49.994Z</time></trkpt><trkpt lat="42.571134650273336" lon="12.538643321802148"><ele>121.0</ele><time>2026-04-04T11:40:50.994Z</time></trkpt><trkpt lat="42.57124128349857" lon="12.538663035133384"><ele>121.0</ele><time>2026-04-04T11:40:51.994Z</time></trkpt><trkpt lat="42.57133126211424" lon="12.538676642426559"><ele>121.0</ele><time>2026-04-04T11:40:52.994Z</time></trkpt><trkpt lat="42.571439687315845" lon="12.538690075867224"><ele>121.0</ele><time>2026-04-04T11:40:53.994Z</time></trkpt><trkpt lat="42.57154687470503" lon="12.538703355960566"><ele>121.0</ele><time>2026-04-04T11:40:54.994Z</time></trkpt><trkpt lat="42.5716291283847" lon="12.538716929130281"><ele>121.0</ele><time>2026-04-04T11:40:55.994Z</time></trkpt><trkpt lat="42.57170297198641" lon="12.538744296937224"><ele>121.0</ele><time>2026-04-04T11:40:56.994Z</time></trkpt><trkpt lat="42.5717663151189" lon="12.538732328938679"><ele>121.0</ele><time>2026-04-04T11:40:57.994Z</time></trkpt><trkpt lat="42.57185113006763" lon="12.538772081023836"><ele>121.0</ele><time>2026-04-04T11:40:59.994Z</time></trkpt><trkpt lat="42.57190507145839" lon="12.538706078923868"><ele>121.0</ele><time>2026-04-04T11:41:03.994Z</time></trkpt><trkpt lat="42.57173041845462" lon="12.538597628765393"><ele>121.0</ele><time>2026-04-04T11:41:07.994Z</time></trkpt><trkpt lat="42.571651130207364" lon="12.538561414334152"><ele>121.25</ele><time>2026-04-04T11:41:08.994Z</time></trkpt><trkpt lat="42.571541655683355" lon="12.538532214108345"><ele>121.5</ele><time>2026-04-04T11:41:09.994Z</time></trkpt><trkpt lat="42.571433458829965" lon="12.538518453905905"><ele>121.75</ele><time>2026-04-04T11:41:10.994Z</time></trkpt><trkpt lat="42.57132240467096" lon="12.538482047370628"><ele>122.0</ele><time>2026-04-04T11:41:11.993Z</time></trkpt><trkpt lat="42.57119623064143" lon="12.538446973913704"><ele>121.75</ele><time>2026-04-04T11:41:12.993Z</time></trkpt><trkpt lat="42.57106009270517" lon="12.538411197771547"><ele>121.5</ele><time>2026-04-04T11:41:13.993Z</time></trkpt><trkpt lat="42.5709199483745" lon="12.538374352407509"><ele>121.25</ele><time>2026-04-04T11:41:14.994Z</time></trkpt><trkpt lat="42.570777902935156" lon="12.53832878435765"><ele>121.0</ele><time>2026-04-04T11:41:15.994Z</time></trkpt><trkpt lat="42.570634143884085" lon="12.538286918501127"><ele>121.0</ele><time>2026-04-04T11:41:16.994Z</time></trkpt><trkpt lat="42.57049199355775" lon="12.53825438873328"><ele>121.0</ele><time>2026-04-04T11:41:17.994Z</time></trkpt><trkpt lat="42.57035373846355" lon="12.538225983294318"><ele>121.0</ele><time>2026-04-04T11:41:18.994Z</time></trkpt><trkpt lat="42.570209712599656" lon="12.538197541142702"><ele>121.0</ele><time>2026-04-04T11:41:19.994Z</time></trkpt><trkpt lat="42.570069273016195" lon="12.538180422743094"><ele>120.75</ele><time>2026-04-04T11:41:20.994Z</time></trkpt><trkpt lat="42.569927459094664" lon="12.538156382643342"><ele>120.5</ele><time>2026-04-04T11:41:21.994Z</time></trkpt><trkpt lat="42.56979454590045" lon="12.538128121982062"><ele>120.25</ele><time>2026-04-04T11:41:22.994Z</time></trkpt><trkpt lat="42.569658614654" lon="12.538103582984787"><ele>120.0</ele><time>2026-04-04T11:41:23.993Z</time></trkpt><trkpt lat="42.56952574222171" lon="12.538079840899693"><ele>120.75</ele><time>2026-04-04T11:41:24.993Z</time></trkpt><trkpt lat="42.56938738241512" lon="12.538054252597398"><ele>121.5</ele><time>2026-04-04T11:41:25.993Z</time></trkpt><trkpt lat="42.5692497429564" lon="12.538027295079045"><ele>122.25</ele><time>2026-04-04T11:41:26.993Z</time></trkpt><trkpt lat="42.569119981978126" lon="12.537996358893157"><ele>123.0</ele><time>2026-04-04T11:41:27.993Z</time></trkpt><trkpt lat="42.568998058099794" lon="12.537965617829968"><ele>123.0</ele><time>2026-04-04T11:41:28.993Z</time></trkpt><trkpt lat="42.568878776822345" lon="12.537938782195093"><ele>123.00000000000001</ele><time>2026-04-04T11:41:29.993Z</time></trkpt><trkpt lat="42.56877494073665" lon="12.537914155320466"><ele>123.00000000000001</ele><time>2026-04-04T11:41:30.993Z</time></trkpt><trkpt lat="42.56867512328683" lon="12.537899302989755"><ele>123.0</ele><time>2026-04-04T11:41:31.993Z</time></trkpt><trkpt lat="42.56857450777339" lon="12.537884778393739"><ele>123.0</ele><time>2026-04-04T11:41:32.993Z</time></trkpt><trkpt lat="42.56846020535525" lon="12.537864054007796"><ele>124.25</ele><time>2026-04-04T11:41:33.993Z</time></trkpt><trkpt lat="42.56833376035891" lon="12.537845877027273"><ele>125.5</ele><time>2026-04-04T11:41:34.993Z</time></trkpt><trkpt lat="42.568202695071726" lon="12.53782082009088"><ele>126.75</ele><time>2026-04-04T11:41:35.993Z</time></trkpt><trkpt lat="42.56807537343625" lon="12.537793066972558"><ele>128.0</ele><time>2026-04-04T11:41:36.993Z</time></trkpt><trkpt lat="42.567961098071464" lon="12.537759707637397"><ele>128.20000000000002</ele><time>2026-04-04T11:41:37.993Z</time></trkpt><trkpt lat="42.5678417479862" lon="12.537731327363415"><ele>128.4</ele><time>2026-04-04T11:41:38.993Z</time></trkpt><trkpt lat="42.56772803466145" lon="12.537704326678789"><ele>128.60000000000002</ele><time>2026-04-04T11:41:39.993Z</time></trkpt><trkpt lat="42.56763395250648" lon="12.537677207196559"><ele>128.8</ele><time>2026-04-04T11:41:40.993Z</time></trkpt><trkpt lat="42.56755464471909" lon="12.537655023466261"><ele>129.0</ele><time>2026-04-04T11:41:41.993Z</time></trkpt><trkpt lat="42.56749563943487" lon="12.537624439155449"><ele>129.0</ele><time>2026-04-04T11:41:42.993Z</time></trkpt><trkpt lat="42.567461766796114" lon="12.537463261356494"><ele>129.0</ele><time>2026-04-04T11:41:44.993Z</time></trkpt><trkpt lat="42.567462678897755" lon="12.53734579870322"><ele>129.0</ele><time>2026-04-04T11:41:45.993Z</time></trkpt><trkpt lat="42.56745582528055" lon="12.537197034246457"><ele>129.0</ele><time>2026-04-04T11:41:46.993Z</time></trkpt><trkpt lat="42.567463603627836" lon="12.537085740100434"><ele>129.0</ele><time>2026-04-04T11:41:47.993Z</time></trkpt><trkpt lat="42.567461111665956" lon="12.536971386191583"><ele>129.16666666666666</ele><time>2026-04-04T11:41:48.993Z</time></trkpt><trkpt lat="42.56745722168495" lon="12.53688010249767"><ele>129.33333333333334</ele><time>2026-04-04T11:41:49.993Z</time></trkpt><trkpt lat="42.567451278136346" lon="12.536764831236805"><ele>129.5</ele><time>2026-04-04T11:41:50.993Z</time></trkpt><trkpt lat="42.56744146669527" lon="12.536636926199556"><ele>129.66666666666669</ele><time>2026-04-04T11:41:51.993Z</time></trkpt><trkpt lat="42.567435938815414" lon="12.53651942052343"><ele>129.83333333333334</ele><time>2026-04-04T11:41:52.993Z</time></trkpt><trkpt lat="42.56743973139898" lon="12.536409237907757"><ele>130.0</ele><time>2026-04-04T11:41:53.993Z</time></trkpt><trkpt lat="42.56744592582062" lon="12.536315084930594"><ele>130.5</ele><time>2026-04-04T11:41:54.993Z</time></trkpt><trkpt lat="42.56745944506716" lon="12.53620713296759"><ele>131.0</ele><time>2026-04-04T11:41:55.993Z</time></trkpt><trkpt lat="42.56746555113448" lon="12.536099781047326"><ele>131.5</ele><time>2026-04-04T11:41:56.993Z</time></trkpt><trkpt lat="42.56749396347742" lon="12.536004722052907"><ele>132.0</ele><time>2026-04-04T11:41:57.993Z</time></trkpt><trkpt lat="42.56751266692439" lon="12.535903143569087"><ele>132.5</ele><time>2026-04-04T11:41:58.993Z</time></trkpt><trkpt lat="42.567456869444314" lon="12.535778438878475"><ele>133.0</ele><time>2026-04-04T11:41:59.993Z</time></trkpt><trkpt lat="42.56744802341065" lon="12.535679682597868"><ele>133.0</ele><time>2026-04-04T11:42:00.993Z</time></trkpt><trkpt lat="42.56744226395934" lon="12.535594386574305"><ele>133.0</ele><time>2026-04-04T11:42:01.993Z</time></trkpt><trkpt lat="42.567435620906814" lon="12.535493497875793"><ele>133.0</ele><time>2026-04-04T11:42:02.993Z</time></trkpt><trkpt lat="42.56742916038829" lon="12.535387328006092"><ele>133.0</ele><time>2026-04-04T11:42:03.993Z</time></trkpt><trkpt lat="42.56742190101856" lon="12.53527177462001"><ele>133.0</ele><time>2026-04-04T11:42:04.993Z</time></trkpt><trkpt lat="42.56741778877231" lon="12.535166536437066"><ele>133.0</ele><time>2026-04-04T11:42:05.993Z</time></trkpt><trkpt lat="42.56741013392063" lon="12.535064961025583"><ele>133.0</ele><time>2026-04-04T11:42:06.993Z</time></trkpt><trkpt lat="42.567403059707274" lon="12.534957774456137"><ele>133.0</ele><time>2026-04-04T11:42:07.993Z</time></trkpt><trkpt lat="42.567394077021746" lon="12.534844363191239"><ele>133.0</ele><time>2026-04-04T11:42:08.993Z</time></trkpt><trkpt lat="42.56738650513614" lon="12.534737054310044"><ele>133.0</ele><time>2026-04-04T11:42:09.993Z</time></trkpt><trkpt lat="42.56737978242054" lon="12.534622929619584"><ele>133.0</ele><time>2026-04-04T11:42:10.993Z</time></trkpt><trkpt lat="42.5673756649899" lon="12.534508519399967"><ele>133.0</ele><time>2026-04-04T11:42:11.993Z</time></trkpt><trkpt lat="42.56736605495525" lon="12.534397057181502"><ele>133.0</ele><time>2026-04-04T11:42:12.993Z</time></trkpt><trkpt lat="42.56736130212479" lon="12.534280037274566"><ele>133.0</ele><time>2026-04-04T11:42:13.993Z</time></trkpt><trkpt lat="42.56735575445182" lon="12.534165703458273"><ele>133.0</ele><time>2026-04-04T11:42:14.993Z</time></trkpt><trkpt lat="42.56735012597357" lon="12.53405641413828"><ele>133.0</ele><time>2026-04-04T11:42:15.992Z</time></trkpt><trkpt lat="42.567342786151045" lon="12.533965825505181"><ele>133.0</ele><time>2026-04-04T11:42:16.992Z</time></trkpt><trkpt lat="42.56731097682162" lon="12.533816892596583"><ele>133.0</ele><time>2026-04-04T11:42:18.992Z</time></trkpt><trkpt lat="42.56731640860932" lon="12.533660434032052"><ele>133.33333333333334</ele><time>2026-04-04T11:42:20.992Z</time></trkpt><trkpt lat="42.56732669737057" lon="12.533504830810273"><ele>133.66666666666669</ele><time>2026-04-04T11:42:22.992Z</time></trkpt><trkpt lat="42.56732166532" lon="12.53341519681442"><ele>134.0</ele><time>2026-04-04T11:42:23.992Z</time></trkpt><trkpt lat="42.56732368828221" lon="12.533277452033579"><ele>134.33333333333334</ele><time>2026-04-04T11:42:25.992Z</time></trkpt><trkpt lat="42.56731735071058" lon="12.533178257814594"><ele>134.66666666666666</ele><time>2026-04-04T11:42:27.992Z</time></trkpt><trkpt lat="42.567360110102044" lon="12.533115305601381"><ele>135.0</ele><time>2026-04-04T11:42:29.992Z</time></trkpt><trkpt lat="42.56745649237543" lon="12.5330973234626"><ele>135.0</ele><time>2026-04-04T11:42:30.992Z</time></trkpt><trkpt lat="42.567560377102595" lon="12.533069222967747"><ele>135.0</ele><time>2026-04-04T11:42:31.992Z</time></trkpt><trkpt lat="42.56767556539538" lon="12.533025628479018"><ele>135.0</ele><time>2026-04-04T11:42:32.992Z</time></trkpt><trkpt lat="42.567800450701114" lon="12.532971093070785"><ele>135.0</ele><time>2026-04-04T11:42:33.992Z</time></trkpt><trkpt lat="42.56792100686839" lon="12.532928560416785"><ele>134.75</ele><time>2026-04-04T11:42:34.992Z</time></trkpt><trkpt lat="42.56804306722078" lon="12.532882235365358"><ele>134.5</ele><time>2026-04-04T11:42:35.992Z</time></trkpt><trkpt lat="42.56817828965153" lon="12.532828413690602"><ele>134.25</ele><time>2026-04-04T11:42:36.992Z</time></trkpt><trkpt lat="42.568310253348685" lon="12.532775017004148"><ele>134.0</ele><time>2026-04-04T11:42:37.992Z</time></trkpt><trkpt lat="42.568436437252736" lon="12.532722441257329"><ele>134.0</ele><time>2026-04-04T11:42:38.992Z</time></trkpt><trkpt lat="42.568560227338" lon="12.532666106571527"><ele>134.0</ele><time>2026-04-04T11:42:39.992Z</time></trkpt><trkpt lat="42.568688699263376" lon="12.532610090720626"><ele>134.0</ele><time>2026-04-04T11:42:40.992Z</time></trkpt><trkpt lat="42.568819645818266" lon="12.53254977583236"><ele>134.0</ele><time>2026-04-04T11:42:41.992Z</time></trkpt><trkpt lat="42.5689505218062" lon="12.532484827908451"><ele>134.5</ele><time>2026-04-04T11:42:42.992Z</time></trkpt><trkpt lat="42.56908137494776" lon="12.53242484568889"><ele>135.0</ele><time>2026-04-04T11:42:43.992Z</time></trkpt><trkpt lat="42.56921186325009" lon="12.532371602396333"><ele>135.5</ele><time>2026-04-04T11:42:44.992Z</time></trkpt><trkpt lat="42.56934328151019" lon="12.532319732835989"><ele>136.0</ele><time>2026-04-04T11:42:45.992Z</time></trkpt><trkpt lat="42.56947907795465" lon="12.53228292892592"><ele>136.0</ele><time>2026-04-04T11:42:46.992Z</time></trkpt><trkpt lat="42.56961038924445" lon="12.532207216174678"><ele>136.0</ele><time>2026-04-04T11:42:47.992Z</time></trkpt><trkpt lat="42.56973823584895" lon="12.532155973988816"><ele>136.0</ele><time>2026-04-04T11:42:48.992Z</time></trkpt><trkpt lat="42.56986609247681" lon="12.532093760064432"><ele>136.0</ele><time>2026-04-04T11:42:49.992Z</time></trkpt><trkpt lat="42.570008502867765" lon="12.53205265739276"><ele>136.0</ele><time>2026-04-04T11:42:50.992Z</time></trkpt><trkpt lat="42.57015290606406" lon="12.531989319981797"><ele>136.0</ele><time>2026-04-04T11:42:51.992Z</time></trkpt><trkpt lat="42.57029893010783" lon="12.531925271525962"><ele>136.0</ele><time>2026-04-04T11:42:52.992Z</time></trkpt><trkpt lat="42.570449056585446" lon="12.53186587014976"><ele>136.5</ele><time>2026-04-04T11:42:53.992Z</time></trkpt><trkpt lat="42.57059544176225" lon="12.531803310945458"><ele>137.0</ele><time>2026-04-04T11:42:54.992Z</time></trkpt><trkpt lat="42.570727285709786" lon="12.531733151975565"><ele>137.5</ele><time>2026-04-04T11:42:55.992Z</time></trkpt><trkpt lat="42.57084921253955" lon="12.53164597338744"><ele>138.0</ele><time>2026-04-04T11:42:56.992Z</time></trkpt><trkpt lat="42.57097669005043" lon="12.531577821690522"><ele>138.0</ele><time>2026-04-04T11:42:57.992Z</time></trkpt><trkpt lat="42.571089360392264" lon="12.53151992912062"><ele>138.0</ele><time>2026-04-04T11:42:58.992Z</time></trkpt><trkpt lat="42.57119663765141" lon="12.531475142699424"><ele>138.0</ele><time>2026-04-04T11:42:59.992Z</time></trkpt><trkpt lat="42.5713156938011" lon="12.531427374700069"><ele>138.0</ele><time>2026-04-04T11:43:00.992Z</time></trkpt><trkpt lat="42.571443476105024" lon="12.531384507539958"><ele>138.0</ele><time>2026-04-04T11:43:01.992Z</time></trkpt><trkpt lat="42.57158321814311" lon="12.53134722948648"><ele>138.0</ele><time>2026-04-04T11:43:02.992Z</time></trkpt><trkpt lat="42.57172519369108" lon="12.531310437611399"><ele>138.0</ele><time>2026-04-04T11:43:03.992Z</time></trkpt><trkpt lat="42.57187221446146" lon="12.53128603935237"><ele>138.0</ele><time>2026-04-04T11:43:04.992Z</time></trkpt><trkpt lat="42.57200632382866" lon="12.531271742029839"><ele>138.0</ele><time>2026-04-04T11:43:05.992Z</time></trkpt><trkpt lat="42.57212700867211" lon="12.531250065402155"><ele>138.0</ele><time>2026-04-04T11:43:06.992Z</time></trkpt><trkpt lat="42.572248372128826" lon="12.531218385732036"><ele>138.0</ele><time>2026-04-04T11:43:07.992Z</time></trkpt><trkpt lat="42.57236623119379" lon="12.531149975417264"><ele>138.0</ele><time>2026-04-04T11:43:08.992Z</time></trkpt><trkpt lat="42.572492860990415" lon="12.531064900559793"><ele>138.0</ele><time>2026-04-04T11:43:09.992Z</time></trkpt><trkpt lat="42.57262704015064" lon="12.53098997650115"><ele>138.0</ele><time>2026-04-04T11:43:10.992Z</time></trkpt><trkpt lat="42.572772289714294" lon="12.530916958895087"><ele>138.0</ele><time>2026-04-04T11:43:11.992Z</time></trkpt><trkpt lat="42.572911891643514" lon="12.530840088984469"><ele>138.0</ele><time>2026-04-04T11:43:12.992Z</time></trkpt><trkpt lat="42.57305432580936" lon="12.530751011662982"><ele>138.0</ele><time>2026-04-04T11:43:13.992Z</time></trkpt><trkpt lat="42.57319235936941" lon="12.530658724646631"><ele>138.0</ele><time>2026-04-04T11:43:14.992Z</time></trkpt><trkpt lat="42.57329911850733" lon="12.53056571103834"><ele>138.0</ele><time>2026-04-04T11:43:15.992Z</time></trkpt><trkpt lat="42.57343332541378" lon="12.530514627876432"><ele>138.0</ele><time>2026-04-04T11:43:16.992Z</time></trkpt><trkpt lat="42.57356642775539" lon="12.530479458275"><ele>138.0</ele><time>2026-04-04T11:43:17.992Z</time></trkpt><trkpt lat="42.57370621568127" lon="12.530450547901244"><ele>138.0</ele><time>2026-04-04T11:43:18.991Z</time></trkpt><trkpt lat="42.57385269128072" lon="12.530420631215705"><ele>138.0</ele><time>2026-04-04T11:43:19.991Z</time></trkpt><trkpt lat="42.573998926317074" lon="12.530390763660609"><ele>138.0</ele><time>2026-04-04T11:43:20.991Z</time></trkpt><trkpt lat="42.57414395493658" lon="12.530339035472227"><ele>138.0</ele><time>2026-04-04T11:43:21.992Z</time></trkpt><trkpt lat="42.5742873598209" lon="12.530316243299238"><ele>138.0</ele><time>2026-04-04T11:43:22.992Z</time></trkpt><trkpt lat="42.57443152899333" lon="12.530289271930016"><ele>138.0</ele><time>2026-04-04T11:43:23.991Z</time></trkpt><trkpt lat="42.57458024086404" lon="12.530262983392833"><ele>137.5</ele><time>2026-04-04T11:43:24.991Z</time></trkpt><trkpt lat="42.57472179561561" lon="12.530259968665618"><ele>137.0</ele><time>2026-04-04T11:43:25.991Z</time></trkpt><trkpt lat="42.57485071139088" lon="12.530236460328013"><ele>136.5</ele><time>2026-04-04T11:43:26.992Z</time></trkpt><trkpt lat="42.57497019078267" lon="12.530214546904029"><ele>136.0</ele><time>2026-04-04T11:43:27.991Z</time></trkpt><trkpt lat="42.57508310079304" lon="12.530192951344203"><ele>136.0</ele><time>2026-04-04T11:43:28.991Z</time></trkpt><trkpt lat="42.575184311980536" lon="12.53016952703708"><ele>136.0</ele><time>2026-04-04T11:43:29.992Z</time></trkpt><trkpt lat="42.575275802640085" lon="12.530122219835231"><ele>136.0</ele><time>2026-04-04T11:43:30.991Z</time></trkpt><trkpt lat="42.57536809382816" lon="12.53010025313141"><ele>136.0</ele><time>2026-04-04T11:43:31.991Z</time></trkpt><trkpt lat="42.57545839690054" lon="12.53006174681596"><ele>136.0</ele><time>2026-04-04T11:43:32.991Z</time></trkpt><trkpt lat="42.57553876511732" lon="12.529967266859666"><ele>135.2</ele><time>2026-04-04T11:43:33.991Z</time></trkpt><trkpt lat="42.57564030376864" lon="12.529891635066852"><ele>134.39999999999998</ele><time>2026-04-04T11:43:34.991Z</time></trkpt><trkpt lat="42.575720220677944" lon="12.529828683209931"><ele>133.6</ele><time>2026-04-04T11:43:35.991Z</time></trkpt><trkpt lat="42.57578987267393" lon="12.529764483903568"><ele>132.79999999999998</ele><time>2026-04-04T11:43:36.991Z</time></trkpt><trkpt lat="42.575862679003556" lon="12.529698264801809"><ele>132.0</ele><time>2026-04-04T11:43:37.991Z</time></trkpt><trkpt lat="42.57593875233791" lon="12.529674232173296"><ele>132.0</ele><time>2026-04-04T11:43:38.991Z</time></trkpt><trkpt lat="42.57601390898728" lon="12.529644534554055"><ele>132.0</ele><time>2026-04-04T11:43:39.991Z</time></trkpt><trkpt lat="42.5760955427979" lon="12.529625437337996"><ele>132.0</ele><time>2026-04-04T11:43:40.991Z</time></trkpt><trkpt lat="42.576182023819484" lon="12.529601514632308"><ele>132.0</ele><time>2026-04-04T11:43:41.991Z</time></trkpt><trkpt lat="42.576265783085425" lon="12.529572790576578"><ele>132.0</ele><time>2026-04-04T11:43:42.991Z</time></trkpt><trkpt lat="42.57633937557207" lon="12.529506366116559"><ele>132.0</ele><time>2026-04-04T11:43:43.991Z</time></trkpt><trkpt lat="42.57639306756795" lon="12.529448720024199"><ele>132.4</ele><time>2026-04-04T11:43:44.991Z</time></trkpt><trkpt lat="42.57646886158551" lon="12.529387043196417"><ele>132.79999999999998</ele><time>2026-04-04T11:43:45.991Z</time></trkpt><trkpt lat="42.57653280511976" lon="12.529294304463821"><ele>133.2</ele><time>2026-04-04T11:43:46.991Z</time></trkpt><trkpt lat="42.576613438278706" lon="12.529206694713631"><ele>133.6</ele><time>2026-04-04T11:43:47.991Z</time></trkpt><trkpt lat="42.57667879111992" lon="12.529085727702277"><ele>134.0</ele><time>2026-04-04T11:43:48.991Z</time></trkpt><trkpt lat="42.57675506163683" lon="12.528934969485181"><ele>134.0</ele><time>2026-04-04T11:43:49.991Z</time></trkpt><trkpt lat="42.57683489897571" lon="12.528788249833578"><ele>134.0</ele><time>2026-04-04T11:43:50.991Z</time></trkpt><trkpt lat="42.576914673994956" lon="12.528695364074059"><ele>134.0</ele><time>2026-04-04T11:43:51.991Z</time></trkpt><trkpt lat="42.57697529293767" lon="12.528600322476636"><ele>134.0</ele><time>2026-04-04T11:43:52.991Z</time></trkpt><trkpt lat="42.57702125415003" lon="12.528528261928136"><ele>134.0</ele><time>2026-04-04T11:43:53.991Z</time></trkpt><trkpt lat="42.57707535193047" lon="12.528409253835637"><ele>134.6</ele><time>2026-04-04T11:43:55.991Z</time></trkpt><trkpt lat="42.57716173949531" lon="12.528283337425284"><ele>135.2</ele><time>2026-04-04T11:43:57.991Z</time></trkpt><trkpt lat="42.57721601926332" lon="12.528197425781501"><ele>135.79999999999998</ele><time>2026-04-04T11:43:58.991Z</time></trkpt><trkpt lat="42.57728566386931" lon="12.528119086546395"><ele>136.4</ele><time>2026-04-04T11:43:59.991Z</time></trkpt><trkpt lat="42.577355760059724" lon="12.528018390616941"><ele>137.0</ele><time>2026-04-04T11:44:00.991Z</time></trkpt><trkpt lat="42.577431821550526" lon="12.527916059688456"><ele>136.75</ele><time>2026-04-04T11:44:01.991Z</time></trkpt><trkpt lat="42.577494360166284" lon="12.52780888304396"><ele>136.5</ele><time>2026-04-04T11:44:02.991Z</time></trkpt><trkpt lat="42.57757988582548" lon="12.527700733304535"><ele>136.25</ele><time>2026-04-04T11:44:03.991Z</time></trkpt><trkpt lat="42.577660030479166" lon="12.527575900760306"><ele>136.0</ele><time>2026-04-04T11:44:04.991Z</time></trkpt><trkpt lat="42.5777292598819" lon="12.527439269597242"><ele>136.0</ele><time>2026-04-04T11:44:05.991Z</time></trkpt><trkpt lat="42.57779628894236" lon="12.527325176475747"><ele>136.0</ele><time>2026-04-04T11:44:06.991Z</time></trkpt><trkpt lat="42.57785528569713" lon="12.527224569677175"><ele>136.0</ele><time>2026-04-04T11:44:07.991Z</time></trkpt><trkpt lat="42.57793165989481" lon="12.527151697199562"><ele>136.0</ele><time>2026-04-04T11:44:08.991Z</time></trkpt><trkpt lat="42.57800941091306" lon="12.527078371604912"><ele>136.0</ele><time>2026-04-04T11:44:09.991Z</time></trkpt><trkpt lat="42.57810190920131" lon="12.526997029930342"><ele>136.75</ele><time>2026-04-04T11:44:10.991Z</time></trkpt><trkpt lat="42.57820639856667" lon="12.52687954822563"><ele>137.5</ele><time>2026-04-04T11:44:11.991Z</time></trkpt><trkpt lat="42.57831884941755" lon="12.526811293536092"><ele>138.25</ele><time>2026-04-04T11:44:12.991Z</time></trkpt><trkpt lat="42.57841398731588" lon="12.526729479174449"><ele>139.0</ele><time>2026-04-04T11:44:13.991Z</time></trkpt><trkpt lat="42.57850607286193" lon="12.526640454887671"><ele>139.0</ele><time>2026-04-04T11:44:14.991Z</time></trkpt><trkpt lat="42.57858965404036" lon="12.52653283872388"><ele>139.0</ele><time>2026-04-04T11:44:15.991Z</time></trkpt><trkpt lat="42.57867059412865" lon="12.526438762654486"><ele>139.0</ele><time>2026-04-04T11:44:16.991Z</time></trkpt><trkpt lat="42.57874327634064" lon="12.526336938004151"><ele>139.0</ele><time>2026-04-04T11:44:17.991Z</time></trkpt><trkpt lat="42.57880791082484" lon="12.526253217035245"><ele>139.0</ele><time>2026-04-04T11:44:18.991Z</time></trkpt><trkpt lat="42.57886925606148" lon="12.526170764162949"><ele>140.25</ele><time>2026-04-04T11:44:19.991Z</time></trkpt><trkpt lat="42.57896789972149" lon="12.526077639423173"><ele>141.5</ele><time>2026-04-04T11:44:20.991Z</time></trkpt><trkpt lat="42.57904884157119" lon="12.525949038097476"><ele>142.75</ele><time>2026-04-04T11:44:21.991Z</time></trkpt><trkpt lat="42.579150068315165" lon="12.525840081791753"><ele>144.0</ele><time>2026-04-04T11:44:22.991Z</time></trkpt><trkpt lat="42.57924213558432" lon="12.525725851180178"><ele>144.0</ele><time>2026-04-04T11:44:23.991Z</time></trkpt><trkpt lat="42.5793295407446" lon="12.525599566032847"><ele>144.0</ele><time>2026-04-04T11:44:24.991Z</time></trkpt><trkpt lat="42.579429057796354" lon="12.525494182832139"><ele>144.0</ele><time>2026-04-04T11:44:25.991Z</time></trkpt><trkpt lat="42.57950768119085" lon="12.52539039371687"><ele>144.0</ele><time>2026-04-04T11:44:26.991Z</time></trkpt><trkpt lat="42.5795843315711" lon="12.525287553524905"><ele>144.25</ele><time>2026-04-04T11:44:27.991Z</time></trkpt><trkpt lat="42.57966144540131" lon="12.525165136992372"><ele>144.5</ele><time>2026-04-04T11:44:28.991Z</time></trkpt><trkpt lat="42.57974291501468" lon="12.525054864318028"><ele>144.75</ele><time>2026-04-04T11:44:29.991Z</time></trkpt><trkpt lat="42.5798243606796" lon="12.524944813662396"><ele>145.0</ele><time>2026-04-04T11:44:30.991Z</time></trkpt><trkpt lat="42.57990308935463" lon="12.524832107509278"><ele>145.0</ele><time>2026-04-04T11:44:31.991Z</time></trkpt><trkpt lat="42.57998157653438" lon="12.524749635375306"><ele>145.0</ele><time>2026-04-04T11:44:32.991Z</time></trkpt><trkpt lat="42.580028664153" lon="12.524660765044873"><ele>145.0</ele><time>2026-04-04T11:44:33.991Z</time></trkpt><trkpt lat="42.58008310749584" lon="12.524587975636452"><ele>145.0</ele><time>2026-04-04T11:44:34.991Z</time></trkpt><trkpt lat="42.5801418885734" lon="12.524502017319202"><ele>145.0</ele><time>2026-04-04T11:44:35.991Z</time></trkpt><trkpt lat="42.58019773484577" lon="12.52441043277618"><ele>145.0</ele><time>2026-04-04T11:44:36.991Z</time></trkpt><trkpt lat="42.58027008498758" lon="12.524324779419205"><ele>145.2</ele><time>2026-04-04T11:44:37.99Z</time></trkpt><trkpt lat="42.580332436770966" lon="12.5242295661711"><ele>145.4</ele><time>2026-04-04T11:44:38.99Z</time></trkpt><trkpt lat="42.58038328718997" lon="12.524123007857012"><ele>145.6</ele><time>2026-04-04T11:44:39.99Z</time></trkpt><trkpt lat="42.5804640218622" lon="12.524039269896623"><ele>145.8</ele><time>2026-04-04T11:44:40.99Z</time></trkpt><trkpt lat="42.58053409806522" lon="12.523955123549177"><ele>146.0</ele><time>2026-04-04T11:44:41.99Z</time></trkpt><trkpt lat="42.58059562080088" lon="12.523857167608906"><ele>146.5</ele><time>2026-04-04T11:44:42.99Z</time></trkpt><trkpt lat="42.58066850551887" lon="12.52378431302194"><ele>147.0</ele><time>2026-04-04T11:44:43.99Z</time></trkpt><trkpt lat="42.580730630764016" lon="12.523713660628538"><ele>147.5</ele><time>2026-04-04T11:44:44.99Z</time></trkpt><trkpt lat="42.58079697245464" lon="12.523625620832988"><ele>148.0</ele><time>2026-04-04T11:44:45.99Z</time></trkpt><trkpt lat="42.58085399747618" lon="12.523546825960425"><ele>148.5</ele><time>2026-04-04T11:44:46.99Z</time></trkpt><trkpt lat="42.580925364916304" lon="12.52347315754666"><ele>149.0</ele><time>2026-04-04T11:44:47.99Z</time></trkpt><trkpt lat="42.580993067030306" lon="12.523409570096003"><ele>149.0</ele><time>2026-04-04T11:44:48.99Z</time></trkpt><trkpt lat="42.581057438309244" lon="12.523339550196289"><ele>149.0</ele><time>2026-04-04T11:44:49.99Z</time></trkpt><trkpt lat="42.58111946860594" lon="12.52328132431656"><ele>149.0</ele><time>2026-04-04T11:44:50.99Z</time></trkpt><trkpt lat="42.581222492037654" lon="12.52320735985617"><ele>149.0</ele><time>2026-04-04T11:44:52.99Z</time></trkpt><trkpt lat="42.58128889743165" lon="12.523189934824297"><ele>149.0</ele><time>2026-04-04T11:44:53.99Z</time></trkpt><trkpt lat="42.58136770150496" lon="12.523188104146227"><ele>149.0</ele><time>2026-04-04T11:44:54.99Z</time></trkpt><trkpt lat="42.58145438520586" lon="12.523260807288056"><ele>150.5</ele><time>2026-04-04T11:44:55.99Z</time></trkpt><trkpt lat="42.58152959329226" lon="12.523285350590871"><ele>152.0</ele><time>2026-04-04T11:44:56.99Z</time></trkpt><trkpt lat="42.58159781130332" lon="12.52334928249883"><ele>153.5</ele><time>2026-04-04T11:44:57.99Z</time></trkpt><trkpt lat="42.581679466972275" lon="12.523411178129384"><ele>155.0</ele><time>2026-04-04T11:44:58.99Z</time></trkpt><trkpt lat="42.58174328868875" lon="12.523496952143939"><ele>156.5</ele><time>2026-04-04T11:44:59.99Z</time></trkpt><trkpt lat="42.58181566388889" lon="12.523550221899495"><ele>158.0</ele><time>2026-04-04T11:45:00.99Z</time></trkpt><trkpt lat="42.58189463953206" lon="12.523639726999345"><ele>158.0</ele><time>2026-04-04T11:45:02.99Z</time></trkpt><trkpt lat="42.581985138214286" lon="12.523647867544422"><ele>158.0</ele><time>2026-04-04T11:45:04.99Z</time></trkpt><trkpt lat="42.58210426732878" lon="12.523531024646397"><ele>158.0</ele><time>2026-04-04T11:45:06.99Z</time></trkpt><trkpt lat="42.58215485757243" lon="12.523471858369474"><ele>158.0</ele><time>2026-04-04T11:45:07.99Z</time></trkpt><trkpt lat="42.58221632749999" lon="12.523442121457775"><ele>158.0</ele><time>2026-04-04T11:45:09.99Z</time></trkpt><trkpt lat="42.582296344670205" lon="12.523520968305252"><ele>159.2</ele><time>2026-04-04T11:45:12.99Z</time></trkpt><trkpt lat="42.582357458549716" lon="12.523565395963072"><ele>160.4</ele><time>2026-04-04T11:45:13.99Z</time></trkpt><trkpt lat="42.58244116316315" lon="12.523610741577919"><ele>161.6</ele><time>2026-04-04T11:45:15.99Z</time></trkpt><trkpt lat="42.58254894509785" lon="12.523525372903405"><ele>162.79999999999998</ele><time>2026-04-04T11:45:17.99Z</time></trkpt><trkpt lat="42.5825691435304" lon="12.523379525287645"><ele>164.0</ele><time>2026-04-04T11:45:18.99Z</time></trkpt><trkpt lat="42.582632359953365" lon="12.523307976933664"><ele>164.0</ele><time>2026-04-04T11:45:19.99Z</time></trkpt><trkpt lat="42.58271907265988" lon="12.523227480217752"><ele>164.0</ele><time>2026-04-04T11:45:20.99Z</time></trkpt><trkpt lat="42.58278300871617" lon="12.52312103253039"><ele>164.0</ele><time>2026-04-04T11:45:21.99Z</time></trkpt><trkpt lat="42.582823433832694" lon="12.522998532561816"><ele>164.0</ele><time>2026-04-04T11:45:22.99Z</time></trkpt><trkpt lat="42.582847589084295" lon="12.522855894597553"><ele>164.0</ele><time>2026-04-04T11:45:23.99Z</time></trkpt><trkpt lat="42.58287811859232" lon="12.522733890533667"><ele>164.33333333333331</ele><time>2026-04-04T11:45:24.989Z</time></trkpt><trkpt lat="42.582914231952074" lon="12.522644931696462"><ele>164.66666666666666</ele><time>2026-04-04T11:45:25.989Z</time></trkpt><trkpt lat="42.58296000394064" lon="12.522569313377895"><ele>165.0</ele><time>2026-04-04T11:45:26.989Z</time></trkpt><trkpt lat="42.58300405015233" lon="12.522501014101955"><ele>165.33333333333334</ele><time>2026-04-04T11:45:27.989Z</time></trkpt><trkpt lat="42.5830712132426" lon="12.52238152406306"><ele>165.66666666666669</ele><time>2026-04-04T11:45:29.989Z</time></trkpt><trkpt lat="42.58312297839655" lon="12.522268859410634"><ele>166.0</ele><time>2026-04-04T11:45:31.99Z</time></trkpt><trkpt lat="42.583164579756776" lon="12.522179006054248"><ele>166.0</ele><time>2026-04-04T11:45:32.99Z</time></trkpt><trkpt lat="42.583214275393054" lon="12.522066079166216"><ele>166.0</ele><time>2026-04-04T11:45:33.99Z</time></trkpt><trkpt lat="42.58325339222014" lon="12.521951970192056"><ele>166.0</ele><time>2026-04-04T11:45:34.99Z</time></trkpt><trkpt lat="42.58329130104298" lon="12.521820573355889"><ele>166.0</ele><time>2026-04-04T11:45:35.99Z</time></trkpt><trkpt lat="42.58332713984718" lon="12.52169276758567"><ele>166.0</ele><time>2026-04-04T11:45:36.989Z</time></trkpt><trkpt lat="42.58335900248307" lon="12.521568681469839"><ele>166.8</ele><time>2026-04-04T11:45:37.989Z</time></trkpt><trkpt lat="42.58339452351793" lon="12.521436082947082"><ele>167.60000000000002</ele><time>2026-04-04T11:45:38.989Z</time></trkpt><trkpt lat="42.583433018687515" lon="12.521302925189397"><ele>168.4</ele><time>2026-04-04T11:45:39.989Z</time></trkpt><trkpt lat="42.58347185272432" lon="12.521158059151567"><ele>169.2</ele><time>2026-04-04T11:45:40.989Z</time></trkpt><trkpt lat="42.58350421069074" lon="12.521016055579144"><ele>170.0</ele><time>2026-04-04T11:45:41.989Z</time></trkpt><trkpt lat="42.583538443455865" lon="12.520866262245493"><ele>170.75</ele><time>2026-04-04T11:45:42.989Z</time></trkpt><trkpt lat="42.58358130877334" lon="12.52070157811898"><ele>171.5</ele><time>2026-04-04T11:45:43.989Z</time></trkpt><trkpt lat="42.583633942312936" lon="12.52052682543423"><ele>172.25</ele><time>2026-04-04T11:45:44.989Z</time></trkpt><trkpt lat="42.58367829325814" lon="12.520368111145485"><ele>173.0</ele><time>2026-04-04T11:45:45.989Z</time></trkpt><trkpt lat="42.583721774393865" lon="12.520221404207591"><ele>173.75</ele><time>2026-04-04T11:45:46.989Z</time></trkpt><trkpt lat="42.58376534975502" lon="12.520067336905718"><ele>174.5</ele><time>2026-04-04T11:45:47.989Z</time></trkpt><trkpt lat="42.5838206648833" lon="12.519927074171711"><ele>175.25</ele><time>2026-04-04T11:45:48.989Z</time></trkpt><trkpt lat="42.58388479966375" lon="12.51981429445597"><ele>176.0</ele><time>2026-04-04T11:45:49.989Z</time></trkpt><trkpt lat="42.5839561073484" lon="12.519701517055966"><ele>176.0</ele><time>2026-04-04T11:45:50.989Z</time></trkpt><trkpt lat="42.5840304154291" lon="12.51957393550391"><ele>176.0</ele><time>2026-04-04T11:45:51.989Z</time></trkpt><trkpt lat="42.584101833259425" lon="12.519461101658347"><ele>176.0</ele><time>2026-04-04T11:45:52.989Z</time></trkpt><trkpt lat="42.58417442926333" lon="12.519351878971122"><ele>176.0</ele><time>2026-04-04T11:45:53.989Z</time></trkpt><trkpt lat="42.58425071313917" lon="12.519246572500107"><ele>176.0</ele><time>2026-04-04T11:45:54.989Z</time></trkpt><trkpt lat="42.584314875279645" lon="12.519154465329027"><ele>176.33333333333331</ele><time>2026-04-04T11:45:55.989Z</time></trkpt><trkpt lat="42.58437432421064" lon="12.519077720650987"><ele>176.66666666666666</ele><time>2026-04-04T11:45:56.989Z</time></trkpt><trkpt lat="42.58442545223177" lon="12.51901454536348"><ele>177.0</ele><time>2026-04-04T11:45:57.989Z</time></trkpt><trkpt lat="42.58448523246452" lon="12.518954367669615"><ele>177.33333333333334</ele><time>2026-04-04T11:45:58.989Z</time></trkpt><trkpt lat="42.5845483413607" lon="12.518948686562597"><ele>177.66666666666669</ele><time>2026-04-04T11:45:59.989Z</time></trkpt><trkpt lat="42.58462306071287" lon="12.51897597897895"><ele>178.0</ele><time>2026-04-04T11:46:00.989Z</time></trkpt><trkpt lat="42.58471070290493" lon="12.519021341724805"><ele>178.66666666666669</ele><time>2026-04-04T11:46:01.989Z</time></trkpt><trkpt lat="42.584781542568024" lon="12.519088062546455"><ele>179.33333333333334</ele><time>2026-04-04T11:46:02.989Z</time></trkpt><trkpt lat="42.584851453153284" lon="12.519145789310064"><ele>180.0</ele><time>2026-04-04T11:46:03.989Z</time></trkpt><trkpt lat="42.58493002305643" lon="12.519208579704916"><ele>180.66666666666666</ele><time>2026-04-04T11:46:04.989Z</time></trkpt><trkpt lat="42.584997930105295" lon="12.519264530661362"><ele>181.33333333333331</ele><time>2026-04-04T11:46:05.989Z</time></trkpt><trkpt lat="42.58505716504928" lon="12.519316397478946"><ele>182.0</ele><time>2026-04-04T11:46:06.989Z</time></trkpt><trkpt lat="42.585161495156164" lon="12.519414839805385"><ele>182.0</ele><time>2026-04-04T11:46:08.989Z</time></trkpt><trkpt lat="42.58526554019739" lon="12.519491162706835"><ele>182.0</ele><time>2026-04-04T11:46:10.989Z</time></trkpt><trkpt lat="42.58536952681972" lon="12.519556271771934"><ele>182.0</ele><time>2026-04-04T11:46:12.989Z</time></trkpt><trkpt lat="42.58548665490915" lon="12.519581663958084"><ele>182.0</ele><time>2026-04-04T11:46:14.989Z</time></trkpt><trkpt lat="42.58556727642443" lon="12.519544226487476"><ele>182.0</ele><time>2026-04-04T11:46:16.989Z</time></trkpt><trkpt lat="42.585625962215566" lon="12.519447816930128"><ele>182.8</ele><time>2026-04-04T11:46:18.989Z</time></trkpt><trkpt lat="42.58564133761245" lon="12.519348782162215"><ele>183.6</ele><time>2026-04-04T11:46:19.989Z</time></trkpt><trkpt lat="42.5856519961845" lon="12.51924187252129"><ele>184.4</ele><time>2026-04-04T11:46:20.989Z</time></trkpt><trkpt lat="42.585663160405" lon="12.519113968405676"><ele>185.20000000000002</ele><time>2026-04-04T11:46:21.989Z</time></trkpt><trkpt lat="42.58567254257298" lon="12.51898428633816"><ele>186.0</ele><time>2026-04-04T11:46:22.989Z</time></trkpt><trkpt lat="42.58569210199892" lon="12.518841937922742"><ele>188.0</ele><time>2026-04-04T11:46:23.989Z</time></trkpt><trkpt lat="42.58572682885269" lon="12.51869851732245"><ele>190.0</ele><time>2026-04-04T11:46:24.989Z</time></trkpt><trkpt lat="42.58577739300444" lon="12.518545614823939"><ele>192.0</ele><time>2026-04-04T11:46:25.989Z</time></trkpt><trkpt lat="42.585842989576946" lon="12.518370398165192"><ele>194.0</ele><time>2026-04-04T11:46:26.989Z</time></trkpt><trkpt lat="42.58591187886009" lon="12.518197713429212"><ele>194.0</ele><time>2026-04-04T11:46:27.989Z</time></trkpt><trkpt lat="42.58598284892852" lon="12.518016137827304"><ele>194.0</ele><time>2026-04-04T11:46:28.989Z</time></trkpt><trkpt lat="42.58605500775839" lon="12.517839205014212"><ele>194.0</ele><time>2026-04-04T11:46:29.989Z</time></trkpt><trkpt lat="42.58612187093779" lon="12.517677118828084"><ele>194.0</ele><time>2026-04-04T11:46:30.989Z</time></trkpt><trkpt lat="42.58618601183659" lon="12.517540223171178"><ele>195.39999999999998</ele><time>2026-04-04T11:46:31.989Z</time></trkpt><trkpt lat="42.58623733269279" lon="12.517417211456495"><ele>196.8</ele><time>2026-04-04T11:46:32.989Z</time></trkpt><trkpt lat="42.586282942778205" lon="12.517305213778618"><ele>198.2</ele><time>2026-04-04T11:46:33.989Z</time></trkpt><trkpt lat="42.58632136708994" lon="12.517194916983618"><ele>199.60000000000002</ele><time>2026-04-04T11:46:34.989Z</time></trkpt><trkpt lat="42.58634750350903" lon="12.517096358263897"><ele>201.0</ele><time>2026-04-04T11:46:35.989Z</time></trkpt><trkpt lat="42.58639391258063" lon="12.516956467574651"><ele>201.8</ele><time>2026-04-04T11:46:37.989Z</time></trkpt><trkpt lat="42.586449013790016" lon="12.516854260708987"><ele>202.60000000000002</ele><time>2026-04-04T11:47:05.988Z</time></trkpt><trkpt lat="42.5865339154807" lon="12.516779697967591"><ele>203.4</ele><time>2026-04-04T11:47:07.988Z</time></trkpt><trkpt lat="42.58663781708398" lon="12.516709565463898"><ele>204.2</ele><time>2026-04-04T11:47:09.988Z</time></trkpt><trkpt lat="42.586734610507506" lon="12.516625027525036"><ele>205.0</ele><time>2026-04-04T11:47:11.988Z</time></trkpt><trkpt lat="42.58679154618757" lon="12.516571486259522"><ele>205.0</ele><time>2026-04-04T11:47:12.988Z</time></trkpt><trkpt lat="42.58686351854422" lon="12.516504098480336"><ele>205.0</ele><time>2026-04-04T11:47:13.988Z</time></trkpt><trkpt lat="42.58695122131609" lon="12.516424552026498"><ele>205.0</ele><time>2026-04-04T11:47:14.988Z</time></trkpt><trkpt lat="42.587038454267606" lon="12.516343418526722"><ele>205.0</ele><time>2026-04-04T11:47:15.988Z</time></trkpt><trkpt lat="42.58712111250695" lon="12.516257917634583"><ele>205.0</ele><time>2026-04-04T11:47:16.988Z</time></trkpt><trkpt lat="42.58719781374824" lon="12.516176473998266"><ele>207.0</ele><time>2026-04-04T11:47:17.988Z</time></trkpt><trkpt lat="42.58728436921216" lon="12.516124694490466"><ele>209.0</ele><time>2026-04-04T11:47:18.988Z</time></trkpt><trkpt lat="42.58736657742832" lon="12.516064799917816"><ele>211.0</ele><time>2026-04-04T11:47:19.988Z</time></trkpt><trkpt lat="42.58742106700627" lon="12.516010464813991"><ele>213.0</ele><time>2026-04-04T11:47:20.988Z</time></trkpt><trkpt lat="42.587531498934226" lon="12.51600227218796"><ele>215.0</ele><time>2026-04-04T11:47:22.988Z</time></trkpt><trkpt lat="42.58763154733529" lon="12.51600606129406"><ele>215.0</ele><time>2026-04-04T11:47:24.988Z</time></trkpt><trkpt lat="42.58769453950783" lon="12.51595984463966"><ele>215.0</ele><time>2026-04-04T11:47:25.988Z</time></trkpt><trkpt lat="42.58777277200429" lon="12.515887240033981"><ele>215.0</ele><time>2026-04-04T11:47:26.988Z</time></trkpt><trkpt lat="42.58785071083001" lon="12.515803307184283"><ele>215.0</ele><time>2026-04-04T11:47:27.988Z</time></trkpt><trkpt lat="42.58792811304039" lon="12.515708912284678"><ele>215.0</ele><time>2026-04-04T11:47:28.988Z</time></trkpt><trkpt lat="42.58799165764035" lon="12.515607961601368"><ele>215.83333333333334</ele><time>2026-04-04T11:47:29.988Z</time></trkpt><trkpt lat="42.58803453432833" lon="12.515516113213414"><ele>216.66666666666669</ele><time>2026-04-04T11:47:30.987Z</time></trkpt><trkpt lat="42.58806484511018" lon="12.515437782545742"><ele>217.5</ele><time>2026-04-04T11:47:31.987Z</time></trkpt><trkpt lat="42.58810319032248" lon="12.515330890540119"><ele>218.33333333333331</ele><time>2026-04-04T11:47:33.987Z</time></trkpt><trkpt lat="42.588163221326155" lon="12.515224265563946"><ele>219.16666666666666</ele><time>2026-04-04T11:47:36.988Z</time></trkpt><trkpt lat="42.588203042010925" lon="12.515150362426533"><ele>220.0</ele><time>2026-04-04T11:47:37.988Z</time></trkpt><trkpt lat="42.58823880703298" lon="12.515066594453348"><ele>220.14285714285714</ele><time>2026-04-04T11:47:38.988Z</time></trkpt><trkpt lat="42.588272001646644" lon="12.514982675892716"><ele>220.28571428571428</ele><time>2026-04-04T11:47:39.987Z</time></trkpt><trkpt lat="42.58830419547966" lon="12.514902013103969"><ele>220.42857142857144</ele><time>2026-04-04T11:47:40.987Z</time></trkpt><trkpt lat="42.58834055687892" lon="12.51479916157833"><ele>220.57142857142856</ele><time>2026-04-04T11:47:42.987Z</time></trkpt><trkpt lat="42.58837221817809" lon="12.514692557663034"><ele>220.71428571428572</ele><time>2026-04-04T11:47:44.987Z</time></trkpt><trkpt lat="42.58836533169137" lon="12.51460564977613"><ele>220.85714285714286</ele><time>2026-04-04T11:47:46.987Z</time></trkpt><trkpt lat="42.58835495638948" lon="12.514508235157498"><ele>221.0</ele><time>2026-04-04T11:47:48.987Z</time></trkpt><trkpt lat="42.5883354404269" lon="12.514383108179883"><ele>221.00000000000003</ele><time>2026-04-04T11:47:50.987Z</time></trkpt><trkpt lat="42.58830121058336" lon="12.514306825078544"><ele>221.0</ele><time>2026-04-04T11:47:51.987Z</time></trkpt><trkpt lat="42.5882796793253" lon="12.514172000841771"><ele>221.0</ele><time>2026-04-04T11:47:53.987Z</time></trkpt><trkpt lat="42.58828928272527" lon="12.51407018169911"><ele>221.0</ele><time>2026-04-04T11:47:54.987Z</time></trkpt><trkpt lat="42.58831092635526" lon="12.51395055286562"><ele>221.00000000000003</ele><time>2026-04-04T11:47:55.987Z</time></trkpt><trkpt lat="42.58834839733605" lon="12.51382567395531"><ele>221.0</ele><time>2026-04-04T11:47:56.987Z</time></trkpt><trkpt lat="42.58839110965149" lon="12.513729682297235"><ele>220.66666666666669</ele><time>2026-04-04T11:47:57.987Z</time></trkpt><trkpt lat="42.58843885190268" lon="12.513629653661225"><ele>220.33333333333334</ele><time>2026-04-04T11:47:58.987Z</time></trkpt><trkpt lat="42.58848698094846" lon="12.513534937831315"><ele>220.0</ele><time>2026-04-04T11:47:59.987Z</time></trkpt><trkpt lat="42.58853422202154" lon="12.513427586284347"><ele>219.66666666666669</ele><time>2026-04-04T11:48:00.987Z</time></trkpt><trkpt lat="42.58857930735699" lon="12.51331550810008"><ele>219.33333333333334</ele><time>2026-04-04T11:48:01.987Z</time></trkpt><trkpt lat="42.58862226358214" lon="12.513211121170297"><ele>219.0</ele><time>2026-04-04T11:48:02.987Z</time></trkpt><trkpt lat="42.588662261777124" lon="12.513127716584206"><ele>220.39999999999998</ele><time>2026-04-04T11:48:03.987Z</time></trkpt><trkpt lat="42.58874763244933" lon="12.513009767583144"><ele>221.79999999999998</ele><time>2026-04-04T11:48:05.987Z</time></trkpt><trkpt lat="42.58885000710946" lon="12.51290992715366"><ele>223.20000000000002</ele><time>2026-04-04T11:48:07.987Z</time></trkpt><trkpt lat="42.58892086695908" lon="12.512838790541608"><ele>224.60000000000002</ele><time>2026-04-04T11:48:08.987Z</time></trkpt><trkpt lat="42.58898142877024" lon="12.51275317102293"><ele>226.0</ele><time>2026-04-04T11:48:09.987Z</time></trkpt><trkpt lat="42.58903408958916" lon="12.51264819729938"><ele>226.99999999999997</ele><time>2026-04-04T11:48:10.987Z</time></trkpt><trkpt lat="42.58907942737405" lon="12.512544290951077"><ele>228.0</ele><time>2026-04-04T11:48:11.987Z</time></trkpt><trkpt lat="42.589130024188975" lon="12.512441721705702"><ele>229.0</ele><time>2026-04-04T11:48:12.987Z</time></trkpt><trkpt lat="42.58916862210264" lon="12.5123454126671"><ele>230.0</ele><time>2026-04-04T11:48:13.987Z</time></trkpt><trkpt lat="42.58920336495937" lon="12.51226593261145"><ele>230.99999999999997</ele><time>2026-04-04T11:48:14.987Z</time></trkpt><trkpt lat="42.589239686190275" lon="12.512182326268233"><ele>232.0</ele><time>2026-04-04T11:48:15.987Z</time></trkpt><trkpt lat="42.58928730979169" lon="12.512076713187446"><ele>232.33333333333331</ele><time>2026-04-04T11:48:16.987Z</time></trkpt><trkpt lat="42.589325708110465" lon="12.5119811084523"><ele>232.66666666666666</ele><time>2026-04-04T11:48:17.987Z</time></trkpt><trkpt lat="42.589362739953344" lon="12.51188942004216"><ele>233.0</ele><time>2026-04-04T11:48:18.987Z</time></trkpt><trkpt lat="42.589392920134465" lon="12.511793254036943"><ele>233.33333333333331</ele><time>2026-04-04T11:48:19.987Z</time></trkpt><trkpt lat="42.589435427160424" lon="12.511682917714413"><ele>233.66666666666666</ele><time>2026-04-04T11:48:20.987Z</time></trkpt><trkpt lat="42.58948056845236" lon="12.51157863831387"><ele>234.0</ele><time>2026-04-04T11:48:21.987Z</time></trkpt><trkpt lat="42.5895316239228" lon="12.511474009626516"><ele>235.66666666666666</ele><time>2026-04-04T11:48:22.987Z</time></trkpt><trkpt lat="42.589577413261" lon="12.511386779532081"><ele>237.33333333333331</ele><time>2026-04-04T11:48:23.987Z</time></trkpt><trkpt lat="42.589621950143474" lon="12.511315086989077"><ele>239.0</ele><time>2026-04-04T11:48:24.987Z</time></trkpt><trkpt lat="42.589662803884934" lon="12.511220847644694"><ele>240.66666666666666</ele><time>2026-04-04T11:48:25.987Z</time></trkpt><trkpt lat="42.58972737383238" lon="12.511090268648173"><ele>242.33333333333331</ele><time>2026-04-04T11:48:27.987Z</time></trkpt><trkpt lat="42.58977700093843" lon="12.510992503962038"><ele>244.0</ele><time>2026-04-04T11:48:29.987Z</time></trkpt><trkpt lat="42.589836524557924" lon="12.510883641987283"><ele>244.99999999999997</ele><time>2026-04-04T11:48:32.987Z</time></trkpt><trkpt lat="42.589879907857465" lon="12.510804704716586"><ele>246.0</ele><time>2026-04-04T11:48:33.987Z</time></trkpt><trkpt lat="42.58992976502205" lon="12.510708996702252"><ele>247.0</ele><time>2026-04-04T11:48:34.987Z</time></trkpt><trkpt lat="42.589976703919746" lon="12.510611104614965"><ele>248.0</ele><time>2026-04-04T11:48:35.987Z</time></trkpt><trkpt lat="42.59002100948792" lon="12.510521077813296"><ele>248.99999999999997</ele><time>2026-04-04T11:48:36.987Z</time></trkpt><trkpt lat="42.5900701407662" lon="12.51043936928623"><ele>250.0</ele><time>2026-04-04T11:48:37.987Z</time></trkpt><trkpt lat="42.59011782329695" lon="12.51036896520764"><ele>249.99999999999997</ele><time>2026-04-04T11:48:38.987Z</time></trkpt><trkpt lat="42.59017805515321" lon="12.510298612183897"><ele>250.0</ele><time>2026-04-04T11:48:39.987Z</time></trkpt><trkpt lat="42.59023611644115" lon="12.510252016591293"><ele>250.0</ele><time>2026-04-04T11:48:40.987Z</time></trkpt><trkpt lat="42.590265102387306" lon="12.510168127373312"><ele>250.0</ele><time>2026-04-04T11:48:44.987Z</time></trkpt><trkpt lat="42.59026252268675" lon="12.510076895898624"><ele>249.99999999999997</ele><time>2026-04-04T11:48:50.986Z</time></trkpt><trkpt lat="42.59026148130488" lon="12.509951255263804"><ele>250.0</ele><time>2026-04-04T11:48:52.986Z</time></trkpt><trkpt lat="42.59025617125939" lon="12.509826426099488"><ele>250.0</ele><time>2026-04-04T11:48:54.986Z</time></trkpt><trkpt lat="42.59023497803377" lon="12.509699938445786"><ele>250.0</ele><time>2026-04-04T11:48:56.986Z</time></trkpt><trkpt lat="42.59021011487209" lon="12.50955352104966"><ele>250.0</ele><time>2026-04-04T11:48:58.986Z</time></trkpt><trkpt lat="42.590213350301404" lon="12.509457600716752"><ele>250.0</ele><time>2026-04-04T11:49:00.986Z</time></trkpt><trkpt lat="42.590189526079804" lon="12.509350425704874"><ele>250.0</ele><time>2026-04-04T11:49:03.986Z</time></trkpt><trkpt lat="42.59016513073079" lon="12.509176787519756"><ele>250.8</ele><time>2026-04-04T11:49:05.986Z</time></trkpt><trkpt lat="42.59015348451982" lon="12.509073650826828"><ele>251.6</ele><time>2026-04-04T11:49:06.986Z</time></trkpt><trkpt lat="42.590138098921805" lon="12.508934454706576"><ele>252.39999999999998</ele><time>2026-04-04T11:49:07.986Z</time></trkpt><trkpt lat="42.59012024183778" lon="12.50878347123445"><ele>253.2</ele><time>2026-04-04T11:49:08.986Z</time></trkpt><trkpt lat="42.59010896965492" lon="12.50865194661622"><ele>254.0</ele><time>2026-04-04T11:49:09.986Z</time></trkpt><trkpt lat="42.590097257948635" lon="12.508525533180203"><ele>254.79999999999998</ele><time>2026-04-04T11:49:10.986Z</time></trkpt><trkpt lat="42.59008341626855" lon="12.508385723245427"><ele>255.59999999999997</ele><time>2026-04-04T11:49:11.986Z</time></trkpt><trkpt lat="42.590062264374964" lon="12.508251001076719"><ele>256.4</ele><time>2026-04-04T11:49:12.986Z</time></trkpt><trkpt lat="42.590037100774666" lon="12.508136159257099"><ele>257.2</ele><time>2026-04-04T11:49:13.986Z</time></trkpt><trkpt lat="42.590002255450294" lon="12.508033630486368"><ele>258.0</ele><time>2026-04-04T11:49:14.986Z</time></trkpt><trkpt lat="42.58998073236841" lon="12.507913889926943"><ele>258.5</ele><time>2026-04-04T11:49:15.986Z</time></trkpt><trkpt lat="42.5899650589111" lon="12.50779532466569"><ele>259.0</ele><time>2026-04-04T11:49:16.986Z</time></trkpt><trkpt lat="42.58995531056836" lon="12.507682506889605"><ele>259.5</ele><time>2026-04-04T11:49:17.986Z</time></trkpt><trkpt lat="42.589938860491095" lon="12.50758218552902"><ele>260.0</ele><time>2026-04-04T11:49:18.986Z</time></trkpt><trkpt lat="42.58991381716923" lon="12.507472022116271"><ele>260.5</ele><time>2026-04-04T11:49:19.986Z</time></trkpt><trkpt lat="42.58988718905908" lon="12.507349062337903"><ele>261.0</ele><time>2026-04-04T11:49:20.986Z</time></trkpt><trkpt lat="42.58986508767367" lon="12.50723816039689"><ele>261.0</ele><time>2026-04-04T11:49:21.986Z</time></trkpt><trkpt lat="42.58984432972608" lon="12.507122479256122"><ele>261.0</ele><time>2026-04-04T11:49:22.986Z</time></trkpt><trkpt lat="42.58981676660413" lon="12.506995381496548"><ele>261.0</ele><time>2026-04-04T11:49:23.986Z</time></trkpt><trkpt lat="42.58978865769358" lon="12.506883585585216"><ele>261.0</ele><time>2026-04-04T11:49:24.986Z</time></trkpt><trkpt lat="42.58975411492241" lon="12.506779707229546"><ele>261.0</ele><time>2026-04-04T11:49:25.986Z</time></trkpt><trkpt lat="42.58971545980089" lon="12.506663362455935"><ele>261.6</ele><time>2026-04-04T11:49:26.986Z</time></trkpt><trkpt lat="42.58967767563641" lon="12.506537810853905"><ele>262.20000000000005</ele><time>2026-04-04T11:49:27.986Z</time></trkpt><trkpt lat="42.589650494794014" lon="12.506425355913501"><ele>262.79999999999995</ele><time>2026-04-04T11:49:28.986Z</time></trkpt><trkpt lat="42.58956115113734" lon="12.506277547694765"><ele>263.4</ele><time>2026-04-04T11:49:30.986Z</time></trkpt><trkpt lat="42.5894895364584" lon="12.506198666072445"><ele>264.0</ele><time>2026-04-04T11:49:31.986Z</time></trkpt><trkpt lat="42.589404577337795" lon="12.50609717845731"><ele>264.0</ele><time>2026-04-04T11:49:33.986Z</time></trkpt><trkpt lat="42.58933422241733" lon="12.505948195703285"><ele>264.0</ele><time>2026-04-04T11:49:35.986Z</time></trkpt><trkpt lat="42.58928380753784" lon="12.50584980829202"><ele>264.0</ele><time>2026-04-04T11:49:36.986Z</time></trkpt><trkpt lat="42.589232416341446" lon="12.505778437743444"><ele>264.0</ele><time>2026-04-04T11:49:37.986Z</time></trkpt><trkpt lat="42.58914210319176" lon="12.505668580953541"><ele>264.0</ele><time>2026-04-04T11:49:39.986Z</time></trkpt><trkpt lat="42.58908716866949" lon="12.505591015067962"><ele>264.0</ele><time>2026-04-04T11:49:41.985Z</time></trkpt><trkpt lat="42.58905327332967" lon="12.505499605767012"><ele>264.0</ele><time>2026-04-04T11:49:46.986Z</time></trkpt><trkpt lat="42.589004449132425" lon="12.505382360640725"><ele>264.0</ele><time>2026-04-04T11:50:13.985Z</time></trkpt><trkpt lat="42.588944012632176" lon="12.505348876216607"><ele>264.0</ele><time>2026-04-04T11:50:15.985Z</time></trkpt><trkpt lat="42.58902401865618" lon="12.505429955083052"><ele>264.0</ele><time>2026-04-04T11:50:45.985Z</time></trkpt><trkpt lat="42.58907387709624" lon="12.505507808768114"><ele>264.0</ele><time>2026-04-04T11:50:47.985Z</time></trkpt><trkpt lat="42.58912541795884" lon="12.50565012449824"><ele>264.0</ele><time>2026-04-04T11:50:49.984Z</time></trkpt><trkpt lat="42.589173879570765" lon="12.505711534490821"><ele>264.0</ele><time>2026-04-04T11:50:50.984Z</time></trkpt><trkpt lat="42.58924380906814" lon="12.505795559175029"><ele>264.0</ele><time>2026-04-04T11:50:51.984Z</time></trkpt><trkpt lat="42.589316034664854" lon="12.505889033962653"><ele>264.0</ele><time>2026-04-04T11:50:52.984Z</time></trkpt><trkpt lat="42.58937496089917" lon="12.50598765848861"><ele>264.0</ele><time>2026-04-04T11:50:53.984Z</time></trkpt><trkpt lat="42.58940990978004" lon="12.506062496952437"><ele>264.0</ele><time>2026-04-04T11:50:54.984Z</time></trkpt><trkpt lat="42.589479684386234" lon="12.50617346578362"><ele>264.0</ele><time>2026-04-04T11:50:56.984Z</time></trkpt><trkpt lat="42.589528384097136" lon="12.506234399339696"><ele>264.0</ele><time>2026-04-04T11:50:57.984Z</time></trkpt><trkpt lat="42.589580075589915" lon="12.506291681032572"><ele>264.0</ele><time>2026-04-04T11:50:58.984Z</time></trkpt><trkpt lat="42.5896278224353" lon="12.506368272463508"><ele>264.0</ele><time>2026-04-04T11:51:00.984Z</time></trkpt><trkpt lat="42.58967599953431" lon="12.506447975471023"><ele>264.0</ele><time>2026-04-04T11:51:05.984Z</time></trkpt><trkpt lat="42.58972655050101" lon="12.506373991261254"><ele>264.0</ele><time>2026-04-04T11:51:17.984Z</time></trkpt><trkpt lat="42.589760255685135" lon="12.506287035303957"><ele>264.0</ele><time>2026-04-04T11:51:20.984Z</time></trkpt><trkpt lat="42.58980047810638" lon="12.506186969765492"><ele>263.42857142857144</ele><time>2026-04-04T11:51:37.984Z</time></trkpt><trkpt lat="42.58986361871868" lon="12.506101027835667"><ele>262.8571428571429</ele><time>2026-04-04T11:51:40.984Z</time></trkpt><trkpt lat="42.58991722485205" lon="12.506046410765576"><ele>262.28571428571433</ele><time>2026-04-04T11:51:43.984Z</time></trkpt><trkpt lat="42.58996426065418" lon="12.505986632576194"><ele>261.7142857142857</ele><time>2026-04-04T11:51:47.984Z</time></trkpt><trkpt lat="42.59002448514545" lon="12.505928662124198"><ele>261.14285714285717</ele><time>2026-04-04T11:51:52.983Z</time></trkpt><trkpt lat="42.59007605573201" lon="12.50587947967947"><ele>260.5714285714286</ele><time>2026-04-04T11:51:56.984Z</time></trkpt><trkpt lat="42.590133728666245" lon="12.505824053171775"><ele>260.0</ele><time>2026-04-04T11:52:04.984Z</time></trkpt><trkpt lat="42.59021305070878" lon="12.50576385634046"><ele>260.0</ele><time>2026-04-04T11:52:07.984Z</time></trkpt><trkpt lat="42.59029101183197" lon="12.505710097844299"><ele>260.0</ele><time>2026-04-04T11:52:09.984Z</time></trkpt><trkpt lat="42.590362431956386" lon="12.505654835825997"><ele>260.0</ele><time>2026-04-04T11:52:11.984Z</time></trkpt><trkpt lat="42.59045332355928" lon="12.505584391576619"><ele>260.0</ele><time>2026-04-04T11:52:13.984Z</time></trkpt><trkpt lat="42.590521625590874" lon="12.505552713329214"><ele>260.0</ele><time>2026-04-04T11:52:15.984Z</time></trkpt><trkpt lat="42.59060083283431" lon="12.505555824421695"><ele>260.0</ele><time>2026-04-04T11:52:18.984Z</time></trkpt><trkpt lat="42.590686242395655" lon="12.505603317585116"><ele>258.0</ele><time>2026-04-04T11:52:21.984Z</time></trkpt><trkpt lat="42.59076146567057" lon="12.505609735885901"><ele>256.0</ele><time>2026-04-04T11:52:23.984Z</time></trkpt><trkpt lat="42.59083643120555" lon="12.505537739873308"><ele>254.0</ele><time>2026-04-04T11:52:26.984Z</time></trkpt><trkpt lat="42.590890250358264" lon="12.505493139506711"><ele>252.0</ele><time>2026-04-04T11:52:28.983Z</time></trkpt><trkpt lat="42.590994701447926" lon="12.505505170288133"><ele>250.00000000000003</ele><time>2026-04-04T11:52:31.983Z</time></trkpt><trkpt lat="42.59109461041483" lon="12.505453597696745"><ele>248.0</ele><time>2026-04-04T11:52:33.983Z</time></trkpt><trkpt lat="42.591192845814724" lon="12.505434148286636"><ele>244.8</ele><time>2026-04-04T11:52:35.983Z</time></trkpt><trkpt lat="42.59131026635316" lon="12.50543620523752"><ele>241.60000000000002</ele><time>2026-04-04T11:52:37.983Z</time></trkpt><trkpt lat="42.59138187144481" lon="12.505433581510658"><ele>238.39999999999998</ele><time>2026-04-04T11:52:38.983Z</time></trkpt><trkpt lat="42.591508102263994" lon="12.50541613797506"><ele>235.2</ele><time>2026-04-04T11:52:40.983Z</time></trkpt><trkpt lat="42.591611118032894" lon="12.505405790441486"><ele>232.0</ele><time>2026-04-04T11:52:41.983Z</time></trkpt><trkpt lat="42.591694396547844" lon="12.50539486551274"><ele>231.2</ele><time>2026-04-04T11:52:42.983Z</time></trkpt><trkpt lat="42.59178215173164" lon="12.505372997470388"><ele>230.39999999999998</ele><time>2026-04-04T11:52:43.983Z</time></trkpt><trkpt lat="42.5918558675843" lon="12.505349167430206"><ele>229.60000000000002</ele><time>2026-04-04T11:52:44.983Z</time></trkpt><trkpt lat="42.59195368107796" lon="12.505319033140434"><ele>228.8</ele><time>2026-04-04T11:52:46.983Z</time></trkpt><trkpt lat="42.592093454540404" lon="12.505234659415457"><ele>228.0</ele><time>2026-04-04T11:52:48.983Z</time></trkpt><trkpt lat="42.5921769313592" lon="12.50519230281613"><ele>226.60000000000002</ele><time>2026-04-04T11:52:49.983Z</time></trkpt><trkpt lat="42.59226050379354" lon="12.50517388232606"><ele>225.20000000000002</ele><time>2026-04-04T11:52:50.983Z</time></trkpt><trkpt lat="42.59235449152927" lon="12.50517538575921"><ele>223.8</ele><time>2026-04-04T11:52:51.983Z</time></trkpt><trkpt lat="42.5924583614797" lon="12.505196315297558"><ele>222.4</ele><time>2026-04-04T11:52:52.983Z</time></trkpt><trkpt lat="42.59253983600891" lon="12.505219540954167"><ele>221.0</ele><time>2026-04-04T11:52:53.983Z</time></trkpt><trkpt lat="42.59262226685039" lon="12.50524404583195"><ele>221.00000000000003</ele><time>2026-04-04T11:52:54.983Z</time></trkpt><trkpt lat="42.592706290832766" lon="12.505272440545369"><ele>221.0</ele><time>2026-04-04T11:52:55.983Z</time></trkpt><trkpt lat="42.592773281429025" lon="12.505296824456407"><ele>221.0</ele><time>2026-04-04T11:52:56.983Z</time></trkpt><trkpt lat="42.59285002907999" lon="12.505331008126948"><ele>221.0</ele><time>2026-04-04T11:52:57.983Z</time></trkpt><trkpt lat="42.592918043329526" lon="12.505352678226538"><ele>221.00000000000003</ele><time>2026-04-04T11:52:58.983Z</time></trkpt><trkpt lat="42.5929996976355" lon="12.505384049598213"><ele>221.0</ele><time>2026-04-04T11:52:59.983Z</time></trkpt><trkpt lat="42.59308443117378" lon="12.505423595814255"><ele>220.00000000000003</ele><time>2026-04-04T11:53:00.983Z</time></trkpt><trkpt lat="42.59316824409447" lon="12.505463152615883"><ele>219.0</ele><time>2026-04-04T11:53:01.983Z</time></trkpt><trkpt lat="42.593271177662274" lon="12.505493352161514"><ele>218.0</ele><time>2026-04-04T11:53:02.983Z</time></trkpt><trkpt lat="42.59334702708555" lon="12.505531883762506"><ele>217.0</ele><time>2026-04-04T11:53:03.983Z</time></trkpt><trkpt lat="42.59342151281745" lon="12.505560659134806"><ele>216.00000000000003</ele><time>2026-04-04T11:53:04.983Z</time></trkpt><trkpt lat="42.59349215790615" lon="12.505592255761913"><ele>215.0</ele><time>2026-04-04T11:53:05.983Z</time></trkpt><trkpt lat="42.59358431709669" lon="12.505640521804246"><ele>215.00000000000003</ele><time>2026-04-04T11:53:06.983Z</time></trkpt><trkpt lat="42.593661849026965" lon="12.505690873396972"><ele>215.0</ele><time>2026-04-04T11:53:07.983Z</time></trkpt><trkpt lat="42.593742128182015" lon="12.505742271431584"><ele>215.0</ele><time>2026-04-04T11:53:08.983Z</time></trkpt><trkpt lat="42.59381003372116" lon="12.50578752127612"><ele>215.0</ele><time>2026-04-04T11:53:09.983Z</time></trkpt><trkpt lat="42.59387543719292" lon="12.505832051226772"><ele>215.00000000000003</ele><time>2026-04-04T11:53:10.983Z</time></trkpt><trkpt lat="42.5939464295736" lon="12.505897216604192"><ele>215.0</ele><time>2026-04-04T11:53:11.983Z</time></trkpt><trkpt lat="42.59401243063468" lon="12.505955574138602"><ele>213.83333333333334</ele><time>2026-04-04T11:53:12.983Z</time></trkpt><trkpt lat="42.59407503456496" lon="12.506014913857571"><ele>212.66666666666669</ele><time>2026-04-04T11:53:13.983Z</time></trkpt><trkpt lat="42.59412960377202" lon="12.506062418828673"><ele>211.5</ele><time>2026-04-04T11:53:14.983Z</time></trkpt><trkpt lat="42.59418548021578" lon="12.50611607093546"><ele>210.33333333333331</ele><time>2026-04-04T11:53:15.983Z</time></trkpt><trkpt lat="42.59423793177545" lon="12.506178880087525"><ele>209.16666666666666</ele><time>2026-04-04T11:53:16.983Z</time></trkpt><trkpt lat="42.59428256055339" lon="12.506344058398621"><ele>208.0</ele><time>2026-04-04T11:53:18.983Z</time></trkpt><trkpt lat="42.594295245996726" lon="12.506444696930915"><ele>207.16666666666666</ele><time>2026-04-04T11:53:19.983Z</time></trkpt><trkpt lat="42.594305534041965" lon="12.5065469084538"><ele>206.33333333333331</ele><time>2026-04-04T11:53:20.983Z</time></trkpt><trkpt lat="42.59433878351088" lon="12.506679216489973"><ele>205.5</ele><time>2026-04-04T11:53:22.983Z</time></trkpt><trkpt lat="42.59438715724663" lon="12.506770885596431"><ele>204.66666666666669</ele><time>2026-04-04T11:53:24.983Z</time></trkpt><trkpt lat="42.594468760030715" lon="12.506797037524109"><ele>203.83333333333334</ele><time>2026-04-04T11:53:26.983Z</time></trkpt><trkpt lat="42.5945646990422" lon="12.506795529042494"><ele>203.0</ele><time>2026-04-04T11:53:28.983Z</time></trkpt><trkpt lat="42.594633151267416" lon="12.506772961517905"><ele>200.83333333333334</ele><time>2026-04-04T11:53:29.983Z</time></trkpt><trkpt lat="42.59470198088055" lon="12.506759462122474"><ele>198.66666666666669</ele><time>2026-04-04T11:53:30.983Z</time></trkpt><trkpt lat="42.59482479783676" lon="12.506739970409054"><ele>196.5</ele><time>2026-04-04T11:53:32.983Z</time></trkpt><trkpt lat="42.59488788979153" lon="12.506745708528573"><ele>194.33333333333334</ele><time>2026-04-04T11:53:33.983Z</time></trkpt><trkpt lat="42.5949914090061" lon="12.506777906320531"><ele>192.16666666666669</ele><time>2026-04-04T11:53:35.983Z</time></trkpt><trkpt lat="42.595062282447145" lon="12.506790191966855"><ele>190.0</ele><time>2026-04-04T11:53:36.983Z</time></trkpt><trkpt lat="42.595140677969965" lon="12.50683309122328"><ele>190.0</ele><time>2026-04-04T11:53:37.983Z</time></trkpt><trkpt lat="42.59521024479002" lon="12.506873764230432"><ele>190.0</ele><time>2026-04-04T11:53:38.983Z</time></trkpt><trkpt lat="42.59528887035653" lon="12.506919922312347"><ele>190.0</ele><time>2026-04-04T11:53:39.983Z</time></trkpt><trkpt lat="42.59535437885319" lon="12.50695268549797"><ele>190.0</ele><time>2026-04-04T11:53:40.983Z</time></trkpt><trkpt lat="42.59541717138811" lon="12.506985044352533"><ele>190.0</ele><time>2026-04-04T11:53:41.983Z</time></trkpt><trkpt lat="42.59552496881477" lon="12.507050173203238"><ele>190.0</ele><time>2026-04-04T11:53:43.982Z</time></trkpt><trkpt lat="42.595611912170774" lon="12.507087493812875"><ele>187.33333333333334</ele><time>2026-04-04T11:53:45.982Z</time></trkpt><trkpt lat="42.59569336233559" lon="12.507136434408036"><ele>184.66666666666669</ele><time>2026-04-04T11:53:47.982Z</time></trkpt><trkpt lat="42.595766238840746" lon="12.507179586824071"><ele>182.0</ele><time>2026-04-04T11:53:49.982Z</time></trkpt><trkpt lat="42.5958448363824" lon="12.507224472640488"><ele>179.33333333333334</ele><time>2026-04-04T11:53:51.982Z</time></trkpt><trkpt lat="42.595956521505734" lon="12.507284720427641"><ele>176.66666666666666</ele><time>2026-04-04T11:53:53.982Z</time></trkpt><trkpt lat="42.59602391898215" lon="12.507310670020027"><ele>174.0</ele><time>2026-04-04T11:53:54.982Z</time></trkpt><trkpt lat="42.59609633187493" lon="12.50734929695294"><ele>174.0</ele><time>2026-04-04T11:53:55.982Z</time></trkpt><trkpt lat="42.59616652627191" lon="12.507406074948946"><ele>174.0</ele><time>2026-04-04T11:53:56.982Z</time></trkpt><trkpt lat="42.596236126489934" lon="12.507446949432248"><ele>174.0</ele><time>2026-04-04T11:53:57.982Z</time></trkpt><trkpt lat="42.596339281992" lon="12.507530407396247"><ele>174.0</ele><time>2026-04-04T11:53:59.982Z</time></trkpt><trkpt lat="42.59637099096295" lon="12.507607521717627"><ele>174.0</ele><time>2026-04-04T11:54:00.981Z</time></trkpt><trkpt lat="42.59639480552323" lon="12.507695655053473"><ele>174.0</ele><time>2026-04-04T11:54:01.981Z</time></trkpt><trkpt lat="42.59642726490455" lon="12.507775787527478"><ele>172.16666666666666</ele><time>2026-04-04T11:54:02.981Z</time></trkpt><trkpt lat="42.59647003716452" lon="12.507844857581022"><ele>170.33333333333334</ele><time>2026-04-04T11:54:03.981Z</time></trkpt><trkpt lat="42.59650102691342" lon="12.507931053970418"><ele>168.5</ele><time>2026-04-04T11:54:05.981Z</time></trkpt><trkpt lat="42.596539711879885" lon="12.508091820591972"><ele>166.66666666666669</ele><time>2026-04-04T11:54:17.981Z</time></trkpt><trkpt lat="42.59655583424177" lon="12.50819668311648"><ele>164.83333333333334</ele><time>2026-04-04T11:54:18.981Z</time></trkpt><trkpt lat="42.59657881223503" lon="12.508325462315566"><ele>163.0</ele><time>2026-04-04T11:54:19.981Z</time></trkpt><trkpt lat="42.5965942436373" lon="12.508464023609053"><ele>162.60000000000002</ele><time>2026-04-04T11:54:20.981Z</time></trkpt><trkpt lat="42.59652287405057" lon="12.508584128719612"><ele>162.20000000000002</ele><time>2026-04-04T11:54:21.981Z</time></trkpt><trkpt lat="42.59651216850223" lon="12.508690247429099"><ele>161.8</ele><time>2026-04-04T11:54:22.981Z</time></trkpt><trkpt lat="42.59649665475149" lon="12.508783665688222"><ele>161.4</ele><time>2026-04-04T11:54:23.981Z</time></trkpt><trkpt lat="42.59648463838234" lon="12.508895739850809"><ele>161.0</ele><time>2026-04-04T11:54:24.981Z</time></trkpt><trkpt lat="42.59657116202768" lon="12.509017084231479"><ele>160.5</ele><time>2026-04-04T11:54:25.981Z</time></trkpt><trkpt lat="42.596594115399256" lon="12.50912333410232"><ele>160.0</ele><time>2026-04-04T11:54:26.981Z</time></trkpt><trkpt lat="42.596638723912356" lon="12.50921006808366"><ele>159.5</ele><time>2026-04-04T11:54:27.981Z</time></trkpt><trkpt lat="42.596700423696" lon="12.50927117044929"><ele>159.0</ele><time>2026-04-04T11:54:28.981Z</time></trkpt><trkpt lat="42.596767528863154" lon="12.509322896518825"><ele>158.5</ele><time>2026-04-04T11:54:29.981Z</time></trkpt><trkpt lat="42.59685840288437" lon="12.50937857482915"><ele>158.0</ele><time>2026-04-04T11:54:30.981Z</time></trkpt><trkpt lat="42.596952099147735" lon="12.509433973303794"><ele>157.4</ele><time>2026-04-04T11:54:31.981Z</time></trkpt><trkpt lat="42.597048090275024" lon="12.509483980546117"><ele>156.8</ele><time>2026-04-04T11:54:32.981Z</time></trkpt><trkpt lat="42.59715496931561" lon="12.509540832485742"><ele>156.2</ele><time>2026-04-04T11:54:33.981Z</time></trkpt><trkpt lat="42.59726629278809" lon="12.509607566773726"><ele>155.6</ele><time>2026-04-04T11:54:34.981Z</time></trkpt><trkpt lat="42.597364631418564" lon="12.50967364199188"><ele>155.0</ele><time>2026-04-04T11:54:35.981Z</time></trkpt><trkpt lat="42.59745479708928" lon="12.509738971230586"><ele>154.66666666666666</ele><time>2026-04-04T11:54:36.981Z</time></trkpt><trkpt lat="42.59754072542348" lon="12.509803065514959"><ele>154.33333333333331</ele><time>2026-04-04T11:54:37.981Z</time></trkpt><trkpt lat="42.59762117637395" lon="12.509854289866714"><ele>154.0</ele><time>2026-04-04T11:54:38.981Z</time></trkpt><trkpt lat="42.59770424638324" lon="12.509922095037547"><ele>153.66666666666666</ele><time>2026-04-04T11:54:39.981Z</time></trkpt><trkpt lat="42.59778932614948" lon="12.509973230525972"><ele>153.33333333333334</ele><time>2026-04-04T11:54:40.981Z</time></trkpt><trkpt lat="42.597855035106534" lon="12.51000534585146"><ele>153.0</ele><time>2026-04-04T11:54:41.981Z</time></trkpt><trkpt lat="42.5979450853901" lon="12.510018621722418"><ele>153.0</ele><time>2026-04-04T11:54:43.981Z</time></trkpt><trkpt lat="42.59801390923822" lon="12.509797730934773"><ele>153.0</ele><time>2026-04-04T11:54:47.981Z</time></trkpt><trkpt lat="42.59799760587887" lon="12.509664769346509"><ele>153.0</ele><time>2026-04-04T11:54:48.981Z</time></trkpt><trkpt lat="42.59800075054695" lon="12.509502165407396"><ele>153.0</ele><time>2026-04-04T11:54:49.981Z</time></trkpt><trkpt lat="42.597985013921544" lon="12.509350861995125"><ele>153.0</ele><time>2026-04-04T11:54:50.981Z</time></trkpt><trkpt lat="42.59795013545313" lon="12.509214014354045"><ele>153.0</ele><time>2026-04-04T11:54:51.981Z</time></trkpt><trkpt lat="42.59795768464299" lon="12.509094582477136"><ele>153.0</ele><time>2026-04-04T11:54:52.981Z</time></trkpt><trkpt lat="42.597978410429114" lon="12.508994299697568"><ele>153.0</ele><time>2026-04-04T11:54:53.981Z</time></trkpt><trkpt lat="42.5980419402246" lon="12.508861571142747"><ele>153.0</ele><time>2026-04-04T11:54:54.981Z</time></trkpt><trkpt lat="42.598120527022544" lon="12.508725439755139"><ele>153.5</ele><time>2026-04-04T11:54:55.981Z</time></trkpt><trkpt lat="42.59820548499234" lon="12.50858298549229"><ele>154.0</ele><time>2026-04-04T11:54:56.981Z</time></trkpt><trkpt lat="42.59829164444233" lon="12.508445002144626"><ele>154.5</ele><time>2026-04-04T11:54:57.981Z</time></trkpt><trkpt lat="42.59835634163467" lon="12.508313632575767"><ele>155.0</ele><time>2026-04-04T11:54:58.981Z</time></trkpt><trkpt lat="42.59841755978516" lon="12.508205322582137"><ele>155.0</ele><time>2026-04-04T11:54:59.981Z</time></trkpt><trkpt lat="42.598479041648666" lon="12.508113838376516"><ele>155.0</ele><time>2026-04-04T11:55:00.981Z</time></trkpt><trkpt lat="42.59851717447041" lon="12.508014030771575"><ele>155.0</ele><time>2026-04-04T11:55:01.981Z</time></trkpt><trkpt lat="42.59852176063641" lon="12.507878531408622"><ele>155.0</ele><time>2026-04-04T11:55:02.981Z</time></trkpt><trkpt lat="42.59854550322476" lon="12.507781766438606"><ele>155.0</ele><time>2026-04-04T11:55:03.981Z</time></trkpt><trkpt lat="42.59857068794552" lon="12.507699769187045"><ele>155.0</ele><time>2026-04-04T11:55:04.981Z</time></trkpt><trkpt lat="42.59885747994094" lon="12.507618382801866"><ele>155.0</ele><time>2026-04-04T11:55:06.98Z</time></trkpt><trkpt lat="42.59891359178237" lon="12.507496034764847"><ele>155.0</ele><time>2026-04-04T11:55:08.98Z</time></trkpt><trkpt lat="42.598933231362814" lon="12.507390532554604"><ele>155.0</ele><time>2026-04-04T11:55:11.98Z</time></trkpt><trkpt lat="42.59892734057791" lon="12.50726117166063"><ele>155.0</ele><time>2026-04-04T11:55:14.98Z</time></trkpt><trkpt lat="42.59890647772684" lon="12.507149746943238"><ele>155.0</ele><time>2026-04-04T11:55:17.98Z</time></trkpt><trkpt lat="42.59888050196574" lon="12.50706618854129"><ele>155.0</ele><time>2026-04-04T11:55:21.98Z</time></trkpt><trkpt lat="42.598896020422025" lon="12.506943848926959"><ele>155.0</ele><time>2026-04-04T11:59:55.977Z</time></trkpt><trkpt lat="42.598860908860416" lon="12.50707192877169"><ele>155.0</ele><time>2026-04-04T12:00:01.977Z</time></trkpt><trkpt lat="42.59887189234377" lon="12.50716234974921"><ele>155.0</ele><time>2026-04-04T12:00:02.977Z</time></trkpt><trkpt lat="42.598889174306755" lon="12.507264362516777"><ele>155.0</ele><time>2026-04-04T12:00:04.978Z</time></trkpt><trkpt lat="42.59889234226813" lon="12.507350737115472"><ele>155.0</ele><time>2026-04-04T12:00:06.978Z</time></trkpt><trkpt lat="42.59886304099234" lon="12.507483027037814"><ele>155.0</ele><time>2026-04-04T12:00:08.978Z</time></trkpt><trkpt lat="42.59882005651245" lon="12.507587302061072"><ele>155.0</ele><time>2026-04-04T12:00:09.978Z</time></trkpt><trkpt lat="42.598766884855394" lon="12.50766455042695"><ele>155.0</ele><time>2026-04-04T12:00:10.977Z</time></trkpt><trkpt lat="42.59869848707069" lon="12.507777889010828"><ele>155.0</ele><time>2026-04-04T12:00:12.978Z</time></trkpt><trkpt lat="42.598663370085895" lon="12.507883223535348"><ele>155.0</ele><time>2026-04-04T12:00:14.978Z</time></trkpt><trkpt lat="42.59873121253154" lon="12.507850314711563"><ele>155.0</ele><time>2026-04-04T12:00:19.977Z</time></trkpt><trkpt lat="42.59878237601354" lon="12.507751534887669"><ele>155.0</ele><time>2026-04-04T12:00:20.977Z</time></trkpt><trkpt lat="42.59882656473757" lon="12.507655486612792"><ele>155.0</ele><time>2026-04-04T12:00:21.977Z</time></trkpt><trkpt lat="42.59887283204334" lon="12.507569518086047"><ele>155.0</ele><time>2026-04-04T12:00:22.977Z</time></trkpt><trkpt lat="42.59890906878527" lon="12.507447637226045"><ele>155.0</ele><time>2026-04-04T12:00:24.977Z</time></trkpt><trkpt lat="42.59891836743929" lon="12.50730908014046"><ele>155.0</ele><time>2026-04-04T12:00:26.977Z</time></trkpt><trkpt lat="42.598912741251844" lon="12.507210667311803"><ele>155.0</ele><time>2026-04-04T12:00:28.977Z</time></trkpt><trkpt lat="42.59890656533523" lon="12.507118714838452"><ele>155.0</ele><time>2026-04-04T12:00:30.977Z</time></trkpt><trkpt lat="42.59885558027683" lon="12.507055295866063"><ele>155.0</ele><time>2026-04-04T12:00:36.977Z</time></trkpt><trkpt lat="42.598882079386655" lon="12.507197773987329"><ele>155.0</ele><time>2026-04-04T12:03:09.975Z</time></trkpt><trkpt lat="42.59893021816993" lon="12.507094273895405"><ele>155.0</ele><time>2026-04-04T12:03:12.975Z</time></trkpt><trkpt lat="42.59895337435302" lon="12.50697723653336"><ele>155.0</ele><time>2026-04-04T12:03:14.975Z</time></trkpt><trkpt lat="42.59899240555993" lon="12.506882431171784"><ele>155.0</ele><time>2026-04-04T12:03:17.975Z</time></trkpt><trkpt lat="42.599049268017424" lon="12.506793396682282"><ele>155.33333333333331</ele><time>2026-04-04T12:03:20.975Z</time></trkpt><trkpt lat="42.599112803006676" lon="12.506737461906642"><ele>155.66666666666666</ele><time>2026-04-04T12:03:22.975Z</time></trkpt><trkpt lat="42.59918013288756" lon="12.506693513337144"><ele>156.0</ele><time>2026-04-04T12:03:24.975Z</time></trkpt><trkpt lat="42.59923886727554" lon="12.506630556724032"><ele>156.33333333333334</ele><time>2026-04-04T12:03:26.975Z</time></trkpt><trkpt lat="42.59930313260851" lon="12.50659106683725"><ele>156.66666666666669</ele><time>2026-04-04T12:03:28.975Z</time></trkpt><trkpt lat="42.59938282225857" lon="12.506539756012398"><ele>157.0</ele><time>2026-04-04T12:03:30.975Z</time></trkpt><trkpt lat="42.59945869703931" lon="12.506473506721742"><ele>157.16666666666669</ele><time>2026-04-04T12:03:32.975Z</time></trkpt><trkpt lat="42.599528423231504" lon="12.506420503470864"><ele>157.33333333333334</ele><time>2026-04-04T12:03:34.975Z</time></trkpt><trkpt lat="42.599604254590666" lon="12.506373183772018"><ele>157.5</ele><time>2026-04-04T12:03:36.975Z</time></trkpt><trkpt lat="42.5996712071923" lon="12.506356275882894"><ele>157.66666666666666</ele><time>2026-04-04T12:03:38.975Z</time></trkpt><trkpt lat="42.5997501510303" lon="12.506370926622328"><ele>157.83333333333331</ele><time>2026-04-04T12:03:42.975Z</time></trkpt><trkpt lat="42.59981875353792" lon="12.506425110913938"><ele>158.0</ele><time>2026-04-04T12:03:46.975Z</time></trkpt><trkpt lat="42.59989618958847" lon="12.50647740687025"><ele>158.0</ele><time>2026-04-04T12:03:48.975Z</time></trkpt><trkpt lat="42.59995232890154" lon="12.50654081619323"><ele>158.0</ele><time>2026-04-04T12:03:50.975Z</time></trkpt><trkpt lat="42.60000246216731" lon="12.506596975579996"><ele>158.0</ele><time>2026-04-04T12:03:52.975Z</time></trkpt><trkpt lat="42.600051273944786" lon="12.506678370511455"><ele>158.0</ele><time>2026-04-04T12:03:55.975Z</time></trkpt><trkpt lat="42.60012847742201" lon="12.506691951030895"><ele>158.0</ele><time>2026-04-04T12:03:58.975Z</time></trkpt><trkpt lat="42.600197574156724" lon="12.50666458667287"><ele>158.0</ele><time>2026-04-04T12:04:01.975Z</time></trkpt><trkpt lat="42.60028216906217" lon="12.506606448647426"><ele>158.0</ele><time>2026-04-04T12:04:03.975Z</time></trkpt><trkpt lat="42.600372622271706" lon="12.506561873095366"><ele>158.0</ele><time>2026-04-04T12:04:05.975Z</time></trkpt><trkpt lat="42.600466004884375" lon="12.506538640211417"><ele>158.0</ele><time>2026-04-04T12:04:07.975Z</time></trkpt><trkpt lat="42.6005517113283" lon="12.506489617971015"><ele>158.0</ele><time>2026-04-04T12:04:10.975Z</time></trkpt><trkpt lat="42.60062072381311" lon="12.506447989480378"><ele>158.0</ele><time>2026-04-04T12:04:12.975Z</time></trkpt><trkpt lat="42.600682000764" lon="12.506427399297918"><ele>158.0</ele><time>2026-04-04T12:04:20.974Z</time></trkpt><trkpt lat="42.60076337995447" lon="12.506346022968039"><ele>158.0</ele><time>2026-04-04T12:04:24.973Z</time></trkpt><trkpt lat="42.600826477046056" lon="12.506281048985478"><ele>158.0</ele><time>2026-04-04T12:04:26.974Z</time></trkpt><trkpt lat="42.60091281125741" lon="12.506195300670894"><ele>158.0</ele><time>2026-04-04T12:04:29.973Z</time></trkpt><trkpt lat="42.600963700250425" lon="12.506139744859606"><ele>158.0</ele><time>2026-04-04T12:04:31.973Z</time></trkpt><trkpt lat="42.60103784351534" lon="12.506081915934676"><ele>158.0</ele><time>2026-04-04T12:04:34.973Z</time></trkpt><trkpt lat="42.60110294277775" lon="12.506018646594368"><ele>158.0</ele><time>2026-04-04T12:04:36.973Z</time></trkpt><trkpt lat="42.60115751055637" lon="12.50597191773272"><ele>158.60000000000002</ele><time>2026-04-04T12:04:38.973Z</time></trkpt><trkpt lat="42.60123156907923" lon="12.505902779868395"><ele>159.20000000000002</ele><time>2026-04-04T12:04:40.973Z</time></trkpt><trkpt lat="42.6013101190767" lon="12.505831264726256"><ele>159.8</ele><time>2026-04-04T12:04:42.973Z</time></trkpt><trkpt lat="42.60140514049808" lon="12.505767486669177"><ele>160.4</ele><time>2026-04-04T12:04:44.973Z</time></trkpt><trkpt lat="42.601491059931654" lon="12.505748843067751"><ele>161.0</ele><time>2026-04-04T12:04:46.973Z</time></trkpt><trkpt lat="42.60158702280117" lon="12.505729230882265"><ele>161.0</ele><time>2026-04-04T12:04:49.973Z</time></trkpt><trkpt lat="42.601664865855206" lon="12.505728759652126"><ele>161.0</ele><time>2026-04-04T12:04:51.973Z</time></trkpt><trkpt lat="42.601746720223716" lon="12.505767350919887"><ele>161.0</ele><time>2026-04-04T12:04:53.973Z</time></trkpt><trkpt lat="42.601841020200666" lon="12.50580026743504"><ele>161.0</ele><time>2026-04-04T12:04:55.973Z</time></trkpt><trkpt lat="42.601935142634545" lon="12.505821573030067"><ele>161.0</ele><time>2026-04-04T12:04:58.973Z</time></trkpt><trkpt lat="42.60201042743433" lon="12.505833800894047"><ele>161.0</ele><time>2026-04-04T12:05:00.973Z</time></trkpt><trkpt lat="42.602072125387444" lon="12.505862443671722"><ele>160.33333333333331</ele><time>2026-04-04T12:05:02.973Z</time></trkpt><trkpt lat="42.60215786542375" lon="12.50589953923235"><ele>159.66666666666666</ele><time>2026-04-04T12:05:05.973Z</time></trkpt><trkpt lat="42.60223395218703" lon="12.505954459763249"><ele>159.0</ele><time>2026-04-04T12:05:07.973Z</time></trkpt><trkpt lat="42.60231938011652" lon="12.506018389015221"><ele>158.33333333333334</ele><time>2026-04-04T12:05:10.973Z</time></trkpt><trkpt lat="42.60239884088643" lon="12.50605871542287"><ele>157.66666666666669</ele><time>2026-04-04T12:05:12.973Z</time></trkpt><trkpt lat="42.602466422477335" lon="12.50610046579313"><ele>157.0</ele><time>2026-04-04T12:05:14.973Z</time></trkpt><trkpt lat="42.60253802725541" lon="12.506139706421452"><ele>157.0</ele><time>2026-04-04T12:05:16.973Z</time></trkpt><trkpt lat="42.60261756361384" lon="12.506177694363831"><ele>157.0</ele><time>2026-04-04T12:05:18.973Z</time></trkpt><trkpt lat="42.60268624389846" lon="12.506227098563404"><ele>157.0</ele><time>2026-04-04T12:05:20.973Z</time></trkpt><trkpt lat="42.602773261277626" lon="12.506252711558146"><ele>157.0</ele><time>2026-04-04T12:05:22.973Z</time></trkpt><trkpt lat="42.60285697460896" lon="12.506268753397302"><ele>157.0</ele><time>2026-04-04T12:05:24.973Z</time></trkpt><trkpt lat="42.60292893320457" lon="12.506302738110879"><ele>157.0</ele><time>2026-04-04T12:05:26.973Z</time></trkpt><trkpt lat="42.60299228526725" lon="12.506352900268782"><ele>157.33333333333334</ele><time>2026-04-04T12:05:28.973Z</time></trkpt><trkpt lat="42.60305934311201" lon="12.50637398630369"><ele>157.66666666666669</ele><time>2026-04-04T12:05:30.973Z</time></trkpt><trkpt lat="42.60315313635552" lon="12.50640944094381"><ele>158.0</ele><time>2026-04-04T12:05:33.973Z</time></trkpt><trkpt lat="42.60322180122064" lon="12.50642948606999"><ele>158.33333333333334</ele><time>2026-04-04T12:05:35.973Z</time></trkpt><trkpt lat="42.603288808504104" lon="12.506450244696374"><ele>158.66666666666666</ele><time>2026-04-04T12:05:37.972Z</time></trkpt><trkpt lat="42.60336053779886" lon="12.50646980969237"><ele>159.0</ele><time>2026-04-04T12:05:39.972Z</time></trkpt><trkpt lat="42.60344644178589" lon="12.506520331390641"><ele>159.0</ele><time>2026-04-04T12:05:41.972Z</time></trkpt><trkpt lat="42.60352480928754" lon="12.506540676906663"><ele>159.0</ele><time>2026-04-04T12:05:43.972Z</time></trkpt><trkpt lat="42.60361748987939" lon="12.50655572025523"><ele>159.0</ele><time>2026-04-04T12:05:45.972Z</time></trkpt><trkpt lat="42.60369922960391" lon="12.506555101147178"><ele>159.0</ele><time>2026-04-04T12:05:48.972Z</time></trkpt><trkpt lat="42.60379840411025" lon="12.506563003718677"><ele>159.0</ele><time>2026-04-04T12:05:50.972Z</time></trkpt><trkpt lat="42.60389216104191" lon="12.506545795989354"><ele>159.0</ele><time>2026-04-04T12:05:52.972Z</time></trkpt><trkpt lat="42.60396495322055" lon="12.50652504204672"><ele>159.0</ele><time>2026-04-04T12:05:54.972Z</time></trkpt><trkpt lat="42.604048517962795" lon="12.50651940391205"><ele>159.0</ele><time>2026-04-04T12:05:57.972Z</time></trkpt><trkpt lat="42.60413272375205" lon="12.506511712651593"><ele>159.0</ele><time>2026-04-04T12:05:59.972Z</time></trkpt><trkpt lat="42.60422106771739" lon="12.506510722826095"><ele>159.0</ele><time>2026-04-04T12:06:01.972Z</time></trkpt><trkpt lat="42.60430179305642" lon="12.506505370612674"><ele>159.0</ele><time>2026-04-04T12:06:03.972Z</time></trkpt><trkpt lat="42.60440386662605" lon="12.50646708445331"><ele>159.0</ele><time>2026-04-04T12:06:05.972Z</time></trkpt><trkpt lat="42.60449978363258" lon="12.506435601903114"><ele>159.0</ele><time>2026-04-04T12:06:07.972Z</time></trkpt><trkpt lat="42.60459032528185" lon="12.506387139646227"><ele>159.0</ele><time>2026-04-04T12:06:09.972Z</time></trkpt><trkpt lat="42.6046525220294" lon="12.506373322069747"><ele>159.0</ele><time>2026-04-04T12:06:11.972Z</time></trkpt><trkpt lat="42.60471315384952" lon="12.506397689895229"><ele>159.0</ele><time>2026-04-04T12:06:18.972Z</time></trkpt><trkpt lat="42.60478753764511" lon="12.506361862169554"><ele>159.0</ele><time>2026-04-04T12:06:25.972Z</time></trkpt><trkpt lat="42.60487670445527" lon="12.506285688321006"><ele>159.0</ele><time>2026-04-04T12:06:27.972Z</time></trkpt><trkpt lat="42.60495048495386" lon="12.506223975788144"><ele>159.0</ele><time>2026-04-04T12:06:29.972Z</time></trkpt><trkpt lat="42.60502321663724" lon="12.506162760017608"><ele>159.0</ele><time>2026-04-04T12:06:31.972Z</time></trkpt><trkpt lat="42.605083401700554" lon="12.506098821630955"><ele>159.0</ele><time>2026-04-04T12:06:33.971Z</time></trkpt><trkpt lat="42.60516022258971" lon="12.506032144565976"><ele>159.0</ele><time>2026-04-04T12:06:35.971Z</time></trkpt><trkpt lat="42.605225526704956" lon="12.50595843161131"><ele>159.0</ele><time>2026-04-04T12:06:37.971Z</time></trkpt><trkpt lat="42.605314281959345" lon="12.505863698060974"><ele>159.2</ele><time>2026-04-04T12:06:39.971Z</time></trkpt><trkpt lat="42.605400226879354" lon="12.50576556489644"><ele>159.4</ele><time>2026-04-04T12:06:42.971Z</time></trkpt><trkpt lat="42.60546798394219" lon="12.50566385702027"><ele>159.6</ele><time>2026-04-04T12:06:44.971Z</time></trkpt><trkpt lat="42.60552007590864" lon="12.50558879613665"><ele>159.8</ele><time>2026-04-04T12:06:46.971Z</time></trkpt><trkpt lat="42.605596066193954" lon="12.505509806782417"><ele>160.0</ele><time>2026-04-04T12:06:48.971Z</time></trkpt><trkpt lat="42.60567885585145" lon="12.505452094028511"><ele>160.6</ele><time>2026-04-04T12:06:50.971Z</time></trkpt><trkpt lat="42.60577344955011" lon="12.505373890670645"><ele>161.2</ele><time>2026-04-04T12:06:52.971Z</time></trkpt><trkpt lat="42.605866835453604" lon="12.505312558392577"><ele>161.8</ele><time>2026-04-04T12:06:54.971Z</time></trkpt><trkpt lat="42.60593196824927" lon="12.505261765936474"><ele>162.4</ele><time>2026-04-04T12:06:57.971Z</time></trkpt><trkpt lat="42.60600489627719" lon="12.505211964708426"><ele>163.0</ele><time>2026-04-04T12:06:59.971Z</time></trkpt><trkpt lat="42.606087341188505" lon="12.505182119691481"><ele>163.14285714285714</ele><time>2026-04-04T12:07:01.971Z</time></trkpt><trkpt lat="42.60616520421461" lon="12.505176476484342"><ele>163.28571428571428</ele><time>2026-04-04T12:07:03.971Z</time></trkpt><trkpt lat="42.606237148249136" lon="12.505181175716524"><ele>163.42857142857142</ele><time>2026-04-04T12:07:05.971Z</time></trkpt><trkpt lat="42.60630037274316" lon="12.505172295253365"><ele>163.57142857142856</ele><time>2026-04-04T12:07:07.971Z</time></trkpt><trkpt lat="42.606368606330335" lon="12.50517915576109"><ele>163.71428571428572</ele><time>2026-04-04T12:07:09.971Z</time></trkpt><trkpt lat="42.606430384117544" lon="12.505213614944202"><ele>163.85714285714283</ele><time>2026-04-04T12:07:11.971Z</time></trkpt><trkpt lat="42.60651812896413" lon="12.50524275123321"><ele>164.0</ele><time>2026-04-04T12:07:14.971Z</time></trkpt><trkpt lat="42.60657190153722" lon="12.505166499282637"><ele>164.0</ele><time>2026-04-04T12:07:16.971Z</time></trkpt><trkpt lat="42.60663695849413" lon="12.505023777286333"><ele>164.0</ele><time>2026-04-04T12:07:18.971Z</time></trkpt><trkpt lat="42.606675690145195" lon="12.504943003354438"><ele>164.0</ele><time>2026-04-04T12:07:19.971Z</time></trkpt><trkpt lat="42.606715083118914" lon="12.5048501691891"><ele>164.0</ele><time>2026-04-04T12:07:20.971Z</time></trkpt><trkpt lat="42.60674210503924" lon="12.504752413118918"><ele>164.0</ele><time>2026-04-04T12:07:21.971Z</time></trkpt><trkpt lat="42.606768606819884" lon="12.504632721299703"><ele>164.0</ele><time>2026-04-04T12:07:22.971Z</time></trkpt><trkpt lat="42.60680904985562" lon="12.504526298646262"><ele>164.0</ele><time>2026-04-04T12:07:23.971Z</time></trkpt><trkpt lat="42.606877503908606" lon="12.504453764349446"><ele>164.0</ele><time>2026-04-04T12:07:24.971Z</time></trkpt><trkpt lat="42.606948246379844" lon="12.504408413837712"><ele>164.0</ele><time>2026-04-04T12:07:25.97Z</time></trkpt><trkpt lat="42.60703146251538" lon="12.504370610458174"><ele>164.0</ele><time>2026-04-04T12:07:26.97Z</time></trkpt><trkpt lat="42.60712147823654" lon="12.504321612298813"><ele>164.0</ele><time>2026-04-04T12:07:27.97Z</time></trkpt><trkpt lat="42.607188738507446" lon="12.504250421944556"><ele>164.0</ele><time>2026-04-04T12:07:28.97Z</time></trkpt><trkpt lat="42.60724566775306" lon="12.504161208940806"><ele>164.0</ele><time>2026-04-04T12:07:29.97Z</time></trkpt><trkpt lat="42.60728600211641" lon="12.504068736517425"><ele>164.0</ele><time>2026-04-04T12:07:30.97Z</time></trkpt><trkpt lat="42.607314674435386" lon="12.503976329709126"><ele>164.0</ele><time>2026-04-04T12:07:31.97Z</time></trkpt><trkpt lat="42.607374287178345" lon="12.503853300188869"><ele>164.0</ele><time>2026-04-04T12:07:33.97Z</time></trkpt><trkpt lat="42.6074330978686" lon="12.50369662111934"><ele>164.0</ele><time>2026-04-04T12:07:35.97Z</time></trkpt><trkpt lat="42.607437792972725" lon="12.503595522866986"><ele>163.83333333333331</ele><time>2026-04-04T12:07:36.97Z</time></trkpt><trkpt lat="42.60743464334856" lon="12.503464650705288"><ele>163.66666666666666</ele><time>2026-04-04T12:07:37.97Z</time></trkpt><trkpt lat="42.60741845441513" lon="12.503358969162067"><ele>163.5</ele><time>2026-04-04T12:07:38.97Z</time></trkpt><trkpt lat="42.60740553642553" lon="12.503245501121414"><ele>163.33333333333334</ele><time>2026-04-04T12:07:39.97Z</time></trkpt><trkpt lat="42.60739701250669" lon="12.503128430451717"><ele>163.16666666666669</ele><time>2026-04-04T12:07:40.97Z</time></trkpt><trkpt lat="42.60738692198121" lon="12.503033393154448"><ele>163.0</ele><time>2026-04-04T12:07:41.97Z</time></trkpt><trkpt lat="42.607369081056845" lon="12.502926402141567"><ele>163.33333333333334</ele><time>2026-04-04T12:07:42.97Z</time></trkpt><trkpt lat="42.60736031017984" lon="12.502809850869939"><ele>163.66666666666669</ele><time>2026-04-04T12:07:43.97Z</time></trkpt><trkpt lat="42.60733969941747" lon="12.502699867779993"><ele>164.0</ele><time>2026-04-04T12:07:44.97Z</time></trkpt><trkpt lat="42.607320924851976" lon="12.502604169428698"><ele>164.33333333333334</ele><time>2026-04-04T12:07:45.97Z</time></trkpt><trkpt lat="42.60731298393232" lon="12.502510870854982"><ele>164.66666666666666</ele><time>2026-04-04T12:07:46.97Z</time></trkpt><trkpt lat="42.60732706280753" lon="12.502388417127163"><ele>165.0</ele><time>2026-04-04T12:07:48.97Z</time></trkpt><trkpt lat="42.60736969673776" lon="12.502324316152393"><ele>165.0</ele><time>2026-04-04T12:07:49.97Z</time></trkpt><trkpt lat="42.607429753874825" lon="12.502244417195516"><ele>165.0</ele><time>2026-04-04T12:07:50.97Z</time></trkpt><trkpt lat="42.607506269912484" lon="12.502167237069036"><ele>165.0</ele><time>2026-04-04T12:07:51.97Z</time></trkpt><trkpt lat="42.6075857538328" lon="12.502093716658855"><ele>165.0</ele><time>2026-04-04T12:07:52.97Z</time></trkpt><trkpt lat="42.60763805064312" lon="12.502027890765914"><ele>165.0</ele><time>2026-04-04T12:07:53.97Z</time></trkpt><trkpt lat="42.607663176189675" lon="12.50194175401339"><ele>165.0</ele><time>2026-04-04T12:07:54.97Z</time></trkpt><trkpt lat="42.60768169383661" lon="12.501831573782574"><ele>165.5</ele><time>2026-04-04T12:07:55.97Z</time></trkpt><trkpt lat="42.60771050098505" lon="12.501731484848454"><ele>166.0</ele><time>2026-04-04T12:07:56.97Z</time></trkpt><trkpt lat="42.60775833159182" lon="12.501648330763613"><ele>166.5</ele><time>2026-04-04T12:07:57.97Z</time></trkpt><trkpt lat="42.607799192737964" lon="12.50156438643324"><ele>167.0</ele><time>2026-04-04T12:07:58.97Z</time></trkpt><trkpt lat="42.60782908266458" lon="12.501469515622505"><ele>167.5</ele><time>2026-04-04T12:07:59.97Z</time></trkpt><trkpt lat="42.60785029947696" lon="12.501361946725133"><ele>168.0</ele><time>2026-04-04T12:08:00.97Z</time></trkpt><trkpt lat="42.607856982480904" lon="12.501234414963065"><ele>168.2</ele><time>2026-04-04T12:08:01.97Z</time></trkpt><trkpt lat="42.607838361418736" lon="12.501097601281979"><ele>168.4</ele><time>2026-04-04T12:08:02.97Z</time></trkpt><trkpt lat="42.60782461879481" lon="12.501000554706557"><ele>168.6</ele><time>2026-04-04T12:08:03.97Z</time></trkpt><trkpt lat="42.60784090424335" lon="12.500912221941249"><ele>168.79999999999998</ele><time>2026-04-04T12:08:04.97Z</time></trkpt><trkpt lat="42.6079377500658" lon="12.500772375439928"><ele>169.0</ele><time>2026-04-04T12:08:06.97Z</time></trkpt><trkpt lat="42.60800589599128" lon="12.500693327089772"><ele>169.16666666666669</ele><time>2026-04-04T12:08:07.97Z</time></trkpt><trkpt lat="42.60806837920574" lon="12.500610999911393"><ele>169.33333333333334</ele><time>2026-04-04T12:08:09.97Z</time></trkpt><trkpt lat="42.608118578354585" lon="12.500537513709345"><ele>169.5</ele><time>2026-04-04T12:08:12.97Z</time></trkpt><trkpt lat="42.608102013146976" lon="12.500439064702249"><ele>169.66666666666666</ele><time>2026-04-04T12:08:14.97Z</time></trkpt><trkpt lat="42.60804348362726" lon="12.500354679794057"><ele>169.83333333333331</ele><time>2026-04-04T12:08:16.97Z</time></trkpt><trkpt lat="42.60798120364108" lon="12.500300037907772"><ele>170.0</ele><time>2026-04-04T12:08:17.97Z</time></trkpt><trkpt lat="42.60791457153718" lon="12.500251129914515"><ele>170.2</ele><time>2026-04-04T12:08:18.97Z</time></trkpt><trkpt lat="42.60785378010469" lon="12.500134581637784"><ele>170.4</ele><time>2026-04-04T12:08:20.97Z</time></trkpt><trkpt lat="42.607836106108365" lon="12.499954856778489"><ele>170.60000000000002</ele><time>2026-04-04T12:08:22.97Z</time></trkpt><trkpt lat="42.60781749838182" lon="12.499848350558906"><ele>170.8</ele><time>2026-04-04T12:08:25.97Z</time></trkpt><trkpt lat="42.60780072875286" lon="12.49975774200056"><ele>171.0</ele><time>2026-04-04T12:09:10.969Z</time></trkpt><trkpt lat="42.60784687625127" lon="12.499605270954165"><ele>171.8</ele><time>2026-04-04T12:09:12.969Z</time></trkpt><trkpt lat="42.60787875749469" lon="12.499511823847241"><ele>172.60000000000002</ele><time>2026-04-04T12:09:13.969Z</time></trkpt><trkpt lat="42.607936557986505" lon="12.499406211905658"><ele>173.4</ele><time>2026-04-04T12:09:14.969Z</time></trkpt><trkpt lat="42.60796450414735" lon="12.499267888181382"><ele>174.2</ele><time>2026-04-04T12:09:15.969Z</time></trkpt><trkpt lat="42.60798185994249" lon="12.499130727700948"><ele>175.0</ele><time>2026-04-04T12:09:16.969Z</time></trkpt><trkpt lat="42.60799708616301" lon="12.499007160178241"><ele>175.0</ele><time>2026-04-04T12:09:17.969Z</time></trkpt><trkpt lat="42.60797055576326" lon="12.498878511666952"><ele>175.0</ele><time>2026-04-04T12:09:18.969Z</time></trkpt><trkpt lat="42.6079980264775" lon="12.49876394822997"><ele>175.0</ele><time>2026-04-04T12:09:19.969Z</time></trkpt><trkpt lat="42.608030068241746" lon="12.498678183768687"><ele>175.0</ele><time>2026-04-04T12:09:20.969Z</time></trkpt><trkpt lat="42.60805992440949" lon="12.498580917354008"><ele>175.0</ele><time>2026-04-04T12:09:21.969Z</time></trkpt><trkpt lat="42.60808865017875" lon="12.498449730274741"><ele>175.0</ele><time>2026-04-04T12:09:22.969Z</time></trkpt><trkpt lat="42.608110164025646" lon="12.498325935820612"><ele>175.0</ele><time>2026-04-04T12:09:23.969Z</time></trkpt><trkpt lat="42.60813129571726" lon="12.498216115044778"><ele>175.0</ele><time>2026-04-04T12:09:24.969Z</time></trkpt><trkpt lat="42.60815023597147" lon="12.498091612212686"><ele>175.0</ele><time>2026-04-04T12:09:25.969Z</time></trkpt><trkpt lat="42.608176849370864" lon="12.49795113106553"><ele>175.0</ele><time>2026-04-04T12:09:26.969Z</time></trkpt><trkpt lat="42.60820644851708" lon="12.497819706831079"><ele>175.0</ele><time>2026-04-04T12:09:27.969Z</time></trkpt><trkpt lat="42.6082406368188" lon="12.49770468945481"><ele>175.33333333333334</ele><time>2026-04-04T12:09:28.969Z</time></trkpt><trkpt lat="42.60828364441165" lon="12.497626638060888"><ele>175.66666666666669</ele><time>2026-04-04T12:09:29.969Z</time></trkpt><trkpt lat="42.60834136362141" lon="12.497579103635683"><ele>176.0</ele><time>2026-04-04T12:09:30.969Z</time></trkpt><trkpt lat="42.60840913295755" lon="12.497576869078273"><ele>176.33333333333334</ele><time>2026-04-04T12:09:31.969Z</time></trkpt><trkpt lat="42.60847689503039" lon="12.49763042866561"><ele>176.66666666666666</ele><time>2026-04-04T12:09:32.969Z</time></trkpt><trkpt lat="42.608559236889825" lon="12.497691104470674"><ele>177.0</ele><time>2026-04-04T12:09:33.969Z</time></trkpt><trkpt lat="42.60862753661576" lon="12.497737172030916"><ele>178.8</ele><time>2026-04-04T12:09:34.969Z</time></trkpt><trkpt lat="42.60871948014431" lon="12.497627412865645"><ele>180.6</ele><time>2026-04-04T12:09:36.969Z</time></trkpt><trkpt lat="42.608745205081476" lon="12.49751229167637"><ele>182.4</ele><time>2026-04-04T12:09:37.969Z</time></trkpt><trkpt lat="42.60877972878215" lon="12.49738842568542"><ele>184.20000000000002</ele><time>2026-04-04T12:09:38.969Z</time></trkpt><trkpt lat="42.608819777550046" lon="12.497285586186676"><ele>186.0</ele><time>2026-04-04T12:09:39.969Z</time></trkpt><trkpt lat="42.608870039301564" lon="12.497190930269518"><ele>186.0</ele><time>2026-04-04T12:09:40.969Z</time></trkpt><trkpt lat="42.60893705282162" lon="12.497119305642158"><ele>186.0</ele><time>2026-04-04T12:09:41.969Z</time></trkpt><trkpt lat="42.60901433729618" lon="12.497061094154807"><ele>186.0</ele><time>2026-04-04T12:09:42.969Z</time></trkpt><trkpt lat="42.609097196405806" lon="12.497038118235704"><ele>186.0</ele><time>2026-04-04T12:09:43.969Z</time></trkpt><trkpt lat="42.60917534116093" lon="12.497047517335119"><ele>186.0</ele><time>2026-04-04T12:09:44.969Z</time></trkpt><trkpt lat="42.60925280124131" lon="12.497078514238778"><ele>186.0</ele><time>2026-04-04T12:09:45.968Z</time></trkpt><trkpt lat="42.6093152320603" lon="12.497102905426573"><ele>186.0</ele><time>2026-04-04T12:09:46.968Z</time></trkpt><trkpt lat="42.60942506714945" lon="12.497154332514022"><ele>186.0</ele><time>2026-04-04T12:09:48.968Z</time></trkpt><trkpt lat="42.60948309578986" lon="12.49720353054346"><ele>186.0</ele><time>2026-04-04T12:09:50.968Z</time></trkpt><trkpt lat="42.60948444142836" lon="12.497100740321487"><ele>186.0</ele><time>2026-04-04T12:09:53.968Z</time></trkpt><trkpt lat="42.609441525741005" lon="12.497018123589546"><ele>186.0</ele><time>2026-04-04T12:09:54.968Z</time></trkpt><trkpt lat="42.60940091401285" lon="12.496930855964504"><ele>186.0</ele><time>2026-04-04T12:09:55.968Z</time></trkpt><trkpt lat="42.609364565121005" lon="12.49682114794161"><ele>185.83333333333334</ele><time>2026-04-04T12:09:56.968Z</time></trkpt><trkpt lat="42.60933494286774" lon="12.496716776571503"><ele>185.66666666666666</ele><time>2026-04-04T12:09:57.968Z</time></trkpt><trkpt lat="42.60930210591147" lon="12.496619428167492"><ele>185.5</ele><time>2026-04-04T12:09:58.968Z</time></trkpt><trkpt lat="42.60927348993404" lon="12.496540158322212"><ele>185.33333333333331</ele><time>2026-04-04T12:09:59.968Z</time></trkpt><trkpt lat="42.60924109228462" lon="12.496444349334885"><ele>185.16666666666666</ele><time>2026-04-04T12:10:00.968Z</time></trkpt><trkpt lat="42.60920385886725" lon="12.496336759190116"><ele>185.0</ele><time>2026-04-04T12:10:01.968Z</time></trkpt><trkpt lat="42.609170240659346" lon="12.496229336054785"><ele>185.0</ele><time>2026-04-04T12:10:02.968Z</time></trkpt><trkpt lat="42.609148025925535" lon="12.496128030610747"><ele>185.0</ele><time>2026-04-04T12:10:03.968Z</time></trkpt><trkpt lat="42.609126187040395" lon="12.49602188972198"><ele>185.0</ele><time>2026-04-04T12:10:04.968Z</time></trkpt><trkpt lat="42.60911320234068" lon="12.495926217164879"><ele>185.0</ele><time>2026-04-04T12:10:05.968Z</time></trkpt><trkpt lat="42.609103613825425" lon="12.495826485706749"><ele>185.0</ele><time>2026-04-04T12:10:06.968Z</time></trkpt><trkpt lat="42.60908570879753" lon="12.49571243609361"><ele>185.0</ele><time>2026-04-04T12:10:07.968Z</time></trkpt><trkpt lat="42.60907256026906" lon="12.495603224905388"><ele>185.0</ele><time>2026-04-04T12:10:08.968Z</time></trkpt><trkpt lat="42.60904842243705" lon="12.495461910993715"><ele>185.0</ele><time>2026-04-04T12:10:10.968Z</time></trkpt><trkpt lat="42.60903962199249" lon="12.49537268023753"><ele>185.0</ele><time>2026-04-04T12:10:11.968Z</time></trkpt><trkpt lat="42.609020958240684" lon="12.49528255298076"><ele>185.0</ele><time>2026-04-04T12:10:12.968Z</time></trkpt><trkpt lat="42.60903354447548" lon="12.495163977645257"><ele>185.0</ele><time>2026-04-04T12:10:14.968Z</time></trkpt><trkpt lat="42.6090862076236" lon="12.495082240795297"><ele>185.0</ele><time>2026-04-04T12:10:16.968Z</time></trkpt><trkpt lat="42.609088991339604" lon="12.494993450480143"><ele>185.0</ele><time>2026-04-04T12:10:19.968Z</time></trkpt><trkpt lat="42.60902648005532" lon="12.495012956384993"><ele>185.0</ele><time>2026-04-04T12:10:38.967Z</time></trkpt><trkpt lat="42.609002498526905" lon="12.495100575687614"><ele>185.0</ele><time>2026-04-04T12:10:40.967Z</time></trkpt><trkpt lat="42.60900429574546" lon="12.495186214038622"><ele>185.0</ele><time>2026-04-04T12:10:41.968Z</time></trkpt><trkpt lat="42.60901257269095" lon="12.495300590363192"><ele>185.0</ele><time>2026-04-04T12:10:42.968Z</time></trkpt><trkpt lat="42.60902144740742" lon="12.495436107429276"><ele>185.0</ele><time>2026-04-04T12:10:43.968Z</time></trkpt><trkpt lat="42.609041877402845" lon="12.495583052991124"><ele>185.0</ele><time>2026-04-04T12:10:44.968Z</time></trkpt><trkpt lat="42.609069449562455" lon="12.495716988695301"><ele>185.0</ele><time>2026-04-04T12:10:45.968Z</time></trkpt><trkpt lat="42.609096246033005" lon="12.495855282648861"><ele>185.0</ele><time>2026-04-04T12:10:46.967Z</time></trkpt><trkpt lat="42.609115074404514" lon="12.495983690525923"><ele>185.0</ele><time>2026-04-04T12:10:47.968Z</time></trkpt><trkpt lat="42.60913242282187" lon="12.496113472038386"><ele>185.0</ele><time>2026-04-04T12:10:48.968Z</time></trkpt><trkpt lat="42.609156043750666" lon="12.496236814527858"><ele>184.8</ele><time>2026-04-04T12:10:49.968Z</time></trkpt><trkpt lat="42.60919868125722" lon="12.496354677476589"><ele>184.6</ele><time>2026-04-04T12:10:50.968Z</time></trkpt><trkpt lat="42.60923890575535" lon="12.496476752217736"><ele>184.39999999999998</ele><time>2026-04-04T12:10:51.967Z</time></trkpt><trkpt lat="42.60926900966056" lon="12.496585563746768"><ele>184.2</ele><time>2026-04-04T12:10:52.967Z</time></trkpt><trkpt lat="42.60931416566155" lon="12.496710413587934"><ele>184.0</ele><time>2026-04-04T12:10:53.967Z</time></trkpt><trkpt lat="42.60935507176396" lon="12.49682987183695"><ele>184.0</ele><time>2026-04-04T12:10:54.967Z</time></trkpt><trkpt lat="42.60937943432661" lon="12.496968140965745"><ele>184.0</ele><time>2026-04-04T12:10:55.967Z</time></trkpt><trkpt lat="42.6094082153292" lon="12.497098385362367"><ele>184.0</ele><time>2026-04-04T12:10:56.967Z</time></trkpt><trkpt lat="42.60949227554018" lon="12.497210325066549"><ele>184.0</ele><time>2026-04-04T12:10:57.967Z</time></trkpt><trkpt lat="42.609534255891674" lon="12.497337253972026"><ele>184.0</ele><time>2026-04-04T12:10:58.967Z</time></trkpt><trkpt lat="42.60957532526217" lon="12.497456875585062"><ele>185.83333333333334</ele><time>2026-04-04T12:10:59.967Z</time></trkpt><trkpt lat="42.609608413481205" lon="12.497589276142513"><ele>187.66666666666669</ele><time>2026-04-04T12:11:00.967Z</time></trkpt><trkpt lat="42.609656573548676" lon="12.497698509923792"><ele>189.5</ele><time>2026-04-04T12:11:01.967Z</time></trkpt><trkpt lat="42.609716634795525" lon="12.497782146883957"><ele>191.33333333333334</ele><time>2026-04-04T12:11:02.967Z</time></trkpt><trkpt lat="42.60978677233264" lon="12.497843408610777"><ele>193.16666666666666</ele><time>2026-04-04T12:11:03.967Z</time></trkpt><trkpt lat="42.60984720102145" lon="12.49789345654809"><ele>195.0</ele><time>2026-04-04T12:11:04.967Z</time></trkpt><trkpt lat="42.609927797960985" lon="12.49791332919193"><ele>195.0</ele><time>2026-04-04T12:11:05.967Z</time></trkpt><trkpt lat="42.610009650782565" lon="12.497914368890275"><ele>195.0</ele><time>2026-04-04T12:11:06.967Z</time></trkpt><trkpt lat="42.610093970095114" lon="12.49790795215542"><ele>195.0</ele><time>2026-04-04T12:11:07.967Z</time></trkpt><trkpt lat="42.610193386457674" lon="12.497900866761064"><ele>195.0</ele><time>2026-04-04T12:11:08.967Z</time></trkpt><trkpt lat="42.61030110417596" lon="12.49788960820696"><ele>195.0</ele><time>2026-04-04T12:11:09.967Z</time></trkpt><trkpt lat="42.61041108497619" lon="12.49785633374273"><ele>196.2</ele><time>2026-04-04T12:11:10.967Z</time></trkpt><trkpt lat="42.61052239297503" lon="12.497859953474816"><ele>197.4</ele><time>2026-04-04T12:11:11.967Z</time></trkpt><trkpt lat="42.610630200603055" lon="12.497850270319763"><ele>198.60000000000002</ele><time>2026-04-04T12:11:12.967Z</time></trkpt><trkpt lat="42.61073977224882" lon="12.49784611147147"><ele>199.8</ele><time>2026-04-04T12:11:13.967Z</time></trkpt><trkpt lat="42.61085276744495" lon="12.497843310675911"><ele>201.0</ele><time>2026-04-04T12:11:14.967Z</time></trkpt><trkpt lat="42.61095244830069" lon="12.497836910140585"><ele>201.0</ele><time>2026-04-04T12:11:15.967Z</time></trkpt><trkpt lat="42.61107906219438" lon="12.497821344681444"><ele>201.0</ele><time>2026-04-04T12:11:16.967Z</time></trkpt><trkpt lat="42.61119501006075" lon="12.497804195988465"><ele>201.0</ele><time>2026-04-04T12:11:17.967Z</time></trkpt><trkpt lat="42.611315914777144" lon="12.49779198482415"><ele>201.0</ele><time>2026-04-04T12:11:18.967Z</time></trkpt><trkpt lat="42.6114326519777" lon="12.497732466150254"><ele>203.75</ele><time>2026-04-04T12:11:19.967Z</time></trkpt><trkpt lat="42.611552771592784" lon="12.49766188688223"><ele>206.5</ele><time>2026-04-04T12:11:20.967Z</time></trkpt><trkpt lat="42.611669492976866" lon="12.497582391326578"><ele>209.25</ele><time>2026-04-04T12:11:21.967Z</time></trkpt><trkpt lat="42.611802587720476" lon="12.497534199960464"><ele>212.0</ele><time>2026-04-04T12:11:22.967Z</time></trkpt><trkpt lat="42.611929415588094" lon="12.497478989315894"><ele>214.6</ele><time>2026-04-04T12:11:23.967Z</time></trkpt><trkpt lat="42.612033266939875" lon="12.497421491270234"><ele>217.2</ele><time>2026-04-04T12:11:24.967Z</time></trkpt><trkpt lat="42.612127998992044" lon="12.497385986554741"><ele>219.8</ele><time>2026-04-04T12:11:25.967Z</time></trkpt><trkpt lat="42.61222139286311" lon="12.497359690218637"><ele>222.4</ele><time>2026-04-04T12:11:26.967Z</time></trkpt><trkpt lat="42.61231296476447" lon="12.497352240219909"><ele>225.0</ele><time>2026-04-04T12:11:27.967Z</time></trkpt><trkpt lat="42.61240381108704" lon="12.497388327391505"><ele>225.0</ele><time>2026-04-04T12:11:28.967Z</time></trkpt><trkpt lat="42.61250249718341" lon="12.497449214792324"><ele>225.0</ele><time>2026-04-04T12:11:29.967Z</time></trkpt><trkpt lat="42.612618026924" lon="12.497513701620582"><ele>225.0</ele><time>2026-04-04T12:11:30.967Z</time></trkpt><trkpt lat="42.61273407834832" lon="12.497558748046526"><ele>225.0</ele><time>2026-04-04T12:11:31.967Z</time></trkpt><trkpt lat="42.61285034945322" lon="12.497605416667389"><ele>227.25</ele><time>2026-04-04T12:11:32.967Z</time></trkpt><trkpt lat="42.61297651963582" lon="12.497652338388068"><ele>229.5</ele><time>2026-04-04T12:11:33.967Z</time></trkpt><trkpt lat="42.613101431385196" lon="12.497720218426206"><ele>231.75</ele><time>2026-04-04T12:11:34.967Z</time></trkpt><trkpt lat="42.613221289730966" lon="12.4977669866349"><ele>234.0</ele><time>2026-04-04T12:11:35.967Z</time></trkpt><trkpt lat="42.61335377604722" lon="12.497775014916073"><ele>234.0</ele><time>2026-04-04T12:11:36.967Z</time></trkpt><trkpt lat="42.613474151460025" lon="12.49776229384563"><ele>234.0</ele><time>2026-04-04T12:11:37.967Z</time></trkpt><trkpt lat="42.61360131002092" lon="12.497716275350172"><ele>234.0</ele><time>2026-04-04T12:11:38.967Z</time></trkpt><trkpt lat="42.613726594076454" lon="12.49773404937513"><ele>234.0</ele><time>2026-04-04T12:11:39.967Z</time></trkpt><trkpt lat="42.61381363128412" lon="12.497785852919614"><ele>237.39999999999998</ele><time>2026-04-04T12:11:42.967Z</time></trkpt><trkpt lat="42.61386417608198" lon="12.497926957554373"><ele>240.79999999999998</ele><time>2026-04-04T12:11:44.967Z</time></trkpt><trkpt lat="42.613774276436274" lon="12.49799467716127"><ele>244.20000000000002</ele><time>2026-04-04T12:11:45.967Z</time></trkpt><trkpt lat="42.61370146839366" lon="12.498059662723392"><ele>247.60000000000002</ele><time>2026-04-04T12:11:46.967Z</time></trkpt><trkpt lat="42.61361939641055" lon="12.498114100434421"><ele>251.0</ele><time>2026-04-04T12:11:47.967Z</time></trkpt><trkpt lat="42.6135335186785" lon="12.49816848106927"><ele>251.00000000000003</ele><time>2026-04-04T12:11:48.967Z</time></trkpt><trkpt lat="42.61347312629812" lon="12.49822382276818"><ele>251.0</ele><time>2026-04-04T12:11:49.967Z</time></trkpt><trkpt lat="42.61340881503892" lon="12.498240303103245"><ele>251.0</ele><time>2026-04-04T12:11:52.967Z</time></trkpt><trkpt lat="42.61334684146231" lon="12.498324360546095"><ele>251.0</ele><time>2026-04-04T12:11:57.966Z</time></trkpt><trkpt lat="42.61323353136736" lon="12.498386298838117"><ele>251.00000000000003</ele><time>2026-04-04T12:11:59.966Z</time></trkpt><trkpt lat="42.61317353014392" lon="12.498417471243883"><ele>251.0</ele><time>2026-04-04T12:12:00.966Z</time></trkpt><trkpt lat="42.61310455996762" lon="12.498549540462827"><ele>251.0</ele><time>2026-04-04T12:12:02.966Z</time></trkpt><trkpt lat="42.61308905647867" lon="12.498663674147826"><ele>251.00000000000003</ele><time>2026-04-04T12:12:03.966Z</time></trkpt><trkpt lat="42.61308620320452" lon="12.498795784947825"><ele>251.00000000000003</ele><time>2026-04-04T12:12:04.966Z</time></trkpt><trkpt lat="42.61308768503713" lon="12.49892887497414"><ele>251.0</ele><time>2026-04-04T12:12:05.966Z</time></trkpt><trkpt lat="42.61308516510167" lon="12.4990652009343"><ele>251.0</ele><time>2026-04-04T12:12:06.966Z</time></trkpt><trkpt lat="42.6130843170895" lon="12.499173143464004"><ele>253.66666666666669</ele><time>2026-04-04T12:12:07.966Z</time></trkpt><trkpt lat="42.61309011552726" lon="12.499279320395477"><ele>256.33333333333337</ele><time>2026-04-04T12:12:08.966Z</time></trkpt><trkpt lat="42.613089398293525" lon="12.499399530124604"><ele>259.0</ele><time>2026-04-04T12:12:09.966Z</time></trkpt><trkpt lat="42.6131009539678" lon="12.49951632819565"><ele>261.6666666666667</ele><time>2026-04-04T12:12:10.966Z</time></trkpt><trkpt lat="42.613121355097014" lon="12.499635858285863"><ele>264.3333333333333</ele><time>2026-04-04T12:12:11.966Z</time></trkpt><trkpt lat="42.61314706843425" lon="12.49975735022584"><ele>267.0</ele><time>2026-04-04T12:12:12.966Z</time></trkpt><trkpt lat="42.61317956273343" lon="12.499882390514216"><ele>267.5</ele><time>2026-04-04T12:12:13.966Z</time></trkpt><trkpt lat="42.61320401188213" lon="12.499992735899756"><ele>268.0</ele><time>2026-04-04T12:12:14.966Z</time></trkpt><trkpt lat="42.613235194534745" lon="12.50008641695299"><ele>268.5</ele><time>2026-04-04T12:12:15.966Z</time></trkpt><trkpt lat="42.6132712627531" lon="12.500198245115238"><ele>269.0</ele><time>2026-04-04T12:12:16.966Z</time></trkpt><trkpt lat="42.613372710705534" lon="12.500248128495402"><ele>269.5</ele><time>2026-04-04T12:12:18.966Z</time></trkpt><trkpt lat="42.613438662369354" lon="12.50022225344522"><ele>270.0</ele><time>2026-04-04T12:12:19.966Z</time></trkpt><trkpt lat="42.613515728586556" lon="12.500161831194438"><ele>270.0</ele><time>2026-04-04T12:12:20.966Z</time></trkpt><trkpt lat="42.61359540479653" lon="12.500079431022447"><ele>270.0</ele><time>2026-04-04T12:12:21.966Z</time></trkpt><trkpt lat="42.61367774879693" lon="12.4999967560795"><ele>270.0</ele><time>2026-04-04T12:12:22.966Z</time></trkpt><trkpt lat="42.61376260422735" lon="12.499916412820662"><ele>270.0</ele><time>2026-04-04T12:12:23.966Z</time></trkpt><trkpt lat="42.61384589367055" lon="12.499846798655323"><ele>270.0</ele><time>2026-04-04T12:12:24.966Z</time></trkpt><trkpt lat="42.61392853058105" lon="12.499799020822431"><ele>273.4</ele><time>2026-04-04T12:12:25.966Z</time></trkpt><trkpt lat="42.61401218773295" lon="12.499782353951716"><ele>276.8</ele><time>2026-04-04T12:12:26.966Z</time></trkpt><trkpt lat="42.61409341008838" lon="12.499809094696783"><ele>280.2</ele><time>2026-04-04T12:12:27.966Z</time></trkpt><trkpt lat="42.61419542125962" lon="12.499878708729529"><ele>283.6</ele><time>2026-04-04T12:12:28.966Z</time></trkpt><trkpt lat="42.61428804505029" lon="12.49997739010498"><ele>287.0</ele><time>2026-04-04T12:12:29.966Z</time></trkpt><trkpt lat="42.614372212113544" lon="12.500069538558439"><ele>287.0</ele><time>2026-04-04T12:12:30.966Z</time></trkpt><trkpt lat="42.61445665992436" lon="12.500164669490031"><ele>287.0</ele><time>2026-04-04T12:12:31.966Z</time></trkpt><trkpt lat="42.61453260057436" lon="12.50023869874694"><ele>287.0</ele><time>2026-04-04T12:12:32.966Z</time></trkpt><trkpt lat="42.614588551992426" lon="12.500304546257922"><ele>287.0</ele><time>2026-04-04T12:12:33.966Z</time></trkpt><trkpt lat="42.61465849773031" lon="12.500348994989757"><ele>287.0</ele><time>2026-04-04T12:12:35.966Z</time></trkpt><trkpt lat="42.614736483782416" lon="12.50032208354183"><ele>287.0</ele><time>2026-04-04T12:12:37.966Z</time></trkpt><trkpt lat="42.614789805491775" lon="12.500201465059215"><ele>288.5</ele><time>2026-04-04T12:12:39.966Z</time></trkpt><trkpt lat="42.61484791511043" lon="12.500121927424129"><ele>290.0</ele><time>2026-04-04T12:12:41.966Z</time></trkpt><trkpt lat="42.61492573465234" lon="12.500085405386452"><ele>291.5</ele><time>2026-04-04T12:12:43.965Z</time></trkpt><trkpt lat="42.61498835120009" lon="12.500108792552808"><ele>293.0</ele><time>2026-04-04T12:12:45.965Z</time></trkpt><trkpt lat="42.61503549296608" lon="12.500217573285656"><ele>294.5</ele><time>2026-04-04T12:12:47.965Z</time></trkpt><trkpt lat="42.61499456563768" lon="12.500152367391065"><ele>296.0</ele><time>2026-04-04T12:13:05.965Z</time></trkpt><trkpt lat="42.61506656315323" lon="12.500053414147404"><ele>296.0</ele><time>2026-04-04T12:13:09.965Z</time></trkpt><trkpt lat="42.615141622286664" lon="12.500031161239304"><ele>296.0</ele><time>2026-04-04T12:13:10.965Z</time></trkpt><trkpt lat="42.61524768046802" lon="12.500005983774"><ele>296.0</ele><time>2026-04-04T12:13:12.965Z</time></trkpt><trkpt lat="42.615312886982686" lon="12.499962980837456"><ele>296.0</ele><time>2026-04-04T12:13:16.965Z</time></trkpt><trkpt lat="42.61537463897553" lon="12.49993526602903"><ele>296.0</ele><time>2026-04-04T12:13:17.965Z</time></trkpt><trkpt lat="42.61545936347656" lon="12.499859385845195"><ele>296.0</ele><time>2026-04-04T12:13:18.965Z</time></trkpt><trkpt lat="42.615552941134865" lon="12.49976109851471"><ele>297.0</ele><time>2026-04-04T12:13:19.965Z</time></trkpt><trkpt lat="42.615634087432404" lon="12.49965323135173"><ele>298.0</ele><time>2026-04-04T12:13:20.965Z</time></trkpt><trkpt lat="42.61570825541514" lon="12.499538648849066"><ele>299.0</ele><time>2026-04-04T12:13:21.965Z</time></trkpt><trkpt lat="42.61578265715199" lon="12.499414207115342"><ele>300.0</ele><time>2026-04-04T12:13:22.965Z</time></trkpt><trkpt lat="42.61585780604845" lon="12.499281095038908"><ele>300.0</ele><time>2026-04-04T12:13:23.965Z</time></trkpt><trkpt lat="42.61592833581961" lon="12.499148564151824"><ele>300.0</ele><time>2026-04-04T12:13:24.964Z</time></trkpt><trkpt lat="42.615995417554494" lon="12.49901052499818"><ele>300.0</ele><time>2026-04-04T12:13:25.964Z</time></trkpt><trkpt lat="42.616053394041835" lon="12.498879585247114"><ele>300.0</ele><time>2026-04-04T12:13:26.964Z</time></trkpt><trkpt lat="42.61610046758865" lon="12.498766275526533"><ele>299.0</ele><time>2026-04-04T12:13:27.964Z</time></trkpt><trkpt lat="42.616144272212814" lon="12.498652047162047"><ele>298.0</ele><time>2026-04-04T12:13:28.964Z</time></trkpt><trkpt lat="42.61619055901844" lon="12.498529191002087"><ele>297.0</ele><time>2026-04-04T12:13:29.964Z</time></trkpt><trkpt lat="42.61623806335283" lon="12.498399465420922"><ele>296.0</ele><time>2026-04-04T12:13:30.964Z</time></trkpt><trkpt lat="42.61627880960972" lon="12.49827844448199"><ele>295.0</ele><time>2026-04-04T12:13:31.964Z</time></trkpt><trkpt lat="42.61630600358753" lon="12.498168359388247"><ele>297.4</ele><time>2026-04-04T12:13:32.964Z</time></trkpt><trkpt lat="42.61632333733238" lon="12.498052732218177"><ele>299.8</ele><time>2026-04-04T12:13:33.964Z</time></trkpt><trkpt lat="42.616323617145774" lon="12.497923113118949"><ele>302.2</ele><time>2026-04-04T12:13:34.964Z</time></trkpt><trkpt lat="42.61629521999417" lon="12.497777063452048"><ele>304.6</ele><time>2026-04-04T12:13:35.964Z</time></trkpt><trkpt lat="42.61628761273633" lon="12.497614318569598"><ele>307.0</ele><time>2026-04-04T12:13:36.964Z</time></trkpt><trkpt lat="42.616271975932946" lon="12.497435280782947"><ele>308.0</ele><time>2026-04-04T12:13:37.964Z</time></trkpt><trkpt lat="42.61627014273808" lon="12.497263627154005"><ele>309.0</ele><time>2026-04-04T12:13:38.964Z</time></trkpt><trkpt lat="42.616279172546015" lon="12.497105444444925"><ele>310.0</ele><time>2026-04-04T12:13:39.964Z</time></trkpt><trkpt lat="42.61629697076236" lon="12.496974646830225"><ele>311.0</ele><time>2026-04-04T12:13:40.964Z</time></trkpt><trkpt lat="42.616308387770516" lon="12.496856154148686"><ele>312.0</ele><time>2026-04-04T12:13:41.964Z</time></trkpt><trkpt lat="42.61633365990072" lon="12.496777618343334"><ele>312.0</ele><time>2026-04-04T12:13:42.964Z</time></trkpt><trkpt lat="42.616410656728625" lon="12.496692826466955"><ele>312.0</ele><time>2026-04-04T12:13:44.964Z</time></trkpt><trkpt lat="42.616490315921595" lon="12.496711920829597"><ele>312.0</ele><time>2026-04-04T12:13:46.964Z</time></trkpt><trkpt lat="42.616518500659026" lon="12.496864020575673"><ele>312.0</ele><time>2026-04-04T12:13:48.964Z</time></trkpt><trkpt lat="42.61649576090679" lon="12.496970340808103"><ele>312.0</ele><time>2026-04-04T12:13:49.964Z</time></trkpt><trkpt lat="42.6164926379343" lon="12.497099127368159"><ele>312.0</ele><time>2026-04-04T12:13:50.964Z</time></trkpt><trkpt lat="42.61647742116825" lon="12.497222851914303"><ele>312.0</ele><time>2026-04-04T12:13:51.964Z</time></trkpt><trkpt lat="42.616476022665545" lon="12.49734259234174"><ele>312.0</ele><time>2026-04-04T12:13:52.964Z</time></trkpt><trkpt lat="42.616501760847505" lon="12.497438080424107"><ele>312.0</ele><time>2026-04-04T12:13:53.964Z</time></trkpt><trkpt lat="42.616560815763144" lon="12.497491579390218"><ele>312.0</ele><time>2026-04-04T12:13:54.964Z</time></trkpt><trkpt lat="42.616679818400904" lon="12.497513330857098"><ele>312.0</ele><time>2026-04-04T12:13:56.964Z</time></trkpt><trkpt lat="42.6167542049978" lon="12.497423211872114"><ele>312.0</ele><time>2026-04-04T12:13:57.964Z</time></trkpt><trkpt lat="42.61676974453824" lon="12.497271979025964"><ele>312.0</ele><time>2026-04-04T12:13:58.964Z</time></trkpt><trkpt lat="42.61680484795696" lon="12.497140401529899"><ele>312.0</ele><time>2026-04-04T12:13:59.964Z</time></trkpt><trkpt lat="42.61684243543783" lon="12.497021809369404"><ele>312.0</ele><time>2026-04-04T12:14:00.964Z</time></trkpt><trkpt lat="42.616907654627944" lon="12.496910458832241"><ele>312.0</ele><time>2026-04-04T12:14:01.964Z</time></trkpt><trkpt lat="42.616980162953396" lon="12.496785822133257"><ele>315.5</ele><time>2026-04-04T12:14:02.964Z</time></trkpt><trkpt lat="42.61705664316187" lon="12.496643845262861"><ele>319.0</ele><time>2026-04-04T12:14:03.964Z</time></trkpt><trkpt lat="42.61713055260662" lon="12.496496975281246"><ele>322.5</ele><time>2026-04-04T12:14:04.964Z</time></trkpt><trkpt lat="42.61720461753605" lon="12.496374666299285"><ele>326.0</ele><time>2026-04-04T12:14:05.964Z</time></trkpt><trkpt lat="42.61727863330084" lon="12.496267081967085"><ele>328.4</ele><time>2026-04-04T12:14:06.964Z</time></trkpt><trkpt lat="42.61734981561754" lon="12.496166369674228"><ele>330.8</ele><time>2026-04-04T12:14:07.964Z</time></trkpt><trkpt lat="42.61742135485283" lon="12.49606453223975"><ele>333.2</ele><time>2026-04-04T12:14:08.964Z</time></trkpt><trkpt lat="42.61749822972394" lon="12.495952701190937"><ele>335.59999999999997</ele><time>2026-04-04T12:14:09.964Z</time></trkpt><trkpt lat="42.61757828637588" lon="12.495837357309671"><ele>338.0</ele><time>2026-04-04T12:14:10.964Z</time></trkpt><trkpt lat="42.617664649054866" lon="12.495727025274446"><ele>338.0</ele><time>2026-04-04T12:14:11.964Z</time></trkpt><trkpt lat="42.61776408277357" lon="12.49560861248299"><ele>338.0</ele><time>2026-04-04T12:14:12.964Z</time></trkpt><trkpt lat="42.617867206370164" lon="12.495490162780897"><ele>338.0</ele><time>2026-04-04T12:14:13.964Z</time></trkpt><trkpt lat="42.617962455301864" lon="12.495380918624347"><ele>338.0</ele><time>2026-04-04T12:14:14.964Z</time></trkpt><trkpt lat="42.61807098159655" lon="12.495254673265837"><ele>340.75</ele><time>2026-04-04T12:14:15.964Z</time></trkpt><trkpt lat="42.61816282612346" lon="12.495147833248971"><ele>343.5</ele><time>2026-04-04T12:14:16.964Z</time></trkpt><trkpt lat="42.61824698895843" lon="12.49505305831179"><ele>346.25</ele><time>2026-04-04T12:14:17.964Z</time></trkpt><trkpt lat="42.61834583564438" lon="12.49495725887567"><ele>349.0</ele><time>2026-04-04T12:14:18.964Z</time></trkpt><trkpt lat="42.61843574793692" lon="12.494887617888764"><ele>349.0</ele><time>2026-04-04T12:14:19.964Z</time></trkpt><trkpt lat="42.618516449321106" lon="12.494829898710638"><ele>349.0</ele><time>2026-04-04T12:14:20.964Z</time></trkpt><trkpt lat="42.61860608656245" lon="12.49476272171788"><ele>349.0</ele><time>2026-04-04T12:14:21.964Z</time></trkpt><trkpt lat="42.61870548067153" lon="12.494685307252308"><ele>349.0</ele><time>2026-04-04T12:14:22.964Z</time></trkpt><trkpt lat="42.618801512518075" lon="12.494588651155455"><ele>349.0</ele><time>2026-04-04T12:14:23.964Z</time></trkpt><trkpt lat="42.61889510312086" lon="12.494444276310483"><ele>348.4</ele><time>2026-04-04T12:14:24.964Z</time></trkpt><trkpt lat="42.618988624039794" lon="12.494342035932279"><ele>347.79999999999995</ele><time>2026-04-04T12:14:25.964Z</time></trkpt><trkpt lat="42.619066275508665" lon="12.494267066977878"><ele>347.20000000000005</ele><time>2026-04-04T12:14:26.964Z</time></trkpt><trkpt lat="42.61913374896098" lon="12.494175878683725"><ele>346.6</ele><time>2026-04-04T12:14:27.964Z</time></trkpt><trkpt lat="42.61918982797524" lon="12.494119793036306"><ele>346.0</ele><time>2026-04-04T12:14:28.964Z</time></trkpt><trkpt lat="42.619297527120864" lon="12.494061041401256"><ele>346.0</ele><time>2026-04-04T12:14:30.964Z</time></trkpt><trkpt lat="42.61937051946095" lon="12.494038594947614"><ele>346.0</ele><time>2026-04-04T12:14:31.964Z</time></trkpt><trkpt lat="42.619459781087926" lon="12.494017950920455"><ele>346.0</ele><time>2026-04-04T12:14:32.964Z</time></trkpt><trkpt lat="42.61955362441081" lon="12.493994235212835"><ele>346.0</ele><time>2026-04-04T12:14:33.964Z</time></trkpt><trkpt lat="42.619643726295436" lon="12.49397512518015"><ele>346.0</ele><time>2026-04-04T12:14:34.964Z</time></trkpt><trkpt lat="42.619732950106126" lon="12.493954610514493"><ele>346.0</ele><time>2026-04-04T12:14:35.964Z</time></trkpt><trkpt lat="42.61981365259628" lon="12.493933548390968"><ele>345.8333333333333</ele><time>2026-04-04T12:14:36.964Z</time></trkpt><trkpt lat="42.61988002273503" lon="12.49392575548195"><ele>345.66666666666663</ele><time>2026-04-04T12:14:37.964Z</time></trkpt><trkpt lat="42.6199709358903" lon="12.493909119939884"><ele>345.5</ele><time>2026-04-04T12:14:39.964Z</time></trkpt><trkpt lat="42.62003253321565" lon="12.493859434646268"><ele>345.3333333333333</ele><time>2026-04-04T12:14:41.964Z</time></trkpt><trkpt lat="42.62003317726753" lon="12.49376098615813"><ele>345.1666666666667</ele><time>2026-04-04T12:17:54.961Z</time></trkpt><trkpt lat="42.62009289466434" lon="12.493707514960546"><ele>345.0</ele><time>2026-04-04T12:20:18.959Z</time></trkpt><trkpt lat="42.62019675111061" lon="12.493728827205002"><ele>345.0</ele><time>2026-04-04T12:20:20.959Z</time></trkpt><trkpt lat="42.62029058779025" lon="12.493790015308898"><ele>345.0</ele><time>2026-04-04T12:20:22.959Z</time></trkpt><trkpt lat="42.620368659560135" lon="12.493824530652414"><ele>345.0</ele><time>2026-04-04T12:20:24.959Z</time></trkpt><trkpt lat="42.62043147326257" lon="12.49383552749681"><ele>345.0</ele><time>2026-04-04T12:20:25.959Z</time></trkpt><trkpt lat="42.620506962215195" lon="12.493837393495319"><ele>345.0</ele><time>2026-04-04T12:20:26.959Z</time></trkpt><trkpt lat="42.620586981432574" lon="12.493814969674338"><ele>345.0</ele><time>2026-04-04T12:20:27.959Z</time></trkpt><trkpt lat="42.62066824767594" lon="12.493861269630424"><ele>346.5</ele><time>2026-04-04T12:20:28.959Z</time></trkpt><trkpt lat="42.62074605551267" lon="12.493887506505697"><ele>348.0</ele><time>2026-04-04T12:20:29.959Z</time></trkpt><trkpt lat="42.62082443906207" lon="12.493925419490504"><ele>349.5</ele><time>2026-04-04T12:20:30.959Z</time></trkpt><trkpt lat="42.62091484844787" lon="12.49396276561395"><ele>351.0</ele><time>2026-04-04T12:20:31.959Z</time></trkpt><trkpt lat="42.62100079881085" lon="12.493994412609732"><ele>352.5</ele><time>2026-04-04T12:20:32.959Z</time></trkpt><trkpt lat="42.6210885441404" lon="12.49403865272618"><ele>354.0</ele><time>2026-04-04T12:20:33.959Z</time></trkpt><trkpt lat="42.62116926049361" lon="12.494081141643967"><ele>356.0</ele><time>2026-04-04T12:20:34.959Z</time></trkpt><trkpt lat="42.62125185455672" lon="12.494124876206321"><ele>358.0</ele><time>2026-04-04T12:20:35.959Z</time></trkpt><trkpt lat="42.62133406146339" lon="12.494161052968476"><ele>360.0</ele><time>2026-04-04T12:20:36.959Z</time></trkpt><trkpt lat="42.62142395945591" lon="12.494202187784687"><ele>362.0</ele><time>2026-04-04T12:20:37.959Z</time></trkpt><trkpt lat="42.621516134204434" lon="12.494227296394982"><ele>364.0</ele><time>2026-04-04T12:20:38.959Z</time></trkpt><trkpt lat="42.62160924542793" lon="12.494259780694957"><ele>364.0</ele><time>2026-04-04T12:20:39.959Z</time></trkpt><trkpt lat="42.62169998718607" lon="12.494292194279895"><ele>364.0</ele><time>2026-04-04T12:20:40.959Z</time></trkpt><trkpt lat="42.621791559936646" lon="12.494323259320645"><ele>364.0</ele><time>2026-04-04T12:20:41.959Z</time></trkpt><trkpt lat="42.6218934747698" lon="12.494347610270884"><ele>364.0</ele><time>2026-04-04T12:20:42.959Z</time></trkpt><trkpt lat="42.62200252960537" lon="12.494363699836889"><ele>364.0</ele><time>2026-04-04T12:20:43.959Z</time></trkpt><trkpt lat="42.622114467710176" lon="12.494372209832033"><ele>365.4</ele><time>2026-04-04T12:20:44.959Z</time></trkpt><trkpt lat="42.62222036859422" lon="12.494368150083261"><ele>366.79999999999995</ele><time>2026-04-04T12:20:45.959Z</time></trkpt><trkpt lat="42.62233614641767" lon="12.494356662440786"><ele>368.20000000000005</ele><time>2026-04-04T12:20:46.959Z</time></trkpt><trkpt lat="42.622435278452166" lon="12.49434949490227"><ele>369.6</ele><time>2026-04-04T12:20:47.959Z</time></trkpt><trkpt lat="42.62254073330239" lon="12.494324647167845"><ele>371.0</ele><time>2026-04-04T12:20:48.959Z</time></trkpt><trkpt lat="42.62264073564254" lon="12.494287557048926"><ele>371.0</ele><time>2026-04-04T12:20:49.959Z</time></trkpt><trkpt lat="42.62274084728155" lon="12.49423098637261"><ele>371.0</ele><time>2026-04-04T12:20:50.959Z</time></trkpt><trkpt lat="42.622800931930136" lon="12.494180530745204"><ele>371.0</ele><time>2026-04-04T12:20:51.959Z</time></trkpt><trkpt lat="42.62286112981436" lon="12.494140844646838"><ele>371.0</ele><time>2026-04-04T12:20:52.959Z</time></trkpt><trkpt lat="42.622912336707664" lon="12.494075872664958"><ele>371.0</ele><time>2026-04-04T12:20:53.959Z</time></trkpt><trkpt lat="42.62297149103179" lon="12.494000350646473"><ele>371.0</ele><time>2026-04-04T12:20:54.959Z</time></trkpt><trkpt lat="42.62302085574643" lon="12.493856845800478"><ele>373.0</ele><time>2026-04-04T12:20:56.959Z</time></trkpt><trkpt lat="42.623077637861726" lon="12.493764526728377"><ele>375.0</ele><time>2026-04-04T12:20:58.959Z</time></trkpt><trkpt lat="42.623469129569635" lon="12.493931479672792"><ele>375.0</ele><time>2026-04-04T12:20:59.959Z</time></trkpt><trkpt lat="42.62357331700678" lon="12.493894514038395"><ele>375.0</ele><time>2026-04-04T12:21:00.959Z</time></trkpt><trkpt lat="42.623662758951944" lon="12.493858403744182"><ele>375.0</ele><time>2026-04-04T12:21:01.959Z</time></trkpt><trkpt lat="42.62375621637682" lon="12.493819754099938"><ele>375.0</ele><time>2026-04-04T12:21:02.959Z</time></trkpt><trkpt lat="42.62384682806214" lon="12.493790739797705"><ele>375.0</ele><time>2026-04-04T12:21:03.96Z</time></trkpt><trkpt lat="42.623941020968786" lon="12.493768348319751"><ele>376.1666666666667</ele><time>2026-04-04T12:21:04.959Z</time></trkpt><trkpt lat="42.62402570830802" lon="12.493772703732722"><ele>377.3333333333333</ele><time>2026-04-04T12:21:05.959Z</time></trkpt><trkpt lat="42.6240943974622" lon="12.493772506104564"><ele>378.5</ele><time>2026-04-04T12:21:06.96Z</time></trkpt><trkpt lat="42.6241773166255" lon="12.493764396258783"><ele>379.66666666666663</ele><time>2026-04-04T12:21:07.959Z</time></trkpt><trkpt lat="42.624258550447756" lon="12.493757588503515"><ele>380.8333333333333</ele><time>2026-04-04T12:21:08.959Z</time></trkpt><trkpt lat="42.62433898267054" lon="12.493751167506458"><ele>382.0</ele><time>2026-04-04T12:21:09.959Z</time></trkpt><trkpt lat="42.624412689837484" lon="12.493739537707505"><ele>384.16666666666663</ele><time>2026-04-04T12:21:10.959Z</time></trkpt><trkpt lat="42.62448241943763" lon="12.493711999945269"><ele>386.3333333333333</ele><time>2026-04-04T12:21:11.959Z</time></trkpt><trkpt lat="42.62454935451769" lon="12.49367561347217"><ele>388.5</ele><time>2026-04-04T12:21:12.96Z</time></trkpt><trkpt lat="42.6246132947518" lon="12.493628562071125"><ele>390.66666666666663</ele><time>2026-04-04T12:21:13.959Z</time></trkpt><trkpt lat="42.62467971457413" lon="12.493573224310516"><ele>392.8333333333333</ele><time>2026-04-04T12:21:14.959Z</time></trkpt><trkpt lat="42.62475660016122" lon="12.493516707005039"><ele>395.0</ele><time>2026-04-04T12:21:15.959Z</time></trkpt><trkpt lat="42.62482099392132" lon="12.49346133605736"><ele>395.0</ele><time>2026-04-04T12:21:16.959Z</time></trkpt><trkpt lat="42.62485738996347" lon="12.49337039469091"><ele>395.0</ele><time>2026-04-04T12:21:18.959Z</time></trkpt><trkpt lat="42.624797631498" lon="12.493436138541963"><ele>395.0</ele><time>2026-04-04T12:21:22.959Z</time></trkpt><trkpt lat="42.62475009750424" lon="12.493531386457894"><ele>395.0</ele><time>2026-04-04T12:22:03.958Z</time></trkpt><trkpt lat="42.62475630790567" lon="12.493436773944804"><ele>395.0</ele><time>2026-04-04T12:22:07.958Z</time></trkpt><trkpt lat="42.62481930435188" lon="12.493431502014959"><ele>395.0</ele><time>2026-04-04T12:22:09.958Z</time></trkpt><trkpt lat="42.62479485783644" lon="12.493521526572843"><ele>395.0</ele><time>2026-04-04T12:22:12.958Z</time></trkpt><trkpt lat="42.624723967409814" lon="12.493552102790071"><ele>394.99999999999994</ele><time>2026-04-04T12:46:48.943Z</time></trkpt><trkpt lat="42.62466560335064" lon="12.49359477444016"><ele>395.0</ele><time>2026-04-04T12:46:50.943Z</time></trkpt><trkpt lat="42.62458814348231" lon="12.493639723617987"><ele>395.0</ele><time>2026-04-04T12:46:52.943Z</time></trkpt><trkpt lat="42.62452527603598" lon="12.493676838157782"><ele>395.0</ele><time>2026-04-04T12:46:54.943Z</time></trkpt><trkpt lat="42.624463332990985" lon="12.493714986105042"><ele>394.99999999999994</ele><time>2026-04-04T12:46:56.943Z</time></trkpt><trkpt lat="42.62435632126201" lon="12.493733425788985"><ele>395.0</ele><time>2026-04-04T12:46:58.943Z</time></trkpt><trkpt lat="42.624273195789925" lon="12.493736902215975"><ele>394.3333333333333</ele><time>2026-04-04T12:46:59.943Z</time></trkpt><trkpt lat="42.62418580101112" lon="12.493739515400513"><ele>393.66666666666663</ele><time>2026-04-04T12:47:00.943Z</time></trkpt><trkpt lat="42.62409804123645" lon="12.493747413768373"><ele>393.0</ele><time>2026-04-04T12:47:01.943Z</time></trkpt><trkpt lat="42.62401533093219" lon="12.493757324289426"><ele>392.33333333333337</ele><time>2026-04-04T12:47:02.943Z</time></trkpt><trkpt lat="42.6239233416582" lon="12.493763895225522"><ele>391.6666666666667</ele><time>2026-04-04T12:47:03.943Z</time></trkpt><trkpt lat="42.62382907849758" lon="12.493780933564222"><ele>391.0</ele><time>2026-04-04T12:47:04.943Z</time></trkpt><trkpt lat="42.62374422970463" lon="12.493810539589932"><ele>389.50000000000006</ele><time>2026-04-04T12:47:05.943Z</time></trkpt><trkpt lat="42.623658364545975" lon="12.493848643258106"><ele>388.0</ele><time>2026-04-04T12:47:06.943Z</time></trkpt><trkpt lat="42.623575637265404" lon="12.493886387095225"><ele>386.5</ele><time>2026-04-04T12:47:07.943Z</time></trkpt><trkpt lat="42.62349460312279" lon="12.49392294559364"><ele>385.0</ele><time>2026-04-04T12:47:08.943Z</time></trkpt><trkpt lat="42.6234079105238" lon="12.49396234198267"><ele>383.5</ele><time>2026-04-04T12:47:09.943Z</time></trkpt><trkpt lat="42.62332444170804" lon="12.493992391614658"><ele>382.0</ele><time>2026-04-04T12:47:10.943Z</time></trkpt><trkpt lat="42.62323638389373" lon="12.494026375226563"><ele>381.0</ele><time>2026-04-04T12:47:11.943Z</time></trkpt><trkpt lat="42.62316465233133" lon="12.494053702237593"><ele>380.0</ele><time>2026-04-04T12:47:12.943Z</time></trkpt><trkpt lat="42.623100125657366" lon="12.494078402709954"><ele>379.0</ele><time>2026-04-04T12:47:13.943Z</time></trkpt><trkpt lat="42.623035046944814" lon="12.494098054006342"><ele>378.0</ele><time>2026-04-04T12:47:14.943Z</time></trkpt><trkpt lat="42.62294909834427" lon="12.494107913437634"><ele>377.0</ele><time>2026-04-04T12:47:16.943Z</time></trkpt><trkpt lat="42.62290103598034" lon="12.49402902550432"><ele>376.0</ele><time>2026-04-04T12:47:20.943Z</time></trkpt><trkpt lat="42.62293144542535" lon="12.493942208414206"><ele>375.0</ele><time>2026-04-04T12:47:22.943Z</time></trkpt><trkpt lat="42.622990759886335" lon="12.493756120442272"><ele>375.75</ele><time>2026-04-04T12:47:24.943Z</time></trkpt><trkpt lat="42.623026632550186" lon="12.493620268785156"><ele>376.5</ele><time>2026-04-04T12:47:25.943Z</time></trkpt><trkpt lat="42.62306273673733" lon="12.4934663247826"><ele>377.25</ele><time>2026-04-04T12:47:26.943Z</time></trkpt><trkpt lat="42.62310770502349" lon="12.493297626046314"><ele>378.0</ele><time>2026-04-04T12:47:27.943Z</time></trkpt><trkpt lat="42.62315599966931" lon="12.49310060431541"><ele>378.3333333333333</ele><time>2026-04-04T12:47:28.943Z</time></trkpt><trkpt lat="42.62320124767937" lon="12.49289887206101"><ele>378.66666666666663</ele><time>2026-04-04T12:47:29.943Z</time></trkpt><trkpt lat="42.62323139829572" lon="12.492687580350943"><ele>379.0</ele><time>2026-04-04T12:47:30.943Z</time></trkpt><trkpt lat="42.6232411074626" lon="12.492479874149968"><ele>379.0</ele><time>2026-04-04T12:47:31.943Z</time></trkpt><trkpt lat="42.62324247269324" lon="12.492298325260522"><ele>379.0</ele><time>2026-04-04T12:47:32.943Z</time></trkpt><trkpt lat="42.62325897312863" lon="12.492120509220376"><ele>379.0</ele><time>2026-04-04T12:47:33.943Z</time></trkpt><trkpt lat="42.62327295656999" lon="12.491962286718124"><ele>379.0</ele><time>2026-04-04T12:47:34.943Z</time></trkpt><trkpt lat="42.623290430084154" lon="12.491831747917859"><ele>379.3333333333333</ele><time>2026-04-04T12:47:35.943Z</time></trkpt><trkpt lat="42.62330428924143" lon="12.491722771459072"><ele>379.66666666666663</ele><time>2026-04-04T12:47:36.943Z</time></trkpt><trkpt lat="42.62330899799384" lon="12.491635189842913"><ele>380.0</ele><time>2026-04-04T12:47:37.943Z</time></trkpt><trkpt lat="42.62329387144551" lon="12.491498230727174"><ele>380.3333333333333</ele><time>2026-04-04T12:47:39.943Z</time></trkpt><trkpt lat="42.623280888193065" lon="12.491401878018442"><ele>380.6666666666667</ele><time>2026-04-04T12:47:41.943Z</time></trkpt><trkpt lat="42.62328606634732" lon="12.49131626061995"><ele>381.0</ele><time>2026-04-04T12:47:44.943Z</time></trkpt><trkpt lat="42.62333885576131" lon="12.491251068663196"><ele>381.1666666666667</ele><time>2026-04-04T12:47:46.943Z</time></trkpt><trkpt lat="42.62340531989504" lon="12.491231889596593"><ele>381.3333333333333</ele><time>2026-04-04T12:47:47.942Z</time></trkpt><trkpt lat="42.62347248473141" lon="12.491213275105915"><ele>381.5</ele><time>2026-04-04T12:47:48.942Z</time></trkpt><trkpt lat="42.62354678787804" lon="12.491195493430563"><ele>381.66666666666663</ele><time>2026-04-04T12:47:49.942Z</time></trkpt><trkpt lat="42.623629118708166" lon="12.491165805160954"><ele>381.8333333333333</ele><time>2026-04-04T12:47:50.942Z</time></trkpt><trkpt lat="42.6237156226549" lon="12.49113774595919"><ele>382.0</ele><time>2026-04-04T12:47:51.942Z</time></trkpt><trkpt lat="42.62380438310111" lon="12.491114958123333"><ele>382.0</ele><time>2026-04-04T12:47:52.942Z</time></trkpt><trkpt lat="42.623889057032265" lon="12.491092837041279"><ele>382.0</ele><time>2026-04-04T12:47:53.942Z</time></trkpt><trkpt lat="42.6239818812502" lon="12.491062346496985"><ele>382.0</ele><time>2026-04-04T12:47:54.942Z</time></trkpt><trkpt lat="42.62405974076805" lon="12.491032969544918"><ele>382.0</ele><time>2026-04-04T12:47:55.942Z</time></trkpt><trkpt lat="42.62412644380328" lon="12.491009732639792"><ele>382.0</ele><time>2026-04-04T12:47:56.942Z</time></trkpt><trkpt lat="42.6241949394441" lon="12.490986259542774"><ele>382.0</ele><time>2026-04-04T12:47:57.942Z</time></trkpt><trkpt lat="42.62426939942824" lon="12.490959501631703"><ele>382.0</ele><time>2026-04-04T12:47:58.942Z</time></trkpt><trkpt lat="42.62434931933212" lon="12.49092157098906"><ele>382.0</ele><time>2026-04-04T12:47:59.942Z</time></trkpt><trkpt lat="42.62443915581726" lon="12.490883603607326"><ele>382.0</ele><time>2026-04-04T12:48:00.942Z</time></trkpt><trkpt lat="42.62453501032647" lon="12.49082797881091"><ele>382.0</ele><time>2026-04-04T12:48:01.942Z</time></trkpt><trkpt lat="42.6246382909911" lon="12.490768058392257"><ele>382.0</ele><time>2026-04-04T12:48:02.942Z</time></trkpt><trkpt lat="42.62474626137894" lon="12.490692310600634"><ele>382.5</ele><time>2026-04-04T12:48:03.942Z</time></trkpt><trkpt lat="42.6248642535462" lon="12.49061056892967"><ele>383.0</ele><time>2026-04-04T12:48:04.942Z</time></trkpt><trkpt lat="42.6249882824924" lon="12.49053556628108"><ele>383.5</ele><time>2026-04-04T12:48:05.942Z</time></trkpt><trkpt lat="42.62511522844816" lon="12.490458387247028"><ele>384.0</ele><time>2026-04-04T12:48:06.942Z</time></trkpt><trkpt lat="42.625249230832935" lon="12.490397203536995"><ele>383.75</ele><time>2026-04-04T12:48:07.942Z</time></trkpt><trkpt lat="42.62539218968697" lon="12.490370080116909"><ele>383.5</ele><time>2026-04-04T12:48:08.942Z</time></trkpt><trkpt lat="42.62553633335506" lon="12.490370625787538"><ele>383.25</ele><time>2026-04-04T12:48:09.942Z</time></trkpt><trkpt lat="42.62568409695163" lon="12.490387945270024"><ele>383.0</ele><time>2026-04-04T12:48:10.942Z</time></trkpt><trkpt lat="42.62584230305312" lon="12.490409428392056"><ele>384.6666666666667</ele><time>2026-04-04T12:48:11.942Z</time></trkpt><trkpt lat="42.62599898925067" lon="12.49044440514349"><ele>386.33333333333337</ele><time>2026-04-04T12:48:12.942Z</time></trkpt><trkpt lat="42.626151682927066" lon="12.490473733615932"><ele>388.0</ele><time>2026-04-04T12:48:13.942Z</time></trkpt><trkpt lat="42.62629660999567" lon="12.490499604955023"><ele>388.33333333333337</ele><time>2026-04-04T12:48:14.942Z</time></trkpt><trkpt lat="42.62644865731263" lon="12.490521700969861"><ele>388.66666666666663</ele><time>2026-04-04T12:48:15.942Z</time></trkpt><trkpt lat="42.626598228624765" lon="12.490546112320374"><ele>389.0</ele><time>2026-04-04T12:48:16.942Z</time></trkpt><trkpt lat="42.626743639462" lon="12.490574306144287"><ele>389.0</ele><time>2026-04-04T12:48:17.942Z</time></trkpt><trkpt lat="42.62688332630484" lon="12.490623283086558"><ele>389.0</ele><time>2026-04-04T12:48:18.942Z</time></trkpt><trkpt lat="42.627024267184154" lon="12.4906500792121"><ele>389.0</ele><time>2026-04-04T12:48:19.942Z</time></trkpt><trkpt lat="42.62716277594312" lon="12.490647802745693"><ele>389.0</ele><time>2026-04-04T12:48:20.942Z</time></trkpt><trkpt lat="42.62728340370986" lon="12.490637142795809"><ele>388.5</ele><time>2026-04-04T12:48:21.943Z</time></trkpt><trkpt lat="42.62739451519842" lon="12.490601273037182"><ele>388.0</ele><time>2026-04-04T12:48:22.942Z</time></trkpt><trkpt lat="42.62750730763795" lon="12.490555112320374"><ele>387.5</ele><time>2026-04-04T12:48:23.942Z</time></trkpt><trkpt lat="42.627620487594655" lon="12.490456874274987"><ele>387.0</ele><time>2026-04-04T12:48:24.942Z</time></trkpt><trkpt lat="42.62772215075574" lon="12.490333096653053"><ele>387.75</ele><time>2026-04-04T12:48:25.942Z</time></trkpt><trkpt lat="42.627813641683915" lon="12.49020277807018"><ele>388.5</ele><time>2026-04-04T12:48:26.942Z</time></trkpt><trkpt lat="42.62789159862231" lon="12.490082547455968"><ele>389.25</ele><time>2026-04-04T12:48:27.942Z</time></trkpt><trkpt lat="42.627964838549545" lon="12.489969617004187"><ele>390.0</ele><time>2026-04-04T12:48:28.942Z</time></trkpt><trkpt lat="42.62801891260954" lon="12.489868886135156"><ele>390.0</ele><time>2026-04-04T12:48:29.942Z</time></trkpt><trkpt lat="42.628077752456434" lon="12.489783278013752"><ele>390.0</ele><time>2026-04-04T12:48:30.942Z</time></trkpt><trkpt lat="42.62813147537551" lon="12.489705090359497"><ele>390.0</ele><time>2026-04-04T12:48:31.942Z</time></trkpt><trkpt lat="42.628174794103245" lon="12.489630768329203"><ele>390.0</ele><time>2026-04-04T12:48:32.942Z</time></trkpt><trkpt lat="42.62821419501985" lon="12.489553555251664"><ele>390.0</ele><time>2026-04-04T12:48:33.942Z</time></trkpt><trkpt lat="42.62827483721663" lon="12.489491842440048"><ele>390.0</ele><time>2026-04-04T12:48:34.942Z</time></trkpt><trkpt lat="42.628325409423944" lon="12.489413899818608"><ele>390.0</ele><time>2026-04-04T12:48:35.942Z</time></trkpt><trkpt lat="42.62837949586077" lon="12.489330540125962"><ele>390.0</ele><time>2026-04-04T12:48:36.942Z</time></trkpt><trkpt lat="42.628438030808816" lon="12.489240288988027"><ele>390.0</ele><time>2026-04-04T12:48:37.942Z</time></trkpt><trkpt lat="42.62850346438619" lon="12.489139413265756"><ele>390.0</ele><time>2026-04-04T12:48:38.942Z</time></trkpt><trkpt lat="42.62856301880139" lon="12.489047601182449"><ele>390.0</ele><time>2026-04-04T12:48:39.942Z</time></trkpt><trkpt lat="42.62862601099048" lon="12.488950489058938"><ele>390.0</ele><time>2026-04-04T12:48:40.942Z</time></trkpt><trkpt lat="42.628695463757104" lon="12.488843417073998"><ele>390.0</ele><time>2026-04-04T12:48:41.942Z</time></trkpt><trkpt lat="42.62876863898572" lon="12.488730723502197"><ele>390.0</ele><time>2026-04-04T12:48:42.942Z</time></trkpt><trkpt lat="42.62884417753796" lon="12.488614395884635"><ele>390.0</ele><time>2026-04-04T12:48:43.942Z</time></trkpt><trkpt lat="42.628920576045125" lon="12.488496744015846"><ele>390.0</ele><time>2026-04-04T12:48:44.942Z</time></trkpt><trkpt lat="42.6289952381442" lon="12.48837995011745"><ele>390.0</ele><time>2026-04-04T12:48:45.942Z</time></trkpt><trkpt lat="42.629071534957625" lon="12.48826037238225"><ele>390.0</ele><time>2026-04-04T12:48:46.942Z</time></trkpt><trkpt lat="42.62913819799944" lon="12.488155893377003"><ele>390.0</ele><time>2026-04-04T12:48:47.942Z</time></trkpt><trkpt lat="42.62919735898743" lon="12.488063172067504"><ele>390.0</ele><time>2026-04-04T12:48:48.942Z</time></trkpt><trkpt lat="42.62923987506585" lon="12.487964829212705"><ele>390.0</ele><time>2026-04-04T12:48:49.942Z</time></trkpt><trkpt lat="42.62929273137388" lon="12.487911566348611"><ele>390.2</ele><time>2026-04-04T12:48:50.942Z</time></trkpt><trkpt lat="42.629333543622316" lon="12.487842122798671"><ele>390.4</ele><time>2026-04-04T12:48:51.942Z</time></trkpt><trkpt lat="42.62937656163511" lon="12.487755714291621"><ele>390.6</ele><time>2026-04-04T12:48:52.942Z</time></trkpt><trkpt lat="42.629426199667655" lon="12.487639063938413"><ele>390.8</ele><time>2026-04-04T12:48:53.942Z</time></trkpt><trkpt lat="42.62947275033228" lon="12.487519716224075"><ele>391.0</ele><time>2026-04-04T12:48:54.942Z</time></trkpt><trkpt lat="42.629523924195404" lon="12.487385598884522"><ele>388.75</ele><time>2026-04-04T12:48:55.942Z</time></trkpt><trkpt lat="42.629576562180674" lon="12.48724109048005"><ele>386.5</ele><time>2026-04-04T12:48:56.942Z</time></trkpt><trkpt lat="42.62962653454959" lon="12.487103900141934"><ele>384.25</ele><time>2026-04-04T12:48:57.942Z</time></trkpt><trkpt lat="42.629677921106364" lon="12.486962921088429"><ele>382.0</ele><time>2026-04-04T12:48:58.942Z</time></trkpt><trkpt lat="42.629731273088346" lon="12.48681750484082"><ele>382.0</ele><time>2026-04-04T12:48:59.942Z</time></trkpt><trkpt lat="42.62978497376138" lon="12.48667113815828"><ele>382.0</ele><time>2026-04-04T12:49:00.942Z</time></trkpt><trkpt lat="42.62983575759649" lon="12.48653272168739"><ele>382.0</ele><time>2026-04-04T12:49:01.942Z</time></trkpt><trkpt lat="42.62988579460044" lon="12.486396340721255"><ele>382.0</ele><time>2026-04-04T12:49:02.942Z</time></trkpt><trkpt lat="42.629932100385695" lon="12.486270129544035"><ele>383.40000000000003</ele><time>2026-04-04T12:49:03.942Z</time></trkpt><trkpt lat="42.629971009624896" lon="12.48616407870612"><ele>384.8</ele><time>2026-04-04T12:49:04.942Z</time></trkpt><trkpt lat="42.63001313811477" lon="12.486049253035038"><ele>386.2</ele><time>2026-04-04T12:49:05.942Z</time></trkpt><trkpt lat="42.63005801002198" lon="12.48592654201408"><ele>387.6</ele><time>2026-04-04T12:49:06.942Z</time></trkpt><trkpt lat="42.63010302958303" lon="12.485802670426365"><ele>389.0</ele><time>2026-04-04T12:49:07.942Z</time></trkpt><trkpt lat="42.63014351061147" lon="12.485689007455049"><ele>388.99999999999994</ele><time>2026-04-04T12:49:08.941Z</time></trkpt><trkpt lat="42.6301785094505" lon="12.485570479026922"><ele>389.0</ele><time>2026-04-04T12:49:09.941Z</time></trkpt><trkpt lat="42.63018409440043" lon="12.485460547046722"><ele>389.0</ele><time>2026-04-04T12:49:10.941Z</time></trkpt><trkpt lat="42.630199956246095" lon="12.485371742280142"><ele>389.0</ele><time>2026-04-04T12:49:13.941Z</time></trkpt><trkpt lat="42.6302850337597" lon="12.485357344191826"><ele>388.99999999999994</ele><time>2026-04-04T12:49:25.941Z</time></trkpt><trkpt lat="42.630329260626894" lon="12.485288978654365"><ele>389.0</ele><time>2026-04-04T12:49:26.941Z</time></trkpt><trkpt lat="42.63038955852419" lon="12.485252461417334"><ele>386.6</ele><time>2026-04-04T12:49:27.941Z</time></trkpt><trkpt lat="42.63046845695893" lon="12.485219850284542"><ele>384.2</ele><time>2026-04-04T12:49:28.941Z</time></trkpt><trkpt lat="42.63056937444817" lon="12.485206815448269"><ele>381.8</ele><time>2026-04-04T12:49:29.941Z</time></trkpt><trkpt lat="42.630675166495465" lon="12.48521784064388"><ele>379.40000000000003</ele><time>2026-04-04T12:49:30.941Z</time></trkpt><trkpt lat="42.630795275052314" lon="12.485207186051898"><ele>377.0</ele><time>2026-04-04T12:49:31.941Z</time></trkpt><trkpt lat="42.63089637877898" lon="12.485204108217655"><ele>377.0</ele><time>2026-04-04T12:49:32.941Z</time></trkpt><trkpt lat="42.6309999833532" lon="12.485205068485188"><ele>377.0</ele><time>2026-04-04T12:49:33.941Z</time></trkpt><trkpt lat="42.63109437582424" lon="12.485201948334838"><ele>377.0</ele><time>2026-04-04T12:49:34.941Z</time></trkpt><trkpt lat="42.6311859107128" lon="12.485196831610642"><ele>377.0</ele><time>2026-04-04T12:49:35.941Z</time></trkpt><trkpt lat="42.63127358102412" lon="12.485215036522128"><ele>377.0</ele><time>2026-04-04T12:49:36.941Z</time></trkpt><trkpt lat="42.631365542604904" lon="12.485189144539545"><ele>375.20000000000005</ele><time>2026-04-04T12:49:37.941Z</time></trkpt><trkpt lat="42.631453857961695" lon="12.485177588354011"><ele>373.4</ele><time>2026-04-04T12:49:38.941Z</time></trkpt><trkpt lat="42.631543236991845" lon="12.485177744111363"><ele>371.6</ele><time>2026-04-04T12:49:39.941Z</time></trkpt><trkpt lat="42.63161040587251" lon="12.48510728388521"><ele>369.79999999999995</ele><time>2026-04-04T12:49:40.941Z</time></trkpt><trkpt lat="42.63168445116281" lon="12.485073736820091"><ele>368.0</ele><time>2026-04-04T12:49:41.941Z</time></trkpt><trkpt lat="42.631790365590604" lon="12.485181263991029"><ele>368.0</ele><time>2026-04-04T12:49:42.941Z</time></trkpt><trkpt lat="42.63186245480977" lon="12.485182149640366"><ele>368.0</ele><time>2026-04-04T12:49:43.941Z</time></trkpt><trkpt lat="42.631926301648384" lon="12.485180495802716"><ele>368.0</ele><time>2026-04-04T12:49:44.941Z</time></trkpt><trkpt lat="42.632001688448945" lon="12.485179441481138"><ele>368.0</ele><time>2026-04-04T12:49:46.941Z</time></trkpt><trkpt lat="42.631888011335654" lon="12.48521296835152"><ele>368.0</ele><time>2026-04-04T12:49:55.941Z</time></trkpt><trkpt lat="42.63173120102113" lon="12.48523227835784"><ele>368.0</ele><time>2026-04-04T12:49:56.941Z</time></trkpt><trkpt lat="42.6316170888023" lon="12.48525929206999"><ele>368.0</ele><time>2026-04-04T12:49:57.941Z</time></trkpt><trkpt lat="42.63147869856799" lon="12.485301086202083"><ele>368.0</ele><time>2026-04-04T12:49:58.941Z</time></trkpt><trkpt lat="42.63131961154423" lon="12.485165613805476"><ele>368.0</ele><time>2026-04-04T12:49:59.941Z</time></trkpt><trkpt lat="42.6311866839885" lon="12.485173682000806"><ele>370.25</ele><time>2026-04-04T12:50:00.941Z</time></trkpt><trkpt lat="42.63105194798566" lon="12.485176131023826"><ele>372.5</ele><time>2026-04-04T12:50:01.941Z</time></trkpt><trkpt lat="42.630917212092044" lon="12.48517451038967"><ele>374.75</ele><time>2026-04-04T12:50:02.941Z</time></trkpt><trkpt lat="42.6307917884977" lon="12.485172686506766"><ele>377.0</ele><time>2026-04-04T12:50:03.941Z</time></trkpt><trkpt lat="42.63068229550618" lon="12.485171014363944"><ele>377.0</ele><time>2026-04-04T12:50:04.941Z</time></trkpt><trkpt lat="42.630587848880246" lon="12.485169572001706"><ele>377.0</ele><time>2026-04-04T12:50:05.941Z</time></trkpt><trkpt lat="42.63048847067492" lon="12.485171964859962"><ele>377.0</ele><time>2026-04-04T12:50:06.941Z</time></trkpt><trkpt lat="42.63038056760324" lon="12.485219069904517"><ele>377.0</ele><time>2026-04-04T12:50:07.941Z</time></trkpt><trkpt lat="42.630311630067695" lon="12.48527419173178"><ele>377.0</ele><time>2026-04-04T12:50:08.941Z</time></trkpt><trkpt lat="42.63025296824461" lon="12.485330376276002"><ele>379.75</ele><time>2026-04-04T12:50:10.941Z</time></trkpt><trkpt lat="42.63019376511607" lon="12.485098760763819"><ele>382.5</ele><time>2026-04-04T12:50:14.941Z</time></trkpt><trkpt lat="42.63017227475467" lon="12.484981712578143"><ele>385.25</ele><time>2026-04-04T12:50:15.941Z</time></trkpt><trkpt lat="42.63015513252543" lon="12.484850649096181"><ele>388.0</ele><time>2026-04-04T12:50:16.941Z</time></trkpt><trkpt lat="42.63015352543033" lon="12.484683700834976"><ele>386.25</ele><time>2026-04-04T12:50:17.941Z</time></trkpt><trkpt lat="42.63015110958119" lon="12.484504327390468"><ele>384.5</ele><time>2026-04-04T12:50:18.941Z</time></trkpt><trkpt lat="42.630117740237786" lon="12.484329034287319"><ele>382.75</ele><time>2026-04-04T12:50:19.941Z</time></trkpt><trkpt lat="42.63015376292219" lon="12.484124624952434"><ele>381.0</ele><time>2026-04-04T12:50:20.941Z</time></trkpt><trkpt lat="42.630045492409664" lon="12.483996122659399"><ele>381.0</ele><time>2026-04-04T12:50:21.94Z</time></trkpt><trkpt lat="42.6300239081628" lon="12.483815145755282"><ele>381.0</ele><time>2026-04-04T12:50:22.94Z</time></trkpt><trkpt lat="42.63000251610354" lon="12.483638919373291"><ele>381.0</ele><time>2026-04-04T12:50:23.94Z</time></trkpt><trkpt lat="42.62998177603277" lon="12.48346378234401"><ele>381.0</ele><time>2026-04-04T12:50:24.94Z</time></trkpt><trkpt lat="42.6299758943252" lon="12.48328945097343"><ele>380.75</ele><time>2026-04-04T12:50:25.94Z</time></trkpt><trkpt lat="42.62999411554023" lon="12.483121956300238"><ele>380.5</ele><time>2026-04-04T12:50:26.94Z</time></trkpt><trkpt lat="42.63007245715675" lon="12.482984378884835"><ele>380.25</ele><time>2026-04-04T12:50:27.941Z</time></trkpt><trkpt lat="42.63013251623779" lon="12.482856092343768"><ele>380.0</ele><time>2026-04-04T12:50:28.94Z</time></trkpt><trkpt lat="42.63021850816224" lon="12.48273088163631"><ele>376.0</ele><time>2026-04-04T12:50:29.94Z</time></trkpt><trkpt lat="42.63032105433657" lon="12.482620936680057"><ele>372.0</ele><time>2026-04-04T12:50:30.94Z</time></trkpt><trkpt lat="42.63043600986499" lon="12.482498905656664"><ele>368.0</ele><time>2026-04-04T12:50:31.94Z</time></trkpt><trkpt lat="42.630547409499094" lon="12.482379979949554"><ele>364.0</ele><time>2026-04-04T12:50:32.94Z</time></trkpt><trkpt lat="42.63066297713909" lon="12.482255967638165"><ele>364.0</ele><time>2026-04-04T12:50:33.94Z</time></trkpt><trkpt lat="42.63077556654625" lon="12.482134278093996"><ele>364.0</ele><time>2026-04-04T12:50:34.94Z</time></trkpt><trkpt lat="42.63088153663684" lon="12.482019742231184"><ele>364.0</ele><time>2026-04-04T12:50:35.94Z</time></trkpt><trkpt lat="42.63099152649116" lon="12.481900862078888"><ele>364.0</ele><time>2026-04-04T12:50:36.94Z</time></trkpt><trkpt lat="42.631100287442116" lon="12.481783310190123"><ele>364.0</ele><time>2026-04-04T12:50:37.94Z</time></trkpt><trkpt lat="42.63121528644601" lon="12.481659016058273"><ele>364.0</ele><time>2026-04-04T12:50:38.94Z</time></trkpt><trkpt lat="42.63133197926974" lon="12.481544244229708"><ele>364.0</ele><time>2026-04-04T12:50:39.94Z</time></trkpt><trkpt lat="42.631450296282175" lon="12.481460869982307"><ele>364.0</ele><time>2026-04-04T12:50:40.94Z</time></trkpt><trkpt lat="42.631575009653204" lon="12.481413084727397"><ele>364.0</ele><time>2026-04-04T12:50:41.94Z</time></trkpt><trkpt lat="42.63170344450608" lon="12.481436672868933"><ele>364.0</ele><time>2026-04-04T12:50:42.94Z</time></trkpt><trkpt lat="42.63185121014811" lon="12.481466915289818"><ele>364.0</ele><time>2026-04-04T12:50:43.94Z</time></trkpt><trkpt lat="42.632061652150384" lon="12.481515002432056"><ele>362.3333333333333</ele><time>2026-04-04T12:50:44.94Z</time></trkpt><trkpt lat="42.63224767325383" lon="12.48159430551637"><ele>360.6666666666667</ele><time>2026-04-04T12:50:45.94Z</time></trkpt><trkpt lat="42.63237811685457" lon="12.481588899392683"><ele>359.0</ele><time>2026-04-04T12:50:46.94Z</time></trkpt><trkpt lat="42.6325158033849" lon="12.481601087621533"><ele>359.0</ele><time>2026-04-04T12:50:47.94Z</time></trkpt><trkpt lat="42.632661245472235" lon="12.481621597533232"><ele>359.0</ele><time>2026-04-04T12:50:48.94Z</time></trkpt><trkpt lat="42.6328019817197" lon="12.481673085877064"><ele>359.0</ele><time>2026-04-04T12:50:49.94Z</time></trkpt><trkpt lat="42.632930761249604" lon="12.48170053461947"><ele>359.0</ele><time>2026-04-04T12:50:50.94Z</time></trkpt><trkpt lat="42.63305890778353" lon="12.481729585697375"><ele>358.25</ele><time>2026-04-04T12:50:51.94Z</time></trkpt><trkpt lat="42.63318995235179" lon="12.481755485719859"><ele>357.5</ele><time>2026-04-04T12:50:52.94Z</time></trkpt><trkpt lat="42.6333122538313" lon="12.481781264753424"><ele>356.75</ele><time>2026-04-04T12:50:53.94Z</time></trkpt><trkpt lat="42.633434437519774" lon="12.481813031299586"><ele>356.0</ele><time>2026-04-04T12:50:54.939Z</time></trkpt><trkpt lat="42.63356300410535" lon="12.481835134991956"><ele>355.25</ele><time>2026-04-04T12:50:55.939Z</time></trkpt><trkpt lat="42.63368313468731" lon="12.481857197977186"><ele>354.5</ele><time>2026-04-04T12:50:56.939Z</time></trkpt><trkpt lat="42.63379078796627" lon="12.481913412392219"><ele>353.75</ele><time>2026-04-04T12:50:57.939Z</time></trkpt><trkpt lat="42.633905404780684" lon="12.481991277548014"><ele>353.0</ele><time>2026-04-04T12:50:58.939Z</time></trkpt><trkpt lat="42.634008156424905" lon="12.482137963394019"><ele>351.0</ele><time>2026-04-04T12:50:59.939Z</time></trkpt><trkpt lat="42.63406705487849" lon="12.482342831969506"><ele>349.0</ele><time>2026-04-04T12:51:00.939Z</time></trkpt><trkpt lat="42.63412818474874" lon="12.482561395949253"><ele>347.0</ele><time>2026-04-04T12:51:01.939Z</time></trkpt><trkpt lat="42.63419461033629" lon="12.482796211647631"><ele>347.33333333333337</ele><time>2026-04-04T12:51:02.939Z</time></trkpt><trkpt lat="42.63423969473539" lon="12.483023315593536"><ele>347.6666666666667</ele><time>2026-04-04T12:51:03.939Z</time></trkpt><trkpt lat="42.63429396530077" lon="12.48324617336822"><ele>348.0</ele><time>2026-04-04T12:51:04.939Z</time></trkpt><trkpt lat="42.6343569109268" lon="12.483464628352882"><ele>348.0</ele><time>2026-04-04T12:51:05.939Z</time></trkpt><trkpt lat="42.63441989987084" lon="12.483671670652386"><ele>348.0</ele><time>2026-04-04T12:51:06.939Z</time></trkpt><trkpt lat="42.63447487212129" lon="12.483871263881392"><ele>348.0</ele><time>2026-04-04T12:51:07.939Z</time></trkpt><trkpt lat="42.634530632886026" lon="12.484064143411487"><ele>347.25</ele><time>2026-04-04T12:51:08.939Z</time></trkpt><trkpt lat="42.63458075098468" lon="12.484251771933502"><ele>346.5</ele><time>2026-04-04T12:51:09.939Z</time></trkpt><trkpt lat="42.63463159713512" lon="12.484433272122294"><ele>345.75</ele><time>2026-04-04T12:51:10.939Z</time></trkpt><trkpt lat="42.634673788422994" lon="12.484602757228709"><ele>345.0</ele><time>2026-04-04T12:51:11.939Z</time></trkpt><trkpt lat="42.63471510084597" lon="12.484764316007913"><ele>345.0</ele><time>2026-04-04T12:51:12.939Z</time></trkpt><trkpt lat="42.63475741401108" lon="12.484924809009224"><ele>345.0</ele><time>2026-04-04T12:51:13.939Z</time></trkpt><trkpt lat="42.634802558928186" lon="12.485072377687858"><ele>345.0</ele><time>2026-04-04T12:51:14.939Z</time></trkpt><trkpt lat="42.634853344456324" lon="12.485203236131028"><ele>345.0</ele><time>2026-04-04T12:51:15.939Z</time></trkpt><trkpt lat="42.63490563059561" lon="12.485326426283505"><ele>345.0</ele><time>2026-04-04T12:51:16.939Z</time></trkpt><trkpt lat="42.63497317951051" lon="12.485441551077168"><ele>345.0</ele><time>2026-04-04T12:51:17.939Z</time></trkpt><trkpt lat="42.63505801199068" lon="12.485545230329514"><ele>345.0</ele><time>2026-04-04T12:51:18.939Z</time></trkpt><trkpt lat="42.63515045747104" lon="12.485637809845894"><ele>345.0</ele><time>2026-04-04T12:51:19.939Z</time></trkpt><trkpt lat="42.63524579439686" lon="12.48570792322207"><ele>345.0</ele><time>2026-04-04T12:51:20.939Z</time></trkpt><trkpt lat="42.63533921965321" lon="12.485758816588008"><ele>345.2</ele><time>2026-04-04T12:51:21.939Z</time></trkpt><trkpt lat="42.635424617318364" lon="12.485790501291193"><ele>345.4</ele><time>2026-04-04T12:51:22.939Z</time></trkpt><trkpt lat="42.63550943044511" lon="12.485811016118124"><ele>345.6</ele><time>2026-04-04T12:51:23.939Z</time></trkpt><trkpt lat="42.63557366033299" lon="12.485828211800717"><ele>345.8</ele><time>2026-04-04T12:51:24.939Z</time></trkpt><trkpt lat="42.635658615800615" lon="12.485829301518558"><ele>346.0</ele><time>2026-04-04T12:51:26.939Z</time></trkpt><trkpt lat="42.63577309341563" lon="12.485922555848168"><ele>346.0</ele><time>2026-04-04T12:52:11.938Z</time></trkpt><trkpt lat="42.63590909610446" lon="12.4859911097877"><ele>346.0</ele><time>2026-04-04T12:52:13.938Z</time></trkpt><trkpt lat="42.63599805959904" lon="12.486033389260102"><ele>346.0</ele><time>2026-04-04T12:52:14.938Z</time></trkpt><trkpt lat="42.636093614483045" lon="12.486078038169515"><ele>346.0</ele><time>2026-04-04T12:52:15.938Z</time></trkpt><trkpt lat="42.63620181614546" lon="12.486124892022174"><ele>347.25</ele><time>2026-04-04T12:52:16.938Z</time></trkpt><trkpt lat="42.636312760111394" lon="12.486183501532775"><ele>348.5</ele><time>2026-04-04T12:52:17.938Z</time></trkpt><trkpt lat="42.636430716027135" lon="12.486242796077724"><ele>349.75</ele><time>2026-04-04T12:52:18.938Z</time></trkpt><trkpt lat="42.636551519997575" lon="12.486297968529174"><ele>351.0</ele><time>2026-04-04T12:52:19.938Z</time></trkpt><trkpt lat="42.63668242827747" lon="12.486369598939667"><ele>351.0</ele><time>2026-04-04T12:52:20.938Z</time></trkpt><trkpt lat="42.636805065500575" lon="12.486419888462164"><ele>351.0</ele><time>2026-04-04T12:52:21.938Z</time></trkpt><trkpt lat="42.63691635182602" lon="12.486475232611356"><ele>351.0</ele><time>2026-04-04T12:52:22.938Z</time></trkpt><trkpt lat="42.637025354839" lon="12.48650670017635"><ele>351.0</ele><time>2026-04-04T12:52:23.938Z</time></trkpt><trkpt lat="42.637117807101134" lon="12.486539558851216"><ele>352.5</ele><time>2026-04-04T12:52:24.938Z</time></trkpt><trkpt lat="42.63719980736012" lon="12.486565037327706"><ele>354.0</ele><time>2026-04-04T12:52:25.938Z</time></trkpt><trkpt lat="42.637265597957764" lon="12.486579737945071"><ele>355.5</ele><time>2026-04-04T12:52:26.938Z</time></trkpt><trkpt lat="42.637396654242835" lon="12.486583204361471"><ele>357.0</ele><time>2026-04-04T12:52:28.938Z</time></trkpt><trkpt lat="42.63746727465125" lon="12.486574117136175"><ele>358.5</ele><time>2026-04-04T12:52:29.938Z</time></trkpt><trkpt lat="42.637534679747795" lon="12.486595416210598"><ele>360.0</ele><time>2026-04-04T12:52:30.938Z</time></trkpt><trkpt lat="42.63762971713118" lon="12.486579546332202"><ele>360.0</ele><time>2026-04-04T12:52:32.938Z</time></trkpt><trkpt lat="42.637698162845005" lon="12.486577369300171"><ele>360.0</ele><time>2026-04-04T12:52:34.938Z</time></trkpt><trkpt lat="42.6377806066877" lon="12.48659541619391"><ele>360.0</ele><time>2026-04-04T12:52:36.938Z</time></trkpt><trkpt lat="42.6378825673904" lon="12.486572706718711"><ele>360.0</ele><time>2026-04-04T12:52:38.938Z</time></trkpt><trkpt lat="42.637979915697706" lon="12.486564009383214"><ele>360.0</ele><time>2026-04-04T12:52:40.938Z</time></trkpt><trkpt lat="42.63809034158474" lon="12.486561941304553"><ele>362.4</ele><time>2026-04-04T12:52:42.938Z</time></trkpt><trkpt lat="42.63818276489784" lon="12.486555682539002"><ele>364.8</ele><time>2026-04-04T12:52:44.938Z</time></trkpt><trkpt lat="42.63826425523182" lon="12.486559377821598"><ele>367.20000000000005</ele><time>2026-04-04T12:52:46.938Z</time></trkpt><trkpt lat="42.638388422615044" lon="12.486539331220118"><ele>369.6</ele><time>2026-04-04T12:52:48.938Z</time></trkpt><trkpt lat="42.63847377491663" lon="12.486533161855172"><ele>372.0</ele><time>2026-04-04T12:52:49.938Z</time></trkpt><trkpt lat="42.63856697009776" lon="12.486529692455612"><ele>373.6</ele><time>2026-04-04T12:52:50.938Z</time></trkpt><trkpt lat="42.63866164215758" lon="12.486527045755487"><ele>375.20000000000005</ele><time>2026-04-04T12:52:51.938Z</time></trkpt><trkpt lat="42.638756859985826" lon="12.48653328997091"><ele>376.8</ele><time>2026-04-04T12:52:52.938Z</time></trkpt><trkpt lat="42.63885750230223" lon="12.486540564185951"><ele>378.4</ele><time>2026-04-04T12:52:53.938Z</time></trkpt><trkpt lat="42.638985268768145" lon="12.486546697412612"><ele>380.0</ele><time>2026-04-04T12:52:54.938Z</time></trkpt><trkpt lat="42.63912309216526" lon="12.486548835296603"><ele>380.0</ele><time>2026-04-04T12:52:55.938Z</time></trkpt><trkpt lat="42.63925115993855" lon="12.486547688934495"><ele>380.0</ele><time>2026-04-04T12:52:56.938Z</time></trkpt><trkpt lat="42.639365049751305" lon="12.486552446820845"><ele>380.0</ele><time>2026-04-04T12:52:57.938Z</time></trkpt><trkpt lat="42.639469274748194" lon="12.48654543443111"><ele>380.0</ele><time>2026-04-04T12:52:58.938Z</time></trkpt><trkpt lat="42.63955676567781" lon="12.486536069248737"><ele>380.0</ele><time>2026-04-04T12:52:59.938Z</time></trkpt><trkpt lat="42.639631309828665" lon="12.486535517539975"><ele>380.1666666666667</ele><time>2026-04-04T12:53:00.938Z</time></trkpt><trkpt lat="42.6397220905758" lon="12.486575169457609"><ele>380.33333333333337</ele><time>2026-04-04T12:53:02.938Z</time></trkpt><trkpt lat="42.63973766420612" lon="12.486668035903245"><ele>380.5</ele><time>2026-04-04T12:53:06.938Z</time></trkpt><trkpt lat="42.63968782038567" lon="12.48681951035195"><ele>380.6666666666667</ele><time>2026-04-04T12:53:08.938Z</time></trkpt><trkpt lat="42.639684602884216" lon="12.48690730431059"><ele>380.8333333333333</ele><time>2026-04-04T12:53:09.938Z</time></trkpt><trkpt lat="42.63968555742737" lon="12.48700381371882"><ele>381.0</ele><time>2026-04-04T12:53:10.938Z</time></trkpt><trkpt lat="42.63968630248231" lon="12.487118354914545"><ele>381.0</ele><time>2026-04-04T12:53:11.938Z</time></trkpt><trkpt lat="42.63969758895697" lon="12.48725284911073"><ele>381.0</ele><time>2026-04-04T12:53:12.938Z</time></trkpt><trkpt lat="42.639730930140175" lon="12.487409408002238"><ele>381.0</ele><time>2026-04-04T12:53:13.938Z</time></trkpt><trkpt lat="42.639773658591494" lon="12.487576296663729"><ele>381.0</ele><time>2026-04-04T12:53:14.938Z</time></trkpt><trkpt lat="42.63983477272772" lon="12.487734419921779"><ele>381.0</ele><time>2026-04-04T12:53:15.938Z</time></trkpt><trkpt lat="42.639877966842484" lon="12.48790847146925"><ele>381.0</ele><time>2026-04-04T12:53:16.938Z</time></trkpt><trkpt lat="42.63990192488294" lon="12.488069138778641"><ele>381.0</ele><time>2026-04-04T12:53:17.938Z</time></trkpt><trkpt lat="42.63993907225317" lon="12.4882560434353"><ele>381.0</ele><time>2026-04-04T12:53:18.937Z</time></trkpt><trkpt lat="42.639965221185314" lon="12.488410103182806"><ele>380.75</ele><time>2026-04-04T12:53:19.937Z</time></trkpt><trkpt lat="42.63998100018395" lon="12.488590928789298"><ele>380.5</ele><time>2026-04-04T12:53:20.937Z</time></trkpt><trkpt lat="42.63996115267197" lon="12.488746071773893"><ele>380.25</ele><time>2026-04-04T12:53:21.937Z</time></trkpt><trkpt lat="42.639954202102146" lon="12.48893314550886"><ele>380.0</ele><time>2026-04-04T12:53:22.937Z</time></trkpt><trkpt lat="42.639935439970564" lon="12.48912288542423"><ele>380.6</ele><time>2026-04-04T12:53:23.937Z</time></trkpt><trkpt lat="42.63990333696605" lon="12.48930333581995"><ele>381.2</ele><time>2026-04-04T12:53:24.937Z</time></trkpt><trkpt lat="42.639863289287256" lon="12.489455307192607"><ele>381.79999999999995</ele><time>2026-04-04T12:53:25.937Z</time></trkpt><trkpt lat="42.63981979514115" lon="12.489583782034483"><ele>382.4</ele><time>2026-04-04T12:53:26.937Z</time></trkpt><trkpt lat="42.639779132213675" lon="12.489691049745078"><ele>383.0</ele><time>2026-04-04T12:53:27.937Z</time></trkpt><trkpt lat="42.63973921930126" lon="12.489792867149873"><ele>383.0</ele><time>2026-04-04T12:53:28.937Z</time></trkpt><trkpt lat="42.639697694713135" lon="12.489901836480007"><ele>383.0</ele><time>2026-04-04T12:53:29.937Z</time></trkpt><trkpt lat="42.6396481494223" lon="12.490031853771276"><ele>383.0</ele><time>2026-04-04T12:53:30.937Z</time></trkpt><trkpt lat="42.63959453642148" lon="12.490172549965688"><ele>383.0</ele><time>2026-04-04T12:53:31.937Z</time></trkpt><trkpt lat="42.63954527430959" lon="12.490326325110281"><ele>383.0</ele><time>2026-04-04T12:53:32.937Z</time></trkpt><trkpt lat="42.63947863109599" lon="12.490475012104055"><ele>382.0</ele><time>2026-04-04T12:53:33.937Z</time></trkpt><trkpt lat="42.639406892944756" lon="12.490627511848821"><ele>381.0</ele><time>2026-04-04T12:53:34.937Z</time></trkpt><trkpt lat="42.63933789183406" lon="12.490769118436738"><ele>380.0</ele><time>2026-04-04T12:53:35.937Z</time></trkpt><trkpt lat="42.63927390812998" lon="12.490903682506836"><ele>379.0</ele><time>2026-04-04T12:53:36.937Z</time></trkpt><trkpt lat="42.6391942292295" lon="12.491026390458327"><ele>379.0</ele><time>2026-04-04T12:53:37.937Z</time></trkpt><trkpt lat="42.6391294267741" lon="12.491131980982836"><ele>379.0</ele><time>2026-04-04T12:53:38.937Z</time></trkpt><trkpt lat="42.63907576969817" lon="12.491205939871568"><ele>379.0</ele><time>2026-04-04T12:53:39.937Z</time></trkpt><trkpt lat="42.63899187193929" lon="12.491304551522378"><ele>379.0</ele><time>2026-04-04T12:53:41.937Z</time></trkpt><trkpt lat="42.6389530870036" lon="12.491372209291546"><ele>379.0</ele><time>2026-04-04T12:54:31.936Z</time></trkpt><trkpt lat="42.63890937567461" lon="12.491434340179923"><ele>379.0</ele><time>2026-04-04T12:54:36.936Z</time></trkpt><trkpt lat="42.63884464483646" lon="12.491538474295137"><ele>379.0</ele><time>2026-04-04T12:54:40.936Z</time></trkpt><trkpt lat="42.638833605114456" lon="12.491628429763542"><ele>379.0</ele><time>2026-04-04T12:54:41.936Z</time></trkpt><trkpt lat="42.638826146314415" lon="12.49175902557453"><ele>379.0</ele><time>2026-04-04T12:54:42.937Z</time></trkpt><trkpt lat="42.63881314922374" lon="12.491909263101018"><ele>379.0</ele><time>2026-04-04T12:54:43.936Z</time></trkpt><trkpt lat="42.63879400249147" lon="12.492066525900041"><ele>379.0</ele><time>2026-04-04T12:54:44.936Z</time></trkpt><trkpt lat="42.63880166146235" lon="12.492241742131968"><ele>379.0</ele><time>2026-04-04T12:54:45.936Z</time></trkpt><trkpt lat="42.63883944793488" lon="12.492424785609975"><ele>379.0</ele><time>2026-04-04T12:54:46.936Z</time></trkpt><trkpt lat="42.63886208426968" lon="12.492616960620703"><ele>379.0</ele><time>2026-04-04T12:54:47.936Z</time></trkpt><trkpt lat="42.63890156527933" lon="12.492822938819314"><ele>379.0</ele><time>2026-04-04T12:54:48.936Z</time></trkpt><trkpt lat="42.63894216220381" lon="12.49303313483306"><ele>380.75</ele><time>2026-04-04T12:54:49.936Z</time></trkpt><trkpt lat="42.63897468349015" lon="12.49324731624076"><ele>382.5</ele><time>2026-04-04T12:54:50.936Z</time></trkpt><trkpt lat="42.63897739836874" lon="12.493439014746398"><ele>384.25</ele><time>2026-04-04T12:54:51.936Z</time></trkpt><trkpt lat="42.63900060588795" lon="12.493594356900616"><ele>386.0</ele><time>2026-04-04T12:54:52.936Z</time></trkpt><trkpt lat="42.638989121976145" lon="12.493742362148263"><ele>386.25</ele><time>2026-04-04T12:54:53.936Z</time></trkpt><trkpt lat="42.63899792868764" lon="12.493895560238547"><ele>386.5</ele><time>2026-04-04T12:54:54.936Z</time></trkpt><trkpt lat="42.639008110827156" lon="12.494056138726501"><ele>386.75</ele><time>2026-04-04T12:54:55.936Z</time></trkpt><trkpt lat="42.639018308486484" lon="12.49421780332661"><ele>387.0</ele><time>2026-04-04T12:54:56.936Z</time></trkpt><trkpt lat="42.63902025675681" lon="12.494387309520354"><ele>387.0</ele><time>2026-04-04T12:54:57.936Z</time></trkpt><trkpt lat="42.63901368508529" lon="12.494558998377872"><ele>387.0</ele><time>2026-04-04T12:54:58.936Z</time></trkpt><trkpt lat="42.639003726590104" lon="12.494741389472367"><ele>387.0</ele><time>2026-04-04T12:54:59.936Z</time></trkpt><trkpt lat="42.63899430976691" lon="12.494927470052064"><ele>387.0</ele><time>2026-04-04T12:55:00.936Z</time></trkpt><trkpt lat="42.638982067000896" lon="12.495125263682995"><ele>387.0</ele><time>2026-04-04T12:55:01.936Z</time></trkpt><trkpt lat="42.63896464896905" lon="12.495318366629444"><ele>387.0</ele><time>2026-04-04T12:55:02.936Z</time></trkpt><trkpt lat="42.63895132280445" lon="12.495490780524522"><ele>387.0</ele><time>2026-04-04T12:55:03.936Z</time></trkpt><trkpt lat="42.638936389517376" lon="12.495661658146698"><ele>387.0</ele><time>2026-04-04T12:55:04.936Z</time></trkpt><trkpt lat="42.63892800858262" lon="12.495824796204586"><ele>386.75</ele><time>2026-04-04T12:55:05.936Z</time></trkpt><trkpt lat="42.6389224449653" lon="12.496003920792482"><ele>386.5</ele><time>2026-04-04T12:55:06.936Z</time></trkpt><trkpt lat="42.63891232197767" lon="12.496179356574762"><ele>386.25</ele><time>2026-04-04T12:55:07.936Z</time></trkpt><trkpt lat="42.63889662146729" lon="12.496340051878601"><ele>386.0</ele><time>2026-04-04T12:55:08.936Z</time></trkpt><trkpt lat="42.63887027978258" lon="12.496508152850428"><ele>384.75</ele><time>2026-04-04T12:55:09.936Z</time></trkpt><trkpt lat="42.63883554082699" lon="12.496687362109265"><ele>383.5</ele><time>2026-04-04T12:55:10.936Z</time></trkpt><trkpt lat="42.638781864036716" lon="12.496884307902217"><ele>382.25</ele><time>2026-04-04T12:55:11.936Z</time></trkpt><trkpt lat="42.63870478137405" lon="12.497069934171327"><ele>381.0</ele><time>2026-04-04T12:55:12.936Z</time></trkpt><trkpt lat="42.63860478446394" lon="12.497245165856551"><ele>380.6666666666667</ele><time>2026-04-04T12:55:13.936Z</time></trkpt><trkpt lat="42.63847728443482" lon="12.497379565468979"><ele>380.33333333333337</ele><time>2026-04-04T12:55:14.936Z</time></trkpt><trkpt lat="42.6383469273072" lon="12.497541041398911"><ele>380.0</ele><time>2026-04-04T12:55:15.936Z</time></trkpt><trkpt lat="42.63822475741475" lon="12.497721260974131"><ele>380.0</ele><time>2026-04-04T12:55:16.936Z</time></trkpt><trkpt lat="42.638084426176704" lon="12.49788854530208"><ele>380.0</ele><time>2026-04-04T12:55:17.936Z</time></trkpt><trkpt lat="42.63794958027733" lon="12.498046783487421"><ele>380.0</ele><time>2026-04-04T12:55:18.936Z</time></trkpt><trkpt lat="42.63782139907748" lon="12.498206618171753"><ele>381.0</ele><time>2026-04-04T12:55:19.936Z</time></trkpt><trkpt lat="42.63770120811372" lon="12.49835556680965"><ele>382.0</ele><time>2026-04-04T12:55:20.936Z</time></trkpt><trkpt lat="42.63759790406675" lon="12.498487913428232"><ele>383.0</ele><time>2026-04-04T12:55:21.936Z</time></trkpt><trkpt lat="42.63750326360451" lon="12.498611234757327"><ele>384.0</ele><time>2026-04-04T12:55:22.936Z</time></trkpt><trkpt lat="42.63740484667907" lon="12.498736491325468"><ele>385.25</ele><time>2026-04-04T12:55:23.936Z</time></trkpt><trkpt lat="42.63730626284894" lon="12.498868342926922"><ele>386.5</ele><time>2026-04-04T12:55:24.936Z</time></trkpt><trkpt lat="42.637205350764205" lon="12.49900246586467"><ele>387.75</ele><time>2026-04-04T12:55:25.936Z</time></trkpt><trkpt lat="42.63709819740374" lon="12.499132011211714"><ele>389.0</ele><time>2026-04-04T12:55:26.936Z</time></trkpt><trkpt lat="42.636997490385774" lon="12.499249462094802"><ele>389.0</ele><time>2026-04-04T12:55:27.936Z</time></trkpt><trkpt lat="42.63690943573961" lon="12.499362041202026"><ele>389.0</ele><time>2026-04-04T12:55:28.936Z</time></trkpt><trkpt lat="42.636819144016755" lon="12.499467445161867"><ele>389.0</ele><time>2026-04-04T12:55:29.936Z</time></trkpt><trkpt lat="42.63673014546659" lon="12.499574189377716"><ele>389.0</ele><time>2026-04-04T12:55:30.936Z</time></trkpt><trkpt lat="42.63665196363111" lon="12.499660842664365"><ele>389.4</ele><time>2026-04-04T12:55:31.936Z</time></trkpt><trkpt lat="42.63659329016" lon="12.499730165881695"><ele>389.79999999999995</ele><time>2026-04-04T12:55:32.936Z</time></trkpt><trkpt lat="42.636529800572546" lon="12.499909560708"><ele>390.20000000000005</ele><time>2026-04-04T12:55:34.936Z</time></trkpt><trkpt lat="42.636516548584275" lon="12.500047869323879"><ele>390.6</ele><time>2026-04-04T12:55:35.936Z</time></trkpt><trkpt lat="42.63648785555274" lon="12.50017461678084"><ele>391.0</ele><time>2026-04-04T12:55:36.936Z</time></trkpt><trkpt lat="42.63648180350493" lon="12.500288161950175"><ele>391.00000000000006</ele><time>2026-04-04T12:55:37.936Z</time></trkpt><trkpt lat="42.63645733401182" lon="12.500384770845992"><ele>391.0</ele><time>2026-04-04T12:55:38.936Z</time></trkpt><trkpt lat="42.636421997492995" lon="12.500493967623163"><ele>391.0</ele><time>2026-04-04T12:55:39.936Z</time></trkpt><trkpt lat="42.63635470076458" lon="12.500583280084829"><ele>391.0</ele><time>2026-04-04T12:55:40.936Z</time></trkpt><trkpt lat="42.63629387939193" lon="12.50066657338178"><ele>391.00000000000006</ele><time>2026-04-04T12:55:41.936Z</time></trkpt><trkpt lat="42.63623863721881" lon="12.500753369081657"><ele>391.0</ele><time>2026-04-04T12:55:42.936Z</time></trkpt><trkpt lat="42.63614841190087" lon="12.50081194012336"><ele>389.8</ele><time>2026-04-04T12:55:43.936Z</time></trkpt><trkpt lat="42.63605696310238" lon="12.50088402849031"><ele>388.6</ele><time>2026-04-04T12:55:44.936Z</time></trkpt><trkpt lat="42.63594752565893" lon="12.500951734122877"><ele>387.4</ele><time>2026-04-04T12:55:45.936Z</time></trkpt><trkpt lat="42.6358418194877" lon="12.500975915511777"><ele>386.2</ele><time>2026-04-04T12:55:46.936Z</time></trkpt><trkpt lat="42.63574693803454" lon="12.500990891224937"><ele>385.0</ele><time>2026-04-04T12:55:47.936Z</time></trkpt><trkpt lat="42.63566147996311" lon="12.501030989318005"><ele>385.0</ele><time>2026-04-04T12:55:48.936Z</time></trkpt><trkpt lat="42.6355639988902" lon="12.501091463059426"><ele>385.0</ele><time>2026-04-04T12:55:49.936Z</time></trkpt><trkpt lat="42.63545957991828" lon="12.501176806535922"><ele>385.0</ele><time>2026-04-04T12:55:50.936Z</time></trkpt><trkpt lat="42.635363450521425" lon="12.501284542795513"><ele>385.0</ele><time>2026-04-04T12:55:51.936Z</time></trkpt><trkpt lat="42.63528523679387" lon="12.501381411101319"><ele>383.50000000000006</ele><time>2026-04-04T12:55:52.936Z</time></trkpt><trkpt lat="42.6352358780486" lon="12.501472340375317"><ele>382.0</ele><time>2026-04-04T12:55:53.936Z</time></trkpt><trkpt lat="42.63515300850688" lon="12.501538000838236"><ele>380.5</ele><time>2026-04-04T12:55:55.936Z</time></trkpt><trkpt lat="42.6350907190215" lon="12.501607000926118"><ele>379.0</ele><time>2026-04-04T12:55:57.935Z</time></trkpt><trkpt lat="42.63503170777873" lon="12.50163917183037"><ele>377.5</ele><time>2026-04-04T12:55:58.935Z</time></trkpt><trkpt lat="42.634960287568475" lon="12.501690665441254"><ele>376.0</ele><time>2026-04-04T12:55:59.935Z</time></trkpt><trkpt lat="42.634886476951884" lon="12.50170715270341"><ele>376.0</ele><time>2026-04-04T12:56:00.935Z</time></trkpt><trkpt lat="42.63482598059853" lon="12.501746382354042"><ele>376.0</ele><time>2026-04-04T12:56:01.935Z</time></trkpt><trkpt lat="42.63476288029189" lon="12.501790232090464"><ele>376.0</ele><time>2026-04-04T12:56:02.935Z</time></trkpt><trkpt lat="42.634698879769644" lon="12.50182613107497"><ele>376.0</ele><time>2026-04-04T12:56:03.935Z</time></trkpt><trkpt lat="42.6346371856835" lon="12.501876449176018"><ele>376.0</ele><time>2026-04-04T12:56:04.935Z</time></trkpt><trkpt lat="42.63454440237177" lon="12.501975416670271"><ele>376.0</ele><time>2026-04-04T12:56:06.935Z</time></trkpt><trkpt lat="42.63445438754398" lon="12.50205183284543"><ele>374.16666666666663</ele><time>2026-04-04T12:56:08.935Z</time></trkpt><trkpt lat="42.63438563491036" lon="12.50213294256177"><ele>372.3333333333333</ele><time>2026-04-04T12:56:10.935Z</time></trkpt><trkpt lat="42.63431858822944" lon="12.50222167204963"><ele>370.5</ele><time>2026-04-04T12:56:12.935Z</time></trkpt><trkpt lat="42.634268242485156" lon="12.502301791166452"><ele>368.6666666666667</ele><time>2026-04-04T12:56:14.935Z</time></trkpt><trkpt lat="42.634207573628515" lon="12.502423714146136"><ele>366.83333333333337</ele><time>2026-04-04T12:56:16.935Z</time></trkpt><trkpt lat="42.63417266850924" lon="12.502504620706217"><ele>365.0</ele><time>2026-04-04T12:56:17.935Z</time></trkpt><trkpt lat="42.634138713418146" lon="12.502583325119302"><ele>365.0</ele><time>2026-04-04T12:56:18.935Z</time></trkpt><trkpt lat="42.63410697272018" lon="12.50265723660091"><ele>365.0</ele><time>2026-04-04T12:56:19.935Z</time></trkpt><trkpt lat="42.63407286340265" lon="12.502742444411103"><ele>365.0</ele><time>2026-04-04T12:56:20.935Z</time></trkpt><trkpt lat="42.63404433522624" lon="12.502824311350594"><ele>365.0</ele><time>2026-04-04T12:56:21.935Z</time></trkpt><trkpt lat="42.634018424105385" lon="12.50291049245513"><ele>365.0</ele><time>2026-04-04T12:56:22.935Z</time></trkpt><trkpt lat="42.633995714861165" lon="12.503053617278743"><ele>365.0</ele><time>2026-04-04T12:56:24.935Z</time></trkpt><trkpt lat="42.63399727381566" lon="12.503213164557145"><ele>362.4</ele><time>2026-04-04T12:56:26.935Z</time></trkpt><trkpt lat="42.63398204556897" lon="12.503321179172605"><ele>359.8</ele><time>2026-04-04T12:56:27.935Z</time></trkpt><trkpt lat="42.63395838646536" lon="12.503443570279302"><ele>357.20000000000005</ele><time>2026-04-04T12:56:28.935Z</time></trkpt><trkpt lat="42.633934272315926" lon="12.503567263508131"><ele>354.6</ele><time>2026-04-04T12:56:29.935Z</time></trkpt><trkpt lat="42.63390952093257" lon="12.503697347143008"><ele>352.0</ele><time>2026-04-04T12:56:30.935Z</time></trkpt><trkpt lat="42.63388966518544" lon="12.503837313143112"><ele>350.16666666666663</ele><time>2026-04-04T12:56:31.935Z</time></trkpt><trkpt lat="42.63387094010076" lon="12.503966007623507"><ele>348.3333333333333</ele><time>2026-04-04T12:56:32.935Z</time></trkpt><trkpt lat="42.633853054339" lon="12.504087799072186"><ele>346.5</ele><time>2026-04-04T12:56:33.935Z</time></trkpt><trkpt lat="42.633840648210274" lon="12.50420037162777"><ele>344.6666666666667</ele><time>2026-04-04T12:56:34.935Z</time></trkpt><trkpt lat="42.63382436051276" lon="12.504306898350434"><ele>342.83333333333337</ele><time>2026-04-04T12:56:35.935Z</time></trkpt><trkpt lat="42.63380662559449" lon="12.50440931382341"><ele>341.0</ele><time>2026-04-04T12:56:36.935Z</time></trkpt><trkpt lat="42.63379408499069" lon="12.50451411569939"><ele>339.33333333333337</ele><time>2026-04-04T12:56:37.935Z</time></trkpt><trkpt lat="42.633792898109185" lon="12.504621748541542"><ele>337.6666666666667</ele><time>2026-04-04T12:56:38.935Z</time></trkpt><trkpt lat="42.63379910100114" lon="12.504730207456811"><ele>336.0</ele><time>2026-04-04T12:56:39.935Z</time></trkpt><trkpt lat="42.633806822247266" lon="12.504815425432612"><ele>334.3333333333333</ele><time>2026-04-04T12:56:40.935Z</time></trkpt><trkpt lat="42.63382426104301" lon="12.504899857863574"><ele>332.66666666666663</ele><time>2026-04-04T12:56:41.935Z</time></trkpt><trkpt lat="42.63383530771095" lon="12.505031881659182"><ele>331.0</ele><time>2026-04-04T12:56:43.935Z</time></trkpt><trkpt lat="42.63386032229464" lon="12.505125851080177"><ele>331.0</ele><time>2026-04-04T12:56:46.934Z</time></trkpt><trkpt lat="42.63387638560538" lon="12.505216966382324"><ele>331.0</ele><time>2026-04-04T12:56:49.935Z</time></trkpt><trkpt lat="42.633909758005636" lon="12.505334216972855"><ele>331.0</ele><time>2026-04-04T12:56:52.935Z</time></trkpt><trkpt lat="42.633894992464995" lon="12.505466493398107"><ele>331.0</ele><time>2026-04-04T12:56:54.935Z</time></trkpt><trkpt lat="42.63390248024664" lon="12.505559093099672"><ele>331.0</ele><time>2026-04-04T12:56:55.934Z</time></trkpt><trkpt lat="42.63387868145272" lon="12.505674743894645"><ele>331.0</ele><time>2026-04-04T12:56:56.934Z</time></trkpt><trkpt lat="42.63386858651765" lon="12.505801406718868"><ele>329.8</ele><time>2026-04-04T12:56:57.935Z</time></trkpt><trkpt lat="42.63385882163176" lon="12.505934750529756"><ele>328.6</ele><time>2026-04-04T12:56:58.934Z</time></trkpt><trkpt lat="42.63384954658999" lon="12.506068934645976"><ele>327.4</ele><time>2026-04-04T12:56:59.934Z</time></trkpt><trkpt lat="42.6338359664952" lon="12.506214012532642"><ele>326.2</ele><time>2026-04-04T12:57:00.934Z</time></trkpt><trkpt lat="42.633823208498825" lon="12.506344788335308"><ele>325.0</ele><time>2026-04-04T12:57:01.934Z</time></trkpt><trkpt lat="42.63379419211328" lon="12.506475851914844"><ele>324.4</ele><time>2026-04-04T12:57:02.934Z</time></trkpt><trkpt lat="42.6337497650236" lon="12.506603569608584"><ele>323.8</ele><time>2026-04-04T12:57:03.934Z</time></trkpt><trkpt lat="42.63370579504808" lon="12.506718252242287"><ele>323.20000000000005</ele><time>2026-04-04T12:57:04.934Z</time></trkpt><trkpt lat="42.63365869250089" lon="12.50682215004868"><ele>322.6</ele><time>2026-04-04T12:57:05.934Z</time></trkpt><trkpt lat="42.633609129690214" lon="12.506912842858489"><ele>322.0</ele><time>2026-04-04T12:57:06.934Z</time></trkpt><trkpt lat="42.63355290065687" lon="12.507003457253713"><ele>321.20000000000005</ele><time>2026-04-04T12:57:07.934Z</time></trkpt><trkpt lat="42.63349414055667" lon="12.507093921327039"><ele>320.40000000000003</ele><time>2026-04-04T12:57:08.934Z</time></trkpt><trkpt lat="42.633431777584654" lon="12.5071955867409"><ele>319.6</ele><time>2026-04-04T12:57:09.934Z</time></trkpt><trkpt lat="42.63336453167012" lon="12.50728974590605"><ele>318.8</ele><time>2026-04-04T12:57:10.934Z</time></trkpt><trkpt lat="42.63328650997568" lon="12.507359002202103"><ele>318.0</ele><time>2026-04-04T12:57:11.934Z</time></trkpt><trkpt lat="42.63322548764004" lon="12.507432480884553"><ele>318.0</ele><time>2026-04-04T12:57:12.934Z</time></trkpt><trkpt lat="42.63317272314492" lon="12.507502691434489"><ele>318.0</ele><time>2026-04-04T12:57:13.934Z</time></trkpt><trkpt lat="42.633111497768525" lon="12.507596628333742"><ele>318.0</ele><time>2026-04-04T12:57:15.934Z</time></trkpt><trkpt lat="42.63304549909554" lon="12.507684343899523"><ele>318.0</ele><time>2026-04-04T12:57:19.934Z</time></trkpt><trkpt lat="42.63299268924687" lon="12.507750301021737"><ele>318.0</ele><time>2026-04-04T12:57:21.934Z</time></trkpt><trkpt lat="42.63292964758251" lon="12.507853442582098"><ele>318.0</ele><time>2026-04-04T12:57:23.934Z</time></trkpt><trkpt lat="42.63285830954198" lon="12.507981411490562"><ele>316.0</ele><time>2026-04-04T12:57:25.934Z</time></trkpt><trkpt lat="42.6328176096427" lon="12.508062248900211"><ele>314.0</ele><time>2026-04-04T12:57:26.934Z</time></trkpt><trkpt lat="42.63278198748831" lon="12.508180329772483"><ele>312.0</ele><time>2026-04-04T12:57:27.934Z</time></trkpt><trkpt lat="42.632761745436106" lon="12.508319887155476"><ele>310.0</ele><time>2026-04-04T12:57:28.934Z</time></trkpt><trkpt lat="42.632715142483946" lon="12.508474334937846"><ele>308.0</ele><time>2026-04-04T12:57:29.934Z</time></trkpt><trkpt lat="42.63268303227659" lon="12.50864172639075"><ele>304.5</ele><time>2026-04-04T12:57:30.934Z</time></trkpt><trkpt lat="42.63265408065403" lon="12.50881390513916"><ele>301.0</ele><time>2026-04-04T12:57:31.934Z</time></trkpt><trkpt lat="42.63262686002477" lon="12.50897712221638"><ele>297.5</ele><time>2026-04-04T12:57:32.934Z</time></trkpt><trkpt lat="42.63259708251875" lon="12.509139193426739"><ele>294.0</ele><time>2026-04-04T12:57:33.934Z</time></trkpt><trkpt lat="42.632564903660935" lon="12.509307784278274"><ele>294.0</ele><time>2026-04-04T12:57:34.934Z</time></trkpt><trkpt lat="42.63251915946974" lon="12.509466673841299"><ele>294.0</ele><time>2026-04-04T12:57:35.934Z</time></trkpt><trkpt lat="42.63248818887165" lon="12.509617648330943"><ele>294.0</ele><time>2026-04-04T12:57:36.934Z</time></trkpt><trkpt lat="42.632459335661984" lon="12.509760114016835"><ele>294.0</ele><time>2026-04-04T12:57:37.934Z</time></trkpt><trkpt lat="42.63242818476652" lon="12.509894594919118"><ele>293.0</ele><time>2026-04-04T12:57:38.934Z</time></trkpt><trkpt lat="42.632397729988305" lon="12.510020575332762"><ele>292.0</ele><time>2026-04-04T12:57:39.934Z</time></trkpt><trkpt lat="42.632373539064936" lon="12.510128038435337"><ele>291.0</ele><time>2026-04-04T12:57:40.934Z</time></trkpt><trkpt lat="42.63235115545851" lon="12.51023173643196"><ele>290.0</ele><time>2026-04-04T12:57:41.934Z</time></trkpt><trkpt lat="42.63233148525912" lon="12.510334862807243"><ele>289.0</ele><time>2026-04-04T12:57:42.934Z</time></trkpt><trkpt lat="42.63231131934696" lon="12.51045213063186"><ele>288.0</ele><time>2026-04-04T12:57:43.934Z</time></trkpt><trkpt lat="42.63228960314494" lon="12.51058085818396"><ele>286.5</ele><time>2026-04-04T12:57:44.934Z</time></trkpt><trkpt lat="42.63226471644663" lon="12.510699221693866"><ele>285.0</ele><time>2026-04-04T12:57:45.934Z</time></trkpt><trkpt lat="42.63223439300935" lon="12.51081285822423"><ele>283.5</ele><time>2026-04-04T12:57:46.933Z</time></trkpt><trkpt lat="42.63221785208256" lon="12.510928037520483"><ele>282.0</ele><time>2026-04-04T12:57:47.933Z</time></trkpt><trkpt lat="42.63218151334272" lon="12.511032995740148"><ele>280.5</ele><time>2026-04-04T12:57:48.933Z</time></trkpt><trkpt lat="42.63215029685422" lon="12.511133794136002"><ele>279.0</ele><time>2026-04-04T12:57:49.933Z</time></trkpt><trkpt lat="42.63212428404011" lon="12.511217795899888"><ele>277.3333333333333</ele><time>2026-04-04T12:57:50.933Z</time></trkpt><trkpt lat="42.63209252398309" lon="12.511392409478733"><ele>275.6666666666667</ele><time>2026-04-04T12:57:52.933Z</time></trkpt><trkpt lat="42.63209897987704" lon="12.511502417202069"><ele>274.0</ele><time>2026-04-04T12:57:53.933Z</time></trkpt><trkpt lat="42.63215259332286" lon="12.511605538234916"><ele>272.33333333333337</ele><time>2026-04-04T12:57:54.933Z</time></trkpt><trkpt lat="42.63215877640869" lon="12.511703214739608"><ele>270.6666666666667</ele><time>2026-04-04T12:57:55.933Z</time></trkpt><trkpt lat="42.6321591976757" lon="12.51179629571096"><ele>269.0</ele><time>2026-04-04T12:57:56.933Z</time></trkpt><trkpt lat="42.63215665266379" lon="12.51189139848837"><ele>269.0</ele><time>2026-04-04T12:57:57.933Z</time></trkpt><trkpt lat="42.63215232071738" lon="12.511990979758158"><ele>269.0</ele><time>2026-04-04T12:57:58.933Z</time></trkpt><trkpt lat="42.63214194033734" lon="12.512107591089892"><ele>269.0</ele><time>2026-04-04T12:57:59.933Z</time></trkpt><trkpt lat="42.6321219345629" lon="12.512238661554575"><ele>269.0</ele><time>2026-04-04T12:58:00.933Z</time></trkpt><trkpt lat="42.63209668673771" lon="12.512358056666429"><ele>269.0</ele><time>2026-04-04T12:58:01.933Z</time></trkpt><trkpt lat="42.63208195997183" lon="12.512480729436396"><ele>269.0</ele><time>2026-04-04T12:58:02.933Z</time></trkpt><trkpt lat="42.63204593295449" lon="12.512603322975508"><ele>267.0</ele><time>2026-04-04T12:58:03.933Z</time></trkpt><trkpt lat="42.632018100875165" lon="12.512732805781747"><ele>265.0</ele><time>2026-04-04T12:58:04.933Z</time></trkpt><trkpt lat="42.63198623352823" lon="12.512866998733138"><ele>263.0</ele><time>2026-04-04T12:58:05.933Z</time></trkpt><trkpt lat="42.631966434602276" lon="12.512996725509034"><ele>261.0</ele><time>2026-04-04T12:58:06.933Z</time></trkpt><trkpt lat="42.63194883558619" lon="12.513127278526225"><ele>259.0</ele><time>2026-04-04T12:58:07.933Z</time></trkpt><trkpt lat="42.6319284551866" lon="12.513258956395854"><ele>257.66666666666663</ele><time>2026-04-04T12:58:08.933Z</time></trkpt><trkpt lat="42.631907034096656" lon="12.51338190311641"><ele>256.3333333333333</ele><time>2026-04-04T12:58:09.933Z</time></trkpt><trkpt lat="42.63188671520308" lon="12.513498499434629"><ele>255.0</ele><time>2026-04-04T12:58:10.933Z</time></trkpt><trkpt lat="42.63186229436527" lon="12.513614337435136"><ele>253.66666666666669</ele><time>2026-04-04T12:58:11.933Z</time></trkpt><trkpt lat="42.631836458545415" lon="12.51372797341143"><ele>252.33333333333334</ele><time>2026-04-04T12:58:12.933Z</time></trkpt><trkpt lat="42.6318022905116" lon="12.513836994508443"><ele>251.0</ele><time>2026-04-04T12:58:13.933Z</time></trkpt><trkpt lat="42.63177384287978" lon="12.513948203085807"><ele>249.50000000000003</ele><time>2026-04-04T12:58:14.933Z</time></trkpt><trkpt lat="42.63174824396853" lon="12.514061282060915"><ele>248.0</ele><time>2026-04-04T12:58:15.933Z</time></trkpt><trkpt lat="42.63172485794001" lon="12.5141745778785"><ele>246.5</ele><time>2026-04-04T12:58:16.933Z</time></trkpt><trkpt lat="42.63169799561259" lon="12.5142853510869"><ele>245.0</ele><time>2026-04-04T12:58:17.933Z</time></trkpt><trkpt lat="42.63167441084502" lon="12.514394916247582"><ele>243.50000000000003</ele><time>2026-04-04T12:58:18.933Z</time></trkpt><trkpt lat="42.63165554661181" lon="12.514501473787185"><ele>242.0</ele><time>2026-04-04T12:58:19.933Z</time></trkpt><trkpt lat="42.63163750001233" lon="12.514607699162955"><ele>240.50000000000003</ele><time>2026-04-04T12:58:20.933Z</time></trkpt><trkpt lat="42.631614905367876" lon="12.514714676119283"><ele>239.0</ele><time>2026-04-04T12:58:21.933Z</time></trkpt><trkpt lat="42.631590027156754" lon="12.514828357705776"><ele>237.5</ele><time>2026-04-04T12:58:22.933Z</time></trkpt><trkpt lat="42.63155206294767" lon="12.514949903330445"><ele>236.0</ele><time>2026-04-04T12:58:23.933Z</time></trkpt><trkpt lat="42.63150338582909" lon="12.515054465983965"><ele>234.50000000000003</ele><time>2026-04-04T12:58:24.933Z</time></trkpt><trkpt lat="42.63145163224706" lon="12.515148320475893"><ele>233.0</ele><time>2026-04-04T12:58:25.933Z</time></trkpt><trkpt lat="42.63140940410947" lon="12.515229083562106"><ele>233.00000000000003</ele><time>2026-04-04T12:58:26.933Z</time></trkpt><trkpt lat="42.6313707388011" lon="12.51531058167649"><ele>233.0</ele><time>2026-04-04T12:58:27.933Z</time></trkpt><trkpt lat="42.63132982578509" lon="12.515391556096121"><ele>233.0</ele><time>2026-04-04T12:58:28.933Z</time></trkpt><trkpt lat="42.631282502927384" lon="12.51547614022034"><ele>233.0</ele><time>2026-04-04T12:58:29.933Z</time></trkpt><trkpt lat="42.63122281790004" lon="12.515568101897916"><ele>233.00000000000003</ele><time>2026-04-04T12:58:30.933Z</time></trkpt><trkpt lat="42.63114201767193" lon="12.515656045170857"><ele>233.0</ele><time>2026-04-04T12:58:31.933Z</time></trkpt><trkpt lat="42.63106481234256" lon="12.515730393580341"><ele>231.2</ele><time>2026-04-04T12:58:32.933Z</time></trkpt><trkpt lat="42.63099003974268" lon="12.515801059038065"><ele>229.4</ele><time>2026-04-04T12:58:33.933Z</time></trkpt><trkpt lat="42.6309073183741" lon="12.51586794851534"><ele>227.59999999999997</ele><time>2026-04-04T12:58:34.933Z</time></trkpt><trkpt lat="42.63083046656456" lon="12.515926674218527"><ele>225.79999999999998</ele><time>2026-04-04T12:58:35.933Z</time></trkpt><trkpt lat="42.630751918541954" lon="12.51598561220123"><ele>224.0</ele><time>2026-04-04T12:58:36.933Z</time></trkpt><trkpt lat="42.63067959246626" lon="12.516046856626703"><ele>224.00000000000003</ele><time>2026-04-04T12:58:37.933Z</time></trkpt><trkpt lat="42.63060382282989" lon="12.516103596509142"><ele>224.0</ele><time>2026-04-04T12:58:38.933Z</time></trkpt><trkpt lat="42.63053533290966" lon="12.516156028603895"><ele>224.0</ele><time>2026-04-04T12:58:39.933Z</time></trkpt><trkpt lat="42.63046944507909" lon="12.516220374690084"><ele>224.0</ele><time>2026-04-04T12:58:40.933Z</time></trkpt><trkpt lat="42.63039822582237" lon="12.516288155457017"><ele>224.00000000000003</ele><time>2026-04-04T12:58:41.933Z</time></trkpt><trkpt lat="42.63032210436004" lon="12.516360050204883"><ele>224.0</ele><time>2026-04-04T12:58:42.933Z</time></trkpt><trkpt lat="42.630244338713815" lon="12.516397915796398"><ele>221.0</ele><time>2026-04-04T12:58:43.933Z</time></trkpt><trkpt lat="42.63016255255746" lon="12.516439220089108"><ele>217.99999999999997</ele><time>2026-04-04T12:58:44.933Z</time></trkpt><trkpt lat="42.63006861733243" lon="12.516477207948736"><ele>215.0</ele><time>2026-04-04T12:58:45.933Z</time></trkpt><trkpt lat="42.629964736259744" lon="12.516513941371299"><ele>212.0</ele><time>2026-04-04T12:58:46.933Z</time></trkpt><trkpt lat="42.629860323249524" lon="12.516545414201936"><ele>209.0</ele><time>2026-04-04T12:58:47.933Z</time></trkpt><trkpt lat="42.62975038392862" lon="12.516571665937645"><ele>209.0</ele><time>2026-04-04T12:58:48.933Z</time></trkpt><trkpt lat="42.62964281628039" lon="12.516594329287223"><ele>209.0</ele><time>2026-04-04T12:58:49.933Z</time></trkpt><trkpt lat="42.629544515034276" lon="12.51661894649311"><ele>209.0</ele><time>2026-04-04T12:58:50.932Z</time></trkpt><trkpt lat="42.629446204984994" lon="12.516637228531094"><ele>209.0</ele><time>2026-04-04T12:58:51.933Z</time></trkpt><trkpt lat="42.62934428495604" lon="12.516655472071038"><ele>209.0</ele><time>2026-04-04T12:58:52.933Z</time></trkpt><trkpt lat="42.62923371300602" lon="12.516675317184152"><ele>206.39999999999998</ele><time>2026-04-04T12:58:53.932Z</time></trkpt><trkpt lat="42.629122046065326" lon="12.51669746110045"><ele>203.8</ele><time>2026-04-04T12:58:54.932Z</time></trkpt><trkpt lat="42.62901033097038" lon="12.51671948610642"><ele>201.2</ele><time>2026-04-04T12:58:55.932Z</time></trkpt><trkpt lat="42.62889946483628" lon="12.516716457728034"><ele>198.60000000000002</ele><time>2026-04-04T12:58:56.932Z</time></trkpt><trkpt lat="42.62879500637414" lon="12.516749251209765"><ele>196.0</ele><time>2026-04-04T12:58:57.932Z</time></trkpt><trkpt lat="42.62868446881667" lon="12.516748754713568"><ele>195.4</ele><time>2026-04-04T12:58:58.932Z</time></trkpt><trkpt lat="42.628577631220544" lon="12.51676480398789"><ele>194.8</ele><time>2026-04-04T12:58:59.933Z</time></trkpt><trkpt lat="42.628470038204604" lon="12.516780794264422"><ele>194.20000000000002</ele><time>2026-04-04T12:59:00.932Z</time></trkpt><trkpt lat="42.62837070373758" lon="12.516795469133093"><ele>193.60000000000002</ele><time>2026-04-04T12:59:01.932Z</time></trkpt><trkpt lat="42.62828414624526" lon="12.516808256445087"><ele>193.0</ele><time>2026-04-04T12:59:02.933Z</time></trkpt><trkpt lat="42.62820407683055" lon="12.516863009809533"><ele>193.0</ele><time>2026-04-04T12:59:03.932Z</time></trkpt><trkpt lat="42.628121510020385" lon="12.516883227696617"><ele>193.0</ele><time>2026-04-04T12:59:04.932Z</time></trkpt><trkpt lat="42.628017312307016" lon="12.516889956213634"><ele>193.0</ele><time>2026-04-04T12:59:05.932Z</time></trkpt><trkpt lat="42.62793325289415" lon="12.516904110037741"><ele>193.0</ele><time>2026-04-04T12:59:06.932Z</time></trkpt><trkpt lat="42.62785259479366" lon="12.51691664784955"><ele>193.0</ele><time>2026-04-04T12:59:07.932Z</time></trkpt><trkpt lat="42.627757579551826" lon="12.516959824820056"><ele>192.60000000000002</ele><time>2026-04-04T12:59:09.932Z</time></trkpt><trkpt lat="42.62764563945299" lon="12.516983867148475"><ele>192.20000000000002</ele><time>2026-04-04T12:59:11.932Z</time></trkpt><trkpt lat="42.6275607099884" lon="12.517007641855036"><ele>191.8</ele><time>2026-04-04T12:59:12.932Z</time></trkpt><trkpt lat="42.627473012200056" lon="12.517031971102265"><ele>191.4</ele><time>2026-04-04T12:59:13.932Z</time></trkpt><trkpt lat="42.627386437258906" lon="12.51705705970839"><ele>191.0</ele><time>2026-04-04T12:59:14.932Z</time></trkpt><trkpt lat="42.627290602806774" lon="12.517077777783467"><ele>191.0</ele><time>2026-04-04T12:59:15.932Z</time></trkpt><trkpt lat="42.627211172800514" lon="12.517089571839769"><ele>191.0</ele><time>2026-04-04T12:59:16.932Z</time></trkpt><trkpt lat="42.62711741677426" lon="12.517107368595846"><ele>191.0</ele><time>2026-04-04T12:59:17.932Z</time></trkpt><trkpt lat="42.6270253735843" lon="12.51713359215905"><ele>191.0</ele><time>2026-04-04T12:59:18.932Z</time></trkpt><trkpt lat="42.62693343577938" lon="12.517170952545305"><ele>191.0</ele><time>2026-04-04T12:59:19.932Z</time></trkpt><trkpt lat="42.62684693191151" lon="12.517231733438726"><ele>191.0</ele><time>2026-04-04T12:59:20.932Z</time></trkpt><trkpt lat="42.62673782864786" lon="12.517315887338714"><ele>191.0</ele><time>2026-04-04T12:59:21.932Z</time></trkpt><trkpt lat="42.626624361865176" lon="12.517417268590846"><ele>191.0</ele><time>2026-04-04T12:59:22.932Z</time></trkpt><trkpt lat="42.62652511017517" lon="12.517502207079742"><ele>191.0</ele><time>2026-04-04T12:59:23.932Z</time></trkpt><trkpt lat="42.626431549002525" lon="12.517580810108665"><ele>191.0</ele><time>2026-04-04T12:59:24.932Z</time></trkpt><trkpt lat="42.62632704461049" lon="12.517642083544368"><ele>191.0</ele><time>2026-04-04T12:59:25.932Z</time></trkpt><trkpt lat="42.62620370285676" lon="12.517701671063834"><ele>191.0</ele><time>2026-04-04T12:59:26.932Z</time></trkpt><trkpt lat="42.626082884131534" lon="12.517743642107563"><ele>191.0</ele><time>2026-04-04T12:59:27.932Z</time></trkpt><trkpt lat="42.62596556778472" lon="12.517768008200857"><ele>191.0</ele><time>2026-04-04T12:59:28.932Z</time></trkpt><trkpt lat="42.625856846759355" lon="12.517800959761638"><ele>191.0</ele><time>2026-04-04T12:59:29.932Z</time></trkpt><trkpt lat="42.62575018218647" lon="12.517833464076563"><ele>191.0</ele><time>2026-04-04T12:59:30.932Z</time></trkpt><trkpt lat="42.625658257282076" lon="12.517867678989179"><ele>191.0</ele><time>2026-04-04T12:59:31.932Z</time></trkpt><trkpt lat="42.62556861551716" lon="12.51788031435725"><ele>191.0</ele><time>2026-04-04T12:59:32.932Z</time></trkpt><trkpt lat="42.62548234470235" lon="12.517877452998558"><ele>191.0</ele><time>2026-04-04T12:59:33.932Z</time></trkpt><trkpt lat="42.625393734929965" lon="12.517888543830898"><ele>191.0</ele><time>2026-04-04T12:59:34.932Z</time></trkpt><trkpt lat="42.625325367889644" lon="12.517887767803032"><ele>191.0</ele><time>2026-04-04T12:59:35.932Z</time></trkpt><trkpt lat="42.62521510309422" lon="12.517847343550967"><ele>191.0</ele><time>2026-04-04T12:59:37.932Z</time></trkpt><trkpt lat="42.62512232645441" lon="12.517811417695789"><ele>191.0</ele><time>2026-04-04T12:59:39.932Z</time></trkpt><trkpt lat="42.62502763424024" lon="12.517767496247256"><ele>190.8</ele><time>2026-04-04T12:59:41.932Z</time></trkpt><trkpt lat="42.62495590413958" lon="12.517730289002888"><ele>190.60000000000002</ele><time>2026-04-04T12:59:44.931Z</time></trkpt><trkpt lat="42.624889627444496" lon="12.517730621929754"><ele>190.4</ele><time>2026-04-04T12:59:59.931Z</time></trkpt><trkpt lat="42.62483561197834" lon="12.517917165208587"><ele>190.2</ele><time>2026-04-04T13:00:14.931Z</time></trkpt><trkpt lat="42.62484238378397" lon="12.518095915559002"><ele>190.0</ele><time>2026-04-04T13:00:16.931Z</time></trkpt><trkpt lat="42.62486192063381" lon="12.518202042443853"><ele>190.0</ele><time>2026-04-04T13:00:17.931Z</time></trkpt><trkpt lat="42.62488485047669" lon="12.518317658231243"><ele>190.0</ele><time>2026-04-04T13:00:18.931Z</time></trkpt><trkpt lat="42.62491411486454" lon="12.518435211433554"><ele>190.0</ele><time>2026-04-04T13:00:19.931Z</time></trkpt><trkpt lat="42.62494156241024" lon="12.518575821748374"><ele>190.0</ele><time>2026-04-04T13:00:20.931Z</time></trkpt><trkpt lat="42.62496543222475" lon="12.518720493350418"><ele>190.0</ele><time>2026-04-04T13:00:21.931Z</time></trkpt><trkpt lat="42.62499208017051" lon="12.51881306486755"><ele>190.83333333333334</ele><time>2026-04-04T13:00:22.931Z</time></trkpt><trkpt lat="42.625037326380664" lon="12.518913665471272"><ele>191.66666666666669</ele><time>2026-04-04T13:00:23.931Z</time></trkpt><trkpt lat="42.625094590846764" lon="12.518992227238227"><ele>192.5</ele><time>2026-04-04T13:00:24.931Z</time></trkpt><trkpt lat="42.62516615810219" lon="12.519022292852961"><ele>193.33333333333334</ele><time>2026-04-04T13:00:25.931Z</time></trkpt><trkpt lat="42.625257755308695" lon="12.519016730733732"><ele>194.16666666666666</ele><time>2026-04-04T13:00:26.931Z</time></trkpt><trkpt lat="42.625343883044316" lon="12.519008484035202"><ele>195.0</ele><time>2026-04-04T13:00:27.931Z</time></trkpt><trkpt lat="42.6254319547542" lon="12.519045226144698"><ele>196.5</ele><time>2026-04-04T13:00:28.931Z</time></trkpt><trkpt lat="42.62552679672402" lon="12.519066184728377"><ele>198.0</ele><time>2026-04-04T13:00:29.931Z</time></trkpt><trkpt lat="42.62561014665972" lon="12.519086059121602"><ele>199.5</ele><time>2026-04-04T13:00:30.931Z</time></trkpt><trkpt lat="42.6256669282714" lon="12.519133615044671"><ele>201.0</ele><time>2026-04-04T13:00:31.931Z</time></trkpt><trkpt lat="42.62574313522634" lon="12.519191147337786"><ele>202.5</ele><time>2026-04-04T13:00:32.931Z</time></trkpt><trkpt lat="42.62582239678491" lon="12.519275022375222"><ele>204.0</ele><time>2026-04-04T13:00:33.931Z</time></trkpt><trkpt lat="42.625912982448355" lon="12.519347953123438"><ele>204.0</ele><time>2026-04-04T13:00:34.931Z</time></trkpt><trkpt lat="42.62598924697803" lon="12.519435322097014"><ele>204.0</ele><time>2026-04-04T13:00:35.931Z</time></trkpt><trkpt lat="42.626077209324464" lon="12.51952027491015"><ele>204.0</ele><time>2026-04-04T13:00:36.931Z</time></trkpt><trkpt lat="42.62615902277672" lon="12.519576972032777"><ele>204.0</ele><time>2026-04-04T13:00:37.931Z</time></trkpt><trkpt lat="42.62623577000511" lon="12.519618455091411"><ele>204.0</ele><time>2026-04-04T13:00:38.931Z</time></trkpt><trkpt lat="42.626338858994245" lon="12.519638129697677"><ele>204.83333333333334</ele><time>2026-04-04T13:00:39.931Z</time></trkpt><trkpt lat="42.62642904634566" lon="12.519595818514835"><ele>205.66666666666669</ele><time>2026-04-04T13:00:40.931Z</time></trkpt><trkpt lat="42.62650606639212" lon="12.519565274656493"><ele>206.5</ele><time>2026-04-04T13:00:42.931Z</time></trkpt><trkpt lat="42.62655931162506" lon="12.519650692841248"><ele>207.33333333333334</ele><time>2026-04-04T13:00:45.931Z</time></trkpt><trkpt lat="42.62651642432236" lon="12.519726246343971"><ele>208.16666666666669</ele><time>2026-04-04T13:00:46.931Z</time></trkpt><trkpt lat="42.626462173999165" lon="12.51981171651854"><ele>209.0</ele><time>2026-04-04T13:00:47.931Z</time></trkpt><trkpt lat="42.62642425987737" lon="12.519928316393843"><ele>211.0</ele><time>2026-04-04T13:00:48.931Z</time></trkpt><trkpt lat="42.626385167892494" lon="12.520056505608444"><ele>213.0</ele><time>2026-04-04T13:00:49.931Z</time></trkpt><trkpt lat="42.626358756927125" lon="12.520189346312158"><ele>214.99999999999997</ele><time>2026-04-04T13:00:50.931Z</time></trkpt><trkpt lat="42.62632533274989" lon="12.520323953136614"><ele>217.0</ele><time>2026-04-04T13:00:51.931Z</time></trkpt><trkpt lat="42.62630421259534" lon="12.520467536260714"><ele>219.0</ele><time>2026-04-04T13:00:52.931Z</time></trkpt><trkpt lat="42.62624624013973" lon="12.52061420900027"><ele>219.5</ele><time>2026-04-04T13:00:53.931Z</time></trkpt><trkpt lat="42.62621687400144" lon="12.520770487488416"><ele>220.0</ele><time>2026-04-04T13:00:54.931Z</time></trkpt><trkpt lat="42.62617770953904" lon="12.520936519352677"><ele>220.5</ele><time>2026-04-04T13:00:55.93Z</time></trkpt><trkpt lat="42.626140299141476" lon="12.521096944491882"><ele>221.0</ele><time>2026-04-04T13:00:56.93Z</time></trkpt><trkpt lat="42.626110116619905" lon="12.521251922080387"><ele>222.4</ele><time>2026-04-04T13:00:57.93Z</time></trkpt><trkpt lat="42.62608433711313" lon="12.521391771688526"><ele>223.8</ele><time>2026-04-04T13:00:58.931Z</time></trkpt><trkpt lat="42.62606784737502" lon="12.521501291703556"><ele>225.20000000000002</ele><time>2026-04-04T13:00:59.93Z</time></trkpt><trkpt lat="42.62606962905805" lon="12.521608977957724"><ele>226.60000000000002</ele><time>2026-04-04T13:01:00.93Z</time></trkpt><trkpt lat="42.626152736736586" lon="12.52176679079487"><ele>228.0</ele><time>2026-04-04T13:01:02.93Z</time></trkpt><trkpt lat="42.626248662906285" lon="12.521831486579973"><ele>229.0</ele><time>2026-04-04T13:01:03.93Z</time></trkpt><trkpt lat="42.62632999029829" lon="12.521928248577115"><ele>230.0</ele><time>2026-04-04T13:01:04.93Z</time></trkpt><trkpt lat="42.62643424132258" lon="12.522013836238784"><ele>231.0</ele><time>2026-04-04T13:01:05.931Z</time></trkpt><trkpt lat="42.62654214604451" lon="12.522102423775975"><ele>232.0</ele><time>2026-04-04T13:01:06.931Z</time></trkpt><trkpt lat="42.626627270242906" lon="12.522184656414641"><ele>233.49999999999997</ele><time>2026-04-04T13:01:07.93Z</time></trkpt><trkpt lat="42.62671222969929" lon="12.522260169890188"><ele>235.0</ele><time>2026-04-04T13:01:08.93Z</time></trkpt><trkpt lat="42.626792290022195" lon="12.522305681216105"><ele>236.5</ele><time>2026-04-04T13:01:09.93Z</time></trkpt><trkpt lat="42.62685438147639" lon="12.522344165092237"><ele>238.0</ele><time>2026-04-04T13:01:10.93Z</time></trkpt><trkpt lat="42.62693389880404" lon="12.522346916615241"><ele>239.49999999999997</ele><time>2026-04-04T13:01:11.93Z</time></trkpt><trkpt lat="42.62702414444286" lon="12.522262859517339"><ele>241.0</ele><time>2026-04-04T13:01:12.93Z</time></trkpt><trkpt lat="42.62708456745335" lon="12.52215268761804"><ele>241.49999999999997</ele><time>2026-04-04T13:01:13.93Z</time></trkpt><trkpt lat="42.62715204961718" lon="12.522081264914554"><ele>242.0</ele><time>2026-04-04T13:01:14.93Z</time></trkpt><trkpt lat="42.62721420108424" lon="12.52202508984216"><ele>242.5</ele><time>2026-04-04T13:01:15.93Z</time></trkpt><trkpt lat="42.62728241851109" lon="12.521958257495728"><ele>243.0</ele><time>2026-04-04T13:01:16.93Z</time></trkpt><trkpt lat="42.627372617466506" lon="12.52190646302853"><ele>243.49999999999997</ele><time>2026-04-04T13:01:17.93Z</time></trkpt><trkpt lat="42.62746422861221" lon="12.521887146013707"><ele>244.0</ele><time>2026-04-04T13:01:18.93Z</time></trkpt><trkpt lat="42.62757000220916" lon="12.52187963741505"><ele>242.79999999999998</ele><time>2026-04-04T13:01:19.93Z</time></trkpt><trkpt lat="42.62767586498169" lon="12.521883796142653"><ele>241.59999999999997</ele><time>2026-04-04T13:01:20.93Z</time></trkpt><trkpt lat="42.62777783394021" lon="12.5218871090486"><ele>240.4</ele><time>2026-04-04T13:01:21.93Z</time></trkpt><trkpt lat="42.62789101330899" lon="12.521891430071802"><ele>239.2</ele><time>2026-04-04T13:01:22.93Z</time></trkpt><trkpt lat="42.628005364721076" lon="12.521895795844806"><ele>238.0</ele><time>2026-04-04T13:01:23.93Z</time></trkpt><trkpt lat="42.62813298512458" lon="12.52190167058316"><ele>238.0</ele><time>2026-04-04T13:01:24.93Z</time></trkpt><trkpt lat="42.62824302057938" lon="12.52190723532786"><ele>238.0</ele><time>2026-04-04T13:01:25.93Z</time></trkpt><trkpt lat="42.62835199311145" lon="12.521915330547026"><ele>238.0</ele><time>2026-04-04T13:01:26.93Z</time></trkpt><trkpt lat="42.62843367263273" lon="12.521921860674205"><ele>238.0</ele><time>2026-04-04T13:01:27.93Z</time></trkpt><trkpt lat="42.62854041536654" lon="12.521961076826601"><ele>238.0</ele><time>2026-04-04T13:01:29.93Z</time></trkpt><trkpt lat="42.62860871421069" lon="12.522058341063897"><ele>239.66666666666666</ele><time>2026-04-04T13:01:31.93Z</time></trkpt><trkpt lat="42.62861502463743" lon="12.522155164199486"><ele>241.33333333333331</ele><time>2026-04-04T13:01:32.93Z</time></trkpt><trkpt lat="42.62859663988396" lon="12.522254481816963"><ele>243.0</ele><time>2026-04-04T13:01:33.93Z</time></trkpt><trkpt lat="42.62859559473593" lon="12.522369232668401"><ele>244.66666666666669</ele><time>2026-04-04T13:01:34.929Z</time></trkpt><trkpt lat="42.62858536419453" lon="12.522498266954008"><ele>246.33333333333334</ele><time>2026-04-04T13:01:35.929Z</time></trkpt><trkpt lat="42.628564534489854" lon="12.522632218044505"><ele>248.0</ele><time>2026-04-04T13:01:36.929Z</time></trkpt><trkpt lat="42.62854323078695" lon="12.522758378740003"><ele>248.00000000000003</ele><time>2026-04-04T13:01:37.929Z</time></trkpt><trkpt lat="42.628525536576404" lon="12.522877604617195"><ele>248.0</ele><time>2026-04-04T13:01:38.929Z</time></trkpt><trkpt lat="42.628513183830925" lon="12.522992671803546"><ele>248.0</ele><time>2026-04-04T13:01:39.929Z</time></trkpt><trkpt lat="42.62850401046482" lon="12.523104977266811"><ele>248.0</ele><time>2026-04-04T13:01:40.929Z</time></trkpt><trkpt lat="42.62849473706389" lon="12.523221437434565"><ele>248.00000000000003</ele><time>2026-04-04T13:01:41.929Z</time></trkpt><trkpt lat="42.628445753578575" lon="12.523341153526056"><ele>248.0</ele><time>2026-04-04T13:01:42.929Z</time></trkpt><trkpt lat="42.628441578692644" lon="12.52348913424991"><ele>249.8</ele><time>2026-04-04T13:01:43.929Z</time></trkpt><trkpt lat="42.628432001809436" lon="12.523630781152498"><ele>251.60000000000002</ele><time>2026-04-04T13:01:44.929Z</time></trkpt><trkpt lat="42.62841413897064" lon="12.523782521501568"><ele>253.39999999999998</ele><time>2026-04-04T13:01:45.929Z</time></trkpt><trkpt lat="42.62839653634165" lon="12.52392155714341"><ele>255.2</ele><time>2026-04-04T13:01:46.929Z</time></trkpt><trkpt lat="42.62837634946122" lon="12.524068963497589"><ele>257.0</ele><time>2026-04-04T13:01:47.929Z</time></trkpt><trkpt lat="42.628364631002945" lon="12.524211983502695"><ele>259.4</ele><time>2026-04-04T13:01:48.929Z</time></trkpt><trkpt lat="42.62834752307383" lon="12.52434571926613"><ele>261.79999999999995</ele><time>2026-04-04T13:01:49.929Z</time></trkpt><trkpt lat="42.62833010803568" lon="12.524463246242158"><ele>264.2</ele><time>2026-04-04T13:01:50.929Z</time></trkpt><trkpt lat="42.62832445692539" lon="12.524564272668071"><ele>266.59999999999997</ele><time>2026-04-04T13:01:51.929Z</time></trkpt><trkpt lat="42.62842288852208" lon="12.524706298651171"><ele>269.0</ele><time>2026-04-04T13:01:53.929Z</time></trkpt><trkpt lat="42.62852300807238" lon="12.524759890535488"><ele>270.5</ele><time>2026-04-04T13:01:54.929Z</time></trkpt><trkpt lat="42.62861714550875" lon="12.52483611985709"><ele>272.0</ele><time>2026-04-04T13:01:55.929Z</time></trkpt><trkpt lat="42.628691298919875" lon="12.524914768559702"><ele>273.5</ele><time>2026-04-04T13:01:56.929Z</time></trkpt><trkpt lat="42.628766069485856" lon="12.524980874492549"><ele>275.0</ele><time>2026-04-04T13:01:57.929Z</time></trkpt><trkpt lat="42.628815850692455" lon="12.525053392710252"><ele>276.5</ele><time>2026-04-04T13:01:58.929Z</time></trkpt><trkpt lat="42.62886254824477" lon="12.52511429906247"><ele>278.0</ele><time>2026-04-04T13:01:59.929Z</time></trkpt><trkpt lat="42.628869279404555" lon="12.525211902001654"><ele>278.0</ele><time>2026-04-04T13:02:00.929Z</time></trkpt><trkpt lat="42.62884360813973" lon="12.525331989999108"><ele>278.0</ele><time>2026-04-04T13:02:01.929Z</time></trkpt><trkpt lat="42.62879148635178" lon="12.525466437897366"><ele>278.0</ele><time>2026-04-04T13:02:02.929Z</time></trkpt><trkpt lat="42.62872259463333" lon="12.525590518998877"><ele>278.0</ele><time>2026-04-04T13:02:03.929Z</time></trkpt><trkpt lat="42.6286800687488" lon="12.525694863105922"><ele>278.0</ele><time>2026-04-04T13:02:04.929Z</time></trkpt><trkpt lat="42.62864622352583" lon="12.525783738733224"><ele>280.1666666666667</ele><time>2026-04-04T13:02:05.929Z</time></trkpt><trkpt lat="42.62859310914379" lon="12.525845489292287"><ele>282.33333333333337</ele><time>2026-04-04T13:02:06.929Z</time></trkpt><trkpt lat="42.6285143045299" lon="12.525891006534097"><ele>284.5</ele><time>2026-04-04T13:02:07.929Z</time></trkpt><trkpt lat="42.6284210001914" lon="12.525918842023277"><ele>286.6666666666667</ele><time>2026-04-04T13:02:08.929Z</time></trkpt><trkpt lat="42.628317449901246" lon="12.525955241260997"><ele>288.8333333333333</ele><time>2026-04-04T13:02:09.929Z</time></trkpt><trkpt lat="42.62824922814682" lon="12.525974443500214"><ele>291.0</ele><time>2026-04-04T13:02:10.929Z</time></trkpt><trkpt lat="42.628176015356665" lon="12.526016481390121"><ele>291.0</ele><time>2026-04-04T13:02:11.929Z</time></trkpt><trkpt lat="42.62814326015418" lon="12.526108208194875"><ele>291.0</ele><time>2026-04-04T13:02:12.929Z</time></trkpt><trkpt lat="42.62812233535688" lon="12.526253434064738"><ele>291.0</ele><time>2026-04-04T13:02:13.929Z</time></trkpt><trkpt lat="42.62811021136752" lon="12.526395765496678"><ele>291.0</ele><time>2026-04-04T13:02:14.929Z</time></trkpt><trkpt lat="42.62808544908793" lon="12.526535886151215"><ele>291.0</ele><time>2026-04-04T13:02:15.929Z</time></trkpt><trkpt lat="42.6280694459057" lon="12.526643652635547"><ele>292.0</ele><time>2026-04-04T13:02:16.929Z</time></trkpt><trkpt lat="42.62805820537797" lon="12.5267443928635"><ele>293.0</ele><time>2026-04-04T13:02:17.929Z</time></trkpt><trkpt lat="42.62800464888215" lon="12.526912780598343"><ele>294.0</ele><time>2026-04-04T13:02:19.929Z</time></trkpt><trkpt lat="42.62793342925747" lon="12.527025495907125"><ele>295.0</ele><time>2026-04-04T13:02:20.929Z</time></trkpt><trkpt lat="42.62786406850859" lon="12.5271451121552"><ele>296.0</ele><time>2026-04-04T13:02:21.929Z</time></trkpt><trkpt lat="42.627820233334404" lon="12.527274776216023"><ele>296.33333333333337</ele><time>2026-04-04T13:02:22.929Z</time></trkpt><trkpt lat="42.62778180010107" lon="12.52737246855413"><ele>296.6666666666667</ele><time>2026-04-04T13:02:23.929Z</time></trkpt><trkpt lat="42.627728031677265" lon="12.527426520758759"><ele>297.0</ele><time>2026-04-04T13:02:24.929Z</time></trkpt><trkpt lat="42.62766061967263" lon="12.527455707976074"><ele>297.3333333333333</ele><time>2026-04-04T13:02:25.929Z</time></trkpt><trkpt lat="42.62754969857314" lon="12.527458632324645"><ele>297.66666666666663</ele><time>2026-04-04T13:02:27.929Z</time></trkpt><trkpt lat="42.6274621096032" lon="12.527433281236709"><ele>298.0</ele><time>2026-04-04T13:02:28.929Z</time></trkpt><trkpt lat="42.62734544977237" lon="12.52742306152325"><ele>298.0</ele><time>2026-04-04T13:02:29.929Z</time></trkpt><trkpt lat="42.62720772534076" lon="12.52742261479549"><ele>298.0</ele><time>2026-04-04T13:02:30.929Z</time></trkpt><trkpt lat="42.62707198193551" lon="12.527416248012297"><ele>298.0</ele><time>2026-04-04T13:02:31.929Z</time></trkpt><trkpt lat="42.62694346088714" lon="12.527421789245745"><ele>298.0</ele><time>2026-04-04T13:02:32.929Z</time></trkpt><trkpt lat="42.62681090639908" lon="12.527418997214873"><ele>298.0</ele><time>2026-04-04T13:02:33.929Z</time></trkpt><trkpt lat="42.62668222778103" lon="12.527414513400611"><ele>298.0</ele><time>2026-04-04T13:02:34.929Z</time></trkpt><trkpt lat="42.62658099077178" lon="12.527411167136876"><ele>298.0</ele><time>2026-04-04T13:02:35.929Z</time></trkpt><trkpt lat="42.626502951672464" lon="12.527400171077698"><ele>298.0</ele><time>2026-04-04T13:02:36.929Z</time></trkpt><trkpt lat="42.6263714227805" lon="12.527397510272896"><ele>298.0</ele><time>2026-04-04T13:02:38.929Z</time></trkpt><trkpt lat="42.62630730889376" lon="12.52745236237681"><ele>298.0</ele><time>2026-04-04T13:02:39.929Z</time></trkpt><trkpt lat="42.62625434899133" lon="12.52754912845592"><ele>298.0</ele><time>2026-04-04T13:02:40.929Z</time></trkpt><trkpt lat="42.62622228063606" lon="12.527665200197314"><ele>298.0</ele><time>2026-04-04T13:02:41.929Z</time></trkpt><trkpt lat="42.626203869257246" lon="12.527817999722409"><ele>298.0</ele><time>2026-04-04T13:02:42.929Z</time></trkpt><trkpt lat="42.62620280413977" lon="12.527959454149912"><ele>298.0</ele><time>2026-04-04T13:02:43.929Z</time></trkpt><trkpt lat="42.62618688192613" lon="12.528099658595101"><ele>299.75</ele><time>2026-04-04T13:02:44.929Z</time></trkpt><trkpt lat="42.626161039346606" lon="12.52823996767476"><ele>301.5</ele><time>2026-04-04T13:02:45.929Z</time></trkpt><trkpt lat="42.62613010612905" lon="12.528395947948972"><ele>303.25</ele><time>2026-04-04T13:02:46.929Z</time></trkpt><trkpt lat="42.62610222324555" lon="12.528543016778745"><ele>305.0</ele><time>2026-04-04T13:02:47.928Z</time></trkpt><trkpt lat="42.626083083308636" lon="12.528700111200616"><ele>309.0</ele><time>2026-04-04T13:02:48.928Z</time></trkpt><trkpt lat="42.626051884753956" lon="12.528862455177045"><ele>313.0</ele><time>2026-04-04T13:02:49.928Z</time></trkpt><trkpt lat="42.626024216148565" lon="12.52900401093218"><ele>317.0</ele><time>2026-04-04T13:02:50.928Z</time></trkpt><trkpt lat="42.62600243246546" lon="12.529119975465361"><ele>321.0</ele><time>2026-04-04T13:02:51.928Z</time></trkpt><trkpt lat="42.62598340775786" lon="12.529204351358624"><ele>325.0</ele><time>2026-04-04T13:02:52.928Z</time></trkpt><trkpt lat="42.625982943976204" lon="12.529296331782392"><ele>325.0</ele><time>2026-04-04T13:02:53.928Z</time></trkpt><trkpt lat="42.62601933831511" lon="12.529392353303564"><ele>325.0</ele><time>2026-04-04T13:02:54.928Z</time></trkpt><trkpt lat="42.62607427230369" lon="12.529500730035855"><ele>325.0</ele><time>2026-04-04T13:02:55.928Z</time></trkpt><trkpt lat="42.626129619577284" lon="12.529618703524516"><ele>325.0</ele><time>2026-04-04T13:02:56.928Z</time></trkpt><trkpt lat="42.626174939608404" lon="12.529702355110464"><ele>325.0</ele><time>2026-04-04T13:02:57.928Z</time></trkpt><trkpt lat="42.62620528625391" lon="12.52981226993877"><ele>325.0</ele><time>2026-04-04T13:02:59.928Z</time></trkpt><trkpt lat="42.62624010087028" lon="12.529898082743765"><ele>326.16666666666663</ele><time>2026-04-04T13:03:02.929Z</time></trkpt><trkpt lat="42.626334848902424" lon="12.530016603155556"><ele>327.3333333333333</ele><time>2026-04-04T13:03:04.929Z</time></trkpt><trkpt lat="42.62640312118342" lon="12.5300513553593"><ele>328.5</ele><time>2026-04-04T13:03:05.929Z</time></trkpt><trkpt lat="42.62646528300511" lon="12.530097796849203"><ele>329.6666666666667</ele><time>2026-04-04T13:03:06.929Z</time></trkpt><trkpt lat="42.62652905773692" lon="12.530153866828094"><ele>330.83333333333337</ele><time>2026-04-04T13:03:07.929Z</time></trkpt><trkpt lat="42.62659022637214" lon="12.530203399398554"><ele>332.0</ele><time>2026-04-04T13:03:08.929Z</time></trkpt><trkpt lat="42.62666975173051" lon="12.53026117507223"><ele>332.0</ele><time>2026-04-04T13:03:09.929Z</time></trkpt><trkpt lat="42.62674717043329" lon="12.530310178965568"><ele>332.0</ele><time>2026-04-04T13:03:10.929Z</time></trkpt><trkpt lat="42.626828521166935" lon="12.53035646614057"><ele>332.0</ele><time>2026-04-04T13:03:11.929Z</time></trkpt><trkpt lat="42.62689247276639" lon="12.530380806809605"><ele>332.0</ele><time>2026-04-04T13:03:12.928Z</time></trkpt><trkpt lat="42.626970757490135" lon="12.530433548349603"><ele>332.0</ele><time>2026-04-04T13:03:14.929Z</time></trkpt><trkpt lat="42.62695122273916" lon="12.530580114175745"><ele>332.0</ele><time>2026-04-04T13:03:16.929Z</time></trkpt><trkpt lat="42.62687065277249" lon="12.530593436527056"><ele>335.1666666666667</ele><time>2026-04-04T13:03:17.929Z</time></trkpt><trkpt lat="42.62679690906646" lon="12.53058809011948"><ele>338.33333333333337</ele><time>2026-04-04T13:03:18.929Z</time></trkpt><trkpt lat="42.62671122820427" lon="12.530586972485912"><ele>341.5</ele><time>2026-04-04T13:03:19.929Z</time></trkpt><trkpt lat="42.626627707301985" lon="12.530575989170982"><ele>344.6666666666667</ele><time>2026-04-04T13:03:20.929Z</time></trkpt><trkpt lat="42.62655107803966" lon="12.530569755939513"><ele>347.8333333333333</ele><time>2026-04-04T13:03:21.929Z</time></trkpt><trkpt lat="42.62647377206341" lon="12.53057896683254"><ele>351.0</ele><time>2026-04-04T13:03:22.929Z</time></trkpt><trkpt lat="42.62638364890598" lon="12.530566779356796"><ele>351.0</ele><time>2026-04-04T13:03:23.929Z</time></trkpt><trkpt lat="42.62630056877835" lon="12.530506095305478"><ele>351.0</ele><time>2026-04-04T13:03:24.929Z</time></trkpt><trkpt lat="42.62621806551778" lon="12.530437599750885"><ele>351.0</ele><time>2026-04-04T13:03:25.929Z</time></trkpt><trkpt lat="42.6261364470153" lon="12.530400019088159"><ele>351.0</ele><time>2026-04-04T13:03:26.929Z</time></trkpt><trkpt lat="42.626052865971296" lon="12.530355047394506"><ele>351.0</ele><time>2026-04-04T13:03:27.929Z</time></trkpt><trkpt lat="42.625980580491394" lon="12.530326732713485"><ele>351.0</ele><time>2026-04-04T13:03:28.929Z</time></trkpt><trkpt lat="42.625914602310786" lon="12.530334852131313"><ele>350.8333333333333</ele><time>2026-04-04T13:03:29.929Z</time></trkpt><trkpt lat="42.62585386065295" lon="12.530391347292559"><ele>350.6666666666667</ele><time>2026-04-04T13:03:30.929Z</time></trkpt><trkpt lat="42.625823459520895" lon="12.530488550746723"><ele>350.5</ele><time>2026-04-04T13:03:31.929Z</time></trkpt><trkpt lat="42.62583585356022" lon="12.530606752283969"><ele>350.33333333333337</ele><time>2026-04-04T13:03:32.929Z</time></trkpt><trkpt lat="42.62587799131489" lon="12.530726095674956"><ele>350.1666666666667</ele><time>2026-04-04T13:03:33.929Z</time></trkpt><trkpt lat="42.625925999846125" lon="12.53082561056403"><ele>350.0</ele><time>2026-04-04T13:03:34.929Z</time></trkpt><trkpt lat="42.62595664172821" lon="12.530949348108104"><ele>350.0</ele><time>2026-04-04T13:03:35.929Z</time></trkpt><trkpt lat="42.62598124398667" lon="12.531077049029232"><ele>350.0</ele><time>2026-04-04T13:03:36.929Z</time></trkpt><trkpt lat="42.62601230958985" lon="12.53120858963421"><ele>350.0</ele><time>2026-04-04T13:03:37.929Z</time></trkpt><trkpt lat="42.62605144951404" lon="12.531335150970072"><ele>350.0</ele><time>2026-04-04T13:03:38.929Z</time></trkpt><trkpt lat="42.62608670889962" lon="12.531457551465369"><ele>350.0</ele><time>2026-04-04T13:03:39.929Z</time></trkpt><trkpt lat="42.62613460184428" lon="12.531583641351805"><ele>350.8</ele><time>2026-04-04T13:03:40.929Z</time></trkpt><trkpt lat="42.626195361584934" lon="12.531690758829077"><ele>351.6</ele><time>2026-04-04T13:03:41.929Z</time></trkpt><trkpt lat="42.62626261609861" lon="12.531774683573717"><ele>352.4</ele><time>2026-04-04T13:03:42.929Z</time></trkpt><trkpt lat="42.62633407119344" lon="12.531828149336906"><ele>353.2</ele><time>2026-04-04T13:03:43.929Z</time></trkpt><trkpt lat="42.62641875923261" lon="12.531860119670979"><ele>354.0</ele><time>2026-04-04T13:03:44.929Z</time></trkpt><trkpt lat="42.626530565805886" lon="12.53188034871445"><ele>354.0</ele><time>2026-04-04T13:03:45.929Z</time></trkpt><trkpt lat="42.626662746983875" lon="12.531885092860115"><ele>354.0</ele><time>2026-04-04T13:03:46.929Z</time></trkpt><trkpt lat="42.62677623389922" lon="12.531927619930585"><ele>354.0</ele><time>2026-04-04T13:03:47.929Z</time></trkpt><trkpt lat="42.62687293984085" lon="12.532001424907179"><ele>354.0</ele><time>2026-04-04T13:03:48.929Z</time></trkpt><trkpt lat="42.62695154691377" lon="12.532103267951392"><ele>354.75</ele><time>2026-04-04T13:03:49.929Z</time></trkpt><trkpt lat="42.627000558111426" lon="12.53222533647758"><ele>355.5</ele><time>2026-04-04T13:03:50.929Z</time></trkpt><trkpt lat="42.62704688328714" lon="12.532370932544685"><ele>356.25</ele><time>2026-04-04T13:03:51.929Z</time></trkpt><trkpt lat="42.62708168164571" lon="12.532525814774727"><ele>357.0</ele><time>2026-04-04T13:03:52.929Z</time></trkpt><trkpt lat="42.627113654022615" lon="12.532681327737777"><ele>357.0</ele><time>2026-04-04T13:03:53.929Z</time></trkpt><trkpt lat="42.627132913074654" lon="12.532840496085708"><ele>357.0</ele><time>2026-04-04T13:03:54.929Z</time></trkpt><trkpt lat="42.62714945328291" lon="12.532997787527595"><ele>357.0</ele><time>2026-04-04T13:03:55.929Z</time></trkpt><trkpt lat="42.627168674121414" lon="12.53316249029323"><ele>357.0</ele><time>2026-04-04T13:03:56.929Z</time></trkpt><trkpt lat="42.627191463155604" lon="12.533331917475396"><ele>356.6</ele><time>2026-04-04T13:03:57.929Z</time></trkpt><trkpt lat="42.62720879171092" lon="12.533490256821048"><ele>356.20000000000005</ele><time>2026-04-04T13:03:58.929Z</time></trkpt><trkpt lat="42.62722471686303" lon="12.533637167226882"><ele>355.8</ele><time>2026-04-04T13:03:59.929Z</time></trkpt><trkpt lat="42.62722879152771" lon="12.533783822235549"><ele>355.4</ele><time>2026-04-04T13:04:00.929Z</time></trkpt><trkpt lat="42.6272275282804" lon="12.533932278357486"><ele>355.0</ele><time>2026-04-04T13:04:01.929Z</time></trkpt><trkpt lat="42.627222050444864" lon="12.534084783416565"><ele>355.0</ele><time>2026-04-04T13:04:02.928Z</time></trkpt><trkpt lat="42.62722585997623" lon="12.534237817703653"><ele>355.0</ele><time>2026-04-04T13:04:03.928Z</time></trkpt><trkpt lat="42.627227347110136" lon="12.534371003369976"><ele>355.0</ele><time>2026-04-04T13:04:04.928Z</time></trkpt><trkpt lat="42.62723620304735" lon="12.534488867033419"><ele>355.0</ele><time>2026-04-04T13:04:05.928Z</time></trkpt><trkpt lat="42.62723778662765" lon="12.534611871896184"><ele>355.0</ele><time>2026-04-04T13:04:06.928Z</time></trkpt><trkpt lat="42.62723560101045" lon="12.534754405764769"><ele>355.5</ele><time>2026-04-04T13:04:07.928Z</time></trkpt><trkpt lat="42.627237686112885" lon="12.534903833944723"><ele>356.0</ele><time>2026-04-04T13:04:08.928Z</time></trkpt><trkpt lat="42.627241626473854" lon="12.535061504764181"><ele>356.5</ele><time>2026-04-04T13:04:09.928Z</time></trkpt><trkpt lat="42.62724541152533" lon="12.535225402491866"><ele>357.0</ele><time>2026-04-04T13:04:10.928Z</time></trkpt><trkpt lat="42.62722549856177" lon="12.535396208360858"><ele>358.75</ele><time>2026-04-04T13:04:11.928Z</time></trkpt><trkpt lat="42.62722069643273" lon="12.53556447851804"><ele>360.5</ele><time>2026-04-04T13:04:12.928Z</time></trkpt><trkpt lat="42.627217456498734" lon="12.535724446230267"><ele>362.25</ele><time>2026-04-04T13:04:13.928Z</time></trkpt><trkpt lat="42.62721702855768" lon="12.535888808307003"><ele>364.0</ele><time>2026-04-04T13:04:14.928Z</time></trkpt><trkpt lat="42.627224712345225" lon="12.536046202929844"><ele>364.0</ele><time>2026-04-04T13:04:15.928Z</time></trkpt><trkpt lat="42.62723080933758" lon="12.536204447992498"><ele>364.0</ele><time>2026-04-04T13:04:16.928Z</time></trkpt><trkpt lat="42.6272478578453" lon="12.53635587775613"><ele>364.0</ele><time>2026-04-04T13:04:17.928Z</time></trkpt><trkpt lat="42.62727692995188" lon="12.536496659472272"><ele>364.0</ele><time>2026-04-04T13:04:18.928Z</time></trkpt><trkpt lat="42.62730720038211" lon="12.536638951957498"><ele>364.0</ele><time>2026-04-04T13:04:19.928Z</time></trkpt><trkpt lat="42.62734090830084" lon="12.5367842336614"><ele>366.0</ele><time>2026-04-04T13:04:20.928Z</time></trkpt><trkpt lat="42.627366523996336" lon="12.536932899427333"><ele>368.0</ele><time>2026-04-04T13:04:21.928Z</time></trkpt><trkpt lat="42.627391036940814" lon="12.537084846934293"><ele>370.0</ele><time>2026-04-04T13:04:22.928Z</time></trkpt><trkpt lat="42.62741238826945" lon="12.537239066823727"><ele>372.0</ele><time>2026-04-04T13:04:23.928Z</time></trkpt><trkpt lat="42.62742865864536" lon="12.537395028307612"><ele>372.6</ele><time>2026-04-04T13:04:24.928Z</time></trkpt><trkpt lat="42.62744374829923" lon="12.537551278104072"><ele>373.20000000000005</ele><time>2026-04-04T13:04:25.928Z</time></trkpt><trkpt lat="42.627455431086325" lon="12.537703231072985"><ele>373.8</ele><time>2026-04-04T13:04:26.928Z</time></trkpt><trkpt lat="42.62746661876634" lon="12.537843654575523"><ele>374.4</ele><time>2026-04-04T13:04:27.928Z</time></trkpt><trkpt lat="42.62748719760598" lon="12.537990041804896"><ele>375.0</ele><time>2026-04-04T13:04:28.928Z</time></trkpt><trkpt lat="42.62750885667715" lon="12.538146132749304"><ele>375.0</ele><time>2026-04-04T13:04:29.928Z</time></trkpt><trkpt lat="42.627530220475634" lon="12.538308152101727"><ele>375.0</ele><time>2026-04-04T13:04:30.928Z</time></trkpt><trkpt lat="42.62754877146542" lon="12.538471721701374"><ele>375.0</ele><time>2026-04-04T13:04:31.928Z</time></trkpt><trkpt lat="42.627566187889265" lon="12.538626423555144"><ele>375.0</ele><time>2026-04-04T13:04:32.928Z</time></trkpt><trkpt lat="42.62758592121409" lon="12.538782908069768"><ele>374.8</ele><time>2026-04-04T13:04:33.928Z</time></trkpt><trkpt lat="42.627604591771274" lon="12.538949049399816"><ele>374.6</ele><time>2026-04-04T13:04:34.928Z</time></trkpt><trkpt lat="42.6276168311935" lon="12.539107797303927"><ele>374.4</ele><time>2026-04-04T13:04:35.928Z</time></trkpt><trkpt lat="42.62762299146157" lon="12.53924657670927"><ele>374.2</ele><time>2026-04-04T13:04:36.928Z</time></trkpt><trkpt lat="42.627632224695034" lon="12.53937488382138"><ele>374.0</ele><time>2026-04-04T13:04:37.928Z</time></trkpt><trkpt lat="42.627648132276754" lon="12.539503331404632"><ele>374.79999999999995</ele><time>2026-04-04T13:04:38.928Z</time></trkpt><trkpt lat="42.627670511048514" lon="12.539630516937589"><ele>375.59999999999997</ele><time>2026-04-04T13:04:39.928Z</time></trkpt><trkpt lat="42.62770386376624" lon="12.53975410499606"><ele>376.4</ele><time>2026-04-04T13:04:40.928Z</time></trkpt><trkpt lat="42.62774749956081" lon="12.539868144032027"><ele>377.2</ele><time>2026-04-04T13:04:41.928Z</time></trkpt><trkpt lat="42.62780234059053" lon="12.539981146732"><ele>378.0</ele><time>2026-04-04T13:04:42.928Z</time></trkpt><trkpt lat="42.62787104043981" lon="12.540104475374262"><ele>378.0</ele><time>2026-04-04T13:04:43.928Z</time></trkpt><trkpt lat="42.62793546938559" lon="12.540247826930964"><ele>378.0</ele><time>2026-04-04T13:04:44.928Z</time></trkpt><trkpt lat="42.62799363274767" lon="12.540399134893619"><ele>378.0</ele><time>2026-04-04T13:04:45.928Z</time></trkpt><trkpt lat="42.628055124208004" lon="12.540546626573825"><ele>378.0</ele><time>2026-04-04T13:04:46.928Z</time></trkpt><trkpt lat="42.62812215498848" lon="12.540702008687907"><ele>379.25</ele><time>2026-04-04T13:04:47.928Z</time></trkpt><trkpt lat="42.62820428776838" lon="12.540861191105943"><ele>380.5</ele><time>2026-04-04T13:04:48.928Z</time></trkpt><trkpt lat="42.62829132571784" lon="12.541018413805654"><ele>381.75</ele><time>2026-04-04T13:04:49.928Z</time></trkpt><trkpt lat="42.62836549324344" lon="12.541180262014052"><ele>383.0</ele><time>2026-04-04T13:04:50.928Z</time></trkpt><trkpt lat="42.628434800088414" lon="12.541335909644912"><ele>384.0</ele><time>2026-04-04T13:04:51.928Z</time></trkpt><trkpt lat="42.62852174459609" lon="12.541477218351337"><ele>385.0</ele><time>2026-04-04T13:04:52.928Z</time></trkpt><trkpt lat="42.628603202052425" lon="12.541618436633417"><ele>386.0</ele><time>2026-04-04T13:04:53.928Z</time></trkpt><trkpt lat="42.628681975200216" lon="12.541754545205817"><ele>387.0</ele><time>2026-04-04T13:04:54.928Z</time></trkpt><trkpt lat="42.62875152790646" lon="12.541875369798287"><ele>387.0</ele><time>2026-04-04T13:04:55.928Z</time></trkpt><trkpt lat="42.62881528819298" lon="12.54198497521375"><ele>387.0</ele><time>2026-04-04T13:04:56.928Z</time></trkpt><trkpt lat="42.62888729240547" lon="12.542075980992026"><ele>387.0</ele><time>2026-04-04T13:04:57.928Z</time></trkpt><trkpt lat="42.62897535969759" lon="12.542151512163505"><ele>387.0</ele><time>2026-04-04T13:04:58.928Z</time></trkpt><trkpt lat="42.62907514572352" lon="12.542203114226602"><ele>387.0</ele><time>2026-04-04T13:04:59.928Z</time></trkpt><trkpt lat="42.62917476387582" lon="12.542265133156164"><ele>386.6</ele><time>2026-04-04T13:05:00.928Z</time></trkpt><trkpt lat="42.629270524005854" lon="12.542348058922766"><ele>386.20000000000005</ele><time>2026-04-04T13:05:01.928Z</time></trkpt><trkpt lat="42.629349380158736" lon="12.542459834874101"><ele>385.8</ele><time>2026-04-04T13:05:02.928Z</time></trkpt><trkpt lat="42.62940192162588" lon="12.542582896474375"><ele>385.4</ele><time>2026-04-04T13:05:03.928Z</time></trkpt><trkpt lat="42.62944611041798" lon="12.54270783819916"><ele>385.0</ele><time>2026-04-04T13:05:04.928Z</time></trkpt><trkpt lat="42.62949951541991" lon="12.542840146339183"><ele>384.0</ele><time>2026-04-04T13:05:05.928Z</time></trkpt><trkpt lat="42.62959064637381" lon="12.542951696369444"><ele>383.0</ele><time>2026-04-04T13:05:06.928Z</time></trkpt><trkpt lat="42.62967540519776" lon="12.543087135021567"><ele>382.0</ele><time>2026-04-04T13:05:07.928Z</time></trkpt><trkpt lat="42.62973555803588" lon="12.543249619339123"><ele>381.0</ele><time>2026-04-04T13:05:08.927Z</time></trkpt><trkpt lat="42.62980969842025" lon="12.543403281834093"><ele>381.0</ele><time>2026-04-04T13:05:09.927Z</time></trkpt><trkpt lat="42.629888580982886" lon="12.543547944579407"><ele>381.0</ele><time>2026-04-04T13:05:10.927Z</time></trkpt><trkpt lat="42.62995645012906" lon="12.543685851750416"><ele>381.0</ele><time>2026-04-04T13:05:11.927Z</time></trkpt><trkpt lat="42.63001738821314" lon="12.543818491872873"><ele>381.0</ele><time>2026-04-04T13:05:12.927Z</time></trkpt><trkpt lat="42.630073941713455" lon="12.543929894091137"><ele>381.3333333333333</ele><time>2026-04-04T13:05:13.928Z</time></trkpt><trkpt lat="42.630126077475204" lon="12.54402512544863"><ele>381.6666666666667</ele><time>2026-04-04T13:05:14.928Z</time></trkpt><trkpt lat="42.63016731564723" lon="12.544102756814693"><ele>382.0</ele><time>2026-04-04T13:05:15.928Z</time></trkpt><trkpt lat="42.630219507355406" lon="12.544175069249068"><ele>382.33333333333337</ele><time>2026-04-04T13:05:16.927Z</time></trkpt><trkpt lat="42.6302590689725" lon="12.544251139265109"><ele>382.6666666666667</ele><time>2026-04-04T13:05:17.927Z</time></trkpt><trkpt lat="42.63029216223397" lon="12.544346287327619"><ele>383.0</ele><time>2026-04-04T13:05:18.927Z</time></trkpt><trkpt lat="42.630369982069105" lon="12.544454600492678"><ele>382.59999999999997</ele><time>2026-04-04T13:05:20.928Z</time></trkpt><trkpt lat="42.63037607099558" lon="12.54461505725808"><ele>382.2</ele><time>2026-04-04T13:05:23.928Z</time></trkpt><trkpt lat="42.630320388157145" lon="12.544798433225354"><ele>381.8</ele><time>2026-04-04T13:05:25.928Z</time></trkpt><trkpt lat="42.630301845978636" lon="12.544908831371835"><ele>381.4</ele><time>2026-04-04T13:05:26.928Z</time></trkpt><trkpt lat="42.63027370317465" lon="12.545037525889786"><ele>381.0</ele><time>2026-04-04T13:05:27.928Z</time></trkpt><trkpt lat="42.630235283447234" lon="12.545188871811163"><ele>381.0</ele><time>2026-04-04T13:05:28.928Z</time></trkpt><trkpt lat="42.63019605710242" lon="12.54534681236"><ele>381.0</ele><time>2026-04-04T13:05:29.928Z</time></trkpt><trkpt lat="42.63015441528274" lon="12.54551534819819"><ele>381.0</ele><time>2026-04-04T13:05:30.928Z</time></trkpt><trkpt lat="42.63011445878559" lon="12.545699542654166"><ele>381.0</ele><time>2026-04-04T13:05:31.928Z</time></trkpt><trkpt lat="42.63007314406877" lon="12.545886525099412"><ele>379.75</ele><time>2026-04-04T13:05:32.928Z</time></trkpt><trkpt lat="42.63003189307542" lon="12.54608113717605"><ele>378.5</ele><time>2026-04-04T13:05:33.928Z</time></trkpt><trkpt lat="42.62999423441462" lon="12.54627187254202"><ele>377.25</ele><time>2026-04-04T13:05:34.928Z</time></trkpt><trkpt lat="42.62996291874161" lon="12.546447219187101"><ele>376.0</ele><time>2026-04-04T13:05:35.928Z</time></trkpt><trkpt lat="42.629936635457256" lon="12.546619296711796"><ele>376.0</ele><time>2026-04-04T13:05:36.928Z</time></trkpt><trkpt lat="42.62992226342461" lon="12.54679548040988"><ele>376.0</ele><time>2026-04-04T13:05:37.928Z</time></trkpt><trkpt lat="42.629921926754946" lon="12.546972122025654"><ele>376.0</ele><time>2026-04-04T13:05:38.927Z</time></trkpt><trkpt lat="42.62992424687344" lon="12.547150859862025"><ele>376.0</ele><time>2026-04-04T13:05:39.927Z</time></trkpt><trkpt lat="42.629930488612366" lon="12.547321546272308"><ele>376.0</ele><time>2026-04-04T13:05:40.927Z</time></trkpt><trkpt lat="42.629936342961805" lon="12.547471913508977"><ele>376.0</ele><time>2026-04-04T13:05:41.927Z</time></trkpt><trkpt lat="42.62994561732044" lon="12.547610892694912"><ele>376.0</ele><time>2026-04-04T13:05:42.927Z</time></trkpt><trkpt lat="42.6299677202201" lon="12.547746355415997"><ele>376.0</ele><time>2026-04-04T13:05:43.927Z</time></trkpt><trkpt lat="42.6300177900401" lon="12.54787557802042"><ele>376.0</ele><time>2026-04-04T13:05:44.927Z</time></trkpt><trkpt lat="42.63009725197907" lon="12.547984345525741"><ele>376.0</ele><time>2026-04-04T13:05:45.927Z</time></trkpt><trkpt lat="42.63018865585194" lon="12.548081200595423"><ele>376.0</ele><time>2026-04-04T13:05:46.927Z</time></trkpt><trkpt lat="42.63028953639875" lon="12.548181138793112"><ele>376.0</ele><time>2026-04-04T13:05:47.927Z</time></trkpt><trkpt lat="42.63038567839931" lon="12.5483027084136"><ele>376.0</ele><time>2026-04-04T13:05:48.927Z</time></trkpt><trkpt lat="42.63047465175442" lon="12.548444032198804"><ele>376.0</ele><time>2026-04-04T13:05:49.927Z</time></trkpt><trkpt lat="42.63054868528994" lon="12.548608276401264"><ele>376.0</ele><time>2026-04-04T13:05:50.927Z</time></trkpt><trkpt lat="42.630609095465275" lon="12.548760842007516"><ele>376.0</ele><time>2026-04-04T13:05:51.927Z</time></trkpt><trkpt lat="42.63066277925873" lon="12.548906558733046"><ele>376.0</ele><time>2026-04-04T13:05:52.927Z</time></trkpt><trkpt lat="42.630701408836174" lon="12.54906596115127"><ele>376.5</ele><time>2026-04-04T13:05:53.927Z</time></trkpt><trkpt lat="42.630713141936994" lon="12.549223424422971"><ele>377.0</ele><time>2026-04-04T13:05:54.927Z</time></trkpt><trkpt lat="42.6306759540946" lon="12.549375222197398"><ele>377.5</ele><time>2026-04-04T13:05:55.927Z</time></trkpt><trkpt lat="42.630627195086426" lon="12.549517002631758"><ele>378.0</ele><time>2026-04-04T13:05:56.927Z</time></trkpt><trkpt lat="42.630563504780504" lon="12.549675564433496"><ele>378.0</ele><time>2026-04-04T13:05:57.927Z</time></trkpt><trkpt lat="42.630494749560164" lon="12.549841387522097"><ele>378.0</ele><time>2026-04-04T13:05:58.927Z</time></trkpt><trkpt lat="42.630433306882075" lon="12.550000262443936"><ele>378.0</ele><time>2026-04-04T13:05:59.927Z</time></trkpt><trkpt lat="42.63037774502524" lon="12.550158916568018"><ele>378.0</ele><time>2026-04-04T13:06:00.927Z</time></trkpt><trkpt lat="42.63032845422524" lon="12.550331780463692"><ele>378.75</ele><time>2026-04-04T13:06:01.927Z</time></trkpt><trkpt lat="42.630292154615745" lon="12.550504000308134"><ele>379.5</ele><time>2026-04-04T13:06:02.927Z</time></trkpt><trkpt lat="42.63026954353336" lon="12.550684725081508"><ele>380.25</ele><time>2026-04-04T13:06:03.927Z</time></trkpt><trkpt lat="42.630266151764154" lon="12.550874893366034"><ele>381.0</ele><time>2026-04-04T13:06:04.927Z</time></trkpt><trkpt lat="42.630287985691744" lon="12.55106638000661"><ele>378.25</ele><time>2026-04-04T13:06:05.927Z</time></trkpt><trkpt lat="42.63033021532017" lon="12.551251064414576"><ele>375.5</ele><time>2026-04-04T13:06:06.927Z</time></trkpt><trkpt lat="42.630377768527936" lon="12.551429873591315"><ele>372.75</ele><time>2026-04-04T13:06:07.927Z</time></trkpt><trkpt lat="42.63042770217799" lon="12.551606695159698"><ele>370.0</ele><time>2026-04-04T13:06:08.927Z</time></trkpt><trkpt lat="42.63048404163598" lon="12.551773701923844"><ele>370.0</ele><time>2026-04-04T13:06:09.927Z</time></trkpt><trkpt lat="42.630542314537365" lon="12.551924823686909"><ele>370.0</ele><time>2026-04-04T13:06:10.927Z</time></trkpt><trkpt lat="42.63060390417281" lon="12.55207653433674"><ele>370.0</ele><time>2026-04-04T13:06:11.927Z</time></trkpt><trkpt lat="42.63066546593313" lon="12.5522202563269"><ele>370.0</ele><time>2026-04-04T13:06:12.927Z</time></trkpt><trkpt lat="42.63071869617112" lon="12.55235309163167"><ele>370.4</ele><time>2026-04-04T13:06:13.927Z</time></trkpt><trkpt lat="42.630763976537914" lon="12.55247974947366"><ele>370.8</ele><time>2026-04-04T13:06:14.927Z</time></trkpt><trkpt lat="42.630803611944245" lon="12.552605007337771"><ele>371.20000000000005</ele><time>2026-04-04T13:06:15.927Z</time></trkpt><trkpt lat="42.63084347548202" lon="12.552713532916195"><ele>371.6</ele><time>2026-04-04T13:06:16.927Z</time></trkpt><trkpt lat="42.63085935806473" lon="12.552827630106602"><ele>372.0</ele><time>2026-04-04T13:06:17.927Z</time></trkpt><trkpt lat="42.630867372997976" lon="12.552938111268372"><ele>372.28571428571433</ele><time>2026-04-04T13:06:18.927Z</time></trkpt><trkpt lat="42.63086734114069" lon="12.553038888110063"><ele>372.57142857142856</ele><time>2026-04-04T13:06:19.927Z</time></trkpt><trkpt lat="42.630886402655456" lon="12.553130362641122"><ele>372.8571428571429</ele><time>2026-04-04T13:06:20.927Z</time></trkpt><trkpt lat="42.63085786648619" lon="12.553209818608337"><ele>373.14285714285717</ele><time>2026-04-04T13:06:21.927Z</time></trkpt><trkpt lat="42.63088505158084" lon="12.553296639014953"><ele>373.42857142857144</ele><time>2026-04-04T13:06:23.927Z</time></trkpt><trkpt lat="42.63095623939584" lon="12.553359750342958"><ele>373.7142857142857</ele><time>2026-04-04T13:06:25.927Z</time></trkpt><trkpt lat="42.63102593589428" lon="12.553364752534833"><ele>374.0</ele><time>2026-04-04T13:06:26.927Z</time></trkpt><trkpt lat="42.6311052515745" lon="12.553312635389124"><ele>373.4</ele><time>2026-04-04T13:06:27.927Z</time></trkpt><trkpt lat="42.63119751787358" lon="12.553299896763022"><ele>372.79999999999995</ele><time>2026-04-04T13:06:28.927Z</time></trkpt><trkpt lat="42.63127344497975" lon="12.55325104464059"><ele>372.20000000000005</ele><time>2026-04-04T13:06:29.927Z</time></trkpt><trkpt lat="42.63133791494389" lon="12.553229346654655"><ele>371.6</ele><time>2026-04-04T13:06:30.927Z</time></trkpt><trkpt lat="42.63145610205683" lon="12.553179025055353"><ele>371.0</ele><time>2026-04-04T13:06:32.927Z</time></trkpt><trkpt lat="42.63155433748068" lon="12.553153569609666"><ele>371.0</ele><time>2026-04-04T13:06:34.927Z</time></trkpt><trkpt lat="42.63162497975898" lon="12.553135231949657"><ele>371.0</ele><time>2026-04-04T13:06:36.927Z</time></trkpt><trkpt lat="42.631713621837335" lon="12.553095394765007"><ele>371.0</ele><time>2026-04-04T13:06:38.927Z</time></trkpt><trkpt lat="42.63178531385232" lon="12.553147495173429"><ele>371.0</ele><time>2026-04-04T13:06:45.927Z</time></trkpt><trkpt lat="42.63193507316292" lon="12.553116311889873"><ele>371.0</ele><time>2026-04-04T13:06:47.927Z</time></trkpt><trkpt lat="42.631707273033626" lon="12.553175923217545"><ele>371.0</ele><time>2026-04-04T13:06:49.927Z</time></trkpt><trkpt lat="42.631637896707" lon="12.553209870437707"><ele>371.0</ele><time>2026-04-04T13:06:51.926Z</time></trkpt><trkpt lat="42.63157730679433" lon="12.553245082927052"><ele>371.0</ele><time>2026-04-04T13:06:54.926Z</time></trkpt><trkpt lat="42.631473311170545" lon="12.55330964175283"><ele>371.0</ele><time>2026-04-04T13:08:45.925Z</time></trkpt><trkpt lat="42.631336484437185" lon="12.55334039043602"><ele>371.0</ele><time>2026-04-04T13:08:47.925Z</time></trkpt><trkpt lat="42.63126920024857" lon="12.553351096153838"><ele>371.0</ele><time>2026-04-04T13:08:48.925Z</time></trkpt><trkpt lat="42.631190525918896" lon="12.553374422940513"><ele>371.0</ele><time>2026-04-04T13:08:50.925Z</time></trkpt><trkpt lat="42.63111889867548" lon="12.553401524517342"><ele>371.0</ele><time>2026-04-04T13:08:53.925Z</time></trkpt><trkpt lat="42.63103505941513" lon="12.553338405673037"><ele>371.0</ele><time>2026-04-04T13:08:54.925Z</time></trkpt><trkpt lat="42.630950899376224" lon="12.55338015090754"><ele>371.0</ele><time>2026-04-04T13:08:55.925Z</time></trkpt><trkpt lat="42.63085797387698" lon="12.55340384777395"><ele>371.0</ele><time>2026-04-04T13:08:56.925Z</time></trkpt><trkpt lat="42.6307498898749" lon="12.553434135628912"><ele>371.75</ele><time>2026-04-04T13:08:57.925Z</time></trkpt><trkpt lat="42.630628315851325" lon="12.553460217143236"><ele>372.5</ele><time>2026-04-04T13:08:58.925Z</time></trkpt><trkpt lat="42.63050156768592" lon="12.55345729012215"><ele>373.25</ele><time>2026-04-04T13:08:59.925Z</time></trkpt><trkpt lat="42.63038109839381" lon="12.553474588209838"><ele>374.0</ele><time>2026-04-04T13:09:00.925Z</time></trkpt><trkpt lat="42.630260417384854" lon="12.553502670295225"><ele>372.0</ele><time>2026-04-04T13:09:01.925Z</time></trkpt><trkpt lat="42.63013394168474" lon="12.553485331922392"><ele>370.0</ele><time>2026-04-04T13:09:02.925Z</time></trkpt><trkpt lat="42.630012283980356" lon="12.553440336219671"><ele>368.0</ele><time>2026-04-04T13:09:03.925Z</time></trkpt><trkpt lat="42.62989429500438" lon="12.55336616845817"><ele>366.0</ele><time>2026-04-04T13:09:04.925Z</time></trkpt><trkpt lat="42.629783772601655" lon="12.553269881662478"><ele>366.0</ele><time>2026-04-04T13:09:05.925Z</time></trkpt><trkpt lat="42.62969049469188" lon="12.553151502631918"><ele>366.0</ele><time>2026-04-04T13:09:06.925Z</time></trkpt><trkpt lat="42.62961233150185" lon="12.553018637230872"><ele>366.0</ele><time>2026-04-04T13:09:07.925Z</time></trkpt><trkpt lat="42.629539103816384" lon="12.552872798436722"><ele>366.0</ele><time>2026-04-04T13:09:08.925Z</time></trkpt><trkpt lat="42.629459301587964" lon="12.552730215805115"><ele>363.75</ele><time>2026-04-04T13:09:09.925Z</time></trkpt><trkpt lat="42.62937261260487" lon="12.552594670740989"><ele>361.5</ele><time>2026-04-04T13:09:10.925Z</time></trkpt><trkpt lat="42.62927396335753" lon="12.552473476059037"><ele>359.25</ele><time>2026-04-04T13:09:11.925Z</time></trkpt><trkpt lat="42.62916750805732" lon="12.552375042084966"><ele>357.0</ele><time>2026-04-04T13:09:12.925Z</time></trkpt><trkpt lat="42.62905998174614" lon="12.552269107755867"><ele>357.0</ele><time>2026-04-04T13:09:13.925Z</time></trkpt><trkpt lat="42.628941620224154" lon="12.552181848612939"><ele>357.0</ele><time>2026-04-04T13:09:14.925Z</time></trkpt><trkpt lat="42.62880609935626" lon="12.552128445479402"><ele>357.0</ele><time>2026-04-04T13:09:15.925Z</time></trkpt><trkpt lat="42.62868099419225" lon="12.552041852153328"><ele>357.0</ele><time>2026-04-04T13:09:16.925Z</time></trkpt><trkpt lat="42.62854739240451" lon="12.551995510670784"><ele>358.0</ele><time>2026-04-04T13:09:17.925Z</time></trkpt><trkpt lat="42.62841097013624" lon="12.551981927568525"><ele>359.0</ele><time>2026-04-04T13:09:18.925Z</time></trkpt><trkpt lat="42.62827276997802" lon="12.551959749862174"><ele>360.0</ele><time>2026-04-04T13:09:19.924Z</time></trkpt><trkpt lat="42.62813857015674" lon="12.551916876538648"><ele>361.0</ele><time>2026-04-04T13:09:20.924Z</time></trkpt><trkpt lat="42.62800418648044" lon="12.551872570714137"><ele>361.0</ele><time>2026-04-04T13:09:21.924Z</time></trkpt><trkpt lat="42.62786772462372" lon="12.551812942021948"><ele>361.0</ele><time>2026-04-04T13:09:22.924Z</time></trkpt><trkpt lat="42.62772825401313" lon="12.551759848644561"><ele>361.0</ele><time>2026-04-04T13:09:23.925Z</time></trkpt><trkpt lat="42.6275962058677" lon="12.55168472803374"><ele>361.0</ele><time>2026-04-04T13:09:24.925Z</time></trkpt><trkpt lat="42.62746661986282" lon="12.551617538616275"><ele>357.0</ele><time>2026-04-04T13:09:25.924Z</time></trkpt><trkpt lat="42.62732785889577" lon="12.551545500229064"><ele>353.0</ele><time>2026-04-04T13:09:26.924Z</time></trkpt><trkpt lat="42.627188228448" lon="12.551468808949227"><ele>349.0</ele><time>2026-04-04T13:09:27.924Z</time></trkpt><trkpt lat="42.62705293296761" lon="12.551394097282511"><ele>345.0</ele><time>2026-04-04T13:09:28.925Z</time></trkpt><trkpt lat="42.62691481303633" lon="12.551318526564037"><ele>345.75</ele><time>2026-04-04T13:09:29.925Z</time></trkpt><trkpt lat="42.626773414367776" lon="12.551249511223626"><ele>346.5</ele><time>2026-04-04T13:09:30.925Z</time></trkpt><trkpt lat="42.62663299050391" lon="12.551190561450468"><ele>347.25</ele><time>2026-04-04T13:09:31.925Z</time></trkpt><trkpt lat="42.62649683413384" lon="12.551152401015134"><ele>348.0</ele><time>2026-04-04T13:09:32.924Z</time></trkpt><trkpt lat="42.62636685448192" lon="12.551086209765876"><ele>348.0</ele><time>2026-04-04T13:09:33.924Z</time></trkpt><trkpt lat="42.626228203689244" lon="12.55106976583761"><ele>348.0</ele><time>2026-04-04T13:09:34.924Z</time></trkpt><trkpt lat="42.626085329516826" lon="12.5510871817608"><ele>348.0</ele><time>2026-04-04T13:09:35.924Z</time></trkpt><trkpt lat="42.62594559675639" lon="12.5510926184209"><ele>348.0</ele><time>2026-04-04T13:09:36.924Z</time></trkpt><trkpt lat="42.62582836099009" lon="12.551087432069888"><ele>345.25</ele><time>2026-04-04T13:09:37.924Z</time></trkpt><trkpt lat="42.62571878910735" lon="12.551094534191215"><ele>342.5</ele><time>2026-04-04T13:09:38.924Z</time></trkpt><trkpt lat="42.62560144317818" lon="12.551072050313532"><ele>339.75</ele><time>2026-04-04T13:09:39.924Z</time></trkpt><trkpt lat="42.625479959540336" lon="12.551019412806756"><ele>337.0</ele><time>2026-04-04T13:09:40.924Z</time></trkpt><trkpt lat="42.62536375318986" lon="12.5509379326048"><ele>333.25</ele><time>2026-04-04T13:09:41.924Z</time></trkpt><trkpt lat="42.62524559156414" lon="12.55083862317918"><ele>329.5</ele><time>2026-04-04T13:09:42.924Z</time></trkpt><trkpt lat="42.62512699183835" lon="12.550727832695243"><ele>325.75</ele><time>2026-04-04T13:09:43.924Z</time></trkpt><trkpt lat="42.625015095400215" lon="12.550604167184085"><ele>322.0</ele><time>2026-04-04T13:09:44.924Z</time></trkpt><trkpt lat="42.62491690627472" lon="12.550456652836063"><ele>324.25</ele><time>2026-04-04T13:09:45.924Z</time></trkpt><trkpt lat="42.624836986926674" lon="12.550285094229089"><ele>326.5</ele><time>2026-04-04T13:09:46.924Z</time></trkpt><trkpt lat="42.624754243954975" lon="12.550128570001256"><ele>328.75</ele><time>2026-04-04T13:09:47.924Z</time></trkpt><trkpt lat="42.624660453736794" lon="12.550000442208965"><ele>331.0</ele><time>2026-04-04T13:09:48.924Z</time></trkpt><trkpt lat="42.62455316442482" lon="12.549903994464627"><ele>328.75</ele><time>2026-04-04T13:09:49.924Z</time></trkpt><trkpt lat="42.62445151791641" lon="12.54983655400239"><ele>326.5</ele><time>2026-04-04T13:09:50.924Z</time></trkpt><trkpt lat="42.624354204672045" lon="12.549771348641242"><ele>324.25</ele><time>2026-04-04T13:09:51.924Z</time></trkpt><trkpt lat="42.62426618199238" lon="12.549671365584008"><ele>322.0</ele><time>2026-04-04T13:09:52.924Z</time></trkpt><trkpt lat="42.624203946741765" lon="12.549530755165465"><ele>322.0</ele><time>2026-04-04T13:09:53.924Z</time></trkpt><trkpt lat="42.62417442284097" lon="12.5493715072342"><ele>322.0</ele><time>2026-04-04T13:09:54.924Z</time></trkpt><trkpt lat="42.62416074780078" lon="12.549222422837905"><ele>322.0</ele><time>2026-04-04T13:09:55.924Z</time></trkpt><trkpt lat="42.624144892749996" lon="12.54909192286771"><ele>322.0</ele><time>2026-04-04T13:09:56.924Z</time></trkpt><trkpt lat="42.62410885130622" lon="12.548971074840336"><ele>322.0</ele><time>2026-04-04T13:09:57.924Z</time></trkpt><trkpt lat="42.62405794841704" lon="12.548863088391643"><ele>322.0</ele><time>2026-04-04T13:09:58.924Z</time></trkpt><trkpt lat="42.62399361807466" lon="12.54876651094399"><ele>322.0</ele><time>2026-04-04T13:09:59.924Z</time></trkpt><trkpt lat="42.62390258809354" lon="12.548705427467796"><ele>322.0</ele><time>2026-04-04T13:10:00.924Z</time></trkpt><trkpt lat="42.623792591878306" lon="12.54868246748025"><ele>322.0</ele><time>2026-04-04T13:10:01.924Z</time></trkpt><trkpt lat="42.623671002857066" lon="12.548695703425729"><ele>322.0</ele><time>2026-04-04T13:10:02.924Z</time></trkpt><trkpt lat="42.62354932274578" lon="12.548753397307685"><ele>320.25</ele><time>2026-04-04T13:10:03.924Z</time></trkpt><trkpt lat="42.62342638893058" lon="12.548844815531384"><ele>318.5</ele><time>2026-04-04T13:10:04.924Z</time></trkpt><trkpt lat="42.62328690779556" lon="12.548916094426012"><ele>316.75</ele><time>2026-04-04T13:10:05.924Z</time></trkpt><trkpt lat="42.62314600088514" lon="12.549000228853618"><ele>315.0</ele><time>2026-04-04T13:10:06.924Z</time></trkpt><trkpt lat="42.62300844810844" lon="12.549078681588162"><ele>315.0</ele><time>2026-04-04T13:10:07.924Z</time></trkpt><trkpt lat="42.62287981910474" lon="12.549137801412394"><ele>315.0</ele><time>2026-04-04T13:10:08.924Z</time></trkpt><trkpt lat="42.622750380705334" lon="12.549173497342991"><ele>315.0</ele><time>2026-04-04T13:10:09.924Z</time></trkpt><trkpt lat="42.62261632446924" lon="12.549191735932773"><ele>315.0</ele><time>2026-04-04T13:10:10.924Z</time></trkpt><trkpt lat="42.62247787100689" lon="12.54919410233881"><ele>313.25</ele><time>2026-04-04T13:10:11.924Z</time></trkpt><trkpt lat="42.62234867177395" lon="12.549201470969182"><ele>311.5</ele><time>2026-04-04T13:10:12.924Z</time></trkpt><trkpt lat="42.62221751118761" lon="12.54923240005644"><ele>309.75</ele><time>2026-04-04T13:10:13.924Z</time></trkpt><trkpt lat="42.622095063687205" lon="12.549301624076204"><ele>308.0</ele><time>2026-04-04T13:10:14.924Z</time></trkpt><trkpt lat="42.621985327796395" lon="12.549408071402803"><ele>307.75</ele><time>2026-04-04T13:10:15.924Z</time></trkpt><trkpt lat="42.62187349839712" lon="12.549516723744995"><ele>307.5</ele><time>2026-04-04T13:10:16.924Z</time></trkpt><trkpt lat="42.621759667668876" lon="12.549626990612353"><ele>307.25</ele><time>2026-04-04T13:10:17.924Z</time></trkpt><trkpt lat="42.62164452718672" lon="12.549737927506337"><ele>307.0</ele><time>2026-04-04T13:10:18.923Z</time></trkpt><trkpt lat="42.621530745553315" lon="12.549858373244959"><ele>307.0</ele><time>2026-04-04T13:10:19.923Z</time></trkpt><trkpt lat="42.6214178865156" lon="12.549977203807334"><ele>307.0</ele><time>2026-04-04T13:10:20.923Z</time></trkpt><trkpt lat="42.62130557140054" lon="12.550101042514568"><ele>307.0</ele><time>2026-04-04T13:10:21.923Z</time></trkpt><trkpt lat="42.62119590928576" lon="12.550218157171592"><ele>307.0</ele><time>2026-04-04T13:10:22.923Z</time></trkpt><trkpt lat="42.62108651054097" lon="12.550329439120583"><ele>308.25</ele><time>2026-04-04T13:10:23.923Z</time></trkpt><trkpt lat="42.62098318378653" lon="12.550444957380172"><ele>309.5</ele><time>2026-04-04T13:10:24.923Z</time></trkpt><trkpt lat="42.62089659159932" lon="12.550551003697832"><ele>310.75</ele><time>2026-04-04T13:10:25.923Z</time></trkpt><trkpt lat="42.620805208236455" lon="12.550653939695797"><ele>312.0</ele><time>2026-04-04T13:10:26.923Z</time></trkpt><trkpt lat="42.620704113177354" lon="12.550743674563165"><ele>312.0</ele><time>2026-04-04T13:10:27.923Z</time></trkpt><trkpt lat="42.620591672774076" lon="12.550812891478946"><ele>312.0</ele><time>2026-04-04T13:10:28.923Z</time></trkpt><trkpt lat="42.6204690118431" lon="12.55082129937276"><ele>312.0</ele><time>2026-04-04T13:10:29.923Z</time></trkpt><trkpt lat="42.62034079106412" lon="12.550822545930187"><ele>312.0</ele><time>2026-04-04T13:10:30.923Z</time></trkpt><trkpt lat="42.62021027395156" lon="12.55081007403335"><ele>312.75</ele><time>2026-04-04T13:10:31.923Z</time></trkpt><trkpt lat="42.62007539678598" lon="12.550798454806849"><ele>313.5</ele><time>2026-04-04T13:10:32.923Z</time></trkpt><trkpt lat="42.619944751368955" lon="12.550787222470571"><ele>314.25</ele><time>2026-04-04T13:10:33.923Z</time></trkpt><trkpt lat="42.619824427156594" lon="12.550772132931286"><ele>315.0</ele><time>2026-04-04T13:10:34.923Z</time></trkpt><trkpt lat="42.61969988795536" lon="12.550763067258321"><ele>315.0</ele><time>2026-04-04T13:10:35.923Z</time></trkpt><trkpt lat="42.619575289234135" lon="12.550719627192715"><ele>315.0</ele><time>2026-04-04T13:10:36.923Z</time></trkpt><trkpt lat="42.619442807305994" lon="12.550697384492908"><ele>315.0</ele><time>2026-04-04T13:10:37.923Z</time></trkpt><trkpt lat="42.61930647302625" lon="12.5506586102435"><ele>315.0</ele><time>2026-04-04T13:10:38.923Z</time></trkpt><trkpt lat="42.61917605571694" lon="12.550603215729078"><ele>315.0</ele><time>2026-04-04T13:10:39.923Z</time></trkpt><trkpt lat="42.619045204491606" lon="12.55055877138156"><ele>315.0</ele><time>2026-04-04T13:10:40.923Z</time></trkpt><trkpt lat="42.61891475869449" lon="12.5505132101272"><ele>315.0</ele><time>2026-04-04T13:10:41.923Z</time></trkpt><trkpt lat="42.61878177841833" lon="12.55046516490691"><ele>315.0</ele><time>2026-04-04T13:10:42.923Z</time></trkpt><trkpt lat="42.61864461530143" lon="12.550420856497992"><ele>314.5</ele><time>2026-04-04T13:10:43.923Z</time></trkpt><trkpt lat="42.61850745608864" lon="12.550384674291742"><ele>314.0</ele><time>2026-04-04T13:10:44.923Z</time></trkpt><trkpt lat="42.61836809873119" lon="12.550354056973896"><ele>313.5</ele><time>2026-04-04T13:10:45.923Z</time></trkpt><trkpt lat="42.6182333447583" lon="12.550312491728468"><ele>313.0</ele><time>2026-04-04T13:10:46.923Z</time></trkpt><trkpt lat="42.618102246351384" lon="12.550254876604205"><ele>313.0</ele><time>2026-04-04T13:10:47.923Z</time></trkpt><trkpt lat="42.61797126827959" lon="12.550175282355829"><ele>313.0</ele><time>2026-04-04T13:10:48.923Z</time></trkpt><trkpt lat="42.61784325567825" lon="12.550094427326139"><ele>313.0</ele><time>2026-04-04T13:10:49.923Z</time></trkpt><trkpt lat="42.617728582580874" lon="12.550002065636969"><ele>313.0</ele><time>2026-04-04T13:10:50.923Z</time></trkpt><trkpt lat="42.61762698927739" lon="12.549898366039372"><ele>312.2</ele><time>2026-04-04T13:10:51.923Z</time></trkpt><trkpt lat="42.617532095323696" lon="12.549796745591669"><ele>311.4</ele><time>2026-04-04T13:10:52.923Z</time></trkpt><trkpt lat="42.61744759386417" lon="12.54969769682262"><ele>310.59999999999997</ele><time>2026-04-04T13:10:53.923Z</time></trkpt><trkpt lat="42.61737094884679" lon="12.54960837013091"><ele>309.8</ele><time>2026-04-04T13:10:54.923Z</time></trkpt><trkpt lat="42.617302770854195" lon="12.54952579495364"><ele>309.0</ele><time>2026-04-04T13:10:55.923Z</time></trkpt><trkpt lat="42.6172428668943" lon="12.549458999192087"><ele>309.2</ele><time>2026-04-04T13:10:56.923Z</time></trkpt><trkpt lat="42.6172077706132" lon="12.549378612481046"><ele>309.4</ele><time>2026-04-04T13:10:57.923Z</time></trkpt><trkpt lat="42.61714885961704" lon="12.549285400152558"><ele>309.6</ele><time>2026-04-04T13:10:59.923Z</time></trkpt><trkpt lat="42.617102309491464" lon="12.549211746847579"><ele>309.8</ele><time>2026-04-04T13:11:10.923Z</time></trkpt><trkpt lat="42.61692466489511" lon="12.549222716750277"><ele>310.0</ele><time>2026-04-04T13:11:12.923Z</time></trkpt><trkpt lat="42.6168419525667" lon="12.549169676655668"><ele>310.0</ele><time>2026-04-04T13:11:13.923Z</time></trkpt><trkpt lat="42.61675171493083" lon="12.54911105102164"><ele>310.0</ele><time>2026-04-04T13:11:14.923Z</time></trkpt><trkpt lat="42.61665980018453" lon="12.549051464556703"><ele>310.0</ele><time>2026-04-04T13:11:15.923Z</time></trkpt><trkpt lat="42.616557863704365" lon="12.548990669775893"><ele>310.0</ele><time>2026-04-04T13:11:16.923Z</time></trkpt><trkpt lat="42.616454508201784" lon="12.54893191205563"><ele>310.0</ele><time>2026-04-04T13:11:17.923Z</time></trkpt><trkpt lat="42.616339480171526" lon="12.548893960747556"><ele>310.0</ele><time>2026-04-04T13:11:18.923Z</time></trkpt><trkpt lat="42.616236867823126" lon="12.548819756197794"><ele>310.0</ele><time>2026-04-04T13:11:19.923Z</time></trkpt><trkpt lat="42.61613312845303" lon="12.548771968556887"><ele>310.0</ele><time>2026-04-04T13:11:20.923Z</time></trkpt><trkpt lat="42.61603000730635" lon="12.548739492637198"><ele>310.0</ele><time>2026-04-04T13:11:21.923Z</time></trkpt><trkpt lat="42.615923568133304" lon="12.548717174373568"><ele>310.0</ele><time>2026-04-04T13:11:22.923Z</time></trkpt><trkpt lat="42.61582151517147" lon="12.548703416713886"><ele>310.0</ele><time>2026-04-04T13:11:23.923Z</time></trkpt><trkpt lat="42.6157120769023" lon="12.5487043905597"><ele>310.0</ele><time>2026-04-04T13:11:24.923Z</time></trkpt><trkpt lat="42.61562672403185" lon="12.548729306214096"><ele>310.0</ele><time>2026-04-04T13:11:25.923Z</time></trkpt><trkpt lat="42.615550996698076" lon="12.54871185825464"><ele>310.0</ele><time>2026-04-04T13:11:26.924Z</time></trkpt><trkpt lat="42.61543669064176" lon="12.548717648436563"><ele>310.0</ele><time>2026-04-04T13:11:28.924Z</time></trkpt><trkpt lat="42.615355970583614" lon="12.54884710316667"><ele>310.5</ele><time>2026-04-04T13:11:29.923Z</time></trkpt><trkpt lat="42.61529726680376" lon="12.548921106425949"><ele>311.0</ele><time>2026-04-04T13:11:30.923Z</time></trkpt><trkpt lat="42.61523626607507" lon="12.548968415208487"><ele>311.5</ele><time>2026-04-04T13:11:31.923Z</time></trkpt><trkpt lat="42.615168636252115" lon="12.549004609423735"><ele>312.0</ele><time>2026-04-04T13:11:32.923Z</time></trkpt><trkpt lat="42.615092209761" lon="12.549032047529192"><ele>312.5</ele><time>2026-04-04T13:11:33.923Z</time></trkpt><trkpt lat="42.615012845506676" lon="12.549016687183544"><ele>313.0</ele><time>2026-04-04T13:11:34.924Z</time></trkpt><trkpt lat="42.61494004235099" lon="12.549046505928489"><ele>313.0</ele><time>2026-04-04T13:11:35.923Z</time></trkpt><trkpt lat="42.61486663392715" lon="12.549085505675311"><ele>313.0</ele><time>2026-04-04T13:11:36.923Z</time></trkpt><trkpt lat="42.61480088966988" lon="12.549125615698422"><ele>313.0</ele><time>2026-04-04T13:11:37.923Z</time></trkpt><trkpt lat="42.614733215472484" lon="12.549161854353304"><ele>313.0</ele><time>2026-04-04T13:11:38.923Z</time></trkpt><trkpt lat="42.614662874610424" lon="12.54918273278124"><ele>313.0</ele><time>2026-04-04T13:11:39.923Z</time></trkpt><trkpt lat="42.6145870199592" lon="12.549177281595886"><ele>313.0</ele><time>2026-04-04T13:11:40.923Z</time></trkpt><trkpt lat="42.614506789238575" lon="12.549173146795313"><ele>312.3333333333333</ele><time>2026-04-04T13:11:41.923Z</time></trkpt><trkpt lat="42.61442087576832" lon="12.549167034645702"><ele>311.66666666666663</ele><time>2026-04-04T13:11:42.923Z</time></trkpt><trkpt lat="42.614328063893915" lon="12.549167572166043"><ele>311.0</ele><time>2026-04-04T13:11:43.923Z</time></trkpt><trkpt lat="42.61424366695084" lon="12.549199417704584"><ele>310.3333333333333</ele><time>2026-04-04T13:11:44.923Z</time></trkpt><trkpt lat="42.61417404807592" lon="12.549235677105282"><ele>309.6666666666667</ele><time>2026-04-04T13:11:45.923Z</time></trkpt><trkpt lat="42.61411617171914" lon="12.549270112426196"><ele>309.0</ele><time>2026-04-04T13:11:46.923Z</time></trkpt><trkpt lat="42.61401350796994" lon="12.549355377406924"><ele>309.0</ele><time>2026-04-04T13:11:48.923Z</time></trkpt><trkpt lat="42.61398179287062" lon="12.549448205888945"><ele>309.0</ele><time>2026-04-04T13:11:49.923Z</time></trkpt><trkpt lat="42.61398925427887" lon="12.549550395390284"><ele>309.0</ele><time>2026-04-04T13:11:50.923Z</time></trkpt><trkpt lat="42.614012459158275" lon="12.549659958319204"><ele>309.0</ele><time>2026-04-04T13:11:51.923Z</time></trkpt><trkpt lat="42.614034557309445" lon="12.549754615116743"><ele>309.0</ele><time>2026-04-04T13:11:52.923Z</time></trkpt><trkpt lat="42.61405675216669" lon="12.549847172818039"><ele>309.0</ele><time>2026-04-04T13:11:53.923Z</time></trkpt><trkpt lat="42.61408804849977" lon="12.550000171207595"><ele>306.0</ele><time>2026-04-04T13:11:55.923Z</time></trkpt><trkpt lat="42.61409791326481" lon="12.550092701361653"><ele>303.0</ele><time>2026-04-04T13:11:56.923Z</time></trkpt><trkpt lat="42.614116250370216" lon="12.550180660367062"><ele>300.0</ele><time>2026-04-04T13:11:57.923Z</time></trkpt><trkpt lat="42.61411805937938" lon="12.550356500426437"><ele>297.0</ele><time>2026-04-04T13:11:59.923Z</time></trkpt><trkpt lat="42.614127785385946" lon="12.550522806658647"><ele>294.0</ele><time>2026-04-04T13:12:01.923Z</time></trkpt><trkpt lat="42.61408093146827" lon="12.550676687222303"><ele>291.59999999999997</ele><time>2026-04-04T13:12:03.923Z</time></trkpt><trkpt lat="42.61403827444466" lon="12.550764224807354"><ele>289.2</ele><time>2026-04-04T13:12:04.923Z</time></trkpt><trkpt lat="42.61399628332483" lon="12.550863845164278"><ele>286.79999999999995</ele><time>2026-04-04T13:12:05.923Z</time></trkpt><trkpt lat="42.61395317930502" lon="12.550965526069458"><ele>284.4</ele><time>2026-04-04T13:12:06.923Z</time></trkpt><trkpt lat="42.61390082097329" lon="12.551079842538641"><ele>282.0</ele><time>2026-04-04T13:12:07.923Z</time></trkpt><trkpt lat="42.61384594318204" lon="12.551207765358852"><ele>283.75</ele><time>2026-04-04T13:12:08.923Z</time></trkpt><trkpt lat="42.61379161378206" lon="12.551345408814072"><ele>285.5</ele><time>2026-04-04T13:12:09.923Z</time></trkpt><trkpt lat="42.61374800141345" lon="12.55149340914834"><ele>287.25</ele><time>2026-04-04T13:12:10.923Z</time></trkpt><trkpt lat="42.61368261174771" lon="12.551623851958345"><ele>289.0</ele><time>2026-04-04T13:12:11.923Z</time></trkpt><trkpt lat="42.613630123703786" lon="12.55176800089856"><ele>289.0</ele><time>2026-04-04T13:12:12.923Z</time></trkpt><trkpt lat="42.61360941881378" lon="12.551945479467133"><ele>289.0</ele><time>2026-04-04T13:12:13.923Z</time></trkpt><trkpt lat="42.61356806969346" lon="12.552125039278339"><ele>289.0</ele><time>2026-04-04T13:12:14.923Z</time></trkpt><trkpt lat="42.61353422508512" lon="12.552299759749888"><ele>289.0</ele><time>2026-04-04T13:12:15.923Z</time></trkpt><trkpt lat="42.6135007902405" lon="12.552463389395244"><ele>286.2</ele><time>2026-04-04T13:12:16.924Z</time></trkpt><trkpt lat="42.613467730488566" lon="12.552605143964419"><ele>283.4</ele><time>2026-04-04T13:12:17.924Z</time></trkpt><trkpt lat="42.61341771415518" lon="12.552743969323087"><ele>280.6</ele><time>2026-04-04T13:12:18.924Z</time></trkpt><trkpt lat="42.613369818874084" lon="12.552870579079025"><ele>277.8</ele><time>2026-04-04T13:12:19.924Z</time></trkpt><trkpt lat="42.61333922218158" lon="12.55300167932566"><ele>275.0</ele><time>2026-04-04T13:12:20.924Z</time></trkpt><trkpt lat="42.61330110318434" lon="12.553106114488408"><ele>272.4</ele><time>2026-04-04T13:12:21.925Z</time></trkpt><trkpt lat="42.6132032142939" lon="12.553176453544367"><ele>269.8</ele><time>2026-04-04T13:12:22.925Z</time></trkpt><trkpt lat="42.61315091891549" lon="12.55326603121836"><ele>267.2</ele><time>2026-04-04T13:12:23.925Z</time></trkpt><trkpt lat="42.613083270125124" lon="12.553353717934057"><ele>264.6</ele><time>2026-04-04T13:12:24.925Z</time></trkpt><trkpt lat="42.612997160844614" lon="12.553443113875682"><ele>262.0</ele><time>2026-04-04T13:12:25.925Z</time></trkpt><trkpt lat="42.61291183929779" lon="12.553524426918209"><ele>262.0</ele><time>2026-04-04T13:12:26.925Z</time></trkpt><trkpt lat="42.61282737904329" lon="12.553600385722628"><ele>262.0</ele><time>2026-04-04T13:12:27.925Z</time></trkpt><trkpt lat="42.612741237990925" lon="12.553677493471383"><ele>262.0</ele><time>2026-04-04T13:12:28.926Z</time></trkpt><trkpt lat="42.61265749596511" lon="12.553755693693262"><ele>262.0</ele><time>2026-04-04T13:12:29.926Z</time></trkpt><trkpt lat="42.61257649336673" lon="12.553834898633431"><ele>262.0</ele><time>2026-04-04T13:12:30.926Z</time></trkpt><trkpt lat="42.612503178891934" lon="12.55393617833548"><ele>261.16666666666663</ele><time>2026-04-04T13:12:31.926Z</time></trkpt><trkpt lat="42.61242194138653" lon="12.553995952714992"><ele>260.3333333333333</ele><time>2026-04-04T13:12:32.926Z</time></trkpt><trkpt lat="42.61234963287432" lon="12.554034087572692"><ele>259.5</ele><time>2026-04-04T13:12:33.926Z</time></trkpt><trkpt lat="42.612279505568516" lon="12.55406161745633"><ele>258.6666666666667</ele><time>2026-04-04T13:12:34.926Z</time></trkpt><trkpt lat="42.61221094795145" lon="12.554092695195479"><ele>257.83333333333337</ele><time>2026-04-04T13:12:35.926Z</time></trkpt><trkpt lat="42.61213582844306" lon="12.554113265224057"><ele>257.0</ele><time>2026-04-04T13:12:36.926Z</time></trkpt><trkpt lat="42.61205118485281" lon="12.554110347144663"><ele>257.2</ele><time>2026-04-04T13:12:37.926Z</time></trkpt><trkpt lat="42.611953035286206" lon="12.554114364586349"><ele>257.4</ele><time>2026-04-04T13:12:38.926Z</time></trkpt><trkpt lat="42.611857929095926" lon="12.554111133753164"><ele>257.6</ele><time>2026-04-04T13:12:39.926Z</time></trkpt><trkpt lat="42.61176609186194" lon="12.554112259213607"><ele>257.8</ele><time>2026-04-04T13:12:40.926Z</time></trkpt><trkpt lat="42.611664596187595" lon="12.554109954842588"><ele>258.0</ele><time>2026-04-04T13:12:41.926Z</time></trkpt><trkpt lat="42.61155594203861" lon="12.554150691759155"><ele>258.0</ele><time>2026-04-04T13:12:42.927Z</time></trkpt><trkpt lat="42.611456872008134" lon="12.554192598661775"><ele>258.0</ele><time>2026-04-04T13:12:43.927Z</time></trkpt><trkpt lat="42.6113729468294" lon="12.554246664373947"><ele>258.0</ele><time>2026-04-04T13:12:44.927Z</time></trkpt><trkpt lat="42.61130298225844" lon="12.554260524038128"><ele>258.0</ele><time>2026-04-04T13:12:45.927Z</time></trkpt><trkpt lat="42.611237086129144" lon="12.554280122048715"><ele>258.0</ele><time>2026-04-04T13:12:46.927Z</time></trkpt><trkpt lat="42.61117183267158" lon="12.554319176407672"><ele>258.0</ele><time>2026-04-04T13:12:47.927Z</time></trkpt><trkpt lat="42.61109791757371" lon="12.554378964479854"><ele>257.4</ele><time>2026-04-04T13:12:48.927Z</time></trkpt><trkpt lat="42.611040250072776" lon="12.55443833349091"><ele>256.8</ele><time>2026-04-04T13:12:49.927Z</time></trkpt><trkpt lat="42.610982464537194" lon="12.554520528273917"><ele>256.2</ele><time>2026-04-04T13:12:50.927Z</time></trkpt><trkpt lat="42.61086720158441" lon="12.554620724054102"><ele>255.6</ele><time>2026-04-04T13:12:51.927Z</time></trkpt><trkpt lat="42.61077322484394" lon="12.554710711996588"><ele>255.0</ele><time>2026-04-04T13:12:52.927Z</time></trkpt><trkpt lat="42.61067740990551" lon="12.554734351759945"><ele>251.0</ele><time>2026-04-04T13:12:53.927Z</time></trkpt><trkpt lat="42.61054519198024" lon="12.554741524015515"><ele>247.0</ele><time>2026-04-04T13:12:54.927Z</time></trkpt><trkpt lat="42.61040534116307" lon="12.55473866316589"><ele>243.0</ele><time>2026-04-04T13:12:55.927Z</time></trkpt><trkpt lat="42.61028053154242" lon="12.554720046773904"><ele>239.0</ele><time>2026-04-04T13:12:56.927Z</time></trkpt><trkpt lat="42.61017468009269" lon="12.554705735877977"><ele>239.00000000000003</ele><time>2026-04-04T13:12:57.927Z</time></trkpt><trkpt lat="42.61008290416893" lon="12.554692666834757"><ele>239.0</ele><time>2026-04-04T13:12:58.927Z</time></trkpt><trkpt lat="42.61000801133159" lon="12.554691456538825"><ele>239.0</ele><time>2026-04-04T13:12:59.927Z</time></trkpt><trkpt lat="42.609898635168385" lon="12.554676980168693"><ele>239.0</ele><time>2026-04-04T13:13:01.927Z</time></trkpt><trkpt lat="42.60981221816546" lon="12.55466048207841"><ele>239.00000000000003</ele><time>2026-04-04T13:13:03.927Z</time></trkpt><trkpt lat="42.60974015806771" lon="12.554632484212707"><ele>239.0</ele><time>2026-04-04T13:13:05.927Z</time></trkpt><trkpt lat="42.60967162151833" lon="12.554596038533566"><ele>239.0</ele><time>2026-04-04T13:13:08.927Z</time></trkpt><trkpt lat="42.609611672599506" lon="12.554558120358882"><ele>238.99999999999997</ele><time>2026-04-04T13:13:13.927Z</time></trkpt><trkpt lat="42.60956769138946" lon="12.554678588474026"><ele>238.99999999999997</ele><time>2026-04-04T13:13:15.927Z</time></trkpt><trkpt lat="42.60953748922963" lon="12.554813563962599"><ele>239.0</ele><time>2026-04-04T13:13:17.927Z</time></trkpt><trkpt lat="42.609488960391865" lon="12.554963910842197"><ele>239.0</ele><time>2026-04-04T13:13:19.927Z</time></trkpt><trkpt lat="42.60942807095292" lon="12.555119666194258"><ele>237.83333333333334</ele><time>2026-04-04T13:13:21.927Z</time></trkpt><trkpt lat="42.609387300962766" lon="12.555185094491664"><ele>236.66666666666669</ele><time>2026-04-04T13:13:22.927Z</time></trkpt><trkpt lat="42.609324754733215" lon="12.555214772007071"><ele>235.5</ele><time>2026-04-04T13:13:23.927Z</time></trkpt><trkpt lat="42.60925792332612" lon="12.555263101148064"><ele>234.33333333333331</ele><time>2026-04-04T13:13:24.927Z</time></trkpt><trkpt lat="42.6091842739583" lon="12.555306374227984"><ele>233.16666666666666</ele><time>2026-04-04T13:13:25.927Z</time></trkpt><trkpt lat="42.609103002280314" lon="12.555351555010224"><ele>232.0</ele><time>2026-04-04T13:13:26.927Z</time></trkpt><trkpt lat="42.609019772636124" lon="12.555397400249557"><ele>230.66666666666666</ele><time>2026-04-04T13:13:27.927Z</time></trkpt><trkpt lat="42.60894149332903" lon="12.55544313275784"><ele>229.33333333333331</ele><time>2026-04-04T13:13:28.927Z</time></trkpt><trkpt lat="42.60886615056239" lon="12.555489500175483"><ele>228.0</ele><time>2026-04-04T13:13:29.927Z</time></trkpt><trkpt lat="42.608797675801874" lon="12.555529679596162"><ele>226.66666666666669</ele><time>2026-04-04T13:13:30.927Z</time></trkpt><trkpt lat="42.60873431531008" lon="12.555552688481422"><ele>225.33333333333334</ele><time>2026-04-04T13:13:31.927Z</time></trkpt><trkpt lat="42.60861240023134" lon="12.555562713117986"><ele>224.0</ele><time>2026-04-04T13:13:33.927Z</time></trkpt><trkpt lat="42.60855477117697" lon="12.555521595779165"><ele>222.66666666666669</ele><time>2026-04-04T13:13:34.927Z</time></trkpt><trkpt lat="42.60849193150176" lon="12.555494557033025"><ele>221.33333333333334</ele><time>2026-04-04T13:13:35.927Z</time></trkpt><trkpt lat="42.60841600347727" lon="12.555467047916148"><ele>220.0</ele><time>2026-04-04T13:13:36.927Z</time></trkpt><trkpt lat="42.60835081302354" lon="12.555532981329629"><ele>218.66666666666669</ele><time>2026-04-04T13:13:37.927Z</time></trkpt><trkpt lat="42.60829894543566" lon="12.555590776755878"><ele>217.33333333333334</ele><time>2026-04-04T13:13:38.927Z</time></trkpt><trkpt lat="42.60822620732812" lon="12.555705759819011"><ele>216.0</ele><time>2026-04-04T13:13:40.927Z</time></trkpt><trkpt lat="42.60823636623194" lon="12.55584606863557"><ele>216.0</ele><time>2026-04-04T13:13:42.927Z</time></trkpt><trkpt lat="42.60825661295591" lon="12.555972278401471"><ele>216.00000000000003</ele><time>2026-04-04T13:13:44.927Z</time></trkpt><trkpt lat="42.60827893667582" lon="12.556074967115158"><ele>216.00000000000003</ele><time>2026-04-04T13:13:47.927Z</time></trkpt><trkpt lat="42.60816605769985" lon="12.556215230625757"><ele>216.0</ele><time>2026-04-04T13:13:52.927Z</time></trkpt><trkpt lat="42.60825059701104" lon="12.556306685374466"><ele>216.0</ele><time>2026-04-04T13:13:53.927Z</time></trkpt><trkpt lat="42.608313668122854" lon="12.556354850864041"><ele>215.16666666666666</ele><time>2026-04-04T13:13:54.927Z</time></trkpt><trkpt lat="42.608398765853465" lon="12.556416006432638"><ele>214.33333333333331</ele><time>2026-04-04T13:13:56.927Z</time></trkpt><trkpt lat="42.608448177388304" lon="12.5564986719053"><ele>213.5</ele><time>2026-04-04T13:14:04.927Z</time></trkpt><trkpt lat="42.6084672890327" lon="12.556600270182596"><ele>212.66666666666666</ele><time>2026-04-04T13:14:06.927Z</time></trkpt><trkpt lat="42.60849553471054" lon="12.5567456996137"><ele>211.83333333333331</ele><time>2026-04-04T13:14:08.927Z</time></trkpt><trkpt lat="42.60851259989483" lon="12.556835100109545"><ele>211.0</ele><time>2026-04-04T13:14:09.927Z</time></trkpt><trkpt lat="42.608530775193586" lon="12.556930542673287"><ele>211.0</ele><time>2026-04-04T13:14:10.927Z</time></trkpt><trkpt lat="42.6085504925914" lon="12.557022906320565"><ele>211.0</ele><time>2026-04-04T13:14:11.927Z</time></trkpt><trkpt lat="42.608564199074976" lon="12.55717293819517"><ele>211.0</ele><time>2026-04-04T13:14:13.927Z</time></trkpt><trkpt lat="42.60853034386548" lon="12.557334897821272"><ele>211.0</ele><time>2026-04-04T13:14:15.927Z</time></trkpt><trkpt lat="42.60847471523553" lon="12.557422225171221"><ele>211.0</ele><time>2026-04-04T13:14:16.927Z</time></trkpt><trkpt lat="42.608380138531906" lon="12.557447738210652"><ele>209.0</ele><time>2026-04-04T13:14:17.927Z</time></trkpt><trkpt lat="42.608283460970355" lon="12.557477370592999"><ele>207.0</ele><time>2026-04-04T13:14:18.927Z</time></trkpt><trkpt lat="42.60816345513352" lon="12.557510377060305"><ele>205.0</ele><time>2026-04-04T13:14:19.927Z</time></trkpt><trkpt lat="42.60804191526344" lon="12.557539944203414"><ele>203.0</ele><time>2026-04-04T13:14:20.927Z</time></trkpt><trkpt lat="42.60792081624623" lon="12.557570193762379"><ele>203.16666666666669</ele><time>2026-04-04T13:14:21.927Z</time></trkpt><trkpt lat="42.60781397363373" lon="12.557600056393035"><ele>203.33333333333334</ele><time>2026-04-04T13:14:22.927Z</time></trkpt><trkpt lat="42.607721349413254" lon="12.55763602663222"><ele>203.5</ele><time>2026-04-04T13:14:23.927Z</time></trkpt><trkpt lat="42.60765370105822" lon="12.5576788819522"><ele>203.66666666666669</ele><time>2026-04-04T13:14:24.927Z</time></trkpt><trkpt lat="42.60760646974353" lon="12.557746935990627"><ele>203.83333333333334</ele><time>2026-04-04T13:14:25.927Z</time></trkpt><trkpt lat="42.607527896156576" lon="12.557799059579395"><ele>204.0</ele><time>2026-04-04T13:14:27.927Z</time></trkpt><trkpt lat="42.60753129862492" lon="12.557887946267194"><ele>202.6</ele><time>2026-04-04T13:14:29.927Z</time></trkpt><trkpt lat="42.60754042176741" lon="12.557993687771283"><ele>201.2</ele><time>2026-04-04T13:14:31.927Z</time></trkpt><trkpt lat="42.607495619256085" lon="12.558168075942488"><ele>199.79999999999998</ele><time>2026-04-04T13:14:33.927Z</time></trkpt><trkpt lat="42.60748070270241" lon="12.558268850006149"><ele>198.39999999999998</ele><time>2026-04-04T13:14:34.927Z</time></trkpt><trkpt lat="42.60747770617729" lon="12.558396400509764"><ele>197.0</ele><time>2026-04-04T13:14:35.927Z</time></trkpt><trkpt lat="42.60749411090359" lon="12.558512059178431"><ele>197.0</ele><time>2026-04-04T13:14:36.927Z</time></trkpt><trkpt lat="42.60750899420799" lon="12.558609931948272"><ele>197.0</ele><time>2026-04-04T13:14:37.927Z</time></trkpt><trkpt lat="42.60752387097677" lon="12.55876389748614"><ele>197.0</ele><time>2026-04-04T13:14:39.927Z</time></trkpt><trkpt lat="42.60751956851692" lon="12.558895807726005"><ele>197.0</ele><time>2026-04-04T13:14:41.927Z</time></trkpt><trkpt lat="42.607475592361375" lon="12.55902462947885"><ele>197.0</ele><time>2026-04-04T13:14:43.927Z</time></trkpt><trkpt lat="42.60739219160645" lon="12.559162722533307"><ele>196.8</ele><time>2026-04-04T13:14:45.927Z</time></trkpt><trkpt lat="42.60735277167924" lon="12.559252219867341"><ele>196.6</ele><time>2026-04-04T13:14:46.927Z</time></trkpt><trkpt lat="42.607293053967595" lon="12.559309678560671"><ele>196.4</ele><time>2026-04-04T13:14:47.927Z</time></trkpt><trkpt lat="42.60723890696012" lon="12.559375523603016"><ele>196.20000000000002</ele><time>2026-04-04T13:14:48.926Z</time></trkpt><trkpt lat="42.60713333301612" lon="12.559521257094683"><ele>196.0</ele><time>2026-04-04T13:14:50.926Z</time></trkpt><trkpt lat="42.60707367591859" lon="12.559619575885712"><ele>196.0</ele><time>2026-04-04T13:14:51.926Z</time></trkpt><trkpt lat="42.60701908185493" lon="12.559720493253913"><ele>196.0</ele><time>2026-04-04T13:14:52.926Z</time></trkpt><trkpt lat="42.60695597042648" lon="12.55982878440547"><ele>196.0</ele><time>2026-04-04T13:14:53.926Z</time></trkpt><trkpt lat="42.6068805309123" lon="12.559934556891218"><ele>196.0</ele><time>2026-04-04T13:14:54.926Z</time></trkpt><trkpt lat="42.606787307397504" lon="12.560061888403613"><ele>196.0</ele><time>2026-04-04T13:14:55.926Z</time></trkpt><trkpt lat="42.60667064667642" lon="12.56017568731644"><ele>195.0</ele><time>2026-04-04T13:14:56.926Z</time></trkpt><trkpt lat="42.60658979391393" lon="12.560308955392204"><ele>194.0</ele><time>2026-04-04T13:14:57.926Z</time></trkpt><trkpt lat="42.60650661009494" lon="12.560425159173828"><ele>193.0</ele><time>2026-04-04T13:14:58.926Z</time></trkpt><trkpt lat="42.60641381301502" lon="12.560550882056525"><ele>192.0</ele><time>2026-04-04T13:14:59.926Z</time></trkpt><trkpt lat="42.606310920419375" lon="12.560681170275394"><ele>192.0</ele><time>2026-04-04T13:15:00.926Z</time></trkpt><trkpt lat="42.60621287760437" lon="12.560797900785104"><ele>192.0</ele><time>2026-04-04T13:15:01.926Z</time></trkpt><trkpt lat="42.606163302455464" lon="12.560856927386583"><ele>192.0</ele><time>2026-04-04T13:15:02.926Z</time></trkpt><trkpt lat="42.60610885128115" lon="12.56098495132088"><ele>192.0</ele><time>2026-04-04T13:15:04.926Z</time></trkpt><trkpt lat="42.60567958392671" lon="12.561443925577558"><ele>191.0</ele><time>2026-04-04T13:15:06.926Z</time></trkpt><trkpt lat="42.60561362883287" lon="12.561462841920335"><ele>190.0</ele><time>2026-04-04T13:15:07.926Z</time></trkpt><trkpt lat="42.60553080405482" lon="12.561468696006804"><ele>189.0</ele><time>2026-04-04T13:15:09.926Z</time></trkpt><trkpt lat="42.60545771696654" lon="12.561501425947053"><ele>188.0</ele><time>2026-04-04T13:15:12.926Z</time></trkpt><trkpt lat="42.60543353063536" lon="12.561884774747629"><ele>188.33333333333331</ele><time>2026-04-04T13:15:13.926Z</time></trkpt><trkpt lat="42.60545936634659" lon="12.56203517718006"><ele>188.66666666666666</ele><time>2026-04-04T13:15:14.926Z</time></trkpt><trkpt lat="42.60547333066976" lon="12.562168813248272"><ele>189.0</ele><time>2026-04-04T13:15:15.926Z</time></trkpt><trkpt lat="42.60548129812639" lon="12.562288679467356"><ele>189.33333333333334</ele><time>2026-04-04T13:15:16.926Z</time></trkpt><trkpt lat="42.60546730125399" lon="12.56238325124555"><ele>189.66666666666669</ele><time>2026-04-04T13:15:17.926Z</time></trkpt><trkpt lat="42.60542669026817" lon="12.562458345990576"><ele>190.0</ele><time>2026-04-04T13:15:18.926Z</time></trkpt><trkpt lat="42.60535718159223" lon="12.562502226620783"><ele>188.8</ele><time>2026-04-04T13:15:19.926Z</time></trkpt><trkpt lat="42.60526799302584" lon="12.562523470804459"><ele>187.6</ele><time>2026-04-04T13:15:20.926Z</time></trkpt><trkpt lat="42.605192241146426" lon="12.562589614536094"><ele>186.39999999999998</ele><time>2026-04-04T13:15:21.926Z</time></trkpt><trkpt lat="42.60507806502236" lon="12.562641778175829"><ele>185.2</ele><time>2026-04-04T13:15:22.926Z</time></trkpt><trkpt lat="42.604962501826265" lon="12.562665224333623"><ele>184.0</ele><time>2026-04-04T13:15:23.926Z</time></trkpt><trkpt lat="42.60485380631007" lon="12.562650785987314"><ele>184.0</ele><time>2026-04-04T13:15:24.926Z</time></trkpt><trkpt lat="42.60473961368355" lon="12.562616091235245"><ele>184.0</ele><time>2026-04-04T13:15:25.926Z</time></trkpt><trkpt lat="42.60461307310253" lon="12.562759901403982"><ele>184.0</ele><time>2026-04-04T13:15:26.926Z</time></trkpt><trkpt lat="42.604481059244584" lon="12.562762143096034"><ele>184.0</ele><time>2026-04-04T13:15:27.926Z</time></trkpt><trkpt lat="42.60435419825421" lon="12.5628127806145"><ele>184.0</ele><time>2026-04-04T13:15:28.926Z</time></trkpt><trkpt lat="42.60423594711451" lon="12.562918350233932"><ele>184.0</ele><time>2026-04-04T13:15:29.926Z</time></trkpt><trkpt lat="42.604296255093956" lon="12.562861090838817"><ele>184.0</ele><time>2026-04-04T13:15:30.926Z</time></trkpt><trkpt lat="42.6042186580496" lon="12.562956574607217"><ele>184.0</ele><time>2026-04-04T13:15:31.926Z</time></trkpt><trkpt lat="42.6041648370023" lon="12.563080685720323"><ele>184.0</ele><time>2026-04-04T13:15:32.926Z</time></trkpt><trkpt lat="42.604107590967615" lon="12.563194957300093"><ele>183.66666666666669</ele><time>2026-04-04T13:15:33.926Z</time></trkpt><trkpt lat="42.6040846375254" lon="12.563312559130674"><ele>183.33333333333334</ele><time>2026-04-04T13:15:34.926Z</time></trkpt><trkpt lat="42.60406271248927" lon="12.563411089125074"><ele>183.0</ele><time>2026-04-04T13:15:35.926Z</time></trkpt><trkpt lat="42.604025304623484" lon="12.563489115975274"><ele>182.66666666666666</ele><time>2026-04-04T13:15:36.926Z</time></trkpt><trkpt lat="42.60392998283206" lon="12.563477200147366"><ele>182.33333333333331</ele><time>2026-04-04T13:15:38.925Z</time></trkpt><trkpt lat="42.60384339378157" lon="12.563433668827994"><ele>182.0</ele><time>2026-04-04T13:15:40.926Z</time></trkpt><trkpt lat="42.60376129050065" lon="12.563425299194742"><ele>182.0</ele><time>2026-04-04T13:15:41.926Z</time></trkpt><trkpt lat="42.60367434970719" lon="12.563428338605425"><ele>182.0</ele><time>2026-04-04T13:15:42.926Z</time></trkpt><trkpt lat="42.60358110260911" lon="12.563410353405544"><ele>182.0</ele><time>2026-04-04T13:15:43.926Z</time></trkpt><trkpt lat="42.603486576671315" lon="12.563404114219221"><ele>182.0</ele><time>2026-04-04T13:15:44.926Z</time></trkpt><trkpt lat="42.603391603089385" lon="12.56342098485138"><ele>182.0</ele><time>2026-04-04T13:15:45.926Z</time></trkpt><trkpt lat="42.60330106639811" lon="12.563389767775176"><ele>181.66666666666666</ele><time>2026-04-04T13:15:46.925Z</time></trkpt><trkpt lat="42.603216723361356" lon="12.563379962506984"><ele>181.33333333333331</ele><time>2026-04-04T13:15:47.926Z</time></trkpt><trkpt lat="42.60313949327292" lon="12.563371876339518"><ele>181.0</ele><time>2026-04-04T13:15:48.926Z</time></trkpt><trkpt lat="42.603052793334385" lon="12.563357097626689"><ele>180.66666666666666</ele><time>2026-04-04T13:15:49.925Z</time></trkpt><trkpt lat="42.602959035486684" lon="12.563358218812825"><ele>180.33333333333334</ele><time>2026-04-04T13:15:50.926Z</time></trkpt><trkpt lat="42.602865620731016" lon="12.563356219582376"><ele>180.0</ele><time>2026-04-04T13:15:51.926Z</time></trkpt><trkpt lat="42.60277891428218" lon="12.563352987279595"><ele>180.8</ele><time>2026-04-04T13:15:52.926Z</time></trkpt><trkpt lat="42.60268859611168" lon="12.563344782846901"><ele>181.6</ele><time>2026-04-04T13:15:53.926Z</time></trkpt><trkpt lat="42.602598982394184" lon="12.563348537770922"><ele>182.39999999999998</ele><time>2026-04-04T13:15:54.926Z</time></trkpt><trkpt lat="42.602578393723824" lon="12.563490847879999"><ele>183.2</ele><time>2026-04-04T13:15:55.926Z</time></trkpt><trkpt lat="42.60251167137753" lon="12.563541015941107"><ele>184.0</ele><time>2026-04-04T13:15:56.926Z</time></trkpt><trkpt lat="42.60239962941823" lon="12.563595121046228"><ele>184.0</ele><time>2026-04-04T13:15:58.926Z</time></trkpt><trkpt lat="42.6023197539315" lon="12.563609532839024"><ele>184.0</ele><time>2026-04-04T13:15:59.926Z</time></trkpt><trkpt lat="42.60221866582408" lon="12.56359064315826"><ele>184.0</ele><time>2026-04-04T13:16:00.926Z</time></trkpt><trkpt lat="42.60211355154894" lon="12.563562452361335"><ele>184.0</ele><time>2026-04-04T13:16:01.926Z</time></trkpt><trkpt lat="42.602012743294296" lon="12.563556075291546"><ele>184.0</ele><time>2026-04-04T13:16:02.926Z</time></trkpt><trkpt lat="42.601921191770785" lon="12.563548666482498"><ele>184.2</ele><time>2026-04-04T13:16:03.926Z</time></trkpt><trkpt lat="42.60182814145874" lon="12.563526099343894"><ele>184.39999999999998</ele><time>2026-04-04T13:16:04.926Z</time></trkpt><trkpt lat="42.60172948595357" lon="12.56351009235995"><ele>184.6</ele><time>2026-04-04T13:16:05.926Z</time></trkpt><trkpt lat="42.60162113984613" lon="12.563507282839876"><ele>184.8</ele><time>2026-04-04T13:16:06.926Z</time></trkpt><trkpt lat="42.6015097931813" lon="12.563498685512396"><ele>185.0</ele><time>2026-04-04T13:16:07.926Z</time></trkpt><trkpt lat="42.60139263768103" lon="12.563479516841985"><ele>185.0</ele><time>2026-04-04T13:16:08.926Z</time></trkpt><trkpt lat="42.60131197019697" lon="12.563460964003488"><ele>185.0</ele><time>2026-04-04T13:16:09.926Z</time></trkpt><trkpt lat="42.601212761393384" lon="12.563416329693906"><ele>185.0</ele><time>2026-04-04T13:16:10.926Z</time></trkpt><trkpt lat="42.60108695541223" lon="12.563362476993333"><ele>185.0</ele><time>2026-04-04T13:16:11.926Z</time></trkpt><trkpt lat="42.60094393385771" lon="12.56342228295523"><ele>184.66666666666666</ele><time>2026-04-04T13:16:12.926Z</time></trkpt><trkpt lat="42.60080923899989" lon="12.563450408403394"><ele>184.33333333333334</ele><time>2026-04-04T13:16:13.926Z</time></trkpt><trkpt lat="42.60065478505449" lon="12.56343990055577"><ele>184.0</ele><time>2026-04-04T13:16:14.926Z</time></trkpt><trkpt lat="42.600496352634224" lon="12.563471526378166"><ele>184.0</ele><time>2026-04-04T13:16:15.926Z</time></trkpt><trkpt lat="42.60033765237065" lon="12.563528848218153"><ele>184.0</ele><time>2026-04-04T13:16:16.926Z</time></trkpt><trkpt lat="42.600183260488286" lon="12.563624599541386"><ele>184.0</ele><time>2026-04-04T13:16:17.926Z</time></trkpt><trkpt lat="42.6000383161287" lon="12.563703024714911"><ele>181.0</ele><time>2026-04-04T13:16:18.926Z</time></trkpt><trkpt lat="42.59990229218452" lon="12.563779895874372"><ele>178.0</ele><time>2026-04-04T13:16:19.926Z</time></trkpt><trkpt lat="42.5997716820554" lon="12.563863403177955"><ele>175.0</ele><time>2026-04-04T13:16:20.926Z</time></trkpt><trkpt lat="42.599637150723865" lon="12.563939168578411"><ele>172.0</ele><time>2026-04-04T13:16:21.926Z</time></trkpt><trkpt lat="42.59950876268781" lon="12.563969944661386"><ele>171.25</ele><time>2026-04-04T13:16:22.926Z</time></trkpt><trkpt lat="42.5993735578037" lon="12.564006029599858"><ele>170.5</ele><time>2026-04-04T13:16:23.926Z</time></trkpt><trkpt lat="42.59923186442991" lon="12.564023525047288"><ele>169.75</ele><time>2026-04-04T13:16:24.926Z</time></trkpt><trkpt lat="42.599085633321444" lon="12.56401687353863"><ele>169.0</ele><time>2026-04-04T13:16:25.926Z</time></trkpt><trkpt lat="42.5989226309032" lon="12.564002556020098"><ele>169.0</ele><time>2026-04-04T13:16:26.926Z</time></trkpt><trkpt lat="42.59877188075037" lon="12.563982307227123"><ele>169.0</ele><time>2026-04-04T13:16:27.926Z</time></trkpt><trkpt lat="42.59862477541376" lon="12.563957721709283"><ele>169.0</ele><time>2026-04-04T13:16:28.926Z</time></trkpt><trkpt lat="42.598488517763464" lon="12.563933783476784"><ele>169.0</ele><time>2026-04-04T13:16:29.926Z</time></trkpt><trkpt lat="42.59835906589798" lon="12.563907359309097"><ele>168.5</ele><time>2026-04-04T13:16:30.926Z</time></trkpt><trkpt lat="42.59822621179736" lon="12.563900657326885"><ele>168.0</ele><time>2026-04-04T13:16:31.926Z</time></trkpt><trkpt lat="42.59809607913656" lon="12.563891731214218"><ele>167.5</ele><time>2026-04-04T13:16:32.926Z</time></trkpt><trkpt lat="42.59795533815524" lon="12.56391255838025"><ele>167.0</ele><time>2026-04-04T13:16:33.925Z</time></trkpt><trkpt lat="42.597812793845826" lon="12.563990621472852"><ele>165.66666666666666</ele><time>2026-04-04T13:16:34.925Z</time></trkpt><trkpt lat="42.59767188390196" lon="12.564116129764635"><ele>164.33333333333334</ele><time>2026-04-04T13:16:35.925Z</time></trkpt><trkpt lat="42.59753242096276" lon="12.564214692847258"><ele>163.0</ele><time>2026-04-04T13:16:36.925Z</time></trkpt><trkpt lat="42.59740616015708" lon="12.564320176092512"><ele>163.0</ele><time>2026-04-04T13:16:37.925Z</time></trkpt><trkpt lat="42.59730365454511" lon="12.564430997203159"><ele>163.0</ele><time>2026-04-04T13:16:38.925Z</time></trkpt><trkpt lat="42.59719299459557" lon="12.564498396190105"><ele>163.0</ele><time>2026-04-04T13:16:39.925Z</time></trkpt><trkpt lat="42.59710203553296" lon="12.564582961917726"><ele>163.0</ele><time>2026-04-04T13:16:40.925Z</time></trkpt><trkpt lat="42.59701807759744" lon="12.56466100830743"><ele>162.5</ele><time>2026-04-04T13:16:41.925Z</time></trkpt><trkpt lat="42.596930296518" lon="12.56473425488759"><ele>162.0</ele><time>2026-04-04T13:16:42.925Z</time></trkpt><trkpt lat="42.59683264340123" lon="12.564814841986244"><ele>161.5</ele><time>2026-04-04T13:16:43.925Z</time></trkpt><trkpt lat="42.59672806013017" lon="12.56490593003744"><ele>161.0</ele><time>2026-04-04T13:16:44.925Z</time></trkpt><trkpt lat="42.59662637214471" lon="12.56500510055228"><ele>161.0</ele><time>2026-04-04T13:16:45.925Z</time></trkpt><trkpt lat="42.596503315517445" lon="12.565088621486108"><ele>161.0</ele><time>2026-04-04T13:16:46.925Z</time></trkpt><trkpt lat="42.596384620693875" lon="12.56521498357632"><ele>161.0</ele><time>2026-04-04T13:16:47.925Z</time></trkpt><trkpt lat="42.596243547664" lon="12.565309719712099"><ele>161.0</ele><time>2026-04-04T13:16:48.925Z</time></trkpt><trkpt lat="42.596112146145806" lon="12.565422002097776"><ele>161.66666666666666</ele><time>2026-04-04T13:16:49.925Z</time></trkpt><trkpt lat="42.59597066950961" lon="12.565542893708544"><ele>162.33333333333334</ele><time>2026-04-04T13:16:50.925Z</time></trkpt><trkpt lat="42.59583876174006" lon="12.565654145133331"><ele>163.0</ele><time>2026-04-04T13:16:51.925Z</time></trkpt><trkpt lat="42.595714671583394" lon="12.56575823430679"><ele>163.0</ele><time>2026-04-04T13:16:52.925Z</time></trkpt><trkpt lat="42.595587970049834" lon="12.565863745923307"><ele>163.0</ele><time>2026-04-04T13:16:53.925Z</time></trkpt><trkpt lat="42.59546705313713" lon="12.56596460468432"><ele>163.0</ele><time>2026-04-04T13:16:54.925Z</time></trkpt><trkpt lat="42.59535194124261" lon="12.566085685407954"><ele>163.0</ele><time>2026-04-04T13:16:55.925Z</time></trkpt><trkpt lat="42.59521423216763" lon="12.566181290251299"><ele>162.75</ele><time>2026-04-04T13:16:56.925Z</time></trkpt><trkpt lat="42.59508279235504" lon="12.566292449877366"><ele>162.5</ele><time>2026-04-04T13:16:57.925Z</time></trkpt><trkpt lat="42.59496263831661" lon="12.566402098526977"><ele>162.25</ele><time>2026-04-04T13:16:58.925Z</time></trkpt><trkpt lat="42.59484307291974" lon="12.56651047269334"><ele>162.0</ele><time>2026-04-04T13:16:59.925Z</time></trkpt><trkpt lat="42.59472117685867" lon="12.566625763605407"><ele>162.0</ele><time>2026-04-04T13:17:00.925Z</time></trkpt><trkpt lat="42.594593437429296" lon="12.566705254808344"><ele>162.0</ele><time>2026-04-04T13:17:01.925Z</time></trkpt><trkpt lat="42.594454372971896" lon="12.56683954616562"><ele>162.0</ele><time>2026-04-04T13:17:02.925Z</time></trkpt><trkpt lat="42.59431011869453" lon="12.566971334191225"><ele>161.66666666666666</ele><time>2026-04-04T13:17:03.925Z</time></trkpt><trkpt lat="42.59415097622238" lon="12.567079563615664"><ele>161.33333333333331</ele><time>2026-04-04T13:17:04.925Z</time></trkpt><trkpt lat="42.59400492433833" lon="12.567224474697614"><ele>161.0</ele><time>2026-04-04T13:17:05.925Z</time></trkpt><trkpt lat="42.59386449163351" lon="12.567344363305617"><ele>161.0</ele><time>2026-04-04T13:17:06.925Z</time></trkpt><trkpt lat="42.593727929786716" lon="12.56745732320577"><ele>161.0</ele><time>2026-04-04T13:17:07.925Z</time></trkpt><trkpt lat="42.593579342520535" lon="12.567559913458721"><ele>161.0</ele><time>2026-04-04T13:17:08.925Z</time></trkpt><trkpt lat="42.59344593584573" lon="12.567697202864712"><ele>161.0</ele><time>2026-04-04T13:17:09.925Z</time></trkpt><trkpt lat="42.59330420460479" lon="12.567788683977836"><ele>161.0</ele><time>2026-04-04T13:17:10.925Z</time></trkpt><trkpt lat="42.59319131529861" lon="12.567898109933656"><ele>161.0</ele><time>2026-04-04T13:17:11.925Z</time></trkpt><trkpt lat="42.59308483661855" lon="12.568002618773347"><ele>161.0</ele><time>2026-04-04T13:17:12.925Z</time></trkpt><trkpt lat="42.59299338404256" lon="12.568102873692483"><ele>161.0</ele><time>2026-04-04T13:17:13.925Z</time></trkpt><trkpt lat="42.59289804421031" lon="12.568193200629539"><ele>161.0</ele><time>2026-04-04T13:17:14.925Z</time></trkpt><trkpt lat="42.592795527770704" lon="12.568228210272167"><ele>161.0</ele><time>2026-04-04T13:17:15.925Z</time></trkpt><trkpt lat="42.59269438448094" lon="12.568257573529783"><ele>161.0</ele><time>2026-04-04T13:17:16.925Z</time></trkpt><trkpt lat="42.59260218687523" lon="12.56826450753659"><ele>161.0</ele><time>2026-04-04T13:17:17.925Z</time></trkpt><trkpt lat="42.59252965173911" lon="12.56825260893944"><ele>159.66666666666666</ele><time>2026-04-04T13:17:18.925Z</time></trkpt><trkpt lat="42.59246730294942" lon="12.568237560111168"><ele>158.33333333333331</ele><time>2026-04-04T13:17:19.925Z</time></trkpt><trkpt lat="42.59238244285238" lon="12.568231081569234"><ele>157.0</ele><time>2026-04-04T13:17:21.925Z</time></trkpt><trkpt lat="42.592316675425096" lon="12.568268419084255"><ele>155.66666666666666</ele><time>2026-04-04T13:17:26.925Z</time></trkpt><trkpt lat="42.592310953722446" lon="12.568390816981273"><ele>154.33333333333334</ele><time>2026-04-04T13:17:27.925Z</time></trkpt><trkpt lat="42.59230203984648" lon="12.568538666860375"><ele>153.0</ele><time>2026-04-04T13:17:28.925Z</time></trkpt><trkpt lat="42.5923024383333" lon="12.568678250972166"><ele>154.0</ele><time>2026-04-04T13:17:29.925Z</time></trkpt><trkpt lat="42.59230699383891" lon="12.568843795464115"><ele>155.0</ele><time>2026-04-04T13:17:30.925Z</time></trkpt><trkpt lat="42.592304467081284" lon="12.568999335743698"><ele>156.0</ele><time>2026-04-04T13:17:31.925Z</time></trkpt><trkpt lat="42.592299369629046" lon="12.569158117410316"><ele>157.0</ele><time>2026-04-04T13:17:32.925Z</time></trkpt><trkpt lat="42.59229337555203" lon="12.569315555594793"><ele>157.0</ele><time>2026-04-04T13:17:33.925Z</time></trkpt><trkpt lat="42.59228333896305" lon="12.569487117210343"><ele>157.0</ele><time>2026-04-04T13:17:34.925Z</time></trkpt><trkpt lat="42.59225686692289" lon="12.569654379369174"><ele>157.0</ele><time>2026-04-04T13:17:35.925Z</time></trkpt><trkpt lat="42.59219569966255" lon="12.569851375183978"><ele>157.0</ele><time>2026-04-04T13:17:36.925Z</time></trkpt><trkpt lat="42.592128645005545" lon="12.570050149394167"><ele>157.33333333333334</ele><time>2026-04-04T13:17:37.925Z</time></trkpt><trkpt lat="42.59205535918787" lon="12.570257397702536"><ele>157.66666666666666</ele><time>2026-04-04T13:17:38.925Z</time></trkpt><trkpt lat="42.5919935778814" lon="12.570444310901564"><ele>158.0</ele><time>2026-04-04T13:17:39.925Z</time></trkpt><trkpt lat="42.59193646253874" lon="12.570611777003467"><ele>157.25</ele><time>2026-04-04T13:17:40.925Z</time></trkpt><trkpt lat="42.59187264148897" lon="12.57078144362736"><ele>156.5</ele><time>2026-04-04T13:17:41.925Z</time></trkpt><trkpt lat="42.59180655250747" lon="12.570951090504732"><ele>155.75</ele><time>2026-04-04T13:17:42.925Z</time></trkpt><trkpt lat="42.59174002481713" lon="12.571126485462377"><ele>155.0</ele><time>2026-04-04T13:17:43.924Z</time></trkpt><trkpt lat="42.5916817135065" lon="12.57133938718294"><ele>155.0</ele><time>2026-04-04T13:17:44.925Z</time></trkpt><trkpt lat="42.59161073121654" lon="12.571550530740037"><ele>155.0</ele><time>2026-04-04T13:17:45.925Z</time></trkpt><trkpt lat="42.591556409887716" lon="12.571740220820464"><ele>155.0</ele><time>2026-04-04T13:17:46.925Z</time></trkpt><trkpt lat="42.59151400364875" lon="12.571915849934223"><ele>154.5</ele><time>2026-04-04T13:17:47.924Z</time></trkpt><trkpt lat="42.59147026768007" lon="12.572075577778373"><ele>154.0</ele><time>2026-04-04T13:17:48.924Z</time></trkpt><trkpt lat="42.591430445754135" lon="12.572229723869349"><ele>153.5</ele><time>2026-04-04T13:17:49.925Z</time></trkpt><trkpt lat="42.59139338907501" lon="12.572377256553692"><ele>153.0</ele><time>2026-04-04T13:17:50.924Z</time></trkpt><trkpt lat="42.59133848840559" lon="12.572504833849194"><ele>153.0</ele><time>2026-04-04T13:17:51.924Z</time></trkpt><trkpt lat="42.59130413452577" lon="12.572628034966892"><ele>153.0</ele><time>2026-04-04T13:17:52.924Z</time></trkpt><trkpt lat="42.59127472885003" lon="12.572733420395089"><ele>153.0</ele><time>2026-04-04T13:17:53.924Z</time></trkpt><trkpt lat="42.59125026425703" lon="12.57282107324722"><ele>153.0</ele><time>2026-04-04T13:17:54.924Z</time></trkpt><trkpt lat="42.591275352840384" lon="12.572916860371123"><ele>153.0</ele><time>2026-04-04T13:17:55.924Z</time></trkpt><trkpt lat="42.59132370332367" lon="12.572993114054839"><ele>153.0</ele><time>2026-04-04T13:17:57.924Z</time></trkpt><trkpt lat="42.59129079664459" lon="12.573084205417192"><ele>153.20000000000002</ele><time>2026-04-04T13:20:48.922Z</time></trkpt><trkpt lat="42.591191057222126" lon="12.573033212706509"><ele>153.4</ele><time>2026-04-04T13:20:49.922Z</time></trkpt><trkpt lat="42.59130086304983" lon="12.5730705315124"><ele>153.60000000000002</ele><time>2026-04-04T13:21:05.922Z</time></trkpt><trkpt lat="42.591273076595385" lon="12.57315174393095"><ele>153.8</ele><time>2026-04-04T13:21:50.922Z</time></trkpt><trkpt lat="42.591211477803625" lon="12.57317785878502"><ele>154.0</ele><time>2026-04-04T13:21:54.922Z</time></trkpt><trkpt lat="42.591130529804936" lon="12.573308173170727"><ele>153.4</ele><time>2026-04-04T13:21:56.922Z</time></trkpt><trkpt lat="42.591097759552646" lon="12.573413905891476"><ele>152.8</ele><time>2026-04-04T13:21:57.922Z</time></trkpt><trkpt lat="42.591061993755545" lon="12.573544615858232"><ele>152.2</ele><time>2026-04-04T13:21:58.921Z</time></trkpt><trkpt lat="42.59102735792788" lon="12.573686223934358"><ele>151.6</ele><time>2026-04-04T13:21:59.922Z</time></trkpt><trkpt lat="42.59098708153945" lon="12.573837224667137"><ele>151.0</ele><time>2026-04-04T13:22:00.922Z</time></trkpt><trkpt lat="42.59093736342928" lon="12.573996217927988"><ele>151.0</ele><time>2026-04-04T13:22:01.921Z</time></trkpt><trkpt lat="42.59089201865568" lon="12.574168224536747"><ele>151.0</ele><time>2026-04-04T13:22:02.922Z</time></trkpt><trkpt lat="42.59083892464673" lon="12.574334797717176"><ele>151.0</ele><time>2026-04-04T13:22:03.922Z</time></trkpt><trkpt lat="42.59075292738914" lon="12.57448814235212"><ele>151.0</ele><time>2026-04-04T13:22:04.922Z</time></trkpt><trkpt lat="42.590709549622645" lon="12.57464450230435"><ele>151.5</ele><time>2026-04-04T13:22:05.921Z</time></trkpt><trkpt lat="42.59066627946647" lon="12.574806994630581"><ele>152.0</ele><time>2026-04-04T13:22:06.921Z</time></trkpt><trkpt lat="42.5906275025174" lon="12.574976538863218"><ele>152.5</ele><time>2026-04-04T13:22:07.922Z</time></trkpt><trkpt lat="42.590596294335114" lon="12.575149512452183"><ele>153.0</ele><time>2026-04-04T13:22:08.922Z</time></trkpt><trkpt lat="42.590574102550875" lon="12.575326074608792"><ele>153.25</ele><time>2026-04-04T13:22:09.922Z</time></trkpt><trkpt lat="42.590571550202405" lon="12.57550921820347"><ele>153.5</ele><time>2026-04-04T13:22:10.922Z</time></trkpt><trkpt lat="42.590551424599695" lon="12.575684947730382"><ele>153.75</ele><time>2026-04-04T13:22:11.922Z</time></trkpt><trkpt lat="42.59052882215617" lon="12.575857114322753"><ele>154.0</ele><time>2026-04-04T13:22:12.921Z</time></trkpt><trkpt lat="42.59051113379649" lon="12.576014748814647"><ele>154.0</ele><time>2026-04-04T13:22:13.921Z</time></trkpt><trkpt lat="42.59049973062332" lon="12.57614782077431"><ele>154.0</ele><time>2026-04-04T13:22:14.921Z</time></trkpt><trkpt lat="42.590490527215714" lon="12.576290419571118"><ele>154.0</ele><time>2026-04-04T13:22:15.921Z</time></trkpt><trkpt lat="42.590478455884536" lon="12.57645026869945"><ele>154.0</ele><time>2026-04-04T13:22:16.921Z</time></trkpt><trkpt lat="42.59047298705581" lon="12.576607028137992"><ele>154.0</ele><time>2026-04-04T13:22:17.921Z</time></trkpt><trkpt lat="42.590469596061396" lon="12.57676742713111"><ele>154.0</ele><time>2026-04-04T13:22:18.921Z</time></trkpt><trkpt lat="42.59046877209308" lon="12.576923071419708"><ele>154.0</ele><time>2026-04-04T13:22:19.921Z</time></trkpt><trkpt lat="42.59045951779105" lon="12.57706937289522"><ele>154.0</ele><time>2026-04-04T13:22:20.921Z</time></trkpt><trkpt lat="42.59045210821648" lon="12.577212562439382"><ele>154.0</ele><time>2026-04-04T13:22:21.921Z</time></trkpt><trkpt lat="42.590445052979575" lon="12.57735236958714"><ele>154.0</ele><time>2026-04-04T13:22:22.921Z</time></trkpt><trkpt lat="42.590438370526314" lon="12.577499506759045"><ele>154.0</ele><time>2026-04-04T13:22:23.921Z</time></trkpt><trkpt lat="42.590422044344876" lon="12.577644055513836"><ele>154.0</ele><time>2026-04-04T13:22:24.921Z</time></trkpt><trkpt lat="42.59040904431874" lon="12.577786667215188"><ele>154.0</ele><time>2026-04-04T13:22:25.921Z</time></trkpt><trkpt lat="42.59039695255926" lon="12.57793043492283"><ele>154.0</ele><time>2026-04-04T13:22:26.921Z</time></trkpt><trkpt lat="42.59038224017704" lon="12.578076545732099"><ele>154.0</ele><time>2026-04-04T13:22:27.921Z</time></trkpt><trkpt lat="42.590381366608064" lon="12.578227292759733"><ele>153.75</ele><time>2026-04-04T13:22:28.921Z</time></trkpt><trkpt lat="42.59038713100634" lon="12.578393946724695"><ele>153.5</ele><time>2026-04-04T13:22:29.921Z</time></trkpt><trkpt lat="42.590373295546506" lon="12.578587503336768"><ele>153.25</ele><time>2026-04-04T13:22:30.921Z</time></trkpt><trkpt lat="42.59034628730375" lon="12.57880193426045"><ele>153.0</ele><time>2026-04-04T13:22:31.921Z</time></trkpt><trkpt lat="42.59032535969388" lon="12.578997871946838"><ele>152.75</ele><time>2026-04-04T13:22:32.921Z</time></trkpt><trkpt lat="42.59029430040733" lon="12.579162870720916"><ele>152.5</ele><time>2026-04-04T13:22:33.921Z</time></trkpt><trkpt lat="42.590268947297425" lon="12.579321128763764"><ele>152.25</ele><time>2026-04-04T13:22:34.921Z</time></trkpt><trkpt lat="42.590268342503116" lon="12.579477375798406"><ele>152.0</ele><time>2026-04-04T13:22:35.921Z</time></trkpt><trkpt lat="42.590249285976284" lon="12.57962221979077"><ele>153.0</ele><time>2026-04-04T13:22:36.921Z</time></trkpt><trkpt lat="42.59025521643923" lon="12.579761817601812"><ele>154.0</ele><time>2026-04-04T13:22:37.921Z</time></trkpt><trkpt lat="42.59027405186432" lon="12.579922453458238"><ele>155.0</ele><time>2026-04-04T13:22:38.921Z</time></trkpt><trkpt lat="42.590265589163494" lon="12.580077814465294"><ele>156.0</ele><time>2026-04-04T13:22:39.921Z</time></trkpt><trkpt lat="42.590253070527915" lon="12.580237514347084"><ele>156.5</ele><time>2026-04-04T13:22:40.921Z</time></trkpt><trkpt lat="42.59024591988782" lon="12.580408293497422"><ele>157.0</ele><time>2026-04-04T13:22:41.921Z</time></trkpt><trkpt lat="42.590239239663475" lon="12.580590118125912"><ele>157.5</ele><time>2026-04-04T13:22:42.921Z</time></trkpt><trkpt lat="42.59023126327942" lon="12.580772916501406"><ele>158.0</ele><time>2026-04-04T13:22:43.921Z</time></trkpt><trkpt lat="42.59021959399788" lon="12.58096966537608"><ele>158.0</ele><time>2026-04-04T13:22:44.921Z</time></trkpt><trkpt lat="42.5902112368598" lon="12.581192377103154"><ele>158.0</ele><time>2026-04-04T13:22:45.921Z</time></trkpt><trkpt lat="42.59018626077241" lon="12.58139128442232"><ele>158.0</ele><time>2026-04-04T13:22:46.921Z</time></trkpt><trkpt lat="42.59017439804075" lon="12.581570832326147"><ele>158.0</ele><time>2026-04-04T13:22:47.921Z</time></trkpt><trkpt lat="42.59020246097264" lon="12.581750612649884"><ele>158.0</ele><time>2026-04-04T13:22:48.921Z</time></trkpt><trkpt lat="42.59019618584754" lon="12.581922020629465"><ele>158.0</ele><time>2026-04-04T13:22:49.921Z</time></trkpt><trkpt lat="42.59019741693465" lon="12.582073006906533"><ele>158.0</ele><time>2026-04-04T13:22:50.921Z</time></trkpt><trkpt lat="42.59020333439744" lon="12.582201757521988"><ele>158.0</ele><time>2026-04-04T13:22:51.921Z</time></trkpt><trkpt lat="42.5901260064599" lon="12.582310634038079"><ele>158.0</ele><time>2026-04-04T13:22:52.921Z</time></trkpt><trkpt lat="42.59019481046737" lon="12.582490005668285"><ele>158.25</ele><time>2026-04-04T13:22:53.921Z</time></trkpt><trkpt lat="42.59018134248765" lon="12.582675532496713"><ele>158.5</ele><time>2026-04-04T13:22:54.921Z</time></trkpt><trkpt lat="42.590169487753805" lon="12.582844897882936"><ele>158.75</ele><time>2026-04-04T13:22:55.921Z</time></trkpt><trkpt lat="42.59014913517062" lon="12.583014929350252"><ele>159.0</ele><time>2026-04-04T13:22:56.921Z</time></trkpt><trkpt lat="42.59006287746803" lon="12.583182756948384"><ele>159.5</ele><time>2026-04-04T13:22:57.921Z</time></trkpt><trkpt lat="42.59005111532162" lon="12.583369142427834"><ele>160.0</ele><time>2026-04-04T13:22:58.921Z</time></trkpt><trkpt lat="42.59004532480133" lon="12.583560899443722"><ele>160.5</ele><time>2026-04-04T13:22:59.921Z</time></trkpt><trkpt lat="42.590049675297436" lon="12.583737533119239"><ele>161.0</ele><time>2026-04-04T13:23:00.921Z</time></trkpt><trkpt lat="42.59005685281602" lon="12.583894526317271"><ele>161.20000000000002</ele><time>2026-04-04T13:23:01.921Z</time></trkpt><trkpt lat="42.590062949266304" lon="12.584018738416905"><ele>161.4</ele><time>2026-04-04T13:23:02.921Z</time></trkpt><trkpt lat="42.59007064307852" lon="12.584158441453924"><ele>161.6</ele><time>2026-04-04T13:23:03.921Z</time></trkpt><trkpt lat="42.59007930854828" lon="12.58431292690506"><ele>161.8</ele><time>2026-04-04T13:23:04.921Z</time></trkpt><trkpt lat="42.590088634318576" lon="12.584476810110802"><ele>162.0</ele><time>2026-04-04T13:23:05.921Z</time></trkpt><trkpt lat="42.59010015925268" lon="12.584630690032688"><ele>162.0</ele><time>2026-04-04T13:23:06.921Z</time></trkpt><trkpt lat="42.590115768479166" lon="12.584767794123014"><ele>162.0</ele><time>2026-04-04T13:23:07.921Z</time></trkpt><trkpt lat="42.59013672515691" lon="12.584906529048471"><ele>162.0</ele><time>2026-04-04T13:23:08.921Z</time></trkpt><trkpt lat="42.5901640353064" lon="12.585046250341774"><ele>162.0</ele><time>2026-04-04T13:23:09.921Z</time></trkpt><trkpt lat="42.59019291569464" lon="12.58517586285166"><ele>162.0</ele><time>2026-04-04T13:23:10.921Z</time></trkpt><trkpt lat="42.590226587866304" lon="12.585304336242334"><ele>161.83333333333334</ele><time>2026-04-04T13:23:11.921Z</time></trkpt><trkpt lat="42.5902555411082" lon="12.585436272370314"><ele>161.66666666666666</ele><time>2026-04-04T13:23:12.921Z</time></trkpt><trkpt lat="42.59027824866055" lon="12.585547818041535"><ele>161.5</ele><time>2026-04-04T13:23:13.921Z</time></trkpt><trkpt lat="42.590299084367366" lon="12.58565643541803"><ele>161.33333333333331</ele><time>2026-04-04T13:23:14.921Z</time></trkpt><trkpt lat="42.59031981243662" lon="12.585771629829736"><ele>161.16666666666666</ele><time>2026-04-04T13:23:15.921Z</time></trkpt><trkpt lat="42.59033903141721" lon="12.585886598098845"><ele>161.0</ele><time>2026-04-04T13:23:16.921Z</time></trkpt><trkpt lat="42.590356672556155" lon="12.586008004828296"><ele>162.0</ele><time>2026-04-04T13:23:17.921Z</time></trkpt><trkpt lat="42.59037257929962" lon="12.586135718032704"><ele>163.0</ele><time>2026-04-04T13:23:18.921Z</time></trkpt><trkpt lat="42.59038668438504" lon="12.58625084248669"><ele>164.0</ele><time>2026-04-04T13:23:19.921Z</time></trkpt><trkpt lat="42.59039999336396" lon="12.586365806487747"><ele>165.0</ele><time>2026-04-04T13:23:20.921Z</time></trkpt><trkpt lat="42.590409920851585" lon="12.586485565785344"><ele>166.0</ele><time>2026-04-04T13:23:21.921Z</time></trkpt><trkpt lat="42.590417808269486" lon="12.5866077025578"><ele>167.0</ele><time>2026-04-04T13:23:22.921Z</time></trkpt><trkpt lat="42.59042190056125" lon="12.586733487219039"><ele>167.0</ele><time>2026-04-04T13:23:23.921Z</time></trkpt><trkpt lat="42.59042713291908" lon="12.586860310864353"><ele>167.0</ele><time>2026-04-04T13:23:24.921Z</time></trkpt><trkpt lat="42.590432351823246" lon="12.586987913775195"><ele>167.0</ele><time>2026-04-04T13:23:25.921Z</time></trkpt><trkpt lat="42.59043763108375" lon="12.587120309407492"><ele>167.0</ele><time>2026-04-04T13:23:26.921Z</time></trkpt><trkpt lat="42.590442907990244" lon="12.587252584012635"><ele>167.0</ele><time>2026-04-04T13:23:27.921Z</time></trkpt><trkpt lat="42.59044859732735" lon="12.587384368241613"><ele>167.0</ele><time>2026-04-04T13:23:28.921Z</time></trkpt><trkpt lat="42.59045625117462" lon="12.587526618161723"><ele>167.0</ele><time>2026-04-04T13:23:29.921Z</time></trkpt><trkpt lat="42.59048225158998" lon="12.587673411048925"><ele>167.0</ele><time>2026-04-04T13:23:30.921Z</time></trkpt><trkpt lat="42.59049703714663" lon="12.587808135005842"><ele>167.0</ele><time>2026-04-04T13:23:31.92Z</time></trkpt><trkpt lat="42.59051171966159" lon="12.587939392444085"><ele>167.0</ele><time>2026-04-04T13:23:32.92Z</time></trkpt><trkpt lat="42.59052159318333" lon="12.588066934976945"><ele>167.0</ele><time>2026-04-04T13:23:33.92Z</time></trkpt><trkpt lat="42.590541574122646" lon="12.588208071625095"><ele>167.0</ele><time>2026-04-04T13:23:34.92Z</time></trkpt><trkpt lat="42.59057397926048" lon="12.588357984293507"><ele>167.0</ele><time>2026-04-04T13:23:35.92Z</time></trkpt><trkpt lat="42.59061259325219" lon="12.588503800197103"><ele>167.0</ele><time>2026-04-04T13:23:36.92Z</time></trkpt><trkpt lat="42.59066069348755" lon="12.588642125226077"><ele>167.0</ele><time>2026-04-04T13:23:37.92Z</time></trkpt><trkpt lat="42.59071181119154" lon="12.588780358706597"><ele>167.25</ele><time>2026-04-04T13:23:38.92Z</time></trkpt><trkpt lat="42.590771119542644" lon="12.588918140622628"><ele>167.5</ele><time>2026-04-04T13:23:39.92Z</time></trkpt><trkpt lat="42.59082332403347" lon="12.589051899865577"><ele>167.75</ele><time>2026-04-04T13:23:40.92Z</time></trkpt><trkpt lat="42.590873810985066" lon="12.589187114185082"><ele>168.0</ele><time>2026-04-04T13:23:41.92Z</time></trkpt><trkpt lat="42.59092370401087" lon="12.589325234810678"><ele>168.0</ele><time>2026-04-04T13:23:42.92Z</time></trkpt><trkpt lat="42.59097654323884" lon="12.58946374297891"><ele>168.0</ele><time>2026-04-04T13:23:43.92Z</time></trkpt><trkpt lat="42.5910228374589" lon="12.589606329714305"><ele>168.0</ele><time>2026-04-04T13:23:44.92Z</time></trkpt><trkpt lat="42.5910640288262" lon="12.589753344443839"><ele>168.0</ele><time>2026-04-04T13:23:45.92Z</time></trkpt><trkpt lat="42.59109530394729" lon="12.589902794884"><ele>168.0</ele><time>2026-04-04T13:23:46.92Z</time></trkpt><trkpt lat="42.591111228561196" lon="12.59006402561022"><ele>168.0</ele><time>2026-04-04T13:23:47.92Z</time></trkpt><trkpt lat="42.59111160369237" lon="12.590230036384044"><ele>168.0</ele><time>2026-04-04T13:23:48.92Z</time></trkpt><trkpt lat="42.59110637743547" lon="12.590416047826501"><ele>168.0</ele><time>2026-04-04T13:23:49.92Z</time></trkpt><trkpt lat="42.591103445106064" lon="12.590602541918173"><ele>168.0</ele><time>2026-04-04T13:23:50.92Z</time></trkpt><trkpt lat="42.591103766932186" lon="12.59078013807273"><ele>168.0</ele><time>2026-04-04T13:23:51.92Z</time></trkpt><trkpt lat="42.59109990941193" lon="12.590955304304321"><ele>168.0</ele><time>2026-04-04T13:23:52.92Z</time></trkpt><trkpt lat="42.59109851424355" lon="12.591122797418251"><ele>168.0</ele><time>2026-04-04T13:23:53.92Z</time></trkpt><trkpt lat="42.59108896981496" lon="12.591286926802292"><ele>168.0</ele><time>2026-04-04T13:23:54.92Z</time></trkpt><trkpt lat="42.591055817395194" lon="12.591456899531504"><ele>168.0</ele><time>2026-04-04T13:23:55.92Z</time></trkpt><trkpt lat="42.59103735061442" lon="12.591628643308267"><ele>168.0</ele><time>2026-04-04T13:23:56.92Z</time></trkpt><trkpt lat="42.591027788353806" lon="12.591800575576876"><ele>168.0</ele><time>2026-04-04T13:23:57.92Z</time></trkpt><trkpt lat="42.59102115064159" lon="12.59196372070242"><ele>167.75</ele><time>2026-04-04T13:23:58.92Z</time></trkpt><trkpt lat="42.59101954531539" lon="12.5921313776211"><ele>167.5</ele><time>2026-04-04T13:23:59.92Z</time></trkpt><trkpt lat="42.5910228839531" lon="12.592300208590299"><ele>167.25</ele><time>2026-04-04T13:24:00.92Z</time></trkpt><trkpt lat="42.591023737031186" lon="12.592463937527825"><ele>167.0</ele><time>2026-04-04T13:24:01.919Z</time></trkpt><trkpt lat="42.59101929259429" lon="12.592629190289761"><ele>167.0</ele><time>2026-04-04T13:24:02.919Z</time></trkpt><trkpt lat="42.591009944932864" lon="12.592787868820915"><ele>167.0</ele><time>2026-04-04T13:24:03.919Z</time></trkpt><trkpt lat="42.5909902950904" lon="12.59294489599312"><ele>167.0</ele><time>2026-04-04T13:24:04.919Z</time></trkpt><trkpt lat="42.59099485042279" lon="12.593108954825304"><ele>167.0</ele><time>2026-04-04T13:24:05.919Z</time></trkpt><trkpt lat="42.59099809770976" lon="12.593273282393804"><ele>167.0</ele><time>2026-04-04T13:24:06.919Z</time></trkpt><trkpt lat="42.590989501989895" lon="12.593425504256835"><ele>167.0</ele><time>2026-04-04T13:24:07.919Z</time></trkpt><trkpt lat="42.59097895511257" lon="12.593572895178143"><ele>167.0</ele><time>2026-04-04T13:24:08.919Z</time></trkpt><trkpt lat="42.5909759339827" lon="12.593704323686637"><ele>167.0</ele><time>2026-04-04T13:24:09.919Z</time></trkpt><trkpt lat="42.59098670588198" lon="12.593812227642395"><ele>167.0</ele><time>2026-04-04T13:24:10.919Z</time></trkpt><trkpt lat="42.59098987336552" lon="12.593898259080877"><ele>166.66666666666666</ele><time>2026-04-04T13:24:11.918Z</time></trkpt><trkpt lat="42.59097525985743" lon="12.594028266523"><ele>166.33333333333331</ele><time>2026-04-04T13:24:13.919Z</time></trkpt><trkpt lat="42.590890420892045" lon="12.594126589918373"><ele>166.0</ele><time>2026-04-04T13:24:15.919Z</time></trkpt><trkpt lat="42.590819900878266" lon="12.594161963365949"><ele>165.66666666666666</ele><time>2026-04-04T13:24:16.919Z</time></trkpt><trkpt lat="42.59075088355396" lon="12.59420348773518"><ele>165.33333333333334</ele><time>2026-04-04T13:24:17.919Z</time></trkpt><trkpt lat="42.59068824260805" lon="12.594251741333744"><ele>165.0</ele><time>2026-04-04T13:24:18.919Z</time></trkpt><trkpt lat="42.59063261108041" lon="12.594309952819613"><ele>165.0</ele><time>2026-04-04T13:24:19.919Z</time></trkpt><trkpt lat="42.59057860150015" lon="12.59436876038846"><ele>165.0</ele><time>2026-04-04T13:24:20.919Z</time></trkpt><trkpt lat="42.590534587489486" lon="12.594431235112353"><ele>165.0</ele><time>2026-04-04T13:24:21.919Z</time></trkpt><trkpt lat="42.5904516273939" lon="12.594536526329659"><ele>165.0</ele><time>2026-04-04T13:24:23.919Z</time></trkpt><trkpt lat="42.590421197060245" lon="12.594621176493266"><ele>165.0</ele><time>2026-04-04T13:24:24.919Z</time></trkpt><trkpt lat="42.59040012011304" lon="12.594713933540056"><ele>165.0</ele><time>2026-04-04T13:24:25.919Z</time></trkpt><trkpt lat="42.59037906868578" lon="12.594811282840906"><ele>164.66666666666666</ele><time>2026-04-04T13:24:26.919Z</time></trkpt><trkpt lat="42.59037660619351" lon="12.594910850571798"><ele>164.33333333333334</ele><time>2026-04-04T13:24:27.919Z</time></trkpt><trkpt lat="42.59034546940843" lon="12.59500139883595"><ele>164.0</ele><time>2026-04-04T13:24:28.919Z</time></trkpt><trkpt lat="42.59031380039102" lon="12.595088760266496"><ele>163.66666666666669</ele><time>2026-04-04T13:24:29.919Z</time></trkpt><trkpt lat="42.590275638096614" lon="12.595163674359167"><ele>163.33333333333334</ele><time>2026-04-04T13:24:30.919Z</time></trkpt><trkpt lat="42.590237264559406" lon="12.595237577662445"><ele>163.0</ele><time>2026-04-04T13:24:31.919Z</time></trkpt><trkpt lat="42.5901678489007" lon="12.595340083557122"><ele>162.60000000000002</ele><time>2026-04-04T13:24:33.919Z</time></trkpt><trkpt lat="42.590063107300224" lon="12.59540588237984"><ele>162.20000000000002</ele><time>2026-04-04T13:24:35.919Z</time></trkpt><trkpt lat="42.58999178108228" lon="12.595465817833922"><ele>161.8</ele><time>2026-04-04T13:24:36.919Z</time></trkpt><trkpt lat="42.589932240064506" lon="12.595522162242625"><ele>161.4</ele><time>2026-04-04T13:24:37.919Z</time></trkpt><trkpt lat="42.589827965403" lon="12.595623963433141"><ele>161.0</ele><time>2026-04-04T13:24:39.919Z</time></trkpt><trkpt lat="42.58977167310705" lon="12.595667082759526"><ele>161.0</ele><time>2026-04-04T13:24:40.919Z</time></trkpt><trkpt lat="42.58967967651931" lon="12.595749000145386"><ele>161.0</ele><time>2026-04-04T13:24:42.919Z</time></trkpt><trkpt lat="42.5895876556862" lon="12.595802002057916"><ele>161.0</ele><time>2026-04-04T13:24:44.919Z</time></trkpt><trkpt lat="42.589460666098404" lon="12.595866824950619"><ele>161.0</ele><time>2026-04-04T13:24:46.919Z</time></trkpt><trkpt lat="42.58938809341028" lon="12.595890280613457"><ele>161.0</ele><time>2026-04-04T13:24:47.919Z</time></trkpt><trkpt lat="42.58931246514744" lon="12.595913399938578"><ele>160.71428571428572</ele><time>2026-04-04T13:24:48.919Z</time></trkpt><trkpt lat="42.58925005471104" lon="12.595930246787109"><ele>160.42857142857144</ele><time>2026-04-04T13:24:49.919Z</time></trkpt><trkpt lat="42.58918469741351" lon="12.595949090451036"><ele>160.14285714285714</ele><time>2026-04-04T13:24:50.918Z</time></trkpt><trkpt lat="42.58912004984048" lon="12.59596630809997"><ele>159.85714285714286</ele><time>2026-04-04T13:24:51.918Z</time></trkpt><trkpt lat="42.58904435123711" lon="12.59598592047933"><ele>159.57142857142858</ele><time>2026-04-04T13:24:52.918Z</time></trkpt><trkpt lat="42.58899557160387" lon="12.59606171254185"><ele>159.28571428571428</ele><time>2026-04-04T13:24:53.918Z</time></trkpt><trkpt lat="42.58892328781555" lon="12.596122586172559"><ele>159.0</ele><time>2026-04-04T13:24:54.918Z</time></trkpt><trkpt lat="42.58886384736144" lon="12.5961976368472"><ele>159.0</ele><time>2026-04-04T13:24:55.918Z</time></trkpt><trkpt lat="42.58880276911129" lon="12.596270109294887"><ele>159.0</ele><time>2026-04-04T13:24:56.918Z</time></trkpt><trkpt lat="42.58874254957957" lon="12.596333285275598"><ele>159.0</ele><time>2026-04-04T13:24:57.918Z</time></trkpt><trkpt lat="42.588652087228176" lon="12.59641899143989"><ele>159.0</ele><time>2026-04-04T13:24:59.918Z</time></trkpt><trkpt lat="42.58857378456888" lon="12.596489603042555"><ele>159.0</ele><time>2026-04-04T13:25:01.918Z</time></trkpt><trkpt lat="42.58848830621379" lon="12.596550263951489"><ele>159.0</ele><time>2026-04-04T13:25:03.918Z</time></trkpt><trkpt lat="42.5884068187382" lon="12.596631618684034"><ele>159.0</ele><time>2026-04-04T13:25:05.918Z</time></trkpt><trkpt lat="42.5883300079665" lon="12.596698950498583"><ele>159.0</ele><time>2026-04-04T13:25:07.918Z</time></trkpt><trkpt lat="42.58825197585206" lon="12.596784678035153"><ele>159.0</ele><time>2026-04-04T13:25:09.918Z</time></trkpt><trkpt lat="42.5881949305308" lon="12.596909427192346"><ele>159.0</ele><time>2026-04-04T13:25:11.918Z</time></trkpt><trkpt lat="42.588143484024435" lon="12.597052362402366"><ele>159.0</ele><time>2026-04-04T13:25:13.918Z</time></trkpt><trkpt lat="42.588110016474005" lon="12.597132723870136"><ele>159.0</ele><time>2026-04-04T13:25:14.918Z</time></trkpt><trkpt lat="42.58807126636749" lon="12.597218339371771"><ele>159.0</ele><time>2026-04-04T13:25:15.918Z</time></trkpt><trkpt lat="42.58802486584631" lon="12.59729576221382"><ele>159.0</ele><time>2026-04-04T13:25:16.918Z</time></trkpt><trkpt lat="42.58797015503283" lon="12.597345266138005"><ele>159.0</ele><time>2026-04-04T13:25:17.918Z</time></trkpt><trkpt lat="42.5878955654632" lon="12.597457487942544"><ele>159.0</ele><time>2026-04-04T13:25:19.918Z</time></trkpt><trkpt lat="42.58781497526584" lon="12.597553961557205"><ele>157.6</ele><time>2026-04-04T13:25:21.918Z</time></trkpt><trkpt lat="42.58770255479867" lon="12.597645262368847"><ele>156.2</ele><time>2026-04-04T13:25:23.918Z</time></trkpt><trkpt lat="42.58763256018898" lon="12.597674304780146"><ele>154.79999999999998</ele><time>2026-04-04T13:25:24.918Z</time></trkpt><trkpt lat="42.58756365338328" lon="12.597705512009808"><ele>153.4</ele><time>2026-04-04T13:25:25.918Z</time></trkpt><trkpt lat="42.587500660075605" lon="12.597726240268123"><ele>152.0</ele><time>2026-04-04T13:25:26.918Z</time></trkpt><trkpt lat="42.58738836277497" lon="12.597753799439804"><ele>152.0</ele><time>2026-04-04T13:25:28.918Z</time></trkpt><trkpt lat="42.587297115874925" lon="12.597746395362549"><ele>152.0</ele><time>2026-04-04T13:25:30.918Z</time></trkpt><trkpt lat="42.58722206137388" lon="12.597760815394752"><ele>152.0</ele><time>2026-04-04T13:25:32.918Z</time></trkpt><trkpt lat="42.587173674407595" lon="12.598034965864965"><ele>152.0</ele><time>2026-04-04T13:25:35.918Z</time></trkpt><trkpt lat="42.58718344494071" lon="12.598135572710055"><ele>152.0</ele><time>2026-04-04T13:25:36.918Z</time></trkpt><trkpt lat="42.58715719041982" lon="12.598271596695616"><ele>152.16666666666666</ele><time>2026-04-04T13:25:38.918Z</time></trkpt><trkpt lat="42.58712795223695" lon="12.598349294793556"><ele>152.33333333333331</ele><time>2026-04-04T13:25:40.918Z</time></trkpt><trkpt lat="42.58725224575572" lon="12.598295230788604"><ele>152.5</ele><time>2026-04-04T13:25:45.918Z</time></trkpt><trkpt lat="42.5872528116276" lon="12.59820787205326"><ele>152.66666666666666</ele><time>2026-04-04T13:25:49.918Z</time></trkpt><trkpt lat="42.58719327434252" lon="12.598174976675418"><ele>152.83333333333334</ele><time>2026-04-04T13:28:55.914Z</time></trkpt><trkpt lat="42.58715569212716" lon="12.59829899949656"><ele>153.0</ele><time>2026-04-04T13:28:57.914Z</time></trkpt><trkpt lat="42.587077488590644" lon="12.598419742723209"><ele>152.0</ele><time>2026-04-04T13:28:58.914Z</time></trkpt><trkpt lat="42.58700648383689" lon="12.598488423036393"><ele>151.0</ele><time>2026-04-04T13:28:59.914Z</time></trkpt><trkpt lat="42.5869178886929" lon="12.598574887549983"><ele>150.0</ele><time>2026-04-04T13:29:00.914Z</time></trkpt><trkpt lat="42.586807814561986" lon="12.598661145855694"><ele>149.0</ele><time>2026-04-04T13:29:01.914Z</time></trkpt><trkpt lat="42.58671216128238" lon="12.598774336630543"><ele>149.0</ele><time>2026-04-04T13:29:02.914Z</time></trkpt><trkpt lat="42.58662901467833" lon="12.598913261564931"><ele>149.0</ele><time>2026-04-04T13:29:03.914Z</time></trkpt><trkpt lat="42.58655262607026" lon="12.599066081384068"><ele>149.0</ele><time>2026-04-04T13:29:04.914Z</time></trkpt><trkpt lat="42.58648176055857" lon="12.599226225230511"><ele>149.0</ele><time>2026-04-04T13:29:05.914Z</time></trkpt><trkpt lat="42.58641726262504" lon="12.599393668255363"><ele>149.75</ele><time>2026-04-04T13:29:06.914Z</time></trkpt><trkpt lat="42.58635811206769" lon="12.599562252815618"><ele>150.5</ele><time>2026-04-04T13:29:07.914Z</time></trkpt><trkpt lat="42.58630588990552" lon="12.59972664050825"><ele>151.25</ele><time>2026-04-04T13:29:08.914Z</time></trkpt><trkpt lat="42.58626224228822" lon="12.599875718398257"><ele>152.0</ele><time>2026-04-04T13:29:09.914Z</time></trkpt><trkpt lat="42.58622146903481" lon="12.600021549334684"><ele>152.0</ele><time>2026-04-04T13:29:10.913Z</time></trkpt><trkpt lat="42.58618457278746" lon="12.60015765077199"><ele>152.0</ele><time>2026-04-04T13:29:11.913Z</time></trkpt><trkpt lat="42.586151779351674" lon="12.600279363333618"><ele>152.0</ele><time>2026-04-04T13:29:12.913Z</time></trkpt><trkpt lat="42.58612436307604" lon="12.600387297317132"><ele>152.0</ele><time>2026-04-04T13:29:13.913Z</time></trkpt><trkpt lat="42.58610291588339" lon="12.600471732438244"><ele>152.0</ele><time>2026-04-04T13:29:14.913Z</time></trkpt><trkpt lat="42.58605489129051" lon="12.600570028882352"><ele>152.0</ele><time>2026-04-04T13:29:16.913Z</time></trkpt><trkpt lat="42.585945604433455" lon="12.600488730709241"><ele>151.75</ele><time>2026-04-04T13:29:18.913Z</time></trkpt><trkpt lat="42.58588770968371" lon="12.600433529785454"><ele>151.5</ele><time>2026-04-04T13:29:19.913Z</time></trkpt><trkpt lat="42.58580037431951" lon="12.600362508368699"><ele>151.25</ele><time>2026-04-04T13:29:21.913Z</time></trkpt><trkpt lat="42.58576274311161" lon="12.60068600022967"><ele>151.0</ele><time>2026-04-04T13:29:24.913Z</time></trkpt><trkpt lat="42.58580818502058" lon="12.600796347290373"><ele>151.0</ele><time>2026-04-04T13:29:25.913Z</time></trkpt><trkpt lat="42.585853862967085" lon="12.600900625620675"><ele>151.0</ele><time>2026-04-04T13:29:26.913Z</time></trkpt><trkpt lat="42.58589326355505" lon="12.600986147697913"><ele>151.0</ele><time>2026-04-04T13:29:27.913Z</time></trkpt><trkpt lat="42.58594100229352" lon="12.601050443937693"><ele>151.0</ele><time>2026-04-04T13:29:28.913Z</time></trkpt><trkpt lat="42.58600907327583" lon="12.601090243009887"><ele>151.0</ele><time>2026-04-04T13:29:29.913Z</time></trkpt><trkpt lat="42.58610456582303" lon="12.601061412445063"><ele>151.0</ele><time>2026-04-04T13:29:30.913Z</time></trkpt><trkpt lat="42.586187950984964" lon="12.600992348891225"><ele>152.5</ele><time>2026-04-04T13:29:31.913Z</time></trkpt><trkpt lat="42.586231020191214" lon="12.600862143526278"><ele>154.0</ele><time>2026-04-04T13:29:32.913Z</time></trkpt><trkpt lat="42.58631935394825" lon="12.60075998882929"><ele>155.5</ele><time>2026-04-04T13:29:34.913Z</time></trkpt><trkpt lat="42.586377569874735" lon="12.60079429162808"><ele>157.0</ele><time>2026-04-04T13:29:36.913Z</time></trkpt><trkpt lat="42.586281063689285" lon="12.601066455627413"><ele>158.0</ele><time>2026-04-04T13:29:40.913Z</time></trkpt><trkpt lat="42.586257479258634" lon="12.60120737763279"><ele>159.0</ele><time>2026-04-04T13:29:41.913Z</time></trkpt><trkpt lat="42.586231109081886" lon="12.601386452570184"><ele>160.0</ele><time>2026-04-04T13:29:42.913Z</time></trkpt><trkpt lat="42.58621905003264" lon="12.601589836298428"><ele>161.0</ele><time>2026-04-04T13:29:43.913Z</time></trkpt><trkpt lat="42.586227606880485" lon="12.601810361677531"><ele>161.0</ele><time>2026-04-04T13:29:44.913Z</time></trkpt><trkpt lat="42.586256913447386" lon="12.60204374880017"><ele>161.0</ele><time>2026-04-04T13:29:45.913Z</time></trkpt><trkpt lat="42.58623921059779" lon="12.601922436887532"><ele>161.0</ele><time>2026-04-04T13:29:46.913Z</time></trkpt><trkpt lat="42.58625889621119" lon="12.602048867448472"><ele>161.0</ele><time>2026-04-04T13:29:47.913Z</time></trkpt><trkpt lat="42.58628169064892" lon="12.602169953399349"><ele>161.4</ele><time>2026-04-04T13:29:48.913Z</time></trkpt><trkpt lat="42.58630395696254" lon="12.602266905031248"><ele>161.8</ele><time>2026-04-04T13:29:49.913Z</time></trkpt><trkpt lat="42.58633402670886" lon="12.602398655721203"><ele>162.20000000000002</ele><time>2026-04-04T13:29:51.913Z</time></trkpt><trkpt lat="42.586378140638885" lon="12.602490512313974"><ele>162.60000000000002</ele><time>2026-04-04T13:29:54.913Z</time></trkpt><trkpt lat="42.58647962261137" lon="12.602496128076805"><ele>163.0</ele><time>2026-04-04T13:29:58.913Z</time></trkpt><trkpt lat="42.586584501577214" lon="12.602575466492215"><ele>163.0</ele><time>2026-04-04T13:30:00.913Z</time></trkpt><trkpt lat="42.58664612305931" lon="12.602557099768012"><ele>163.0</ele><time>2026-04-04T13:30:02.913Z</time></trkpt><trkpt lat="42.58670848170152" lon="12.602446273919155"><ele>163.0</ele><time>2026-04-04T13:30:04.913Z</time></trkpt><trkpt lat="42.58674610230125" lon="12.60232790849766"><ele>163.0</ele><time>2026-04-04T13:30:06.913Z</time></trkpt><trkpt lat="42.586686516355776" lon="12.602401306860779"><ele>163.0</ele><time>2026-04-04T13:30:11.913Z</time></trkpt></trkseg></trk></gpx>